<?xml version="1.0" encoding="UTF-8" standalone="no" ?>
<gpx xmlns="http://www.topografix.com/GPX/1/1" xmlns:xsi="http://www.w3.org/2001/XMLSchema-instance" xsi:schemaLocation="http://www.topografix.com/GPX/1/1 http://www.topografix.com/GPX/1/1/gpx.xsd" version="1.1" creator="VisuGPX - https://www.visugpx.com">
  <metadata>
    <name>St Pierre -Massignieu de Rives </name>
    <desc><![CDATA[Arrivée chez Margot et nuit au camping ]]></desc>
  </metadata>
  <trk>
    <name><![CDATA[St Pierre -Massignieu de Rives _1]]></name>
    <trkseg>
      <trkpt lat="45.62651" lon="5.72654">
        <ele>653</ele>
        <time>2017-05-25T10:23:59Z</time>
      </trkpt>
      <trkpt lat="45.62651" lon="5.72654">
        <ele>653</ele>
        <time>2017-05-25T10:23:59Z</time>
      </trkpt>
      <trkpt lat="45.62652" lon="5.72654">
        <ele>653</ele>
        <time>2017-05-25T10:23:59Z</time>
      </trkpt>
      <trkpt lat="45.62653" lon="5.72654">
        <ele>653</ele>
        <time>2017-05-25T10:23:59Z</time>
      </trkpt>
      <trkpt lat="45.62653" lon="5.72654">
        <ele>653</ele>
        <time>2017-05-25T10:23:59Z</time>
      </trkpt>
      <trkpt lat="45.6265" lon="5.72644">
        <ele>653</ele>
        <time>2017-05-25T10:27:47Z</time>
      </trkpt>
      <trkpt lat="45.62651" lon="5.7264">
        <ele>653</ele>
        <time>2017-05-25T10:27:47Z</time>
      </trkpt>
      <trkpt lat="45.62655" lon="5.72637">
        <ele>653</ele>
        <time>2017-05-25T10:27:47Z</time>
      </trkpt>
      <trkpt lat="45.62658" lon="5.72635">
        <ele>653</ele>
        <time>2017-05-25T10:27:47Z</time>
      </trkpt>
      <trkpt lat="45.62659" lon="5.72635">
        <ele>653</ele>
        <time>2017-05-25T10:27:47Z</time>
      </trkpt>
      <trkpt lat="45.62659" lon="5.72627">
        <ele>653</ele>
        <time>2017-05-25T10:28:55Z</time>
      </trkpt>
      <trkpt lat="45.62659" lon="5.72626">
        <ele>653</ele>
        <time>2017-05-25T10:28:55Z</time>
      </trkpt>
      <trkpt lat="45.62662" lon="5.72624">
        <ele>669</ele>
        <time>2017-05-25T10:28:55Z</time>
      </trkpt>
      <trkpt lat="45.62658" lon="5.72622">
        <ele>669</ele>
        <time>2017-05-25T10:28:55Z</time>
      </trkpt>
      <trkpt lat="45.62655" lon="5.72621">
        <ele>669</ele>
        <time>2017-05-25T10:28:55Z</time>
      </trkpt>
      <trkpt lat="45.6265" lon="5.72621">
        <ele>669</ele>
        <time>2017-05-25T10:29:11Z</time>
      </trkpt>
      <trkpt lat="45.62645" lon="5.72622">
        <ele>669</ele>
        <time>2017-05-25T10:29:11Z</time>
      </trkpt>
      <trkpt lat="45.62641" lon="5.72623">
        <ele>669</ele>
        <time>2017-05-25T10:29:11Z</time>
      </trkpt>
      <trkpt lat="45.62635" lon="5.72624">
        <ele>669</ele>
        <time>2017-05-25T10:29:11Z</time>
      </trkpt>
      <trkpt lat="45.6263" lon="5.72623">
        <ele>669</ele>
        <time>2017-05-25T10:29:27Z</time>
      </trkpt>
      <trkpt lat="45.62625" lon="5.72625">
        <ele>669</ele>
        <time>2017-05-25T10:29:27Z</time>
      </trkpt>
      <trkpt lat="45.6262" lon="5.72626">
        <ele>659</ele>
        <time>2017-05-25T10:29:27Z</time>
      </trkpt>
      <trkpt lat="45.62613" lon="5.72627">
        <ele>659</ele>
        <time>2017-05-25T10:29:27Z</time>
      </trkpt>
      <trkpt lat="45.62609" lon="5.72628">
        <ele>659</ele>
        <time>2017-05-25T10:29:43Z</time>
      </trkpt>
      <trkpt lat="45.62604" lon="5.72628">
        <ele>659</ele>
        <time>2017-05-25T10:29:43Z</time>
      </trkpt>
      <trkpt lat="45.62598" lon="5.72626">
        <ele>659</ele>
        <time>2017-05-25T10:29:43Z</time>
      </trkpt>
      <trkpt lat="45.62593" lon="5.72625">
        <ele>659</ele>
        <time>2017-05-25T10:29:43Z</time>
      </trkpt>
      <trkpt lat="45.62587" lon="5.72624">
        <ele>679</ele>
        <time>2017-05-25T10:29:59Z</time>
      </trkpt>
      <trkpt lat="45.62582" lon="5.72624">
        <ele>679</ele>
        <time>2017-05-25T10:29:59Z</time>
      </trkpt>
      <trkpt lat="45.62577" lon="5.72624">
        <ele>679</ele>
        <time>2017-05-25T10:29:59Z</time>
      </trkpt>
      <trkpt lat="45.62572" lon="5.72624">
        <ele>679</ele>
        <time>2017-05-25T10:29:59Z</time>
      </trkpt>
      <trkpt lat="45.62566" lon="5.72625">
        <ele>659</ele>
        <time>2017-05-25T10:30:15Z</time>
      </trkpt>
      <trkpt lat="45.6256" lon="5.72627">
        <ele>659</ele>
        <time>2017-05-25T10:30:15Z</time>
      </trkpt>
      <trkpt lat="45.62555" lon="5.72628">
        <ele>659</ele>
        <time>2017-05-25T10:30:15Z</time>
      </trkpt>
      <trkpt lat="45.6255" lon="5.72629">
        <ele>659</ele>
        <time>2017-05-25T10:30:15Z</time>
      </trkpt>
      <trkpt lat="45.62547" lon="5.72627">
        <ele>659</ele>
        <time>2017-05-25T10:30:31Z</time>
      </trkpt>
      <trkpt lat="45.62549" lon="5.72625">
        <ele>659</ele>
        <time>2017-05-25T10:30:31Z</time>
      </trkpt>
      <trkpt lat="45.62553" lon="5.72623">
        <ele>679</ele>
        <time>2017-05-25T10:30:31Z</time>
      </trkpt>
      <trkpt lat="45.62558" lon="5.72621">
        <ele>679</ele>
        <time>2017-05-25T10:30:31Z</time>
      </trkpt>
      <trkpt lat="45.62563" lon="5.72617">
        <ele>679</ele>
        <time>2017-05-25T10:30:47Z</time>
      </trkpt>
      <trkpt lat="45.62568" lon="5.72618">
        <ele>679</ele>
        <time>2017-05-25T10:30:47Z</time>
      </trkpt>
      <trkpt lat="45.62571" lon="5.72619">
        <ele>679</ele>
        <time>2017-05-25T10:30:47Z</time>
      </trkpt>
      <trkpt lat="45.62573" lon="5.7262">
        <ele>679</ele>
        <time>2017-05-25T10:30:47Z</time>
      </trkpt>
      <trkpt lat="45.62568" lon="5.72625">
        <ele>659</ele>
        <time>2017-05-25T10:33:39Z</time>
      </trkpt>
      <trkpt lat="45.62575" lon="5.72631">
        <ele>659</ele>
        <time>2017-05-25T10:33:39Z</time>
      </trkpt>
      <trkpt lat="45.6258" lon="5.72632">
        <ele>659</ele>
        <time>2017-05-25T10:33:39Z</time>
      </trkpt>
      <trkpt lat="45.62586" lon="5.72629">
        <ele>659</ele>
        <time>2017-05-25T10:33:39Z</time>
      </trkpt>
      <trkpt lat="45.62592" lon="5.72629">
        <ele>659</ele>
        <time>2017-05-25T10:33:39Z</time>
      </trkpt>
      <trkpt lat="45.62598" lon="5.72629">
        <ele>659</ele>
        <time>2017-05-25T10:33:55Z</time>
      </trkpt>
      <trkpt lat="45.62603" lon="5.7263">
        <ele>659</ele>
        <time>2017-05-25T10:33:55Z</time>
      </trkpt>
      <trkpt lat="45.62609" lon="5.72631">
        <ele>659</ele>
        <time>2017-05-25T10:33:55Z</time>
      </trkpt>
      <trkpt lat="45.62614" lon="5.72631">
        <ele>659</ele>
        <time>2017-05-25T10:33:55Z</time>
      </trkpt>
      <trkpt lat="45.62621" lon="5.72629">
        <ele>659</ele>
        <time>2017-05-25T10:34:11Z</time>
      </trkpt>
      <trkpt lat="45.62625" lon="5.72628">
        <ele>659</ele>
        <time>2017-05-25T10:34:11Z</time>
      </trkpt>
      <trkpt lat="45.62632" lon="5.72626">
        <ele>653</ele>
        <time>2017-05-25T10:34:11Z</time>
      </trkpt>
      <trkpt lat="45.62638" lon="5.72625">
        <ele>669</ele>
        <time>2017-05-25T10:34:11Z</time>
      </trkpt>
      <trkpt lat="45.62644" lon="5.72625">
        <ele>669</ele>
        <time>2017-05-25T10:34:27Z</time>
      </trkpt>
      <trkpt lat="45.6265" lon="5.72625">
        <ele>669</ele>
        <time>2017-05-25T10:34:27Z</time>
      </trkpt>
      <trkpt lat="45.62657" lon="5.72624">
        <ele>669</ele>
        <time>2017-05-25T10:34:27Z</time>
      </trkpt>
      <trkpt lat="45.62662" lon="5.72625">
        <ele>653</ele>
        <time>2017-05-25T10:34:27Z</time>
      </trkpt>
      <trkpt lat="45.62659" lon="5.72631">
        <ele>653</ele>
        <time>2017-05-25T10:34:47Z</time>
      </trkpt>
      <trkpt lat="45.62656" lon="5.72629">
        <ele>653</ele>
        <time>2017-05-25T10:34:47Z</time>
      </trkpt>
      <trkpt lat="45.62654" lon="5.72628">
        <ele>653</ele>
        <time>2017-05-25T10:34:47Z</time>
      </trkpt>
      <trkpt lat="45.62651" lon="5.7263">
        <ele>653</ele>
        <time>2017-05-25T10:34:47Z</time>
      </trkpt>
      <trkpt lat="45.62646" lon="5.72633">
        <ele>653</ele>
        <time>2017-05-25T10:34:47Z</time>
      </trkpt>
      <trkpt lat="45.62655" lon="5.72628">
        <ele>653</ele>
        <time>2017-05-25T10:37:15Z</time>
      </trkpt>
      <trkpt lat="45.62655" lon="5.72629">
        <ele>653</ele>
        <time>2017-05-25T10:37:15Z</time>
      </trkpt>
      <trkpt lat="45.62655" lon="5.72628">
        <ele>653</ele>
        <time>2017-05-25T10:37:15Z</time>
      </trkpt>
      <trkpt lat="45.62655" lon="5.72628">
        <ele>653</ele>
        <time>2017-05-25T10:37:15Z</time>
      </trkpt>
      <trkpt lat="45.62655" lon="5.72628">
        <ele>653</ele>
        <time>2017-05-25T10:37:15Z</time>
      </trkpt>
      <trkpt lat="45.62654" lon="5.72627">
        <ele>653</ele>
        <time>2017-05-25T10:37:39Z</time>
      </trkpt>
      <trkpt lat="45.62655" lon="5.72626">
        <ele>653</ele>
        <time>2017-05-25T10:37:39Z</time>
      </trkpt>
      <trkpt lat="45.62655" lon="5.72623">
        <ele>669</ele>
        <time>2017-05-25T10:37:39Z</time>
      </trkpt>
      <trkpt lat="45.6265" lon="5.72622">
        <ele>669</ele>
        <time>2017-05-25T10:37:39Z</time>
      </trkpt>
      <trkpt lat="45.62644" lon="5.72622">
        <ele>669</ele>
        <time>2017-05-25T10:37:39Z</time>
      </trkpt>
      <trkpt lat="45.62639" lon="5.72624">
        <ele>669</ele>
        <time>2017-05-25T10:37:55Z</time>
      </trkpt>
      <trkpt lat="45.62633" lon="5.72624">
        <ele>669</ele>
        <time>2017-05-25T10:37:55Z</time>
      </trkpt>
      <trkpt lat="45.62627" lon="5.72625">
        <ele>669</ele>
        <time>2017-05-25T10:37:55Z</time>
      </trkpt>
      <trkpt lat="45.62621" lon="5.72625">
        <ele>679</ele>
        <time>2017-05-25T10:37:55Z</time>
      </trkpt>
      <trkpt lat="45.62616" lon="5.72625">
        <ele>659</ele>
        <time>2017-05-25T10:38:11Z</time>
      </trkpt>
      <trkpt lat="45.62611" lon="5.72626">
        <ele>659</ele>
        <time>2017-05-25T10:38:11Z</time>
      </trkpt>
      <trkpt lat="45.62605" lon="5.72626">
        <ele>659</ele>
        <time>2017-05-25T10:38:11Z</time>
      </trkpt>
      <trkpt lat="45.62599" lon="5.72625">
        <ele>659</ele>
        <time>2017-05-25T10:38:11Z</time>
      </trkpt>
      <trkpt lat="45.62594" lon="5.72625">
        <ele>679</ele>
        <time>2017-05-25T10:38:27Z</time>
      </trkpt>
      <trkpt lat="45.62589" lon="5.72624">
        <ele>679</ele>
        <time>2017-05-25T10:38:27Z</time>
      </trkpt>
      <trkpt lat="45.62582" lon="5.72626">
        <ele>659</ele>
        <time>2017-05-25T10:38:27Z</time>
      </trkpt>
      <trkpt lat="45.62577" lon="5.72628">
        <ele>659</ele>
        <time>2017-05-25T10:38:27Z</time>
      </trkpt>
      <trkpt lat="45.62572" lon="5.7263">
        <ele>659</ele>
        <time>2017-05-25T10:38:43Z</time>
      </trkpt>
      <trkpt lat="45.62568" lon="5.72628">
        <ele>659</ele>
        <time>2017-05-25T10:38:43Z</time>
      </trkpt>
      <trkpt lat="45.62565" lon="5.72625">
        <ele>679</ele>
        <time>2017-05-25T10:38:43Z</time>
      </trkpt>
      <trkpt lat="45.62563" lon="5.72621">
        <ele>679</ele>
        <time>2017-05-25T10:38:43Z</time>
      </trkpt>
      <trkpt lat="45.62564" lon="5.72619">
        <ele>679</ele>
        <time>2017-05-25T10:39:07Z</time>
      </trkpt>
      <trkpt lat="45.62567" lon="5.72618">
        <ele>679</ele>
        <time>2017-05-25T10:39:07Z</time>
      </trkpt>
      <trkpt lat="45.62569" lon="5.72615">
        <ele>679</ele>
        <time>2017-05-25T10:39:07Z</time>
      </trkpt>
      <trkpt lat="45.6257" lon="5.72613">
        <ele>679</ele>
        <time>2017-05-25T10:39:07Z</time>
      </trkpt>
      <trkpt lat="45.62574" lon="5.72611">
        <ele>679</ele>
        <time>2017-05-25T10:39:07Z</time>
      </trkpt>
      <trkpt lat="45.6258" lon="5.72611">
        <ele>679</ele>
        <time>2017-05-25T10:41:39Z</time>
      </trkpt>
      <trkpt lat="45.62582" lon="5.72609">
        <ele>679</ele>
        <time>2017-05-25T10:41:39Z</time>
      </trkpt>
      <trkpt lat="45.62583" lon="5.72607">
        <ele>679</ele>
        <time>2017-05-25T10:41:39Z</time>
      </trkpt>
      <trkpt lat="45.62584" lon="5.72607">
        <ele>679</ele>
        <time>2017-05-25T10:41:39Z</time>
      </trkpt>
      <trkpt lat="45.62584" lon="5.72607">
        <ele>679</ele>
        <time>2017-05-25T10:41:39Z</time>
      </trkpt>
      <trkpt lat="45.62584" lon="5.72606">
        <ele>679</ele>
        <time>2017-05-25T10:43:35Z</time>
      </trkpt>
      <trkpt lat="45.62587" lon="5.72603">
        <ele>679</ele>
        <time>2017-05-25T10:43:35Z</time>
      </trkpt>
      <trkpt lat="45.6259" lon="5.72602">
        <ele>679</ele>
        <time>2017-05-25T10:43:35Z</time>
      </trkpt>
      <trkpt lat="45.62593" lon="5.726">
        <ele>679</ele>
        <time>2017-05-25T10:43:35Z</time>
      </trkpt>
      <trkpt lat="45.62595" lon="5.72597">
        <ele>679</ele>
        <time>2017-05-25T10:43:35Z</time>
      </trkpt>
      <trkpt lat="45.62598" lon="5.72593">
        <ele>679</ele>
        <time>2017-05-25T10:43:51Z</time>
      </trkpt>
      <trkpt lat="45.62601" lon="5.72589">
        <ele>679</ele>
        <time>2017-05-25T10:43:51Z</time>
      </trkpt>
      <trkpt lat="45.62605" lon="5.72587">
        <ele>679</ele>
        <time>2017-05-25T10:43:51Z</time>
      </trkpt>
      <trkpt lat="45.62607" lon="5.72582">
        <ele>679</ele>
        <time>2017-05-25T10:43:51Z</time>
      </trkpt>
      <trkpt lat="45.62613" lon="5.72576">
        <ele>679</ele>
        <time>2017-05-25T10:44:07Z</time>
      </trkpt>
      <trkpt lat="45.6262" lon="5.72572">
        <ele>679</ele>
        <time>2017-05-25T10:44:07Z</time>
      </trkpt>
      <trkpt lat="45.62627" lon="5.72566">
        <ele>669</ele>
        <time>2017-05-25T10:44:07Z</time>
      </trkpt>
      <trkpt lat="45.62631" lon="5.72562">
        <ele>669</ele>
        <time>2017-05-25T10:44:07Z</time>
      </trkpt>
      <trkpt lat="45.62636" lon="5.72556">
        <ele>669</ele>
        <time>2017-05-25T10:44:23Z</time>
      </trkpt>
      <trkpt lat="45.62641" lon="5.72552">
        <ele>669</ele>
        <time>2017-05-25T10:44:23Z</time>
      </trkpt>
      <trkpt lat="45.62647" lon="5.72548">
        <ele>669</ele>
        <time>2017-05-25T10:44:23Z</time>
      </trkpt>
      <trkpt lat="45.62653" lon="5.72546">
        <ele>669</ele>
        <time>2017-05-25T10:44:23Z</time>
      </trkpt>
      <trkpt lat="45.62659" lon="5.72541">
        <ele>686</ele>
        <time>2017-05-25T10:44:39Z</time>
      </trkpt>
      <trkpt lat="45.62667" lon="5.72537">
        <ele>686</ele>
        <time>2017-05-25T10:44:39Z</time>
      </trkpt>
      <trkpt lat="45.62671" lon="5.72532">
        <ele>686</ele>
        <time>2017-05-25T10:44:39Z</time>
      </trkpt>
      <trkpt lat="45.62674" lon="5.72529">
        <ele>686</ele>
        <time>2017-05-25T10:44:39Z</time>
      </trkpt>
      <trkpt lat="45.6268" lon="5.72525">
        <ele>686</ele>
        <time>2017-05-25T10:44:55Z</time>
      </trkpt>
      <trkpt lat="45.62683" lon="5.72522">
        <ele>686</ele>
        <time>2017-05-25T10:44:55Z</time>
      </trkpt>
      <trkpt lat="45.62687" lon="5.72518">
        <ele>686</ele>
        <time>2017-05-25T10:44:55Z</time>
      </trkpt>
      <trkpt lat="45.6269" lon="5.72512">
        <ele>686</ele>
        <time>2017-05-25T10:44:55Z</time>
      </trkpt>
      <trkpt lat="45.62695" lon="5.72506">
        <ele>686</ele>
        <time>2017-05-25T10:45:11Z</time>
      </trkpt>
      <trkpt lat="45.627" lon="5.725">
        <ele>686</ele>
        <time>2017-05-25T10:45:11Z</time>
      </trkpt>
      <trkpt lat="45.62704" lon="5.72496">
        <ele>686</ele>
        <time>2017-05-25T10:45:11Z</time>
      </trkpt>
      <trkpt lat="45.62711" lon="5.72495">
        <ele>675</ele>
        <time>2017-05-25T10:45:11Z</time>
      </trkpt>
      <trkpt lat="45.62714" lon="5.72493">
        <ele>675</ele>
        <time>2017-05-25T10:45:27Z</time>
      </trkpt>
      <trkpt lat="45.62718" lon="5.7249">
        <ele>675</ele>
        <time>2017-05-25T10:45:27Z</time>
      </trkpt>
      <trkpt lat="45.62723" lon="5.72484">
        <ele>675</ele>
        <time>2017-05-25T10:45:27Z</time>
      </trkpt>
      <trkpt lat="45.62727" lon="5.72479">
        <ele>675</ele>
        <time>2017-05-25T10:45:27Z</time>
      </trkpt>
      <trkpt lat="45.6273" lon="5.7247">
        <ele>675</ele>
        <time>2017-05-25T10:45:43Z</time>
      </trkpt>
      <trkpt lat="45.62734" lon="5.72462">
        <ele>675</ele>
        <time>2017-05-25T10:45:43Z</time>
      </trkpt>
      <trkpt lat="45.62736" lon="5.72459">
        <ele>675</ele>
        <time>2017-05-25T10:45:43Z</time>
      </trkpt>
      <trkpt lat="45.62744" lon="5.72456">
        <ele>689</ele>
        <time>2017-05-25T10:45:43Z</time>
      </trkpt>
      <trkpt lat="45.62754" lon="5.72449">
        <ele>689</ele>
        <time>2017-05-25T10:45:59Z</time>
      </trkpt>
      <trkpt lat="45.62762" lon="5.72445">
        <ele>689</ele>
        <time>2017-05-25T10:45:59Z</time>
      </trkpt>
      <trkpt lat="45.6277" lon="5.72441">
        <ele>689</ele>
        <time>2017-05-25T10:45:59Z</time>
      </trkpt>
      <trkpt lat="45.62778" lon="5.7244">
        <ele>689</ele>
        <time>2017-05-25T10:45:59Z</time>
      </trkpt>
      <trkpt lat="45.62786" lon="5.72439">
        <ele>689</ele>
        <time>2017-05-25T10:46:15Z</time>
      </trkpt>
      <trkpt lat="45.62796" lon="5.72437">
        <ele>677</ele>
        <time>2017-05-25T10:46:15Z</time>
      </trkpt>
      <trkpt lat="45.62804" lon="5.72434">
        <ele>677</ele>
        <time>2017-05-25T10:46:15Z</time>
      </trkpt>
      <trkpt lat="45.62812" lon="5.72431">
        <ele>677</ele>
        <time>2017-05-25T10:46:15Z</time>
      </trkpt>
      <trkpt lat="45.62817" lon="5.72427">
        <ele>677</ele>
        <time>2017-05-25T10:46:31Z</time>
      </trkpt>
      <trkpt lat="45.62822" lon="5.72423">
        <ele>677</ele>
        <time>2017-05-25T10:46:31Z</time>
      </trkpt>
      <trkpt lat="45.62826" lon="5.72418">
        <ele>677</ele>
        <time>2017-05-25T10:46:31Z</time>
      </trkpt>
      <trkpt lat="45.62833" lon="5.72411">
        <ele>677</ele>
        <time>2017-05-25T10:46:31Z</time>
      </trkpt>
      <trkpt lat="45.62839" lon="5.7241">
        <ele>677</ele>
        <time>2017-05-25T10:46:47Z</time>
      </trkpt>
      <trkpt lat="45.62841" lon="5.72408">
        <ele>677</ele>
        <time>2017-05-25T10:46:47Z</time>
      </trkpt>
      <trkpt lat="45.62844" lon="5.72403">
        <ele>677</ele>
        <time>2017-05-25T10:46:47Z</time>
      </trkpt>
      <trkpt lat="45.62847" lon="5.72396">
        <ele>677</ele>
        <time>2017-05-25T10:46:47Z</time>
      </trkpt>
      <trkpt lat="45.62851" lon="5.72392">
        <ele>677</ele>
        <time>2017-05-25T10:47:03Z</time>
      </trkpt>
      <trkpt lat="45.62857" lon="5.72382">
        <ele>677</ele>
        <time>2017-05-25T10:47:03Z</time>
      </trkpt>
      <trkpt lat="45.62862" lon="5.72376">
        <ele>677</ele>
        <time>2017-05-25T10:47:03Z</time>
      </trkpt>
      <trkpt lat="45.62868" lon="5.72371">
        <ele>691</ele>
        <time>2017-05-25T10:47:03Z</time>
      </trkpt>
      <trkpt lat="45.62872" lon="5.72366">
        <ele>691</ele>
        <time>2017-05-25T10:47:19Z</time>
      </trkpt>
      <trkpt lat="45.62873" lon="5.72363">
        <ele>691</ele>
        <time>2017-05-25T10:47:19Z</time>
      </trkpt>
      <trkpt lat="45.62876" lon="5.72358">
        <ele>680</ele>
        <time>2017-05-25T10:47:19Z</time>
      </trkpt>
      <trkpt lat="45.62884" lon="5.72354">
        <ele>680</ele>
        <time>2017-05-25T10:47:19Z</time>
      </trkpt>
      <trkpt lat="45.62889" lon="5.7235">
        <ele>680</ele>
        <time>2017-05-25T10:47:35Z</time>
      </trkpt>
      <trkpt lat="45.62891" lon="5.72348">
        <ele>680</ele>
        <time>2017-05-25T10:47:35Z</time>
      </trkpt>
      <trkpt lat="45.62895" lon="5.72344">
        <ele>680</ele>
        <time>2017-05-25T10:47:35Z</time>
      </trkpt>
      <trkpt lat="45.62901" lon="5.72342">
        <ele>680</ele>
        <time>2017-05-25T10:47:35Z</time>
      </trkpt>
      <trkpt lat="45.62907" lon="5.72339">
        <ele>680</ele>
        <time>2017-05-25T10:47:51Z</time>
      </trkpt>
      <trkpt lat="45.62913" lon="5.72337">
        <ele>680</ele>
        <time>2017-05-25T10:47:51Z</time>
      </trkpt>
      <trkpt lat="45.6292" lon="5.72338">
        <ele>680</ele>
        <time>2017-05-25T10:47:51Z</time>
      </trkpt>
      <trkpt lat="45.62924" lon="5.72339">
        <ele>680</ele>
        <time>2017-05-25T10:47:51Z</time>
      </trkpt>
      <trkpt lat="45.62928" lon="5.72336">
        <ele>680</ele>
        <time>2017-05-25T10:48:07Z</time>
      </trkpt>
      <trkpt lat="45.62931" lon="5.72335">
        <ele>680</ele>
        <time>2017-05-25T10:48:07Z</time>
      </trkpt>
      <trkpt lat="45.62937" lon="5.72336">
        <ele>680</ele>
        <time>2017-05-25T10:48:07Z</time>
      </trkpt>
      <trkpt lat="45.62942" lon="5.72338">
        <ele>680</ele>
        <time>2017-05-25T10:48:07Z</time>
      </trkpt>
      <trkpt lat="45.62947" lon="5.72338">
        <ele>680</ele>
        <time>2017-05-25T10:48:23Z</time>
      </trkpt>
      <trkpt lat="45.62951" lon="5.72338">
        <ele>680</ele>
        <time>2017-05-25T10:48:23Z</time>
      </trkpt>
      <trkpt lat="45.62954" lon="5.7234">
        <ele>680</ele>
        <time>2017-05-25T10:48:23Z</time>
      </trkpt>
      <trkpt lat="45.62956" lon="5.72341">
        <ele>680</ele>
        <time>2017-05-25T10:48:23Z</time>
      </trkpt>
      <trkpt lat="45.62964" lon="5.72337">
        <ele>671</ele>
        <time>2017-05-25T10:48:39Z</time>
      </trkpt>
      <trkpt lat="45.6297" lon="5.72334">
        <ele>671</ele>
        <time>2017-05-25T10:48:39Z</time>
      </trkpt>
      <trkpt lat="45.62974" lon="5.72334">
        <ele>671</ele>
        <time>2017-05-25T10:48:39Z</time>
      </trkpt>
      <trkpt lat="45.62978" lon="5.72333">
        <ele>671</ele>
        <time>2017-05-25T10:48:39Z</time>
      </trkpt>
      <trkpt lat="45.62984" lon="5.7233">
        <ele>671</ele>
        <time>2017-05-25T10:48:55Z</time>
      </trkpt>
      <trkpt lat="45.62991" lon="5.72329">
        <ele>671</ele>
        <time>2017-05-25T10:48:55Z</time>
      </trkpt>
      <trkpt lat="45.62998" lon="5.72327">
        <ele>671</ele>
        <time>2017-05-25T10:48:55Z</time>
      </trkpt>
      <trkpt lat="45.63002" lon="5.72321">
        <ele>671</ele>
        <time>2017-05-25T10:48:55Z</time>
      </trkpt>
      <trkpt lat="45.63016" lon="5.7232">
        <ele>671</ele>
        <time>2017-05-25T10:49:43Z</time>
      </trkpt>
      <trkpt lat="45.63016" lon="5.7232">
        <ele>671</ele>
        <time>2017-05-25T10:49:43Z</time>
      </trkpt>
      <trkpt lat="45.63017" lon="5.7232">
        <ele>671</ele>
        <time>2017-05-25T10:49:43Z</time>
      </trkpt>
      <trkpt lat="45.63017" lon="5.7232">
        <ele>671</ele>
        <time>2017-05-25T10:49:43Z</time>
      </trkpt>
      <trkpt lat="45.63019" lon="5.72317">
        <ele>671</ele>
        <time>2017-05-25T10:49:43Z</time>
      </trkpt>
      <trkpt lat="45.63024" lon="5.72318">
        <ele>671</ele>
        <time>2017-05-25T10:50:23Z</time>
      </trkpt>
      <trkpt lat="45.63022" lon="5.7232">
        <ele>671</ele>
        <time>2017-05-25T10:50:23Z</time>
      </trkpt>
      <trkpt lat="45.63018" lon="5.72323">
        <ele>671</ele>
        <time>2017-05-25T10:50:23Z</time>
      </trkpt>
      <trkpt lat="45.63011" lon="5.72331">
        <ele>671</ele>
        <time>2017-05-25T10:50:23Z</time>
      </trkpt>
      <trkpt lat="45.63005" lon="5.72336">
        <ele>671</ele>
        <time>2017-05-25T10:50:23Z</time>
      </trkpt>
      <trkpt lat="45.62997" lon="5.72339">
        <ele>671</ele>
        <time>2017-05-25T10:50:39Z</time>
      </trkpt>
      <trkpt lat="45.62986" lon="5.72344">
        <ele>671</ele>
        <time>2017-05-25T10:50:39Z</time>
      </trkpt>
      <trkpt lat="45.62972" lon="5.72343">
        <ele>671</ele>
        <time>2017-05-25T10:50:39Z</time>
      </trkpt>
      <trkpt lat="45.62959" lon="5.72339">
        <ele>671</ele>
        <time>2017-05-25T10:50:39Z</time>
      </trkpt>
      <trkpt lat="45.62946" lon="5.72337">
        <ele>680</ele>
        <time>2017-05-25T10:50:55Z</time>
      </trkpt>
      <trkpt lat="45.62934" lon="5.72337">
        <ele>680</ele>
        <time>2017-05-25T10:50:55Z</time>
      </trkpt>
      <trkpt lat="45.62924" lon="5.72335">
        <ele>680</ele>
        <time>2017-05-25T10:50:55Z</time>
      </trkpt>
      <trkpt lat="45.62912" lon="5.72337">
        <ele>680</ele>
        <time>2017-05-25T10:50:55Z</time>
      </trkpt>
      <trkpt lat="45.62903" lon="5.72338">
        <ele>680</ele>
        <time>2017-05-25T10:51:11Z</time>
      </trkpt>
      <trkpt lat="45.62893" lon="5.72345">
        <ele>680</ele>
        <time>2017-05-25T10:51:11Z</time>
      </trkpt>
      <trkpt lat="45.62882" lon="5.72351">
        <ele>680</ele>
        <time>2017-05-25T10:51:11Z</time>
      </trkpt>
      <trkpt lat="45.62873" lon="5.72355">
        <ele>691</ele>
        <time>2017-05-25T10:51:11Z</time>
      </trkpt>
      <trkpt lat="45.62869" lon="5.72367">
        <ele>691</ele>
        <time>2017-05-25T10:51:27Z</time>
      </trkpt>
      <trkpt lat="45.62861" lon="5.72382">
        <ele>677</ele>
        <time>2017-05-25T10:51:27Z</time>
      </trkpt>
      <trkpt lat="45.62851" lon="5.72399">
        <ele>677</ele>
        <time>2017-05-25T10:51:27Z</time>
      </trkpt>
      <trkpt lat="45.62844" lon="5.7241">
        <ele>677</ele>
        <time>2017-05-25T10:51:27Z</time>
      </trkpt>
      <trkpt lat="45.62837" lon="5.72417">
        <ele>677</ele>
        <time>2017-05-25T10:51:43Z</time>
      </trkpt>
      <trkpt lat="45.62831" lon="5.72423">
        <ele>677</ele>
        <time>2017-05-25T10:51:43Z</time>
      </trkpt>
      <trkpt lat="45.62827" lon="5.72425">
        <ele>677</ele>
        <time>2017-05-25T10:51:43Z</time>
      </trkpt>
      <trkpt lat="45.62824" lon="5.72429">
        <ele>677</ele>
        <time>2017-05-25T10:51:43Z</time>
      </trkpt>
      <trkpt lat="45.62818" lon="5.72433">
        <ele>677</ele>
        <time>2017-05-25T10:51:59Z</time>
      </trkpt>
      <trkpt lat="45.62812" lon="5.72439">
        <ele>677</ele>
        <time>2017-05-25T10:51:59Z</time>
      </trkpt>
      <trkpt lat="45.62807" lon="5.72442">
        <ele>677</ele>
        <time>2017-05-25T10:51:59Z</time>
      </trkpt>
      <trkpt lat="45.62801" lon="5.72442">
        <ele>677</ele>
        <time>2017-05-25T10:51:59Z</time>
      </trkpt>
      <trkpt lat="45.62795" lon="5.72444">
        <ele>677</ele>
        <time>2017-05-25T10:52:15Z</time>
      </trkpt>
      <trkpt lat="45.62787" lon="5.72447">
        <ele>689</ele>
        <time>2017-05-25T10:52:15Z</time>
      </trkpt>
      <trkpt lat="45.62772" lon="5.72452">
        <ele>689</ele>
        <time>2017-05-25T10:52:15Z</time>
      </trkpt>
      <trkpt lat="45.62757" lon="5.72463">
        <ele>675</ele>
        <time>2017-05-25T10:52:15Z</time>
      </trkpt>
      <trkpt lat="45.62746" lon="5.72469">
        <ele>675</ele>
        <time>2017-05-25T10:52:31Z</time>
      </trkpt>
      <trkpt lat="45.62741" lon="5.72472">
        <ele>675</ele>
        <time>2017-05-25T10:52:31Z</time>
      </trkpt>
      <trkpt lat="45.62733" lon="5.72476">
        <ele>675</ele>
        <time>2017-05-25T10:52:31Z</time>
      </trkpt>
      <trkpt lat="45.62726" lon="5.7248">
        <ele>675</ele>
        <time>2017-05-25T10:52:31Z</time>
      </trkpt>
      <trkpt lat="45.62722" lon="5.72482">
        <ele>675</ele>
        <time>2017-05-25T10:52:47Z</time>
      </trkpt>
      <trkpt lat="45.62718" lon="5.72484">
        <ele>675</ele>
        <time>2017-05-25T10:52:47Z</time>
      </trkpt>
      <trkpt lat="45.62709" lon="5.72489">
        <ele>675</ele>
        <time>2017-05-25T10:52:47Z</time>
      </trkpt>
      <trkpt lat="45.62705" lon="5.72492">
        <ele>686</ele>
        <time>2017-05-25T10:52:47Z</time>
      </trkpt>
      <trkpt lat="45.62698" lon="5.72498">
        <ele>686</ele>
        <time>2017-05-25T10:53:03Z</time>
      </trkpt>
      <trkpt lat="45.62694" lon="5.72505">
        <ele>686</ele>
        <time>2017-05-25T10:53:03Z</time>
      </trkpt>
      <trkpt lat="45.62689" lon="5.72509">
        <ele>686</ele>
        <time>2017-05-25T10:53:03Z</time>
      </trkpt>
      <trkpt lat="45.62687" lon="5.72511">
        <ele>686</ele>
        <time>2017-05-25T10:53:03Z</time>
      </trkpt>
      <trkpt lat="45.62685" lon="5.72513">
        <ele>686</ele>
        <time>2017-05-25T10:53:19Z</time>
      </trkpt>
      <trkpt lat="45.62681" lon="5.72517">
        <ele>686</ele>
        <time>2017-05-25T10:53:19Z</time>
      </trkpt>
      <trkpt lat="45.62678" lon="5.7252">
        <ele>686</ele>
        <time>2017-05-25T10:53:19Z</time>
      </trkpt>
      <trkpt lat="45.62671" lon="5.72525">
        <ele>686</ele>
        <time>2017-05-25T10:53:19Z</time>
      </trkpt>
      <trkpt lat="45.62666" lon="5.72528">
        <ele>686</ele>
        <time>2017-05-25T10:53:35Z</time>
      </trkpt>
      <trkpt lat="45.62665" lon="5.72529">
        <ele>686</ele>
        <time>2017-05-25T10:53:35Z</time>
      </trkpt>
      <trkpt lat="45.62664" lon="5.72533">
        <ele>686</ele>
        <time>2017-05-25T10:53:35Z</time>
      </trkpt>
      <trkpt lat="45.62661" lon="5.7254">
        <ele>686</ele>
        <time>2017-05-25T10:53:35Z</time>
      </trkpt>
      <trkpt lat="45.62655" lon="5.72546">
        <ele>669</ele>
        <time>2017-05-25T10:53:51Z</time>
      </trkpt>
      <trkpt lat="45.62649" lon="5.72552">
        <ele>669</ele>
        <time>2017-05-25T10:53:51Z</time>
      </trkpt>
      <trkpt lat="45.62643" lon="5.72556">
        <ele>669</ele>
        <time>2017-05-25T10:53:51Z</time>
      </trkpt>
      <trkpt lat="45.62638" lon="5.72561">
        <ele>669</ele>
        <time>2017-05-25T10:53:51Z</time>
      </trkpt>
      <trkpt lat="45.62633" lon="5.72566">
        <ele>669</ele>
        <time>2017-05-25T10:54:07Z</time>
      </trkpt>
      <trkpt lat="45.62625" lon="5.72571">
        <ele>669</ele>
        <time>2017-05-25T10:54:07Z</time>
      </trkpt>
      <trkpt lat="45.62619" lon="5.72576">
        <ele>679</ele>
        <time>2017-05-25T10:54:07Z</time>
      </trkpt>
      <trkpt lat="45.62614" lon="5.72581">
        <ele>679</ele>
        <time>2017-05-25T10:54:07Z</time>
      </trkpt>
      <trkpt lat="45.62609" lon="5.72585">
        <ele>679</ele>
        <time>2017-05-25T10:54:23Z</time>
      </trkpt>
      <trkpt lat="45.62603" lon="5.72587">
        <ele>679</ele>
        <time>2017-05-25T10:54:23Z</time>
      </trkpt>
      <trkpt lat="45.62598" lon="5.72589">
        <ele>679</ele>
        <time>2017-05-25T10:54:23Z</time>
      </trkpt>
      <trkpt lat="45.62596" lon="5.7259">
        <ele>679</ele>
        <time>2017-05-25T10:54:23Z</time>
      </trkpt>
      <trkpt lat="45.62591" lon="5.72595">
        <ele>679</ele>
        <time>2017-05-25T10:54:39Z</time>
      </trkpt>
      <trkpt lat="45.62585" lon="5.72599">
        <ele>679</ele>
        <time>2017-05-25T10:54:39Z</time>
      </trkpt>
      <trkpt lat="45.6258" lon="5.72603">
        <ele>679</ele>
        <time>2017-05-25T10:54:39Z</time>
      </trkpt>
      <trkpt lat="45.62574" lon="5.72606">
        <ele>679</ele>
        <time>2017-05-25T10:54:39Z</time>
      </trkpt>
      <trkpt lat="45.62568" lon="5.72611">
        <ele>679</ele>
        <time>2017-05-25T10:54:55Z</time>
      </trkpt>
      <trkpt lat="45.62567" lon="5.72617">
        <ele>679</ele>
        <time>2017-05-25T10:54:55Z</time>
      </trkpt>
      <trkpt lat="45.62571" lon="5.72621">
        <ele>679</ele>
        <time>2017-05-25T10:54:55Z</time>
      </trkpt>
      <trkpt lat="45.62576" lon="5.72624">
        <ele>679</ele>
        <time>2017-05-25T10:54:55Z</time>
      </trkpt>
      <trkpt lat="45.62581" lon="5.72625">
        <ele>659</ele>
        <time>2017-05-25T10:55:11Z</time>
      </trkpt>
      <trkpt lat="45.62586" lon="5.72627">
        <ele>659</ele>
        <time>2017-05-25T10:55:11Z</time>
      </trkpt>
      <trkpt lat="45.62591" lon="5.72627">
        <ele>659</ele>
        <time>2017-05-25T10:55:11Z</time>
      </trkpt>
      <trkpt lat="45.62597" lon="5.72627">
        <ele>659</ele>
        <time>2017-05-25T10:55:11Z</time>
      </trkpt>
      <trkpt lat="45.62602" lon="5.72627">
        <ele>659</ele>
        <time>2017-05-25T10:55:27Z</time>
      </trkpt>
      <trkpt lat="45.62608" lon="5.72628">
        <ele>659</ele>
        <time>2017-05-25T10:55:27Z</time>
      </trkpt>
      <trkpt lat="45.62614" lon="5.72627">
        <ele>659</ele>
        <time>2017-05-25T10:55:27Z</time>
      </trkpt>
      <trkpt lat="45.6262" lon="5.72627">
        <ele>659</ele>
        <time>2017-05-25T10:55:27Z</time>
      </trkpt>
      <trkpt lat="45.62626" lon="5.72626">
        <ele>653</ele>
        <time>2017-05-25T10:55:43Z</time>
      </trkpt>
      <trkpt lat="45.62632" lon="5.72626">
        <ele>653</ele>
        <time>2017-05-25T10:55:43Z</time>
      </trkpt>
      <trkpt lat="45.62638" lon="5.72624">
        <ele>669</ele>
        <time>2017-05-25T10:55:43Z</time>
      </trkpt>
      <trkpt lat="45.62643" lon="5.72622">
        <ele>669</ele>
        <time>2017-05-25T10:55:43Z</time>
      </trkpt>
      <trkpt lat="45.62647" lon="5.72622">
        <ele>669</ele>
        <time>2017-05-25T10:55:59Z</time>
      </trkpt>
      <trkpt lat="45.62649" lon="5.72621">
        <ele>669</ele>
        <time>2017-05-25T10:55:59Z</time>
      </trkpt>
      <trkpt lat="45.62654" lon="5.72621">
        <ele>669</ele>
        <time>2017-05-25T10:55:59Z</time>
      </trkpt>
      <trkpt lat="45.62655" lon="5.72627">
        <ele>653</ele>
        <time>2017-05-25T10:55:59Z</time>
      </trkpt>
      <trkpt lat="45.62654" lon="5.72625">
        <ele>653</ele>
        <time>2017-05-25T10:56:15Z</time>
      </trkpt>
      <trkpt lat="45.62652" lon="5.72624">
        <ele>669</ele>
        <time>2017-05-25T10:56:15Z</time>
      </trkpt>
      <trkpt lat="45.62649" lon="5.72627">
        <ele>653</ele>
        <time>2017-05-25T10:56:15Z</time>
      </trkpt>
      <trkpt lat="45.62645" lon="5.7263">
        <ele>653</ele>
        <time>2017-05-25T10:56:15Z</time>
      </trkpt>
      <trkpt lat="45.62643" lon="5.72631">
        <ele>653</ele>
        <time>2017-05-25T10:56:31Z</time>
      </trkpt>
      <trkpt lat="45.62637" lon="5.72638">
        <ele>653</ele>
        <time>2017-05-25T10:56:31Z</time>
      </trkpt>
      <trkpt lat="45.62635" lon="5.72641">
        <ele>653</ele>
        <time>2017-05-25T10:56:31Z</time>
      </trkpt>
      <trkpt lat="45.62634" lon="5.72642">
        <ele>653</ele>
        <time>2017-05-25T10:56:31Z</time>
      </trkpt>
      <trkpt lat="45.62632" lon="5.72646">
        <ele>653</ele>
        <time>2017-05-25T10:58:55Z</time>
      </trkpt>
      <trkpt lat="45.62638" lon="5.72642">
        <ele>653</ele>
        <time>2017-05-25T10:58:55Z</time>
      </trkpt>
      <trkpt lat="45.62645" lon="5.72637">
        <ele>653</ele>
        <time>2017-05-25T10:58:55Z</time>
      </trkpt>
      <trkpt lat="45.62652" lon="5.72636">
        <ele>653</ele>
        <time>2017-05-25T10:58:55Z</time>
      </trkpt>
      <trkpt lat="45.62656" lon="5.72632">
        <ele>653</ele>
        <time>2017-05-25T10:58:55Z</time>
      </trkpt>
      <trkpt lat="45.62654" lon="5.72623">
        <ele>669</ele>
        <time>2017-05-25T10:59:59Z</time>
      </trkpt>
      <trkpt lat="45.62655" lon="5.72622">
        <ele>669</ele>
        <time>2017-05-25T10:59:59Z</time>
      </trkpt>
      <trkpt lat="45.6265" lon="5.72616">
        <ele>669</ele>
        <time>2017-05-25T10:59:59Z</time>
      </trkpt>
      <trkpt lat="45.6264" lon="5.72617">
        <ele>669</ele>
        <time>2017-05-25T10:59:59Z</time>
      </trkpt>
      <trkpt lat="45.6263" lon="5.72618">
        <ele>669</ele>
        <time>2017-05-25T10:59:59Z</time>
      </trkpt>
      <trkpt lat="45.6261" lon="5.72621">
        <ele>679</ele>
        <time>2017-05-25T11:00:15Z</time>
      </trkpt>
      <trkpt lat="45.62595" lon="5.72623">
        <ele>679</ele>
        <time>2017-05-25T11:00:15Z</time>
      </trkpt>
      <trkpt lat="45.6258" lon="5.72623">
        <ele>679</ele>
        <time>2017-05-25T11:00:15Z</time>
      </trkpt>
      <trkpt lat="45.62569" lon="5.72622">
        <ele>679</ele>
        <time>2017-05-25T11:00:15Z</time>
      </trkpt>
      <trkpt lat="45.62567" lon="5.72621">
        <ele>679</ele>
        <time>2017-05-25T11:00:31Z</time>
      </trkpt>
      <trkpt lat="45.62569" lon="5.72612">
        <ele>679</ele>
        <time>2017-05-25T11:00:31Z</time>
      </trkpt>
      <trkpt lat="45.62575" lon="5.72606">
        <ele>679</ele>
        <time>2017-05-25T11:00:31Z</time>
      </trkpt>
      <trkpt lat="45.62585" lon="5.72601">
        <ele>679</ele>
        <time>2017-05-25T11:00:31Z</time>
      </trkpt>
      <trkpt lat="45.62594" lon="5.72594">
        <ele>679</ele>
        <time>2017-05-25T11:00:47Z</time>
      </trkpt>
      <trkpt lat="45.62598" lon="5.72597">
        <ele>679</ele>
        <time>2017-05-25T11:00:47Z</time>
      </trkpt>
      <trkpt lat="45.62602" lon="5.72595">
        <ele>679</ele>
        <time>2017-05-25T11:00:47Z</time>
      </trkpt>
      <trkpt lat="45.62606" lon="5.72592">
        <ele>679</ele>
        <time>2017-05-25T11:00:47Z</time>
      </trkpt>
      <trkpt lat="45.6261" lon="5.72587">
        <ele>679</ele>
        <time>2017-05-25T11:01:03Z</time>
      </trkpt>
      <trkpt lat="45.62615" lon="5.72583">
        <ele>679</ele>
        <time>2017-05-25T11:01:03Z</time>
      </trkpt>
      <trkpt lat="45.62624" lon="5.72577">
        <ele>679</ele>
        <time>2017-05-25T11:01:03Z</time>
      </trkpt>
      <trkpt lat="45.62633" lon="5.72572">
        <ele>669</ele>
        <time>2017-05-25T11:01:03Z</time>
      </trkpt>
      <trkpt lat="45.6264" lon="5.72567">
        <ele>669</ele>
        <time>2017-05-25T11:01:19Z</time>
      </trkpt>
      <trkpt lat="45.62644" lon="5.7256">
        <ele>669</ele>
        <time>2017-05-25T11:01:19Z</time>
      </trkpt>
      <trkpt lat="45.62647" lon="5.72554">
        <ele>669</ele>
        <time>2017-05-25T11:01:19Z</time>
      </trkpt>
      <trkpt lat="45.6265" lon="5.72549">
        <ele>669</ele>
        <time>2017-05-25T11:01:19Z</time>
      </trkpt>
      <trkpt lat="45.62656" lon="5.72543">
        <ele>669</ele>
        <time>2017-05-25T11:01:35Z</time>
      </trkpt>
      <trkpt lat="45.62662" lon="5.7254">
        <ele>686</ele>
        <time>2017-05-25T11:01:35Z</time>
      </trkpt>
      <trkpt lat="45.62668" lon="5.72539">
        <ele>686</ele>
        <time>2017-05-25T11:01:35Z</time>
      </trkpt>
      <trkpt lat="45.62669" lon="5.72536">
        <ele>686</ele>
        <time>2017-05-25T11:01:35Z</time>
      </trkpt>
      <trkpt lat="45.62674" lon="5.7253">
        <ele>686</ele>
        <time>2017-05-25T11:01:51Z</time>
      </trkpt>
      <trkpt lat="45.6268" lon="5.72524">
        <ele>686</ele>
        <time>2017-05-25T11:01:51Z</time>
      </trkpt>
      <trkpt lat="45.62686" lon="5.7252">
        <ele>686</ele>
        <time>2017-05-25T11:01:51Z</time>
      </trkpt>
      <trkpt lat="45.62692" lon="5.72517">
        <ele>686</ele>
        <time>2017-05-25T11:01:51Z</time>
      </trkpt>
      <trkpt lat="45.62696" lon="5.72513">
        <ele>686</ele>
        <time>2017-05-25T11:02:07Z</time>
      </trkpt>
      <trkpt lat="45.62701" lon="5.72509">
        <ele>686</ele>
        <time>2017-05-25T11:02:07Z</time>
      </trkpt>
      <trkpt lat="45.62705" lon="5.72504">
        <ele>686</ele>
        <time>2017-05-25T11:02:07Z</time>
      </trkpt>
      <trkpt lat="45.6271" lon="5.72498">
        <ele>675</ele>
        <time>2017-05-25T11:02:07Z</time>
      </trkpt>
      <trkpt lat="45.62713" lon="5.72496">
        <ele>675</ele>
        <time>2017-05-25T11:02:23Z</time>
      </trkpt>
      <trkpt lat="45.62717" lon="5.72492">
        <ele>675</ele>
        <time>2017-05-25T11:02:23Z</time>
      </trkpt>
      <trkpt lat="45.6272" lon="5.72488">
        <ele>675</ele>
        <time>2017-05-25T11:02:23Z</time>
      </trkpt>
      <trkpt lat="45.62725" lon="5.72486">
        <ele>675</ele>
        <time>2017-05-25T11:02:23Z</time>
      </trkpt>
      <trkpt lat="45.62731" lon="5.72485">
        <ele>675</ele>
        <time>2017-05-25T11:02:39Z</time>
      </trkpt>
      <trkpt lat="45.62743" lon="5.72483">
        <ele>675</ele>
        <time>2017-05-25T11:02:39Z</time>
      </trkpt>
      <trkpt lat="45.6275" lon="5.72479">
        <ele>675</ele>
        <time>2017-05-25T11:02:39Z</time>
      </trkpt>
      <trkpt lat="45.62759" lon="5.72473">
        <ele>675</ele>
        <time>2017-05-25T11:02:39Z</time>
      </trkpt>
      <trkpt lat="45.62768" lon="5.72467">
        <ele>675</ele>
        <time>2017-05-25T11:02:55Z</time>
      </trkpt>
      <trkpt lat="45.62777" lon="5.72461">
        <ele>675</ele>
        <time>2017-05-25T11:02:55Z</time>
      </trkpt>
      <trkpt lat="45.62785" lon="5.72459">
        <ele>675</ele>
        <time>2017-05-25T11:02:55Z</time>
      </trkpt>
      <trkpt lat="45.62791" lon="5.72456">
        <ele>689</ele>
        <time>2017-05-25T11:02:55Z</time>
      </trkpt>
      <trkpt lat="45.62798" lon="5.72451">
        <ele>677</ele>
        <time>2017-05-25T11:03:11Z</time>
      </trkpt>
      <trkpt lat="45.62805" lon="5.72447">
        <ele>677</ele>
        <time>2017-05-25T11:03:11Z</time>
      </trkpt>
      <trkpt lat="45.6281" lon="5.72445">
        <ele>677</ele>
        <time>2017-05-25T11:03:11Z</time>
      </trkpt>
      <trkpt lat="45.62814" lon="5.72444">
        <ele>677</ele>
        <time>2017-05-25T11:03:11Z</time>
      </trkpt>
      <trkpt lat="45.62819" lon="5.72439">
        <ele>677</ele>
        <time>2017-05-25T11:03:27Z</time>
      </trkpt>
      <trkpt lat="45.62823" lon="5.72435">
        <ele>677</ele>
        <time>2017-05-25T11:03:27Z</time>
      </trkpt>
      <trkpt lat="45.62829" lon="5.7243">
        <ele>677</ele>
        <time>2017-05-25T11:03:27Z</time>
      </trkpt>
      <trkpt lat="45.62834" lon="5.72422">
        <ele>677</ele>
        <time>2017-05-25T11:03:27Z</time>
      </trkpt>
      <trkpt lat="45.62839" lon="5.72413">
        <ele>677</ele>
        <time>2017-05-25T11:03:43Z</time>
      </trkpt>
      <trkpt lat="45.62848" lon="5.72398">
        <ele>677</ele>
        <time>2017-05-25T11:03:43Z</time>
      </trkpt>
      <trkpt lat="45.6286" lon="5.72384">
        <ele>677</ele>
        <time>2017-05-25T11:03:43Z</time>
      </trkpt>
      <trkpt lat="45.62864" lon="5.72377">
        <ele>677</ele>
        <time>2017-05-25T11:03:43Z</time>
      </trkpt>
      <trkpt lat="45.62871" lon="5.72373">
        <ele>691</ele>
        <time>2017-05-25T11:03:59Z</time>
      </trkpt>
      <trkpt lat="45.62883" lon="5.72365">
        <ele>680</ele>
        <time>2017-05-25T11:03:59Z</time>
      </trkpt>
      <trkpt lat="45.62893" lon="5.72351">
        <ele>680</ele>
        <time>2017-05-25T11:03:59Z</time>
      </trkpt>
      <trkpt lat="45.629" lon="5.72346">
        <ele>680</ele>
        <time>2017-05-25T11:03:59Z</time>
      </trkpt>
      <trkpt lat="45.62906" lon="5.72346">
        <ele>680</ele>
        <time>2017-05-25T11:04:15Z</time>
      </trkpt>
      <trkpt lat="45.62912" lon="5.72346">
        <ele>680</ele>
        <time>2017-05-25T11:04:15Z</time>
      </trkpt>
      <trkpt lat="45.62915" lon="5.72344">
        <ele>680</ele>
        <time>2017-05-25T11:04:15Z</time>
      </trkpt>
      <trkpt lat="45.62919" lon="5.72341">
        <ele>680</ele>
        <time>2017-05-25T11:04:15Z</time>
      </trkpt>
      <trkpt lat="45.62924" lon="5.72338">
        <ele>680</ele>
        <time>2017-05-25T11:04:31Z</time>
      </trkpt>
      <trkpt lat="45.6293" lon="5.72335">
        <ele>680</ele>
        <time>2017-05-25T11:04:31Z</time>
      </trkpt>
      <trkpt lat="45.62937" lon="5.72335">
        <ele>680</ele>
        <time>2017-05-25T11:04:31Z</time>
      </trkpt>
      <trkpt lat="45.62947" lon="5.72333">
        <ele>680</ele>
        <time>2017-05-25T11:04:31Z</time>
      </trkpt>
      <trkpt lat="45.62953" lon="5.72334">
        <ele>680</ele>
        <time>2017-05-25T11:04:47Z</time>
      </trkpt>
      <trkpt lat="45.62959" lon="5.72337">
        <ele>671</ele>
        <time>2017-05-25T11:04:47Z</time>
      </trkpt>
      <trkpt lat="45.62966" lon="5.7234">
        <ele>671</ele>
        <time>2017-05-25T11:04:47Z</time>
      </trkpt>
      <trkpt lat="45.62973" lon="5.72345">
        <ele>671</ele>
        <time>2017-05-25T11:04:47Z</time>
      </trkpt>
      <trkpt lat="45.62985" lon="5.72346">
        <ele>671</ele>
        <time>2017-05-25T11:05:03Z</time>
      </trkpt>
      <trkpt lat="45.62991" lon="5.72344">
        <ele>671</ele>
        <time>2017-05-25T11:05:03Z</time>
      </trkpt>
      <trkpt lat="45.62995" lon="5.72341">
        <ele>671</ele>
        <time>2017-05-25T11:05:03Z</time>
      </trkpt>
      <trkpt lat="45.62998" lon="5.72337">
        <ele>671</ele>
        <time>2017-05-25T11:05:03Z</time>
      </trkpt>
      <trkpt lat="45.63004" lon="5.72334">
        <ele>671</ele>
        <time>2017-05-25T11:05:19Z</time>
      </trkpt>
      <trkpt lat="45.63006" lon="5.72332">
        <ele>671</ele>
        <time>2017-05-25T11:05:19Z</time>
      </trkpt>
      <trkpt lat="45.6301" lon="5.72328">
        <ele>671</ele>
        <time>2017-05-25T11:05:19Z</time>
      </trkpt>
      <trkpt lat="45.63016" lon="5.72325">
        <ele>671</ele>
        <time>2017-05-25T11:05:19Z</time>
      </trkpt>
      <trkpt lat="45.63021" lon="5.72323">
        <ele>671</ele>
        <time>2017-05-25T11:05:35Z</time>
      </trkpt>
      <trkpt lat="45.63026" lon="5.7232">
        <ele>671</ele>
        <time>2017-05-25T11:05:35Z</time>
      </trkpt>
      <trkpt lat="45.63029" lon="5.7232">
        <ele>671</ele>
        <time>2017-05-25T11:05:35Z</time>
      </trkpt>
      <trkpt lat="45.63037" lon="5.72316">
        <ele>671</ele>
        <time>2017-05-25T11:05:35Z</time>
      </trkpt>
      <trkpt lat="45.63042" lon="5.72317">
        <ele>665</ele>
        <time>2017-05-25T11:05:51Z</time>
      </trkpt>
      <trkpt lat="45.63054" lon="5.72314">
        <ele>665</ele>
        <time>2017-05-25T11:05:51Z</time>
      </trkpt>
      <trkpt lat="45.63061" lon="5.7231">
        <ele>665</ele>
        <time>2017-05-25T11:05:51Z</time>
      </trkpt>
      <trkpt lat="45.63067" lon="5.72308">
        <ele>665</ele>
        <time>2017-05-25T11:05:51Z</time>
      </trkpt>
      <trkpt lat="45.63077" lon="5.72306">
        <ele>665</ele>
        <time>2017-05-25T11:06:07Z</time>
      </trkpt>
      <trkpt lat="45.63084" lon="5.72305">
        <ele>665</ele>
        <time>2017-05-25T11:06:07Z</time>
      </trkpt>
      <trkpt lat="45.63088" lon="5.72305">
        <ele>665</ele>
        <time>2017-05-25T11:06:07Z</time>
      </trkpt>
      <trkpt lat="45.63092" lon="5.72305">
        <ele>665</ele>
        <time>2017-05-25T11:06:07Z</time>
      </trkpt>
      <trkpt lat="45.63094" lon="5.72305">
        <ele>665</ele>
        <time>2017-05-25T11:06:31Z</time>
      </trkpt>
      <trkpt lat="45.63096" lon="5.72304">
        <ele>665</ele>
        <time>2017-05-25T11:06:31Z</time>
      </trkpt>
      <trkpt lat="45.63098" lon="5.72305">
        <ele>665</ele>
        <time>2017-05-25T11:06:31Z</time>
      </trkpt>
      <trkpt lat="45.63101" lon="5.72303">
        <ele>665</ele>
        <time>2017-05-25T11:06:31Z</time>
      </trkpt>
      <trkpt lat="45.63106" lon="5.72302">
        <ele>665</ele>
        <time>2017-05-25T11:06:31Z</time>
      </trkpt>
      <trkpt lat="45.63111" lon="5.723">
        <ele>665</ele>
        <time>2017-05-25T11:06:47Z</time>
      </trkpt>
      <trkpt lat="45.63112" lon="5.72299">
        <ele>665</ele>
        <time>2017-05-25T11:06:47Z</time>
      </trkpt>
      <trkpt lat="45.63117" lon="5.72298">
        <ele>665</ele>
        <time>2017-05-25T11:06:47Z</time>
      </trkpt>
      <trkpt lat="45.63126" lon="5.72294">
        <ele>662</ele>
        <time>2017-05-25T11:06:47Z</time>
      </trkpt>
      <trkpt lat="45.63136" lon="5.72295">
        <ele>662</ele>
        <time>2017-05-25T11:07:03Z</time>
      </trkpt>
      <trkpt lat="45.63146" lon="5.72295">
        <ele>662</ele>
        <time>2017-05-25T11:07:03Z</time>
      </trkpt>
      <trkpt lat="45.63156" lon="5.72292">
        <ele>662</ele>
        <time>2017-05-25T11:07:03Z</time>
      </trkpt>
      <trkpt lat="45.63163" lon="5.72291">
        <ele>677</ele>
        <time>2017-05-25T11:07:03Z</time>
      </trkpt>
      <trkpt lat="45.63168" lon="5.72293">
        <ele>662</ele>
        <time>2017-05-25T11:07:19Z</time>
      </trkpt>
      <trkpt lat="45.63173" lon="5.72291">
        <ele>677</ele>
        <time>2017-05-25T11:07:19Z</time>
      </trkpt>
      <trkpt lat="45.63179" lon="5.72288">
        <ele>677</ele>
        <time>2017-05-25T11:07:19Z</time>
      </trkpt>
      <trkpt lat="45.63185" lon="5.72286">
        <ele>677</ele>
        <time>2017-05-25T11:07:19Z</time>
      </trkpt>
      <trkpt lat="45.63192" lon="5.72285">
        <ele>677</ele>
        <time>2017-05-25T11:07:35Z</time>
      </trkpt>
      <trkpt lat="45.63198" lon="5.72285">
        <ele>677</ele>
        <time>2017-05-25T11:07:35Z</time>
      </trkpt>
      <trkpt lat="45.63204" lon="5.72284">
        <ele>677</ele>
        <time>2017-05-25T11:07:35Z</time>
      </trkpt>
      <trkpt lat="45.63209" lon="5.72285">
        <ele>672</ele>
        <time>2017-05-25T11:07:35Z</time>
      </trkpt>
      <trkpt lat="45.63216" lon="5.72286">
        <ele>672</ele>
        <time>2017-05-25T11:07:51Z</time>
      </trkpt>
      <trkpt lat="45.63222" lon="5.7229">
        <ele>672</ele>
        <time>2017-05-25T11:07:51Z</time>
      </trkpt>
      <trkpt lat="45.6323" lon="5.72293">
        <ele>657</ele>
        <time>2017-05-25T11:07:51Z</time>
      </trkpt>
      <trkpt lat="45.63235" lon="5.72292">
        <ele>657</ele>
        <time>2017-05-25T11:07:51Z</time>
      </trkpt>
      <trkpt lat="45.63241" lon="5.72292">
        <ele>657</ele>
        <time>2017-05-25T11:08:07Z</time>
      </trkpt>
      <trkpt lat="45.63249" lon="5.72294">
        <ele>657</ele>
        <time>2017-05-25T11:08:07Z</time>
      </trkpt>
      <trkpt lat="45.63251" lon="5.72293">
        <ele>657</ele>
        <time>2017-05-25T11:08:07Z</time>
      </trkpt>
      <trkpt lat="45.63254" lon="5.72293">
        <ele>657</ele>
        <time>2017-05-25T11:08:07Z</time>
      </trkpt>
      <trkpt lat="45.63256" lon="5.72293">
        <ele>657</ele>
        <time>2017-05-25T11:08:23Z</time>
      </trkpt>
      <trkpt lat="45.63261" lon="5.72291">
        <ele>672</ele>
        <time>2017-05-25T11:08:23Z</time>
      </trkpt>
      <trkpt lat="45.63271" lon="5.7229">
        <ele>672</ele>
        <time>2017-05-25T11:08:23Z</time>
      </trkpt>
      <trkpt lat="45.63277" lon="5.72287">
        <ele>672</ele>
        <time>2017-05-25T11:08:23Z</time>
      </trkpt>
      <trkpt lat="45.63286" lon="5.72286">
        <ele>672</ele>
        <time>2017-05-25T11:08:39Z</time>
      </trkpt>
      <trkpt lat="45.63291" lon="5.72283">
        <ele>672</ele>
        <time>2017-05-25T11:08:39Z</time>
      </trkpt>
      <trkpt lat="45.63295" lon="5.72283">
        <ele>662</ele>
        <time>2017-05-25T11:08:39Z</time>
      </trkpt>
      <trkpt lat="45.63302" lon="5.72282">
        <ele>662</ele>
        <time>2017-05-25T11:08:39Z</time>
      </trkpt>
      <trkpt lat="45.63311" lon="5.7228">
        <ele>662</ele>
        <time>2017-05-25T11:08:55Z</time>
      </trkpt>
      <trkpt lat="45.63318" lon="5.72278">
        <ele>662</ele>
        <time>2017-05-25T11:08:55Z</time>
      </trkpt>
      <trkpt lat="45.63322" lon="5.72278">
        <ele>662</ele>
        <time>2017-05-25T11:08:55Z</time>
      </trkpt>
      <trkpt lat="45.63326" lon="5.72277">
        <ele>662</ele>
        <time>2017-05-25T11:08:55Z</time>
      </trkpt>
      <trkpt lat="45.6333" lon="5.72276">
        <ele>662</ele>
        <time>2017-05-25T11:09:11Z</time>
      </trkpt>
      <trkpt lat="45.63336" lon="5.72273">
        <ele>662</ele>
        <time>2017-05-25T11:09:11Z</time>
      </trkpt>
      <trkpt lat="45.63344" lon="5.72266">
        <ele>662</ele>
        <time>2017-05-25T11:09:11Z</time>
      </trkpt>
      <trkpt lat="45.63348" lon="5.72262">
        <ele>662</ele>
        <time>2017-05-25T11:09:11Z</time>
      </trkpt>
      <trkpt lat="45.63352" lon="5.72262">
        <ele>662</ele>
        <time>2017-05-25T11:09:27Z</time>
      </trkpt>
      <trkpt lat="45.63356" lon="5.72263">
        <ele>662</ele>
        <time>2017-05-25T11:09:27Z</time>
      </trkpt>
      <trkpt lat="45.63359" lon="5.72263">
        <ele>662</ele>
        <time>2017-05-25T11:09:27Z</time>
      </trkpt>
      <trkpt lat="45.63365" lon="5.72262">
        <ele>662</ele>
        <time>2017-05-25T11:09:27Z</time>
      </trkpt>
      <trkpt lat="45.63369" lon="5.72259">
        <ele>662</ele>
        <time>2017-05-25T11:09:43Z</time>
      </trkpt>
      <trkpt lat="45.63372" lon="5.72254">
        <ele>662</ele>
        <time>2017-05-25T11:09:43Z</time>
      </trkpt>
      <trkpt lat="45.63374" lon="5.7225">
        <ele>662</ele>
        <time>2017-05-25T11:09:43Z</time>
      </trkpt>
      <trkpt lat="45.63379" lon="5.72246">
        <ele>658</ele>
        <time>2017-05-25T11:09:43Z</time>
      </trkpt>
      <trkpt lat="45.63383" lon="5.72243">
        <ele>658</ele>
        <time>2017-05-25T11:09:59Z</time>
      </trkpt>
      <trkpt lat="45.63387" lon="5.7224">
        <ele>658</ele>
        <time>2017-05-25T11:09:59Z</time>
      </trkpt>
      <trkpt lat="45.63392" lon="5.72236">
        <ele>658</ele>
        <time>2017-05-25T11:09:59Z</time>
      </trkpt>
      <trkpt lat="45.63395" lon="5.72231">
        <ele>658</ele>
        <time>2017-05-25T11:09:59Z</time>
      </trkpt>
      <trkpt lat="45.63402" lon="5.72223">
        <ele>658</ele>
        <time>2017-05-25T11:10:15Z</time>
      </trkpt>
      <trkpt lat="45.63407" lon="5.72218">
        <ele>658</ele>
        <time>2017-05-25T11:10:15Z</time>
      </trkpt>
      <trkpt lat="45.63407" lon="5.72213">
        <ele>658</ele>
        <time>2017-05-25T11:10:15Z</time>
      </trkpt>
      <trkpt lat="45.63409" lon="5.72212">
        <ele>658</ele>
        <time>2017-05-25T11:10:15Z</time>
      </trkpt>
      <trkpt lat="45.63412" lon="5.72211">
        <ele>658</ele>
        <time>2017-05-25T11:10:35Z</time>
      </trkpt>
      <trkpt lat="45.63415" lon="5.72212">
        <ele>658</ele>
        <time>2017-05-25T11:10:35Z</time>
      </trkpt>
      <trkpt lat="45.63418" lon="5.72216">
        <ele>658</ele>
        <time>2017-05-25T11:10:35Z</time>
      </trkpt>
      <trkpt lat="45.63418" lon="5.72219">
        <ele>658</ele>
        <time>2017-05-25T11:10:35Z</time>
      </trkpt>
      <trkpt lat="45.63419" lon="5.72218">
        <ele>658</ele>
        <time>2017-05-25T11:10:35Z</time>
      </trkpt>
      <trkpt lat="45.6342" lon="5.72221">
        <ele>658</ele>
        <time>2017-05-25T11:11:03Z</time>
      </trkpt>
      <trkpt lat="45.6342" lon="5.72223">
        <ele>658</ele>
        <time>2017-05-25T11:11:03Z</time>
      </trkpt>
      <trkpt lat="45.63421" lon="5.72224">
        <ele>658</ele>
        <time>2017-05-25T11:11:03Z</time>
      </trkpt>
      <trkpt lat="45.63424" lon="5.72228">
        <ele>658</ele>
        <time>2017-05-25T11:11:03Z</time>
      </trkpt>
      <trkpt lat="45.63426" lon="5.72231">
        <ele>658</ele>
        <time>2017-05-25T11:11:03Z</time>
      </trkpt>
      <trkpt lat="45.63428" lon="5.72235">
        <ele>658</ele>
        <time>2017-05-25T11:11:19Z</time>
      </trkpt>
      <trkpt lat="45.63429" lon="5.72239">
        <ele>658</ele>
        <time>2017-05-25T11:11:19Z</time>
      </trkpt>
      <trkpt lat="45.6343" lon="5.72244">
        <ele>658</ele>
        <time>2017-05-25T11:11:19Z</time>
      </trkpt>
      <trkpt lat="45.63429" lon="5.7225">
        <ele>658</ele>
        <time>2017-05-25T11:11:19Z</time>
      </trkpt>
      <trkpt lat="45.63432" lon="5.72256">
        <ele>658</ele>
        <time>2017-05-25T11:11:35Z</time>
      </trkpt>
      <trkpt lat="45.63436" lon="5.72259">
        <ele>658</ele>
        <time>2017-05-25T11:11:35Z</time>
      </trkpt>
      <trkpt lat="45.63441" lon="5.72257">
        <ele>658</ele>
        <time>2017-05-25T11:11:35Z</time>
      </trkpt>
      <trkpt lat="45.63448" lon="5.72258">
        <ele>658</ele>
        <time>2017-05-25T11:11:35Z</time>
      </trkpt>
      <trkpt lat="45.6346" lon="5.72257">
        <ele>668</ele>
        <time>2017-05-25T11:11:51Z</time>
      </trkpt>
      <trkpt lat="45.63469" lon="5.72258">
        <ele>668</ele>
        <time>2017-05-25T11:11:51Z</time>
      </trkpt>
      <trkpt lat="45.63479" lon="5.72261">
        <ele>668</ele>
        <time>2017-05-25T11:11:51Z</time>
      </trkpt>
      <trkpt lat="45.63485" lon="5.72264">
        <ele>668</ele>
        <time>2017-05-25T11:11:51Z</time>
      </trkpt>
      <trkpt lat="45.6349" lon="5.72271">
        <ele>668</ele>
        <time>2017-05-25T11:12:07Z</time>
      </trkpt>
      <trkpt lat="45.63494" lon="5.72275">
        <ele>668</ele>
        <time>2017-05-25T11:12:07Z</time>
      </trkpt>
      <trkpt lat="45.63497" lon="5.72278">
        <ele>668</ele>
        <time>2017-05-25T11:12:07Z</time>
      </trkpt>
      <trkpt lat="45.635" lon="5.72288">
        <ele>668</ele>
        <time>2017-05-25T11:12:07Z</time>
      </trkpt>
      <trkpt lat="45.63504" lon="5.72301">
        <ele>653</ele>
        <time>2017-05-25T11:12:23Z</time>
      </trkpt>
      <trkpt lat="45.63507" lon="5.72312">
        <ele>653</ele>
        <time>2017-05-25T11:12:23Z</time>
      </trkpt>
      <trkpt lat="45.63513" lon="5.72319">
        <ele>653</ele>
        <time>2017-05-25T11:12:23Z</time>
      </trkpt>
      <trkpt lat="45.63519" lon="5.72323">
        <ele>653</ele>
        <time>2017-05-25T11:12:23Z</time>
      </trkpt>
      <trkpt lat="45.63521" lon="5.72328">
        <ele>653</ele>
        <time>2017-05-25T11:12:39Z</time>
      </trkpt>
      <trkpt lat="45.63526" lon="5.72332">
        <ele>653</ele>
        <time>2017-05-25T11:12:39Z</time>
      </trkpt>
      <trkpt lat="45.63531" lon="5.72335">
        <ele>653</ele>
        <time>2017-05-25T11:12:39Z</time>
      </trkpt>
      <trkpt lat="45.63535" lon="5.72339">
        <ele>653</ele>
        <time>2017-05-25T11:12:39Z</time>
      </trkpt>
      <trkpt lat="45.6354" lon="5.72343">
        <ele>653</ele>
        <time>2017-05-25T11:12:55Z</time>
      </trkpt>
      <trkpt lat="45.63545" lon="5.72347">
        <ele>654</ele>
        <time>2017-05-25T11:12:55Z</time>
      </trkpt>
      <trkpt lat="45.6355" lon="5.72349">
        <ele>654</ele>
        <time>2017-05-25T11:12:55Z</time>
      </trkpt>
      <trkpt lat="45.63557" lon="5.7235">
        <ele>654</ele>
        <time>2017-05-25T11:12:55Z</time>
      </trkpt>
      <trkpt lat="45.63563" lon="5.72352">
        <ele>654</ele>
        <time>2017-05-25T11:13:11Z</time>
      </trkpt>
      <trkpt lat="45.63568" lon="5.72353">
        <ele>654</ele>
        <time>2017-05-25T11:13:11Z</time>
      </trkpt>
      <trkpt lat="45.63577" lon="5.72354">
        <ele>654</ele>
        <time>2017-05-25T11:13:11Z</time>
      </trkpt>
      <trkpt lat="45.63585" lon="5.72354">
        <ele>654</ele>
        <time>2017-05-25T11:13:11Z</time>
      </trkpt>
      <trkpt lat="45.63593" lon="5.72356">
        <ele>654</ele>
        <time>2017-05-25T11:13:27Z</time>
      </trkpt>
      <trkpt lat="45.63596" lon="5.72357">
        <ele>654</ele>
        <time>2017-05-25T11:13:27Z</time>
      </trkpt>
      <trkpt lat="45.63601" lon="5.72356">
        <ele>654</ele>
        <time>2017-05-25T11:13:27Z</time>
      </trkpt>
      <trkpt lat="45.63608" lon="5.72356">
        <ele>654</ele>
        <time>2017-05-25T11:13:27Z</time>
      </trkpt>
      <trkpt lat="45.63614" lon="5.72357">
        <ele>654</ele>
        <time>2017-05-25T11:13:43Z</time>
      </trkpt>
      <trkpt lat="45.63624" lon="5.72358">
        <ele>654</ele>
        <time>2017-05-25T11:13:43Z</time>
      </trkpt>
      <trkpt lat="45.63634" lon="5.72354">
        <ele>655</ele>
        <time>2017-05-25T11:13:43Z</time>
      </trkpt>
      <trkpt lat="45.63641" lon="5.72349">
        <ele>655</ele>
        <time>2017-05-25T11:13:43Z</time>
      </trkpt>
      <trkpt lat="45.63647" lon="5.72349">
        <ele>655</ele>
        <time>2017-05-25T11:13:59Z</time>
      </trkpt>
      <trkpt lat="45.63653" lon="5.72343">
        <ele>655</ele>
        <time>2017-05-25T11:13:59Z</time>
      </trkpt>
      <trkpt lat="45.6367" lon="5.72336">
        <ele>655</ele>
        <time>2017-05-25T11:13:59Z</time>
      </trkpt>
      <trkpt lat="45.6369" lon="5.72333">
        <ele>655</ele>
        <time>2017-05-25T11:13:59Z</time>
      </trkpt>
      <trkpt lat="45.6371" lon="5.72329">
        <ele>656</ele>
        <time>2017-05-25T11:14:15Z</time>
      </trkpt>
      <trkpt lat="45.63726" lon="5.72331">
        <ele>656</ele>
        <time>2017-05-25T11:14:15Z</time>
      </trkpt>
      <trkpt lat="45.63746" lon="5.72321">
        <ele>656</ele>
        <time>2017-05-25T11:14:15Z</time>
      </trkpt>
      <trkpt lat="45.63751" lon="5.72319">
        <ele>656</ele>
        <time>2017-05-25T11:14:15Z</time>
      </trkpt>
      <trkpt lat="45.63753" lon="5.72319">
        <ele>656</ele>
        <time>2017-05-25T11:14:31Z</time>
      </trkpt>
      <trkpt lat="45.63758" lon="5.72314">
        <ele>656</ele>
        <time>2017-05-25T11:14:31Z</time>
      </trkpt>
      <trkpt lat="45.63765" lon="5.7231">
        <ele>656</ele>
        <time>2017-05-25T11:14:31Z</time>
      </trkpt>
      <trkpt lat="45.63774" lon="5.72305">
        <ele>656</ele>
        <time>2017-05-25T11:14:31Z</time>
      </trkpt>
      <trkpt lat="45.63779" lon="5.72301">
        <ele>656</ele>
        <time>2017-05-25T11:14:47Z</time>
      </trkpt>
      <trkpt lat="45.63783" lon="5.72299">
        <ele>656</ele>
        <time>2017-05-25T11:14:47Z</time>
      </trkpt>
      <trkpt lat="45.63786" lon="5.72299">
        <ele>656</ele>
        <time>2017-05-25T11:14:47Z</time>
      </trkpt>
      <trkpt lat="45.63792" lon="5.72295">
        <ele>655</ele>
        <time>2017-05-25T11:14:47Z</time>
      </trkpt>
      <trkpt lat="45.63799" lon="5.72288">
        <ele>671</ele>
        <time>2017-05-25T11:15:03Z</time>
      </trkpt>
      <trkpt lat="45.63806" lon="5.72282">
        <ele>671</ele>
        <time>2017-05-25T11:15:03Z</time>
      </trkpt>
      <trkpt lat="45.63809" lon="5.72277">
        <ele>671</ele>
        <time>2017-05-25T11:15:03Z</time>
      </trkpt>
      <trkpt lat="45.63811" lon="5.72271">
        <ele>671</ele>
        <time>2017-05-25T11:15:03Z</time>
      </trkpt>
      <trkpt lat="45.6381" lon="5.72264">
        <ele>671</ele>
        <time>2017-05-25T11:15:19Z</time>
      </trkpt>
      <trkpt lat="45.63808" lon="5.72258">
        <ele>671</ele>
        <time>2017-05-25T11:15:19Z</time>
      </trkpt>
      <trkpt lat="45.63805" lon="5.72251">
        <ele>671</ele>
        <time>2017-05-25T11:15:19Z</time>
      </trkpt>
      <trkpt lat="45.63801" lon="5.72247">
        <ele>671</ele>
        <time>2017-05-25T11:15:19Z</time>
      </trkpt>
      <trkpt lat="45.63797" lon="5.72244">
        <ele>671</ele>
        <time>2017-05-25T11:15:35Z</time>
      </trkpt>
      <trkpt lat="45.63794" lon="5.7224">
        <ele>671</ele>
        <time>2017-05-25T11:15:35Z</time>
      </trkpt>
      <trkpt lat="45.63792" lon="5.72232">
        <ele>672</ele>
        <time>2017-05-25T11:15:35Z</time>
      </trkpt>
      <trkpt lat="45.63787" lon="5.72224">
        <ele>672</ele>
        <time>2017-05-25T11:15:35Z</time>
      </trkpt>
      <trkpt lat="45.63781" lon="5.72212">
        <ele>672</ele>
        <time>2017-05-25T11:15:51Z</time>
      </trkpt>
      <trkpt lat="45.63777" lon="5.72206">
        <ele>687</ele>
        <time>2017-05-25T11:15:51Z</time>
      </trkpt>
      <trkpt lat="45.63775" lon="5.72202">
        <ele>687</ele>
        <time>2017-05-25T11:15:51Z</time>
      </trkpt>
      <trkpt lat="45.63774" lon="5.72197">
        <ele>687</ele>
        <time>2017-05-25T11:15:51Z</time>
      </trkpt>
      <trkpt lat="45.63773" lon="5.72191">
        <ele>687</ele>
        <time>2017-05-25T11:16:07Z</time>
      </trkpt>
      <trkpt lat="45.63772" lon="5.72185">
        <ele>687</ele>
        <time>2017-05-25T11:16:07Z</time>
      </trkpt>
      <trkpt lat="45.63772" lon="5.72178">
        <ele>687</ele>
        <time>2017-05-25T11:16:07Z</time>
      </trkpt>
      <trkpt lat="45.63768" lon="5.72175">
        <ele>687</ele>
        <time>2017-05-25T11:16:07Z</time>
      </trkpt>
      <trkpt lat="45.63765" lon="5.7217">
        <ele>687</ele>
        <time>2017-05-25T11:16:23Z</time>
      </trkpt>
      <trkpt lat="45.6376" lon="5.72169">
        <ele>687</ele>
        <time>2017-05-25T11:16:23Z</time>
      </trkpt>
      <trkpt lat="45.63754" lon="5.7217">
        <ele>687</ele>
        <time>2017-05-25T11:16:23Z</time>
      </trkpt>
      <trkpt lat="45.63749" lon="5.7217">
        <ele>687</ele>
        <time>2017-05-25T11:16:23Z</time>
      </trkpt>
      <trkpt lat="45.63746" lon="5.72173">
        <ele>687</ele>
        <time>2017-05-25T11:16:39Z</time>
      </trkpt>
      <trkpt lat="45.63739" lon="5.72177">
        <ele>687</ele>
        <time>2017-05-25T11:16:39Z</time>
      </trkpt>
      <trkpt lat="45.6373" lon="5.72181">
        <ele>687</ele>
        <time>2017-05-25T11:16:39Z</time>
      </trkpt>
      <trkpt lat="45.63718" lon="5.72182">
        <ele>687</ele>
        <time>2017-05-25T11:16:39Z</time>
      </trkpt>
      <trkpt lat="45.63715" lon="5.72181">
        <ele>687</ele>
        <time>2017-05-25T11:16:55Z</time>
      </trkpt>
      <trkpt lat="45.63712" lon="5.72181">
        <ele>687</ele>
        <time>2017-05-25T11:16:55Z</time>
      </trkpt>
      <trkpt lat="45.63709" lon="5.72178">
        <ele>687</ele>
        <time>2017-05-25T11:16:55Z</time>
      </trkpt>
      <trkpt lat="45.63705" lon="5.72176">
        <ele>683</ele>
        <time>2017-05-25T11:16:55Z</time>
      </trkpt>
      <trkpt lat="45.63701" lon="5.72173">
        <ele>683</ele>
        <time>2017-05-25T11:17:11Z</time>
      </trkpt>
      <trkpt lat="45.63697" lon="5.72172">
        <ele>683</ele>
        <time>2017-05-25T11:17:11Z</time>
      </trkpt>
      <trkpt lat="45.63693" lon="5.72173">
        <ele>683</ele>
        <time>2017-05-25T11:17:11Z</time>
      </trkpt>
      <trkpt lat="45.63686" lon="5.72172">
        <ele>683</ele>
        <time>2017-05-25T11:17:11Z</time>
      </trkpt>
      <trkpt lat="45.63679" lon="5.7217">
        <ele>683</ele>
        <time>2017-05-25T11:17:27Z</time>
      </trkpt>
      <trkpt lat="45.63675" lon="5.72167">
        <ele>683</ele>
        <time>2017-05-25T11:17:27Z</time>
      </trkpt>
      <trkpt lat="45.63672" lon="5.72164">
        <ele>683</ele>
        <time>2017-05-25T11:17:27Z</time>
      </trkpt>
      <trkpt lat="45.63666" lon="5.7216">
        <ele>683</ele>
        <time>2017-05-25T11:17:27Z</time>
      </trkpt>
      <trkpt lat="45.63662" lon="5.72156">
        <ele>683</ele>
        <time>2017-05-25T11:17:43Z</time>
      </trkpt>
      <trkpt lat="45.63658" lon="5.72153">
        <ele>683</ele>
        <time>2017-05-25T11:17:43Z</time>
      </trkpt>
      <trkpt lat="45.63655" lon="5.72149">
        <ele>683</ele>
        <time>2017-05-25T11:17:43Z</time>
      </trkpt>
      <trkpt lat="45.63653" lon="5.72144">
        <ele>683</ele>
        <time>2017-05-25T11:17:43Z</time>
      </trkpt>
      <trkpt lat="45.63654" lon="5.72139">
        <ele>683</ele>
        <time>2017-05-25T11:17:59Z</time>
      </trkpt>
      <trkpt lat="45.63656" lon="5.72125">
        <ele>696</ele>
        <time>2017-05-25T11:17:59Z</time>
      </trkpt>
      <trkpt lat="45.63661" lon="5.72107">
        <ele>696</ele>
        <time>2017-05-25T11:17:59Z</time>
      </trkpt>
      <trkpt lat="45.63668" lon="5.72097">
        <ele>696</ele>
        <time>2017-05-25T11:17:59Z</time>
      </trkpt>
      <trkpt lat="45.63679" lon="5.72091">
        <ele>696</ele>
        <time>2017-05-25T11:18:27Z</time>
      </trkpt>
      <trkpt lat="45.6368" lon="5.7209">
        <ele>696</ele>
        <time>2017-05-25T11:18:27Z</time>
      </trkpt>
      <trkpt lat="45.63681" lon="5.72087">
        <ele>696</ele>
        <time>2017-05-25T11:18:27Z</time>
      </trkpt>
      <trkpt lat="45.63683" lon="5.72085">
        <ele>696</ele>
        <time>2017-05-25T11:18:27Z</time>
      </trkpt>
      <trkpt lat="45.63684" lon="5.72083">
        <ele>696</ele>
        <time>2017-05-25T11:18:27Z</time>
      </trkpt>
      <trkpt lat="45.63685" lon="5.72082">
        <ele>696</ele>
        <time>2017-05-25T11:18:43Z</time>
      </trkpt>
      <trkpt lat="45.63685" lon="5.72078">
        <ele>696</ele>
        <time>2017-05-25T11:18:43Z</time>
      </trkpt>
      <trkpt lat="45.63692" lon="5.7207">
        <ele>696</ele>
        <time>2017-05-25T11:18:43Z</time>
      </trkpt>
      <trkpt lat="45.63698" lon="5.72065">
        <ele>696</ele>
        <time>2017-05-25T11:18:43Z</time>
      </trkpt>
      <trkpt lat="45.63702" lon="5.72059">
        <ele>696</ele>
        <time>2017-05-25T11:18:59Z</time>
      </trkpt>
      <trkpt lat="45.63707" lon="5.72054">
        <ele>696</ele>
        <time>2017-05-25T11:18:59Z</time>
      </trkpt>
      <trkpt lat="45.63711" lon="5.7205">
        <ele>700</ele>
        <time>2017-05-25T11:18:59Z</time>
      </trkpt>
      <trkpt lat="45.63717" lon="5.72046">
        <ele>700</ele>
        <time>2017-05-25T11:18:59Z</time>
      </trkpt>
      <trkpt lat="45.6372" lon="5.72046">
        <ele>700</ele>
        <time>2017-05-25T11:19:15Z</time>
      </trkpt>
      <trkpt lat="45.63723" lon="5.72044">
        <ele>700</ele>
        <time>2017-05-25T11:19:15Z</time>
      </trkpt>
      <trkpt lat="45.63727" lon="5.72041">
        <ele>713</ele>
        <time>2017-05-25T11:19:15Z</time>
      </trkpt>
      <trkpt lat="45.63728" lon="5.7204">
        <ele>713</ele>
        <time>2017-05-25T11:19:15Z</time>
      </trkpt>
      <trkpt lat="45.63731" lon="5.72037">
        <ele>713</ele>
        <time>2017-05-25T11:19:31Z</time>
      </trkpt>
      <trkpt lat="45.63739" lon="5.72031">
        <ele>713</ele>
        <time>2017-05-25T11:19:31Z</time>
      </trkpt>
      <trkpt lat="45.63746" lon="5.72027">
        <ele>713</ele>
        <time>2017-05-25T11:19:31Z</time>
      </trkpt>
      <trkpt lat="45.63753" lon="5.72024">
        <ele>713</ele>
        <time>2017-05-25T11:19:31Z</time>
      </trkpt>
      <trkpt lat="45.63761" lon="5.72018">
        <ele>713</ele>
        <time>2017-05-25T11:19:47Z</time>
      </trkpt>
      <trkpt lat="45.63768" lon="5.72013">
        <ele>713</ele>
        <time>2017-05-25T11:19:47Z</time>
      </trkpt>
      <trkpt lat="45.63772" lon="5.72007">
        <ele>713</ele>
        <time>2017-05-25T11:19:47Z</time>
      </trkpt>
      <trkpt lat="45.63776" lon="5.72001">
        <ele>713</ele>
        <time>2017-05-25T11:19:47Z</time>
      </trkpt>
      <trkpt lat="45.63781" lon="5.7199">
        <ele>713</ele>
        <time>2017-05-25T11:20:03Z</time>
      </trkpt>
      <trkpt lat="45.63785" lon="5.71979">
        <ele>713</ele>
        <time>2017-05-25T11:20:03Z</time>
      </trkpt>
      <trkpt lat="45.63788" lon="5.7197">
        <ele>713</ele>
        <time>2017-05-25T11:20:03Z</time>
      </trkpt>
      <trkpt lat="45.63789" lon="5.71962">
        <ele>713</ele>
        <time>2017-05-25T11:20:03Z</time>
      </trkpt>
      <trkpt lat="45.63791" lon="5.71955">
        <ele>724</ele>
        <time>2017-05-25T11:20:19Z</time>
      </trkpt>
      <trkpt lat="45.63794" lon="5.71948">
        <ele>724</ele>
        <time>2017-05-25T11:20:19Z</time>
      </trkpt>
      <trkpt lat="45.63797" lon="5.71942">
        <ele>724</ele>
        <time>2017-05-25T11:20:19Z</time>
      </trkpt>
      <trkpt lat="45.63799" lon="5.71938">
        <ele>724</ele>
        <time>2017-05-25T11:20:19Z</time>
      </trkpt>
      <trkpt lat="45.63801" lon="5.71933">
        <ele>724</ele>
        <time>2017-05-25T11:20:35Z</time>
      </trkpt>
      <trkpt lat="45.63802" lon="5.71927">
        <ele>724</ele>
        <time>2017-05-25T11:20:35Z</time>
      </trkpt>
      <trkpt lat="45.63801" lon="5.71921">
        <ele>724</ele>
        <time>2017-05-25T11:20:35Z</time>
      </trkpt>
      <trkpt lat="45.63798" lon="5.71917">
        <ele>724</ele>
        <time>2017-05-25T11:20:35Z</time>
      </trkpt>
      <trkpt lat="45.63795" lon="5.71916">
        <ele>724</ele>
        <time>2017-05-25T11:20:51Z</time>
      </trkpt>
      <trkpt lat="45.63794" lon="5.71915">
        <ele>724</ele>
        <time>2017-05-25T11:20:51Z</time>
      </trkpt>
      <trkpt lat="45.6379" lon="5.7191">
        <ele>724</ele>
        <time>2017-05-25T11:20:51Z</time>
      </trkpt>
      <trkpt lat="45.63788" lon="5.71904">
        <ele>724</ele>
        <time>2017-05-25T11:20:51Z</time>
      </trkpt>
      <trkpt lat="45.63785" lon="5.71898">
        <ele>724</ele>
        <time>2017-05-25T11:21:07Z</time>
      </trkpt>
      <trkpt lat="45.6378" lon="5.71896">
        <ele>724</ele>
        <time>2017-05-25T11:21:07Z</time>
      </trkpt>
      <trkpt lat="45.63776" lon="5.71899">
        <ele>724</ele>
        <time>2017-05-25T11:21:07Z</time>
      </trkpt>
      <trkpt lat="45.63771" lon="5.71905">
        <ele>724</ele>
        <time>2017-05-25T11:21:07Z</time>
      </trkpt>
      <trkpt lat="45.63769" lon="5.71909">
        <ele>724</ele>
        <time>2017-05-25T11:21:23Z</time>
      </trkpt>
      <trkpt lat="45.63765" lon="5.7191">
        <ele>724</ele>
        <time>2017-05-25T11:21:23Z</time>
      </trkpt>
      <trkpt lat="45.6376" lon="5.71913">
        <ele>724</ele>
        <time>2017-05-25T11:21:23Z</time>
      </trkpt>
      <trkpt lat="45.63757" lon="5.71917">
        <ele>724</ele>
        <time>2017-05-25T11:21:23Z</time>
      </trkpt>
      <trkpt lat="45.63751" lon="5.7192">
        <ele>724</ele>
        <time>2017-05-25T11:21:39Z</time>
      </trkpt>
      <trkpt lat="45.63745" lon="5.71923">
        <ele>724</ele>
        <time>2017-05-25T11:21:39Z</time>
      </trkpt>
      <trkpt lat="45.63741" lon="5.71924">
        <ele>724</ele>
        <time>2017-05-25T11:21:39Z</time>
      </trkpt>
      <trkpt lat="45.63739" lon="5.71927">
        <ele>724</ele>
        <time>2017-05-25T11:21:39Z</time>
      </trkpt>
      <trkpt lat="45.63734" lon="5.71932">
        <ele>724</ele>
        <time>2017-05-25T11:21:55Z</time>
      </trkpt>
      <trkpt lat="45.63728" lon="5.71937">
        <ele>724</ele>
        <time>2017-05-25T11:21:55Z</time>
      </trkpt>
      <trkpt lat="45.63724" lon="5.71939">
        <ele>724</ele>
        <time>2017-05-25T11:21:55Z</time>
      </trkpt>
      <trkpt lat="45.63719" lon="5.7194">
        <ele>724</ele>
        <time>2017-05-25T11:21:55Z</time>
      </trkpt>
      <trkpt lat="45.63714" lon="5.71941">
        <ele>724</ele>
        <time>2017-05-25T11:22:11Z</time>
      </trkpt>
      <trkpt lat="45.63709" lon="5.71939">
        <ele>724</ele>
        <time>2017-05-25T11:22:11Z</time>
      </trkpt>
      <trkpt lat="45.63703" lon="5.7194">
        <ele>724</ele>
        <time>2017-05-25T11:22:11Z</time>
      </trkpt>
      <trkpt lat="45.63699" lon="5.71945">
        <ele>724</ele>
        <time>2017-05-25T11:22:11Z</time>
      </trkpt>
      <trkpt lat="45.63694" lon="5.71948">
        <ele>724</ele>
        <time>2017-05-25T11:22:27Z</time>
      </trkpt>
      <trkpt lat="45.6369" lon="5.71951">
        <ele>724</ele>
        <time>2017-05-25T11:22:27Z</time>
      </trkpt>
      <trkpt lat="45.63685" lon="5.71954">
        <ele>724</ele>
        <time>2017-05-25T11:22:27Z</time>
      </trkpt>
      <trkpt lat="45.6368" lon="5.71956">
        <ele>724</ele>
        <time>2017-05-25T11:22:27Z</time>
      </trkpt>
      <trkpt lat="45.63675" lon="5.71958">
        <ele>724</ele>
        <time>2017-05-25T11:22:43Z</time>
      </trkpt>
      <trkpt lat="45.63669" lon="5.71958">
        <ele>724</ele>
        <time>2017-05-25T11:22:43Z</time>
      </trkpt>
      <trkpt lat="45.63666" lon="5.71961">
        <ele>710</ele>
        <time>2017-05-25T11:22:43Z</time>
      </trkpt>
      <trkpt lat="45.63661" lon="5.71961">
        <ele>710</ele>
        <time>2017-05-25T11:22:43Z</time>
      </trkpt>
      <trkpt lat="45.63657" lon="5.71959">
        <ele>710</ele>
        <time>2017-05-25T11:22:59Z</time>
      </trkpt>
      <trkpt lat="45.63653" lon="5.71955">
        <ele>724</ele>
        <time>2017-05-25T11:22:59Z</time>
      </trkpt>
      <trkpt lat="45.63648" lon="5.7195">
        <ele>724</ele>
        <time>2017-05-25T11:22:59Z</time>
      </trkpt>
      <trkpt lat="45.63645" lon="5.71942">
        <ele>724</ele>
        <time>2017-05-25T11:22:59Z</time>
      </trkpt>
      <trkpt lat="45.63643" lon="5.71934">
        <ele>724</ele>
        <time>2017-05-25T11:23:15Z</time>
      </trkpt>
      <trkpt lat="45.6364" lon="5.71927">
        <ele>724</ele>
        <time>2017-05-25T11:23:15Z</time>
      </trkpt>
      <trkpt lat="45.63637" lon="5.71921">
        <ele>724</ele>
        <time>2017-05-25T11:23:15Z</time>
      </trkpt>
      <trkpt lat="45.63633" lon="5.71915">
        <ele>724</ele>
        <time>2017-05-25T11:23:15Z</time>
      </trkpt>
      <trkpt lat="45.63626" lon="5.71909">
        <ele>724</ele>
        <time>2017-05-25T11:23:31Z</time>
      </trkpt>
      <trkpt lat="45.63623" lon="5.71907">
        <ele>728</ele>
        <time>2017-05-25T11:23:31Z</time>
      </trkpt>
      <trkpt lat="45.63619" lon="5.71904">
        <ele>728</ele>
        <time>2017-05-25T11:23:31Z</time>
      </trkpt>
      <trkpt lat="45.63612" lon="5.71903">
        <ele>728</ele>
        <time>2017-05-25T11:23:31Z</time>
      </trkpt>
      <trkpt lat="45.63607" lon="5.71904">
        <ele>728</ele>
        <time>2017-05-25T11:23:47Z</time>
      </trkpt>
      <trkpt lat="45.63601" lon="5.71904">
        <ele>728</ele>
        <time>2017-05-25T11:23:47Z</time>
      </trkpt>
      <trkpt lat="45.63594" lon="5.71905">
        <ele>728</ele>
        <time>2017-05-25T11:23:47Z</time>
      </trkpt>
      <trkpt lat="45.63588" lon="5.71901">
        <ele>728</ele>
        <time>2017-05-25T11:23:47Z</time>
      </trkpt>
      <trkpt lat="45.63586" lon="5.71896">
        <ele>728</ele>
        <time>2017-05-25T11:24:03Z</time>
      </trkpt>
      <trkpt lat="45.63582" lon="5.71888">
        <ele>728</ele>
        <time>2017-05-25T11:24:03Z</time>
      </trkpt>
      <trkpt lat="45.63579" lon="5.71881">
        <ele>728</ele>
        <time>2017-05-25T11:24:03Z</time>
      </trkpt>
      <trkpt lat="45.63583" lon="5.71864">
        <ele>740</ele>
        <time>2017-05-25T11:24:03Z</time>
      </trkpt>
      <trkpt lat="45.63598" lon="5.71841">
        <ele>740</ele>
        <time>2017-05-25T11:24:19Z</time>
      </trkpt>
      <trkpt lat="45.6361" lon="5.71821">
        <ele>740</ele>
        <time>2017-05-25T11:24:19Z</time>
      </trkpt>
      <trkpt lat="45.63624" lon="5.71806">
        <ele>740</ele>
        <time>2017-05-25T11:24:19Z</time>
      </trkpt>
      <trkpt lat="45.63631" lon="5.71795">
        <ele>739</ele>
        <time>2017-05-25T11:24:19Z</time>
      </trkpt>
      <trkpt lat="45.63635" lon="5.71789">
        <ele>748</ele>
        <time>2017-05-25T11:24:35Z</time>
      </trkpt>
      <trkpt lat="45.63637" lon="5.71783">
        <ele>748</ele>
        <time>2017-05-25T11:24:35Z</time>
      </trkpt>
      <trkpt lat="45.63641" lon="5.71774">
        <ele>748</ele>
        <time>2017-05-25T11:24:35Z</time>
      </trkpt>
      <trkpt lat="45.63644" lon="5.7177">
        <ele>748</ele>
        <time>2017-05-25T11:24:35Z</time>
      </trkpt>
      <trkpt lat="45.63647" lon="5.71766">
        <ele>748</ele>
        <time>2017-05-25T11:24:51Z</time>
      </trkpt>
      <trkpt lat="45.6365" lon="5.7176">
        <ele>748</ele>
        <time>2017-05-25T11:24:51Z</time>
      </trkpt>
      <trkpt lat="45.63654" lon="5.71753">
        <ele>748</ele>
        <time>2017-05-25T11:24:51Z</time>
      </trkpt>
      <trkpt lat="45.6366" lon="5.71749">
        <ele>748</ele>
        <time>2017-05-25T11:24:51Z</time>
      </trkpt>
      <trkpt lat="45.63665" lon="5.71744">
        <ele>748</ele>
        <time>2017-05-25T11:25:07Z</time>
      </trkpt>
      <trkpt lat="45.63669" lon="5.71741">
        <ele>748</ele>
        <time>2017-05-25T11:25:07Z</time>
      </trkpt>
      <trkpt lat="45.63673" lon="5.71734">
        <ele>748</ele>
        <time>2017-05-25T11:25:07Z</time>
      </trkpt>
      <trkpt lat="45.63678" lon="5.71727">
        <ele>748</ele>
        <time>2017-05-25T11:25:07Z</time>
      </trkpt>
      <trkpt lat="45.63685" lon="5.71715">
        <ele>748</ele>
        <time>2017-05-25T11:25:23Z</time>
      </trkpt>
      <trkpt lat="45.63688" lon="5.71712">
        <ele>748</ele>
        <time>2017-05-25T11:25:23Z</time>
      </trkpt>
      <trkpt lat="45.6369" lon="5.71707">
        <ele>755</ele>
        <time>2017-05-25T11:25:23Z</time>
      </trkpt>
      <trkpt lat="45.63693" lon="5.71703">
        <ele>755</ele>
        <time>2017-05-25T11:25:23Z</time>
      </trkpt>
      <trkpt lat="45.63697" lon="5.71697">
        <ele>755</ele>
        <time>2017-05-25T11:25:39Z</time>
      </trkpt>
      <trkpt lat="45.63701" lon="5.7169">
        <ele>755</ele>
        <time>2017-05-25T11:25:39Z</time>
      </trkpt>
      <trkpt lat="45.63706" lon="5.71684">
        <ele>755</ele>
        <time>2017-05-25T11:25:39Z</time>
      </trkpt>
      <trkpt lat="45.63712" lon="5.71676">
        <ele>760</ele>
        <time>2017-05-25T11:25:39Z</time>
      </trkpt>
      <trkpt lat="45.6372" lon="5.71666">
        <ele>760</ele>
        <time>2017-05-25T11:25:55Z</time>
      </trkpt>
      <trkpt lat="45.63726" lon="5.71659">
        <ele>760</ele>
        <time>2017-05-25T11:25:55Z</time>
      </trkpt>
      <trkpt lat="45.63731" lon="5.7165">
        <ele>760</ele>
        <time>2017-05-25T11:25:55Z</time>
      </trkpt>
      <trkpt lat="45.63733" lon="5.71642">
        <ele>760</ele>
        <time>2017-05-25T11:25:55Z</time>
      </trkpt>
      <trkpt lat="45.63735" lon="5.71635">
        <ele>760</ele>
        <time>2017-05-25T11:26:11Z</time>
      </trkpt>
      <trkpt lat="45.63737" lon="5.71626">
        <ele>760</ele>
        <time>2017-05-25T11:26:11Z</time>
      </trkpt>
      <trkpt lat="45.63738" lon="5.71617">
        <ele>766</ele>
        <time>2017-05-25T11:26:11Z</time>
      </trkpt>
      <trkpt lat="45.6374" lon="5.71609">
        <ele>766</ele>
        <time>2017-05-25T11:26:11Z</time>
      </trkpt>
      <trkpt lat="45.63742" lon="5.71605">
        <ele>766</ele>
        <time>2017-05-25T11:26:27Z</time>
      </trkpt>
      <trkpt lat="45.63744" lon="5.71604">
        <ele>766</ele>
        <time>2017-05-25T11:26:27Z</time>
      </trkpt>
      <trkpt lat="45.63747" lon="5.71601">
        <ele>766</ele>
        <time>2017-05-25T11:26:27Z</time>
      </trkpt>
      <trkpt lat="45.63754" lon="5.71595">
        <ele>766</ele>
        <time>2017-05-25T11:26:27Z</time>
      </trkpt>
      <trkpt lat="45.63761" lon="5.71591">
        <ele>766</ele>
        <time>2017-05-25T11:26:43Z</time>
      </trkpt>
      <trkpt lat="45.63766" lon="5.7159">
        <ele>766</ele>
        <time>2017-05-25T11:26:43Z</time>
      </trkpt>
      <trkpt lat="45.6377" lon="5.7159">
        <ele>766</ele>
        <time>2017-05-25T11:26:43Z</time>
      </trkpt>
      <trkpt lat="45.63775" lon="5.71592">
        <ele>766</ele>
        <time>2017-05-25T11:26:43Z</time>
      </trkpt>
      <trkpt lat="45.6378" lon="5.71594">
        <ele>766</ele>
        <time>2017-05-25T11:26:59Z</time>
      </trkpt>
      <trkpt lat="45.63784" lon="5.71597">
        <ele>766</ele>
        <time>2017-05-25T11:26:59Z</time>
      </trkpt>
      <trkpt lat="45.63787" lon="5.71603">
        <ele>766</ele>
        <time>2017-05-25T11:26:59Z</time>
      </trkpt>
      <trkpt lat="45.63792" lon="5.71604">
        <ele>768</ele>
        <time>2017-05-25T11:26:59Z</time>
      </trkpt>
      <trkpt lat="45.63798" lon="5.716">
        <ele>768</ele>
        <time>2017-05-25T11:27:15Z</time>
      </trkpt>
      <trkpt lat="45.63806" lon="5.71594">
        <ele>768</ele>
        <time>2017-05-25T11:27:15Z</time>
      </trkpt>
      <trkpt lat="45.63816" lon="5.71595">
        <ele>768</ele>
        <time>2017-05-25T11:27:15Z</time>
      </trkpt>
      <trkpt lat="45.63822" lon="5.71601">
        <ele>768</ele>
        <time>2017-05-25T11:27:15Z</time>
      </trkpt>
      <trkpt lat="45.63822" lon="5.71611">
        <ele>768</ele>
        <time>2017-05-25T11:27:31Z</time>
      </trkpt>
      <trkpt lat="45.63823" lon="5.71617">
        <ele>768</ele>
        <time>2017-05-25T11:27:31Z</time>
      </trkpt>
      <trkpt lat="45.63824" lon="5.71623">
        <ele>768</ele>
        <time>2017-05-25T11:27:31Z</time>
      </trkpt>
      <trkpt lat="45.63823" lon="5.71629">
        <ele>760</ele>
        <time>2017-05-25T11:27:31Z</time>
      </trkpt>
      <trkpt lat="45.63825" lon="5.71634">
        <ele>760</ele>
        <time>2017-05-25T11:27:47Z</time>
      </trkpt>
      <trkpt lat="45.63826" lon="5.71641">
        <ele>760</ele>
        <time>2017-05-25T11:27:47Z</time>
      </trkpt>
      <trkpt lat="45.63825" lon="5.71649">
        <ele>760</ele>
        <time>2017-05-25T11:27:47Z</time>
      </trkpt>
      <trkpt lat="45.63827" lon="5.71657">
        <ele>760</ele>
        <time>2017-05-25T11:27:47Z</time>
      </trkpt>
      <trkpt lat="45.63827" lon="5.71664">
        <ele>760</ele>
        <time>2017-05-25T11:28:03Z</time>
      </trkpt>
      <trkpt lat="45.63828" lon="5.71672">
        <ele>760</ele>
        <time>2017-05-25T11:28:03Z</time>
      </trkpt>
      <trkpt lat="45.63832" lon="5.71678">
        <ele>760</ele>
        <time>2017-05-25T11:28:03Z</time>
      </trkpt>
      <trkpt lat="45.63836" lon="5.71682">
        <ele>760</ele>
        <time>2017-05-25T11:28:03Z</time>
      </trkpt>
      <trkpt lat="45.6384" lon="5.71682">
        <ele>760</ele>
        <time>2017-05-25T11:28:19Z</time>
      </trkpt>
      <trkpt lat="45.63845" lon="5.71682">
        <ele>760</ele>
        <time>2017-05-25T11:28:19Z</time>
      </trkpt>
      <trkpt lat="45.6385" lon="5.71684">
        <ele>760</ele>
        <time>2017-05-25T11:28:19Z</time>
      </trkpt>
      <trkpt lat="45.63856" lon="5.71679">
        <ele>760</ele>
        <time>2017-05-25T11:28:19Z</time>
      </trkpt>
      <trkpt lat="45.63861" lon="5.71675">
        <ele>760</ele>
        <time>2017-05-25T11:28:35Z</time>
      </trkpt>
      <trkpt lat="45.63867" lon="5.71669">
        <ele>760</ele>
        <time>2017-05-25T11:28:35Z</time>
      </trkpt>
      <trkpt lat="45.63872" lon="5.71664">
        <ele>760</ele>
        <time>2017-05-25T11:28:35Z</time>
      </trkpt>
      <trkpt lat="45.63879" lon="5.71662">
        <ele>757</ele>
        <time>2017-05-25T11:28:35Z</time>
      </trkpt>
      <trkpt lat="45.63886" lon="5.71664">
        <ele>757</ele>
        <time>2017-05-25T11:28:51Z</time>
      </trkpt>
      <trkpt lat="45.63892" lon="5.71666">
        <ele>757</ele>
        <time>2017-05-25T11:28:51Z</time>
      </trkpt>
      <trkpt lat="45.63898" lon="5.71669">
        <ele>757</ele>
        <time>2017-05-25T11:28:51Z</time>
      </trkpt>
      <trkpt lat="45.63905" lon="5.71672">
        <ele>757</ele>
        <time>2017-05-25T11:28:51Z</time>
      </trkpt>
      <trkpt lat="45.63911" lon="5.71674">
        <ele>757</ele>
        <time>2017-05-25T11:29:07Z</time>
      </trkpt>
      <trkpt lat="45.63917" lon="5.71676">
        <ele>757</ele>
        <time>2017-05-25T11:29:07Z</time>
      </trkpt>
      <trkpt lat="45.63921" lon="5.71682">
        <ele>757</ele>
        <time>2017-05-25T11:29:07Z</time>
      </trkpt>
      <trkpt lat="45.63927" lon="5.71687">
        <ele>757</ele>
        <time>2017-05-25T11:29:07Z</time>
      </trkpt>
      <trkpt lat="45.63932" lon="5.71691">
        <ele>757</ele>
        <time>2017-05-25T11:29:23Z</time>
      </trkpt>
      <trkpt lat="45.63937" lon="5.71697">
        <ele>757</ele>
        <time>2017-05-25T11:29:23Z</time>
      </trkpt>
      <trkpt lat="45.63942" lon="5.71703">
        <ele>757</ele>
        <time>2017-05-25T11:29:23Z</time>
      </trkpt>
      <trkpt lat="45.63947" lon="5.71708">
        <ele>746</ele>
        <time>2017-05-25T11:29:23Z</time>
      </trkpt>
      <trkpt lat="45.63952" lon="5.71713">
        <ele>746</ele>
        <time>2017-05-25T11:29:39Z</time>
      </trkpt>
      <trkpt lat="45.63956" lon="5.71721">
        <ele>746</ele>
        <time>2017-05-25T11:29:39Z</time>
      </trkpt>
      <trkpt lat="45.63961" lon="5.71726">
        <ele>747</ele>
        <time>2017-05-25T11:29:39Z</time>
      </trkpt>
      <trkpt lat="45.63966" lon="5.71732">
        <ele>747</ele>
        <time>2017-05-25T11:29:39Z</time>
      </trkpt>
      <trkpt lat="45.63971" lon="5.71737">
        <ele>747</ele>
        <time>2017-05-25T11:29:55Z</time>
      </trkpt>
      <trkpt lat="45.63975" lon="5.71742">
        <ele>747</ele>
        <time>2017-05-25T11:29:55Z</time>
      </trkpt>
      <trkpt lat="45.63979" lon="5.71746">
        <ele>747</ele>
        <time>2017-05-25T11:29:55Z</time>
      </trkpt>
      <trkpt lat="45.63984" lon="5.7175">
        <ele>747</ele>
        <time>2017-05-25T11:29:55Z</time>
      </trkpt>
      <trkpt lat="45.63988" lon="5.71754">
        <ele>747</ele>
        <time>2017-05-25T11:30:11Z</time>
      </trkpt>
      <trkpt lat="45.63993" lon="5.71758">
        <ele>747</ele>
        <time>2017-05-25T11:30:11Z</time>
      </trkpt>
      <trkpt lat="45.63997" lon="5.71761">
        <ele>747</ele>
        <time>2017-05-25T11:30:11Z</time>
      </trkpt>
      <trkpt lat="45.64003" lon="5.71765">
        <ele>747</ele>
        <time>2017-05-25T11:30:11Z</time>
      </trkpt>
      <trkpt lat="45.64009" lon="5.71769">
        <ele>747</ele>
        <time>2017-05-25T11:30:27Z</time>
      </trkpt>
      <trkpt lat="45.64014" lon="5.71775">
        <ele>747</ele>
        <time>2017-05-25T11:30:27Z</time>
      </trkpt>
      <trkpt lat="45.64019" lon="5.71779">
        <ele>747</ele>
        <time>2017-05-25T11:30:27Z</time>
      </trkpt>
      <trkpt lat="45.64024" lon="5.71785">
        <ele>747</ele>
        <time>2017-05-25T11:30:27Z</time>
      </trkpt>
      <trkpt lat="45.64027" lon="5.71793">
        <ele>736</ele>
        <time>2017-05-25T11:30:43Z</time>
      </trkpt>
      <trkpt lat="45.64028" lon="5.71803">
        <ele>736</ele>
        <time>2017-05-25T11:30:43Z</time>
      </trkpt>
      <trkpt lat="45.64028" lon="5.71811">
        <ele>736</ele>
        <time>2017-05-25T11:30:43Z</time>
      </trkpt>
      <trkpt lat="45.64028" lon="5.71821">
        <ele>736</ele>
        <time>2017-05-25T11:30:43Z</time>
      </trkpt>
      <trkpt lat="45.64028" lon="5.71831">
        <ele>736</ele>
        <time>2017-05-25T11:30:59Z</time>
      </trkpt>
      <trkpt lat="45.64028" lon="5.7184">
        <ele>736</ele>
        <time>2017-05-25T11:30:59Z</time>
      </trkpt>
      <trkpt lat="45.64029" lon="5.71849">
        <ele>736</ele>
        <time>2017-05-25T11:30:59Z</time>
      </trkpt>
      <trkpt lat="45.6403" lon="5.71856">
        <ele>736</ele>
        <time>2017-05-25T11:30:59Z</time>
      </trkpt>
      <trkpt lat="45.64031" lon="5.71865">
        <ele>736</ele>
        <time>2017-05-25T11:31:15Z</time>
      </trkpt>
      <trkpt lat="45.64037" lon="5.71868">
        <ele>736</ele>
        <time>2017-05-25T11:31:15Z</time>
      </trkpt>
      <trkpt lat="45.64044" lon="5.71869">
        <ele>737</ele>
        <time>2017-05-25T11:31:15Z</time>
      </trkpt>
      <trkpt lat="45.64049" lon="5.71867">
        <ele>737</ele>
        <time>2017-05-25T11:31:15Z</time>
      </trkpt>
      <trkpt lat="45.64054" lon="5.71862">
        <ele>737</ele>
        <time>2017-05-25T11:31:31Z</time>
      </trkpt>
      <trkpt lat="45.6406" lon="5.7186">
        <ele>737</ele>
        <time>2017-05-25T11:31:31Z</time>
      </trkpt>
      <trkpt lat="45.64072" lon="5.71856">
        <ele>737</ele>
        <time>2017-05-25T11:31:31Z</time>
      </trkpt>
      <trkpt lat="45.64081" lon="5.71859">
        <ele>737</ele>
        <time>2017-05-25T11:31:31Z</time>
      </trkpt>
      <trkpt lat="45.64088" lon="5.71861">
        <ele>737</ele>
        <time>2017-05-25T11:31:47Z</time>
      </trkpt>
      <trkpt lat="45.64092" lon="5.71863">
        <ele>737</ele>
        <time>2017-05-25T11:31:47Z</time>
      </trkpt>
      <trkpt lat="45.64096" lon="5.71865">
        <ele>737</ele>
        <time>2017-05-25T11:31:47Z</time>
      </trkpt>
      <trkpt lat="45.64098" lon="5.71865">
        <ele>737</ele>
        <time>2017-05-25T11:31:47Z</time>
      </trkpt>
      <trkpt lat="45.64102" lon="5.71866">
        <ele>737</ele>
        <time>2017-05-25T11:32:03Z</time>
      </trkpt>
      <trkpt lat="45.64109" lon="5.71869">
        <ele>737</ele>
        <time>2017-05-25T11:32:03Z</time>
      </trkpt>
      <trkpt lat="45.64117" lon="5.71875">
        <ele>725</ele>
        <time>2017-05-25T11:32:03Z</time>
      </trkpt>
      <trkpt lat="45.64124" lon="5.71877">
        <ele>725</ele>
        <time>2017-05-25T11:32:03Z</time>
      </trkpt>
      <trkpt lat="45.64128" lon="5.71878">
        <ele>724</ele>
        <time>2017-05-25T11:32:19Z</time>
      </trkpt>
      <trkpt lat="45.64134" lon="5.71883">
        <ele>724</ele>
        <time>2017-05-25T11:32:19Z</time>
      </trkpt>
      <trkpt lat="45.6414" lon="5.71884">
        <ele>724</ele>
        <time>2017-05-25T11:32:19Z</time>
      </trkpt>
      <trkpt lat="45.64148" lon="5.71885">
        <ele>724</ele>
        <time>2017-05-25T11:32:19Z</time>
      </trkpt>
      <trkpt lat="45.64156" lon="5.71884">
        <ele>724</ele>
        <time>2017-05-25T11:32:35Z</time>
      </trkpt>
      <trkpt lat="45.64162" lon="5.71885">
        <ele>724</ele>
        <time>2017-05-25T11:32:35Z</time>
      </trkpt>
      <trkpt lat="45.64168" lon="5.71888">
        <ele>724</ele>
        <time>2017-05-25T11:32:35Z</time>
      </trkpt>
      <trkpt lat="45.64177" lon="5.7189">
        <ele>724</ele>
        <time>2017-05-25T11:32:35Z</time>
      </trkpt>
      <trkpt lat="45.64185" lon="5.71887">
        <ele>724</ele>
        <time>2017-05-25T11:32:51Z</time>
      </trkpt>
      <trkpt lat="45.64189" lon="5.71887">
        <ele>724</ele>
        <time>2017-05-25T11:32:51Z</time>
      </trkpt>
      <trkpt lat="45.64193" lon="5.71884">
        <ele>724</ele>
        <time>2017-05-25T11:32:51Z</time>
      </trkpt>
      <trkpt lat="45.64203" lon="5.71883">
        <ele>724</ele>
        <time>2017-05-25T11:32:51Z</time>
      </trkpt>
      <trkpt lat="45.64209" lon="5.71883">
        <ele>727</ele>
        <time>2017-05-25T11:33:07Z</time>
      </trkpt>
      <trkpt lat="45.64214" lon="5.71884">
        <ele>727</ele>
        <time>2017-05-25T11:33:07Z</time>
      </trkpt>
      <trkpt lat="45.64227" lon="5.71878">
        <ele>727</ele>
        <time>2017-05-25T11:33:07Z</time>
      </trkpt>
      <trkpt lat="45.64238" lon="5.71874">
        <ele>737</ele>
        <time>2017-05-25T11:33:07Z</time>
      </trkpt>
      <trkpt lat="45.64245" lon="5.71869">
        <ele>737</ele>
        <time>2017-05-25T11:33:23Z</time>
      </trkpt>
      <trkpt lat="45.64251" lon="5.71869">
        <ele>737</ele>
        <time>2017-05-25T11:33:23Z</time>
      </trkpt>
      <trkpt lat="45.64256" lon="5.7187">
        <ele>737</ele>
        <time>2017-05-25T11:33:23Z</time>
      </trkpt>
      <trkpt lat="45.6426" lon="5.7187">
        <ele>737</ele>
        <time>2017-05-25T11:33:23Z</time>
      </trkpt>
      <trkpt lat="45.64263" lon="5.71864">
        <ele>737</ele>
        <time>2017-05-25T11:33:43Z</time>
      </trkpt>
      <trkpt lat="45.64265" lon="5.71864">
        <ele>737</ele>
        <time>2017-05-25T11:33:43Z</time>
      </trkpt>
      <trkpt lat="45.64267" lon="5.71866">
        <ele>737</ele>
        <time>2017-05-25T11:33:43Z</time>
      </trkpt>
      <trkpt lat="45.6427" lon="5.71866">
        <ele>737</ele>
        <time>2017-05-25T11:33:43Z</time>
      </trkpt>
      <trkpt lat="45.64273" lon="5.71865">
        <ele>737</ele>
        <time>2017-05-25T11:33:43Z</time>
      </trkpt>
      <trkpt lat="45.64277" lon="5.71862">
        <ele>737</ele>
        <time>2017-05-25T11:33:59Z</time>
      </trkpt>
      <trkpt lat="45.64281" lon="5.71857">
        <ele>737</ele>
        <time>2017-05-25T11:33:59Z</time>
      </trkpt>
      <trkpt lat="45.64285" lon="5.71854">
        <ele>737</ele>
        <time>2017-05-25T11:33:59Z</time>
      </trkpt>
      <trkpt lat="45.64292" lon="5.71857">
        <ele>739</ele>
        <time>2017-05-25T11:33:59Z</time>
      </trkpt>
      <trkpt lat="45.64303" lon="5.71868">
        <ele>739</ele>
        <time>2017-05-25T11:34:15Z</time>
      </trkpt>
      <trkpt lat="45.64313" lon="5.71874">
        <ele>739</ele>
        <time>2017-05-25T11:34:15Z</time>
      </trkpt>
      <trkpt lat="45.64317" lon="5.71879">
        <ele>730</ele>
        <time>2017-05-25T11:34:15Z</time>
      </trkpt>
      <trkpt lat="45.64324" lon="5.71881">
        <ele>730</ele>
        <time>2017-05-25T11:34:15Z</time>
      </trkpt>
      <trkpt lat="45.64332" lon="5.71887">
        <ele>730</ele>
        <time>2017-05-25T11:34:31Z</time>
      </trkpt>
      <trkpt lat="45.64336" lon="5.7189">
        <ele>730</ele>
        <time>2017-05-25T11:34:31Z</time>
      </trkpt>
      <trkpt lat="45.64339" lon="5.71896">
        <ele>730</ele>
        <time>2017-05-25T11:34:31Z</time>
      </trkpt>
      <trkpt lat="45.64339" lon="5.71901">
        <ele>730</ele>
        <time>2017-05-25T11:34:31Z</time>
      </trkpt>
      <trkpt lat="45.64337" lon="5.71902">
        <ele>730</ele>
        <time>2017-05-25T11:34:47Z</time>
      </trkpt>
      <trkpt lat="45.64334" lon="5.71906">
        <ele>730</ele>
        <time>2017-05-25T11:34:47Z</time>
      </trkpt>
      <trkpt lat="45.64333" lon="5.71915">
        <ele>730</ele>
        <time>2017-05-25T11:34:47Z</time>
      </trkpt>
      <trkpt lat="45.64336" lon="5.7192">
        <ele>730</ele>
        <time>2017-05-25T11:34:47Z</time>
      </trkpt>
      <trkpt lat="45.6434" lon="5.71926">
        <ele>730</ele>
        <time>2017-05-25T11:35:03Z</time>
      </trkpt>
      <trkpt lat="45.64344" lon="5.71929">
        <ele>730</ele>
        <time>2017-05-25T11:35:03Z</time>
      </trkpt>
      <trkpt lat="45.64348" lon="5.7193">
        <ele>730</ele>
        <time>2017-05-25T11:35:03Z</time>
      </trkpt>
      <trkpt lat="45.64351" lon="5.71932">
        <ele>730</ele>
        <time>2017-05-25T11:35:03Z</time>
      </trkpt>
      <trkpt lat="45.64357" lon="5.71936">
        <ele>730</ele>
        <time>2017-05-25T11:35:19Z</time>
      </trkpt>
      <trkpt lat="45.6436" lon="5.71941">
        <ele>730</ele>
        <time>2017-05-25T11:35:19Z</time>
      </trkpt>
      <trkpt lat="45.64362" lon="5.71948">
        <ele>730</ele>
        <time>2017-05-25T11:35:19Z</time>
      </trkpt>
      <trkpt lat="45.64364" lon="5.71954">
        <ele>730</ele>
        <time>2017-05-25T11:35:19Z</time>
      </trkpt>
      <trkpt lat="45.64366" lon="5.71958">
        <ele>730</ele>
        <time>2017-05-25T11:35:35Z</time>
      </trkpt>
      <trkpt lat="45.64369" lon="5.71961">
        <ele>720</ele>
        <time>2017-05-25T11:35:35Z</time>
      </trkpt>
      <trkpt lat="45.64372" lon="5.71963">
        <ele>720</ele>
        <time>2017-05-25T11:35:35Z</time>
      </trkpt>
      <trkpt lat="45.64375" lon="5.71966">
        <ele>719</ele>
        <time>2017-05-25T11:35:35Z</time>
      </trkpt>
      <trkpt lat="45.64378" lon="5.71972">
        <ele>719</ele>
        <time>2017-05-25T11:35:51Z</time>
      </trkpt>
      <trkpt lat="45.64379" lon="5.71978">
        <ele>719</ele>
        <time>2017-05-25T11:35:51Z</time>
      </trkpt>
      <trkpt lat="45.6438" lon="5.7199">
        <ele>719</ele>
        <time>2017-05-25T11:35:51Z</time>
      </trkpt>
      <trkpt lat="45.64377" lon="5.72">
        <ele>719</ele>
        <time>2017-05-25T11:35:51Z</time>
      </trkpt>
      <trkpt lat="45.64376" lon="5.72008">
        <ele>719</ele>
        <time>2017-05-25T11:36:07Z</time>
      </trkpt>
      <trkpt lat="45.64374" lon="5.72016">
        <ele>720</ele>
        <time>2017-05-25T11:36:07Z</time>
      </trkpt>
      <trkpt lat="45.64374" lon="5.72025">
        <ele>720</ele>
        <time>2017-05-25T11:36:07Z</time>
      </trkpt>
      <trkpt lat="45.64372" lon="5.7203">
        <ele>720</ele>
        <time>2017-05-25T11:36:07Z</time>
      </trkpt>
      <trkpt lat="45.64371" lon="5.72034">
        <ele>720</ele>
        <time>2017-05-25T11:36:23Z</time>
      </trkpt>
      <trkpt lat="45.64373" lon="5.72036">
        <ele>720</ele>
        <time>2017-05-25T11:36:23Z</time>
      </trkpt>
      <trkpt lat="45.64377" lon="5.72037">
        <ele>719</ele>
        <time>2017-05-25T11:36:23Z</time>
      </trkpt>
      <trkpt lat="45.6438" lon="5.7204">
        <ele>719</ele>
        <time>2017-05-25T11:36:23Z</time>
      </trkpt>
      <trkpt lat="45.64384" lon="5.7204">
        <ele>719</ele>
        <time>2017-05-25T11:36:39Z</time>
      </trkpt>
      <trkpt lat="45.64388" lon="5.72038">
        <ele>719</ele>
        <time>2017-05-25T11:36:39Z</time>
      </trkpt>
      <trkpt lat="45.64389" lon="5.72038">
        <ele>719</ele>
        <time>2017-05-25T11:36:39Z</time>
      </trkpt>
      <trkpt lat="45.64393" lon="5.72032">
        <ele>719</ele>
        <time>2017-05-25T11:36:39Z</time>
      </trkpt>
      <trkpt lat="45.64398" lon="5.72028">
        <ele>719</ele>
        <time>2017-05-25T11:36:55Z</time>
      </trkpt>
      <trkpt lat="45.64404" lon="5.72021">
        <ele>719</ele>
        <time>2017-05-25T11:36:55Z</time>
      </trkpt>
      <trkpt lat="45.64411" lon="5.72015">
        <ele>719</ele>
        <time>2017-05-25T11:36:55Z</time>
      </trkpt>
      <trkpt lat="45.64421" lon="5.72005">
        <ele>719</ele>
        <time>2017-05-25T11:36:55Z</time>
      </trkpt>
      <trkpt lat="45.64428" lon="5.72">
        <ele>719</ele>
        <time>2017-05-25T11:37:11Z</time>
      </trkpt>
      <trkpt lat="45.64431" lon="5.71992">
        <ele>719</ele>
        <time>2017-05-25T11:37:11Z</time>
      </trkpt>
      <trkpt lat="45.64432" lon="5.71985">
        <ele>719</ele>
        <time>2017-05-25T11:37:11Z</time>
      </trkpt>
      <trkpt lat="45.64435" lon="5.71976">
        <ele>719</ele>
        <time>2017-05-25T11:37:11Z</time>
      </trkpt>
      <trkpt lat="45.64436" lon="5.71968">
        <ele>719</ele>
        <time>2017-05-25T11:37:27Z</time>
      </trkpt>
      <trkpt lat="45.64439" lon="5.71964">
        <ele>719</ele>
        <time>2017-05-25T11:37:27Z</time>
      </trkpt>
      <trkpt lat="45.64441" lon="5.71962">
        <ele>719</ele>
        <time>2017-05-25T11:37:27Z</time>
      </trkpt>
      <trkpt lat="45.64444" lon="5.71958">
        <ele>732</ele>
        <time>2017-05-25T11:37:27Z</time>
      </trkpt>
      <trkpt lat="45.6445" lon="5.71959">
        <ele>719</ele>
        <time>2017-05-25T11:37:43Z</time>
      </trkpt>
      <trkpt lat="45.64455" lon="5.71961">
        <ele>719</ele>
        <time>2017-05-25T11:37:43Z</time>
      </trkpt>
      <trkpt lat="45.64459" lon="5.71962">
        <ele>716</ele>
        <time>2017-05-25T11:37:43Z</time>
      </trkpt>
      <trkpt lat="45.64465" lon="5.71957">
        <ele>730</ele>
        <time>2017-05-25T11:37:43Z</time>
      </trkpt>
      <trkpt lat="45.64471" lon="5.71953">
        <ele>730</ele>
        <time>2017-05-25T11:37:59Z</time>
      </trkpt>
      <trkpt lat="45.64477" lon="5.71952">
        <ele>730</ele>
        <time>2017-05-25T11:37:59Z</time>
      </trkpt>
      <trkpt lat="45.64482" lon="5.7195">
        <ele>730</ele>
        <time>2017-05-25T11:37:59Z</time>
      </trkpt>
      <trkpt lat="45.64485" lon="5.71948">
        <ele>730</ele>
        <time>2017-05-25T11:37:59Z</time>
      </trkpt>
      <trkpt lat="45.64489" lon="5.71946">
        <ele>730</ele>
        <time>2017-05-25T11:38:15Z</time>
      </trkpt>
      <trkpt lat="45.64497" lon="5.71945">
        <ele>730</ele>
        <time>2017-05-25T11:38:15Z</time>
      </trkpt>
      <trkpt lat="45.64507" lon="5.7194">
        <ele>730</ele>
        <time>2017-05-25T11:38:15Z</time>
      </trkpt>
      <trkpt lat="45.64517" lon="5.71938">
        <ele>730</ele>
        <time>2017-05-25T11:38:15Z</time>
      </trkpt>
      <trkpt lat="45.64523" lon="5.7194">
        <ele>730</ele>
        <time>2017-05-25T11:38:31Z</time>
      </trkpt>
      <trkpt lat="45.64528" lon="5.71938">
        <ele>730</ele>
        <time>2017-05-25T11:38:31Z</time>
      </trkpt>
      <trkpt lat="45.64535" lon="5.71938">
        <ele>730</ele>
        <time>2017-05-25T11:38:31Z</time>
      </trkpt>
      <trkpt lat="45.64541" lon="5.71935">
        <ele>730</ele>
        <time>2017-05-25T11:38:31Z</time>
      </trkpt>
      <trkpt lat="45.64548" lon="5.71936">
        <ele>723</ele>
        <time>2017-05-25T11:38:47Z</time>
      </trkpt>
      <trkpt lat="45.64554" lon="5.71935">
        <ele>723</ele>
        <time>2017-05-25T11:38:47Z</time>
      </trkpt>
      <trkpt lat="45.64559" lon="5.71932">
        <ele>723</ele>
        <time>2017-05-25T11:38:47Z</time>
      </trkpt>
      <trkpt lat="45.64566" lon="5.71934">
        <ele>723</ele>
        <time>2017-05-25T11:38:47Z</time>
      </trkpt>
      <trkpt lat="45.64572" lon="5.71936">
        <ele>723</ele>
        <time>2017-05-25T11:39:03Z</time>
      </trkpt>
      <trkpt lat="45.64576" lon="5.71941">
        <ele>723</ele>
        <time>2017-05-25T11:39:03Z</time>
      </trkpt>
      <trkpt lat="45.64577" lon="5.7195">
        <ele>723</ele>
        <time>2017-05-25T11:39:03Z</time>
      </trkpt>
      <trkpt lat="45.64579" lon="5.71955">
        <ele>723</ele>
        <time>2017-05-25T11:39:03Z</time>
      </trkpt>
      <trkpt lat="45.64581" lon="5.71958">
        <ele>723</ele>
        <time>2017-05-25T11:39:19Z</time>
      </trkpt>
      <trkpt lat="45.64583" lon="5.71962">
        <ele>711</ele>
        <time>2017-05-25T11:39:19Z</time>
      </trkpt>
      <trkpt lat="45.64587" lon="5.71962">
        <ele>711</ele>
        <time>2017-05-25T11:39:19Z</time>
      </trkpt>
      <trkpt lat="45.64591" lon="5.71963">
        <ele>711</ele>
        <time>2017-05-25T11:39:19Z</time>
      </trkpt>
      <trkpt lat="45.64595" lon="5.71963">
        <ele>711</ele>
        <time>2017-05-25T11:39:35Z</time>
      </trkpt>
      <trkpt lat="45.64599" lon="5.71964">
        <ele>711</ele>
        <time>2017-05-25T11:39:35Z</time>
      </trkpt>
      <trkpt lat="45.64602" lon="5.71963">
        <ele>711</ele>
        <time>2017-05-25T11:39:35Z</time>
      </trkpt>
      <trkpt lat="45.64605" lon="5.71962">
        <ele>711</ele>
        <time>2017-05-25T11:39:35Z</time>
      </trkpt>
      <trkpt lat="45.64607" lon="5.71962">
        <ele>711</ele>
        <time>2017-05-25T11:39:55Z</time>
      </trkpt>
      <trkpt lat="45.64609" lon="5.7196">
        <ele>711</ele>
        <time>2017-05-25T11:39:55Z</time>
      </trkpt>
      <trkpt lat="45.64613" lon="5.71959">
        <ele>711</ele>
        <time>2017-05-25T11:39:55Z</time>
      </trkpt>
      <trkpt lat="45.64615" lon="5.71959">
        <ele>711</ele>
        <time>2017-05-25T11:39:55Z</time>
      </trkpt>
      <trkpt lat="45.64619" lon="5.71959">
        <ele>711</ele>
        <time>2017-05-25T11:39:55Z</time>
      </trkpt>
      <trkpt lat="45.64624" lon="5.71959">
        <ele>711</ele>
        <time>2017-05-25T11:40:11Z</time>
      </trkpt>
      <trkpt lat="45.64629" lon="5.71959">
        <ele>707</ele>
        <time>2017-05-25T11:40:11Z</time>
      </trkpt>
      <trkpt lat="45.64632" lon="5.71963">
        <ele>707</ele>
        <time>2017-05-25T11:40:11Z</time>
      </trkpt>
      <trkpt lat="45.64636" lon="5.71967">
        <ele>707</ele>
        <time>2017-05-25T11:40:11Z</time>
      </trkpt>
      <trkpt lat="45.64643" lon="5.71973">
        <ele>707</ele>
        <time>2017-05-25T11:40:27Z</time>
      </trkpt>
      <trkpt lat="45.64654" lon="5.71976">
        <ele>707</ele>
        <time>2017-05-25T11:40:27Z</time>
      </trkpt>
      <trkpt lat="45.6466" lon="5.7198">
        <ele>707</ele>
        <time>2017-05-25T11:40:27Z</time>
      </trkpt>
      <trkpt lat="45.64666" lon="5.71987">
        <ele>707</ele>
        <time>2017-05-25T11:40:27Z</time>
      </trkpt>
      <trkpt lat="45.6467" lon="5.71995">
        <ele>707</ele>
        <time>2017-05-25T11:40:43Z</time>
      </trkpt>
      <trkpt lat="45.64674" lon="5.72001">
        <ele>707</ele>
        <time>2017-05-25T11:40:43Z</time>
      </trkpt>
      <trkpt lat="45.64678" lon="5.72007">
        <ele>707</ele>
        <time>2017-05-25T11:40:43Z</time>
      </trkpt>
      <trkpt lat="45.64684" lon="5.72012">
        <ele>707</ele>
        <time>2017-05-25T11:40:43Z</time>
      </trkpt>
      <trkpt lat="45.6469" lon="5.72015">
        <ele>707</ele>
        <time>2017-05-25T11:40:59Z</time>
      </trkpt>
      <trkpt lat="45.64693" lon="5.72019">
        <ele>707</ele>
        <time>2017-05-25T11:40:59Z</time>
      </trkpt>
      <trkpt lat="45.64696" lon="5.72021">
        <ele>707</ele>
        <time>2017-05-25T11:40:59Z</time>
      </trkpt>
      <trkpt lat="45.64699" lon="5.72024">
        <ele>707</ele>
        <time>2017-05-25T11:40:59Z</time>
      </trkpt>
      <trkpt lat="45.64705" lon="5.7203">
        <ele>707</ele>
        <time>2017-05-25T11:41:15Z</time>
      </trkpt>
      <trkpt lat="45.64711" lon="5.72034">
        <ele>704</ele>
        <time>2017-05-25T11:41:15Z</time>
      </trkpt>
      <trkpt lat="45.64715" lon="5.72037">
        <ele>704</ele>
        <time>2017-05-25T11:41:15Z</time>
      </trkpt>
      <trkpt lat="45.64718" lon="5.7204">
        <ele>704</ele>
        <time>2017-05-25T11:41:15Z</time>
      </trkpt>
      <trkpt lat="45.64722" lon="5.72042">
        <ele>693</ele>
        <time>2017-05-25T11:41:31Z</time>
      </trkpt>
      <trkpt lat="45.64727" lon="5.72045">
        <ele>693</ele>
        <time>2017-05-25T11:41:31Z</time>
      </trkpt>
      <trkpt lat="45.64729" lon="5.72048">
        <ele>693</ele>
        <time>2017-05-25T11:41:31Z</time>
      </trkpt>
      <trkpt lat="45.64731" lon="5.7205">
        <ele>693</ele>
        <time>2017-05-25T11:41:31Z</time>
      </trkpt>
      <trkpt lat="45.64732" lon="5.72054">
        <ele>693</ele>
        <time>2017-05-25T11:41:47Z</time>
      </trkpt>
      <trkpt lat="45.64736" lon="5.72057">
        <ele>693</ele>
        <time>2017-05-25T11:41:47Z</time>
      </trkpt>
      <trkpt lat="45.64742" lon="5.7206">
        <ele>693</ele>
        <time>2017-05-25T11:41:47Z</time>
      </trkpt>
      <trkpt lat="45.64745" lon="5.72059">
        <ele>693</ele>
        <time>2017-05-25T11:41:47Z</time>
      </trkpt>
      <trkpt lat="45.64747" lon="5.72063">
        <ele>693</ele>
        <time>2017-05-25T11:42:03Z</time>
      </trkpt>
      <trkpt lat="45.6475" lon="5.72066">
        <ele>693</ele>
        <time>2017-05-25T11:42:03Z</time>
      </trkpt>
      <trkpt lat="45.64752" lon="5.72071">
        <ele>693</ele>
        <time>2017-05-25T11:42:03Z</time>
      </trkpt>
      <trkpt lat="45.64752" lon="5.72077">
        <ele>693</ele>
        <time>2017-05-25T11:42:03Z</time>
      </trkpt>
      <trkpt lat="45.64754" lon="5.72082">
        <ele>693</ele>
        <time>2017-05-25T11:42:23Z</time>
      </trkpt>
      <trkpt lat="45.64756" lon="5.72086">
        <ele>693</ele>
        <time>2017-05-25T11:42:23Z</time>
      </trkpt>
      <trkpt lat="45.64759" lon="5.72088">
        <ele>693</ele>
        <time>2017-05-25T11:42:23Z</time>
      </trkpt>
      <trkpt lat="45.6476" lon="5.72091">
        <ele>693</ele>
        <time>2017-05-25T11:42:23Z</time>
      </trkpt>
      <trkpt lat="45.64761" lon="5.72094">
        <ele>693</ele>
        <time>2017-05-25T11:42:23Z</time>
      </trkpt>
      <trkpt lat="45.64762" lon="5.72098">
        <ele>693</ele>
        <time>2017-05-25T11:42:39Z</time>
      </trkpt>
      <trkpt lat="45.64763" lon="5.72102">
        <ele>693</ele>
        <time>2017-05-25T11:42:39Z</time>
      </trkpt>
      <trkpt lat="45.64766" lon="5.72109">
        <ele>693</ele>
        <time>2017-05-25T11:42:39Z</time>
      </trkpt>
      <trkpt lat="45.64766" lon="5.72113">
        <ele>693</ele>
        <time>2017-05-25T11:42:39Z</time>
      </trkpt>
      <trkpt lat="45.6477" lon="5.72119">
        <ele>693</ele>
        <time>2017-05-25T11:42:55Z</time>
      </trkpt>
      <trkpt lat="45.64771" lon="5.72121">
        <ele>693</ele>
        <time>2017-05-25T11:42:55Z</time>
      </trkpt>
      <trkpt lat="45.64773" lon="5.72125">
        <ele>682</ele>
        <time>2017-05-25T11:42:55Z</time>
      </trkpt>
      <trkpt lat="45.64774" lon="5.72131">
        <ele>682</ele>
        <time>2017-05-25T11:42:55Z</time>
      </trkpt>
      <trkpt lat="45.64774" lon="5.72137">
        <ele>682</ele>
        <time>2017-05-25T11:43:11Z</time>
      </trkpt>
      <trkpt lat="45.64776" lon="5.72144">
        <ele>682</ele>
        <time>2017-05-25T11:43:11Z</time>
      </trkpt>
      <trkpt lat="45.64776" lon="5.72152">
        <ele>682</ele>
        <time>2017-05-25T11:43:11Z</time>
      </trkpt>
      <trkpt lat="45.64776" lon="5.72153">
        <ele>682</ele>
        <time>2017-05-25T11:43:11Z</time>
      </trkpt>
      <trkpt lat="45.64775" lon="5.72156">
        <ele>682</ele>
        <time>2017-05-25T11:43:27Z</time>
      </trkpt>
      <trkpt lat="45.64774" lon="5.7216">
        <ele>682</ele>
        <time>2017-05-25T11:43:27Z</time>
      </trkpt>
      <trkpt lat="45.6477" lon="5.72166">
        <ele>682</ele>
        <time>2017-05-25T11:43:27Z</time>
      </trkpt>
      <trkpt lat="45.64767" lon="5.72171">
        <ele>682</ele>
        <time>2017-05-25T11:43:27Z</time>
      </trkpt>
      <trkpt lat="45.64764" lon="5.7218">
        <ele>682</ele>
        <time>2017-05-25T11:43:47Z</time>
      </trkpt>
      <trkpt lat="45.64761" lon="5.72182">
        <ele>682</ele>
        <time>2017-05-25T11:43:47Z</time>
      </trkpt>
      <trkpt lat="45.6476" lon="5.72185">
        <ele>682</ele>
        <time>2017-05-25T11:43:47Z</time>
      </trkpt>
      <trkpt lat="45.64758" lon="5.72187">
        <ele>682</ele>
        <time>2017-05-25T11:43:47Z</time>
      </trkpt>
      <trkpt lat="45.64755" lon="5.72191">
        <ele>682</ele>
        <time>2017-05-25T11:43:47Z</time>
      </trkpt>
      <trkpt lat="45.64752" lon="5.72195">
        <ele>682</ele>
        <time>2017-05-25T11:44:03Z</time>
      </trkpt>
      <trkpt lat="45.64748" lon="5.72203">
        <ele>682</ele>
        <time>2017-05-25T11:44:03Z</time>
      </trkpt>
      <trkpt lat="45.64744" lon="5.72207">
        <ele>682</ele>
        <time>2017-05-25T11:44:03Z</time>
      </trkpt>
      <trkpt lat="45.64741" lon="5.72211">
        <ele>669</ele>
        <time>2017-05-25T11:44:03Z</time>
      </trkpt>
      <trkpt lat="45.64739" lon="5.7221">
        <ele>669</ele>
        <time>2017-05-25T11:44:19Z</time>
      </trkpt>
      <trkpt lat="45.64737" lon="5.72211">
        <ele>669</ele>
        <time>2017-05-25T11:44:19Z</time>
      </trkpt>
      <trkpt lat="45.64734" lon="5.72212">
        <ele>669</ele>
        <time>2017-05-25T11:44:19Z</time>
      </trkpt>
      <trkpt lat="45.6473" lon="5.72214">
        <ele>669</ele>
        <time>2017-05-25T11:44:19Z</time>
      </trkpt>
      <trkpt lat="45.64726" lon="5.72218">
        <ele>669</ele>
        <time>2017-05-25T11:44:35Z</time>
      </trkpt>
      <trkpt lat="45.64722" lon="5.72221">
        <ele>669</ele>
        <time>2017-05-25T11:44:35Z</time>
      </trkpt>
      <trkpt lat="45.6472" lon="5.72223">
        <ele>669</ele>
        <time>2017-05-25T11:44:35Z</time>
      </trkpt>
      <trkpt lat="45.64715" lon="5.72221">
        <ele>669</ele>
        <time>2017-05-25T11:44:35Z</time>
      </trkpt>
      <trkpt lat="45.64713" lon="5.72216">
        <ele>669</ele>
        <time>2017-05-25T11:44:51Z</time>
      </trkpt>
      <trkpt lat="45.64709" lon="5.72218">
        <ele>669</ele>
        <time>2017-05-25T11:44:51Z</time>
      </trkpt>
      <trkpt lat="45.64704" lon="5.72221">
        <ele>674</ele>
        <time>2017-05-25T11:44:51Z</time>
      </trkpt>
      <trkpt lat="45.64699" lon="5.72222">
        <ele>674</ele>
        <time>2017-05-25T11:44:51Z</time>
      </trkpt>
      <trkpt lat="45.64688" lon="5.72225">
        <ele>674</ele>
        <time>2017-05-25T11:45:23Z</time>
      </trkpt>
      <trkpt lat="45.64686" lon="5.72222">
        <ele>674</ele>
        <time>2017-05-25T11:45:23Z</time>
      </trkpt>
      <trkpt lat="45.64684" lon="5.7222">
        <ele>674</ele>
        <time>2017-05-25T11:45:23Z</time>
      </trkpt>
      <trkpt lat="45.64684" lon="5.7222">
        <ele>674</ele>
        <time>2017-05-25T11:45:23Z</time>
      </trkpt>
      <trkpt lat="45.64684" lon="5.7222">
        <ele>674</ele>
        <time>2017-05-25T11:45:23Z</time>
      </trkpt>
      <trkpt lat="45.64682" lon="5.72227">
        <ele>674</ele>
        <time>2017-05-25T11:45:55Z</time>
      </trkpt>
      <trkpt lat="45.64682" lon="5.72227">
        <ele>674</ele>
        <time>2017-05-25T11:45:55Z</time>
      </trkpt>
      <trkpt lat="45.64682" lon="5.72227">
        <ele>674</ele>
        <time>2017-05-25T11:45:55Z</time>
      </trkpt>
      <trkpt lat="45.64681" lon="5.72229">
        <ele>674</ele>
        <time>2017-05-25T11:45:55Z</time>
      </trkpt>
      <trkpt lat="45.6468" lon="5.72236">
        <ele>674</ele>
        <time>2017-05-25T11:45:55Z</time>
      </trkpt>
      <trkpt lat="45.64679" lon="5.72241">
        <ele>674</ele>
        <time>2017-05-25T11:46:31Z</time>
      </trkpt>
      <trkpt lat="45.64681" lon="5.72245">
        <ele>674</ele>
        <time>2017-05-25T11:46:31Z</time>
      </trkpt>
      <trkpt lat="45.64685" lon="5.72249">
        <ele>674</ele>
        <time>2017-05-25T11:46:31Z</time>
      </trkpt>
      <trkpt lat="45.64689" lon="5.72254">
        <ele>674</ele>
        <time>2017-05-25T11:46:31Z</time>
      </trkpt>
      <trkpt lat="45.64691" lon="5.72262">
        <ele>674</ele>
        <time>2017-05-25T11:46:31Z</time>
      </trkpt>
      <trkpt lat="45.64704" lon="5.72268">
        <ele>674</ele>
        <time>2017-05-25T11:47:15Z</time>
      </trkpt>
      <trkpt lat="45.64705" lon="5.7227">
        <ele>674</ele>
        <time>2017-05-25T11:47:15Z</time>
      </trkpt>
      <trkpt lat="45.64705" lon="5.72271">
        <ele>674</ele>
        <time>2017-05-25T11:47:15Z</time>
      </trkpt>
      <trkpt lat="45.64706" lon="5.72273">
        <ele>674</ele>
        <time>2017-05-25T11:47:15Z</time>
      </trkpt>
      <trkpt lat="45.64706" lon="5.72272">
        <ele>674</ele>
        <time>2017-05-25T11:47:15Z</time>
      </trkpt>
      <trkpt lat="45.64708" lon="5.72269">
        <ele>674</ele>
        <time>2017-05-25T11:48:03Z</time>
      </trkpt>
      <trkpt lat="45.64708" lon="5.72269">
        <ele>669</ele>
        <time>2017-05-25T11:48:03Z</time>
      </trkpt>
      <trkpt lat="45.64709" lon="5.72269">
        <ele>669</ele>
        <time>2017-05-25T11:48:03Z</time>
      </trkpt>
      <trkpt lat="45.6471" lon="5.72269">
        <ele>669</ele>
        <time>2017-05-25T11:48:03Z</time>
      </trkpt>
      <trkpt lat="45.64718" lon="5.72266">
        <ele>669</ele>
        <time>2017-05-25T11:48:03Z</time>
      </trkpt>
      <trkpt lat="45.64727" lon="5.72265">
        <ele>669</ele>
        <time>2017-05-25T11:48:19Z</time>
      </trkpt>
      <trkpt lat="45.64734" lon="5.72268">
        <ele>669</ele>
        <time>2017-05-25T11:48:19Z</time>
      </trkpt>
      <trkpt lat="45.64738" lon="5.72269">
        <ele>669</ele>
        <time>2017-05-25T11:48:19Z</time>
      </trkpt>
      <trkpt lat="45.64746" lon="5.72271">
        <ele>669</ele>
        <time>2017-05-25T11:48:19Z</time>
      </trkpt>
      <trkpt lat="45.6475" lon="5.72271">
        <ele>669</ele>
        <time>2017-05-25T11:48:35Z</time>
      </trkpt>
      <trkpt lat="45.64753" lon="5.72272">
        <ele>669</ele>
        <time>2017-05-25T11:48:35Z</time>
      </trkpt>
      <trkpt lat="45.6476" lon="5.72274">
        <ele>669</ele>
        <time>2017-05-25T11:48:35Z</time>
      </trkpt>
      <trkpt lat="45.64767" lon="5.72274">
        <ele>669</ele>
        <time>2017-05-25T11:48:35Z</time>
      </trkpt>
      <trkpt lat="45.64777" lon="5.72274">
        <ele>669</ele>
        <time>2017-05-25T11:48:51Z</time>
      </trkpt>
      <trkpt lat="45.64789" lon="5.7227">
        <ele>669</ele>
        <time>2017-05-25T11:48:51Z</time>
      </trkpt>
      <trkpt lat="45.64792" lon="5.72267">
        <ele>669</ele>
        <time>2017-05-25T11:48:51Z</time>
      </trkpt>
      <trkpt lat="45.64795" lon="5.72266">
        <ele>669</ele>
        <time>2017-05-25T11:48:51Z</time>
      </trkpt>
      <trkpt lat="45.64799" lon="5.72262">
        <ele>669</ele>
        <time>2017-05-25T11:49:07Z</time>
      </trkpt>
      <trkpt lat="45.64804" lon="5.72255">
        <ele>669</ele>
        <time>2017-05-25T11:49:07Z</time>
      </trkpt>
      <trkpt lat="45.64812" lon="5.7225">
        <ele>669</ele>
        <time>2017-05-25T11:49:07Z</time>
      </trkpt>
      <trkpt lat="45.64819" lon="5.72243">
        <ele>669</ele>
        <time>2017-05-25T11:49:07Z</time>
      </trkpt>
      <trkpt lat="45.64826" lon="5.72237">
        <ele>669</ele>
        <time>2017-05-25T11:49:23Z</time>
      </trkpt>
      <trkpt lat="45.64832" lon="5.7223">
        <ele>669</ele>
        <time>2017-05-25T11:49:23Z</time>
      </trkpt>
      <trkpt lat="45.6484" lon="5.72224">
        <ele>669</ele>
        <time>2017-05-25T11:49:23Z</time>
      </trkpt>
      <trkpt lat="45.64849" lon="5.72221">
        <ele>669</ele>
        <time>2017-05-25T11:49:23Z</time>
      </trkpt>
      <trkpt lat="45.64857" lon="5.7222">
        <ele>669</ele>
        <time>2017-05-25T11:49:39Z</time>
      </trkpt>
      <trkpt lat="45.64865" lon="5.72218">
        <ele>669</ele>
        <time>2017-05-25T11:49:39Z</time>
      </trkpt>
      <trkpt lat="45.64872" lon="5.72215">
        <ele>669</ele>
        <time>2017-05-25T11:49:39Z</time>
      </trkpt>
      <trkpt lat="45.64885" lon="5.72214">
        <ele>675</ele>
        <time>2017-05-25T11:49:39Z</time>
      </trkpt>
      <trkpt lat="45.64892" lon="5.72215">
        <ele>675</ele>
        <time>2017-05-25T11:49:55Z</time>
      </trkpt>
      <trkpt lat="45.64897" lon="5.72213">
        <ele>675</ele>
        <time>2017-05-25T11:49:55Z</time>
      </trkpt>
      <trkpt lat="45.64903" lon="5.7221">
        <ele>675</ele>
        <time>2017-05-25T11:49:55Z</time>
      </trkpt>
      <trkpt lat="45.64908" lon="5.72211">
        <ele>675</ele>
        <time>2017-05-25T11:49:55Z</time>
      </trkpt>
      <trkpt lat="45.64919" lon="5.72217">
        <ele>675</ele>
        <time>2017-05-25T11:50:11Z</time>
      </trkpt>
      <trkpt lat="45.64935" lon="5.72223">
        <ele>675</ele>
        <time>2017-05-25T11:50:11Z</time>
      </trkpt>
      <trkpt lat="45.64946" lon="5.72227">
        <ele>675</ele>
        <time>2017-05-25T11:50:11Z</time>
      </trkpt>
      <trkpt lat="45.6495" lon="5.72228">
        <ele>675</ele>
        <time>2017-05-25T11:50:11Z</time>
      </trkpt>
      <trkpt lat="45.64962" lon="5.72224">
        <ele>675</ele>
        <time>2017-05-25T11:50:27Z</time>
      </trkpt>
      <trkpt lat="45.64979" lon="5.72222">
        <ele>675</ele>
        <time>2017-05-25T11:50:27Z</time>
      </trkpt>
      <trkpt lat="45.64997" lon="5.72221">
        <ele>675</ele>
        <time>2017-05-25T11:50:27Z</time>
      </trkpt>
      <trkpt lat="45.65016" lon="5.72212">
        <ele>675</ele>
        <time>2017-05-25T11:50:27Z</time>
      </trkpt>
      <trkpt lat="45.65028" lon="5.72208">
        <ele>686</ele>
        <time>2017-05-25T11:50:43Z</time>
      </trkpt>
      <trkpt lat="45.65032" lon="5.72207">
        <ele>686</ele>
        <time>2017-05-25T11:50:43Z</time>
      </trkpt>
      <trkpt lat="45.65039" lon="5.72204">
        <ele>686</ele>
        <time>2017-05-25T11:50:43Z</time>
      </trkpt>
      <trkpt lat="45.65044" lon="5.72203">
        <ele>681</ele>
        <time>2017-05-25T11:50:43Z</time>
      </trkpt>
      <trkpt lat="45.65047" lon="5.72209">
        <ele>672</ele>
        <time>2017-05-25T11:50:59Z</time>
      </trkpt>
      <trkpt lat="45.65051" lon="5.72209">
        <ele>672</ele>
        <time>2017-05-25T11:50:59Z</time>
      </trkpt>
      <trkpt lat="45.65058" lon="5.72206">
        <ele>681</ele>
        <time>2017-05-25T11:50:59Z</time>
      </trkpt>
      <trkpt lat="45.65068" lon="5.72202">
        <ele>681</ele>
        <time>2017-05-25T11:50:59Z</time>
      </trkpt>
      <trkpt lat="45.65077" lon="5.72201">
        <ele>681</ele>
        <time>2017-05-25T11:51:15Z</time>
      </trkpt>
      <trkpt lat="45.65082" lon="5.722">
        <ele>681</ele>
        <time>2017-05-25T11:51:15Z</time>
      </trkpt>
      <trkpt lat="45.65089" lon="5.72198">
        <ele>681</ele>
        <time>2017-05-25T11:51:15Z</time>
      </trkpt>
      <trkpt lat="45.651" lon="5.72193">
        <ele>681</ele>
        <time>2017-05-25T11:51:15Z</time>
      </trkpt>
      <trkpt lat="45.65109" lon="5.72191">
        <ele>681</ele>
        <time>2017-05-25T11:51:31Z</time>
      </trkpt>
      <trkpt lat="45.65114" lon="5.72188">
        <ele>681</ele>
        <time>2017-05-25T11:51:31Z</time>
      </trkpt>
      <trkpt lat="45.65119" lon="5.72188">
        <ele>681</ele>
        <time>2017-05-25T11:51:31Z</time>
      </trkpt>
      <trkpt lat="45.65123" lon="5.72188">
        <ele>681</ele>
        <time>2017-05-25T11:51:31Z</time>
      </trkpt>
      <trkpt lat="45.65129" lon="5.72185">
        <ele>674</ele>
        <time>2017-05-25T11:51:47Z</time>
      </trkpt>
      <trkpt lat="45.65139" lon="5.72181">
        <ele>674</ele>
        <time>2017-05-25T11:51:47Z</time>
      </trkpt>
      <trkpt lat="45.65145" lon="5.72179">
        <ele>674</ele>
        <time>2017-05-25T11:51:47Z</time>
      </trkpt>
      <trkpt lat="45.65151" lon="5.72178">
        <ele>674</ele>
        <time>2017-05-25T11:51:47Z</time>
      </trkpt>
      <trkpt lat="45.65155" lon="5.72175">
        <ele>674</ele>
        <time>2017-05-25T11:52:03Z</time>
      </trkpt>
      <trkpt lat="45.65161" lon="5.72174">
        <ele>674</ele>
        <time>2017-05-25T11:52:03Z</time>
      </trkpt>
      <trkpt lat="45.65168" lon="5.72173">
        <ele>674</ele>
        <time>2017-05-25T11:52:03Z</time>
      </trkpt>
      <trkpt lat="45.65174" lon="5.72171">
        <ele>674</ele>
        <time>2017-05-25T11:52:03Z</time>
      </trkpt>
      <trkpt lat="45.65178" lon="5.72171">
        <ele>674</ele>
        <time>2017-05-25T11:52:19Z</time>
      </trkpt>
      <trkpt lat="45.65183" lon="5.72173">
        <ele>674</ele>
        <time>2017-05-25T11:52:19Z</time>
      </trkpt>
      <trkpt lat="45.65187" lon="5.72177">
        <ele>674</ele>
        <time>2017-05-25T11:52:19Z</time>
      </trkpt>
      <trkpt lat="45.6519" lon="5.72182">
        <ele>674</ele>
        <time>2017-05-25T11:52:19Z</time>
      </trkpt>
      <trkpt lat="45.65192" lon="5.72187">
        <ele>674</ele>
        <time>2017-05-25T11:52:35Z</time>
      </trkpt>
      <trkpt lat="45.65197" lon="5.72191">
        <ele>674</ele>
        <time>2017-05-25T11:52:35Z</time>
      </trkpt>
      <trkpt lat="45.65201" lon="5.72192">
        <ele>674</ele>
        <time>2017-05-25T11:52:35Z</time>
      </trkpt>
      <trkpt lat="45.65204" lon="5.72195">
        <ele>674</ele>
        <time>2017-05-25T11:52:35Z</time>
      </trkpt>
      <trkpt lat="45.65207" lon="5.72195">
        <ele>674</ele>
        <time>2017-05-25T11:52:51Z</time>
      </trkpt>
      <trkpt lat="45.65208" lon="5.72194">
        <ele>674</ele>
        <time>2017-05-25T11:52:51Z</time>
      </trkpt>
      <trkpt lat="45.65212" lon="5.72196">
        <ele>666</ele>
        <time>2017-05-25T11:52:51Z</time>
      </trkpt>
      <trkpt lat="45.65217" lon="5.72197">
        <ele>666</ele>
        <time>2017-05-25T11:52:51Z</time>
      </trkpt>
      <trkpt lat="45.65224" lon="5.72197">
        <ele>666</ele>
        <time>2017-05-25T11:53:07Z</time>
      </trkpt>
      <trkpt lat="45.65231" lon="5.72198">
        <ele>666</ele>
        <time>2017-05-25T11:53:07Z</time>
      </trkpt>
      <trkpt lat="45.65238" lon="5.72203">
        <ele>666</ele>
        <time>2017-05-25T11:53:07Z</time>
      </trkpt>
      <trkpt lat="45.65246" lon="5.72206">
        <ele>666</ele>
        <time>2017-05-25T11:53:07Z</time>
      </trkpt>
      <trkpt lat="45.65253" lon="5.72205">
        <ele>666</ele>
        <time>2017-05-25T11:53:23Z</time>
      </trkpt>
      <trkpt lat="45.65261" lon="5.72207">
        <ele>666</ele>
        <time>2017-05-25T11:53:23Z</time>
      </trkpt>
      <trkpt lat="45.65265" lon="5.72212">
        <ele>656</ele>
        <time>2017-05-25T11:53:23Z</time>
      </trkpt>
      <trkpt lat="45.65268" lon="5.72219">
        <ele>656</ele>
        <time>2017-05-25T11:53:23Z</time>
      </trkpt>
      <trkpt lat="45.6527" lon="5.72226">
        <ele>656</ele>
        <time>2017-05-25T11:53:39Z</time>
      </trkpt>
      <trkpt lat="45.6527" lon="5.72235">
        <ele>656</ele>
        <time>2017-05-25T11:53:39Z</time>
      </trkpt>
      <trkpt lat="45.6527" lon="5.72247">
        <ele>656</ele>
        <time>2017-05-25T11:53:39Z</time>
      </trkpt>
      <trkpt lat="45.65271" lon="5.72258">
        <ele>656</ele>
        <time>2017-05-25T11:53:39Z</time>
      </trkpt>
      <trkpt lat="45.65273" lon="5.72273">
        <ele>656</ele>
        <time>2017-05-25T11:53:55Z</time>
      </trkpt>
      <trkpt lat="45.65274" lon="5.72288">
        <ele>656</ele>
        <time>2017-05-25T11:53:55Z</time>
      </trkpt>
      <trkpt lat="45.65274" lon="5.72299">
        <ele>647</ele>
        <time>2017-05-25T11:53:55Z</time>
      </trkpt>
      <trkpt lat="45.65273" lon="5.72309">
        <ele>647</ele>
        <time>2017-05-25T11:53:55Z</time>
      </trkpt>
      <trkpt lat="45.65271" lon="5.72318">
        <ele>647</ele>
        <time>2017-05-25T11:54:11Z</time>
      </trkpt>
      <trkpt lat="45.65271" lon="5.72323">
        <ele>647</ele>
        <time>2017-05-25T11:54:11Z</time>
      </trkpt>
      <trkpt lat="45.65272" lon="5.72327">
        <ele>647</ele>
        <time>2017-05-25T11:54:11Z</time>
      </trkpt>
      <trkpt lat="45.65273" lon="5.72335">
        <ele>647</ele>
        <time>2017-05-25T11:54:11Z</time>
      </trkpt>
      <trkpt lat="45.65274" lon="5.72346">
        <ele>647</ele>
        <time>2017-05-25T11:54:27Z</time>
      </trkpt>
      <trkpt lat="45.65277" lon="5.72354">
        <ele>647</ele>
        <time>2017-05-25T11:54:27Z</time>
      </trkpt>
      <trkpt lat="45.6528" lon="5.72358">
        <ele>647</ele>
        <time>2017-05-25T11:54:27Z</time>
      </trkpt>
      <trkpt lat="45.65285" lon="5.72364">
        <ele>647</ele>
        <time>2017-05-25T11:54:27Z</time>
      </trkpt>
      <trkpt lat="45.6529" lon="5.72366">
        <ele>647</ele>
        <time>2017-05-25T11:54:43Z</time>
      </trkpt>
      <trkpt lat="45.65293" lon="5.72371">
        <ele>640</ele>
        <time>2017-05-25T11:54:43Z</time>
      </trkpt>
      <trkpt lat="45.65293" lon="5.7238">
        <ele>630</ele>
        <time>2017-05-25T11:54:43Z</time>
      </trkpt>
      <trkpt lat="45.65295" lon="5.72388">
        <ele>630</ele>
        <time>2017-05-25T11:54:43Z</time>
      </trkpt>
      <trkpt lat="45.65297" lon="5.72396">
        <ele>630</ele>
        <time>2017-05-25T11:54:59Z</time>
      </trkpt>
      <trkpt lat="45.65298" lon="5.72404">
        <ele>630</ele>
        <time>2017-05-25T11:54:59Z</time>
      </trkpt>
      <trkpt lat="45.65299" lon="5.72414">
        <ele>630</ele>
        <time>2017-05-25T11:54:59Z</time>
      </trkpt>
      <trkpt lat="45.653" lon="5.72422">
        <ele>630</ele>
        <time>2017-05-25T11:54:59Z</time>
      </trkpt>
      <trkpt lat="45.65301" lon="5.72431">
        <ele>630</ele>
        <time>2017-05-25T11:55:15Z</time>
      </trkpt>
      <trkpt lat="45.65301" lon="5.72439">
        <ele>630</ele>
        <time>2017-05-25T11:55:15Z</time>
      </trkpt>
      <trkpt lat="45.65302" lon="5.72447">
        <ele>630</ele>
        <time>2017-05-25T11:55:15Z</time>
      </trkpt>
      <trkpt lat="45.65303" lon="5.72455">
        <ele>630</ele>
        <time>2017-05-25T11:55:15Z</time>
      </trkpt>
      <trkpt lat="45.65305" lon="5.72463">
        <ele>628</ele>
        <time>2017-05-25T11:55:31Z</time>
      </trkpt>
      <trkpt lat="45.65309" lon="5.72472">
        <ele>628</ele>
        <time>2017-05-25T11:55:31Z</time>
      </trkpt>
      <trkpt lat="45.65311" lon="5.72481">
        <ele>628</ele>
        <time>2017-05-25T11:55:31Z</time>
      </trkpt>
      <trkpt lat="45.65315" lon="5.72488">
        <ele>628</ele>
        <time>2017-05-25T11:55:31Z</time>
      </trkpt>
      <trkpt lat="45.65319" lon="5.72495">
        <ele>628</ele>
        <time>2017-05-25T11:55:47Z</time>
      </trkpt>
      <trkpt lat="45.65321" lon="5.72501">
        <ele>628</ele>
        <time>2017-05-25T11:55:47Z</time>
      </trkpt>
      <trkpt lat="45.65324" lon="5.72513">
        <ele>628</ele>
        <time>2017-05-25T11:55:47Z</time>
      </trkpt>
      <trkpt lat="45.65328" lon="5.72521">
        <ele>628</ele>
        <time>2017-05-25T11:55:47Z</time>
      </trkpt>
      <trkpt lat="45.65332" lon="5.72528">
        <ele>628</ele>
        <time>2017-05-25T11:56:03Z</time>
      </trkpt>
      <trkpt lat="45.65337" lon="5.72532">
        <ele>628</ele>
        <time>2017-05-25T11:56:03Z</time>
      </trkpt>
      <trkpt lat="45.65342" lon="5.72536">
        <ele>628</ele>
        <time>2017-05-25T11:56:03Z</time>
      </trkpt>
      <trkpt lat="45.65347" lon="5.72542">
        <ele>630</ele>
        <time>2017-05-25T11:56:03Z</time>
      </trkpt>
      <trkpt lat="45.65351" lon="5.72549">
        <ele>630</ele>
        <time>2017-05-25T11:56:19Z</time>
      </trkpt>
      <trkpt lat="45.65354" lon="5.72554">
        <ele>630</ele>
        <time>2017-05-25T11:56:19Z</time>
      </trkpt>
      <trkpt lat="45.65359" lon="5.72562">
        <ele>630</ele>
        <time>2017-05-25T11:56:19Z</time>
      </trkpt>
      <trkpt lat="45.65362" lon="5.72569">
        <ele>630</ele>
        <time>2017-05-25T11:56:19Z</time>
      </trkpt>
      <trkpt lat="45.65367" lon="5.72576">
        <ele>630</ele>
        <time>2017-05-25T11:56:35Z</time>
      </trkpt>
      <trkpt lat="45.6537" lon="5.7258">
        <ele>630</ele>
        <time>2017-05-25T11:56:35Z</time>
      </trkpt>
      <trkpt lat="45.65375" lon="5.72585">
        <ele>623</ele>
        <time>2017-05-25T11:56:35Z</time>
      </trkpt>
      <trkpt lat="45.65379" lon="5.72583">
        <ele>623</ele>
        <time>2017-05-25T11:56:35Z</time>
      </trkpt>
      <trkpt lat="45.65381" lon="5.72577">
        <ele>623</ele>
        <time>2017-05-25T11:57:03Z</time>
      </trkpt>
      <trkpt lat="45.65382" lon="5.72576">
        <ele>623</ele>
        <time>2017-05-25T11:57:03Z</time>
      </trkpt>
      <trkpt lat="45.65385" lon="5.72576">
        <ele>623</ele>
        <time>2017-05-25T11:57:03Z</time>
      </trkpt>
      <trkpt lat="45.65388" lon="5.72574">
        <ele>623</ele>
        <time>2017-05-25T11:57:03Z</time>
      </trkpt>
      <trkpt lat="45.65394" lon="5.72571">
        <ele>623</ele>
        <time>2017-05-25T11:57:03Z</time>
      </trkpt>
      <trkpt lat="45.654" lon="5.7257">
        <ele>623</ele>
        <time>2017-05-25T11:57:19Z</time>
      </trkpt>
      <trkpt lat="45.65406" lon="5.72569">
        <ele>623</ele>
        <time>2017-05-25T11:57:19Z</time>
      </trkpt>
      <trkpt lat="45.65413" lon="5.72567">
        <ele>623</ele>
        <time>2017-05-25T11:57:19Z</time>
      </trkpt>
      <trkpt lat="45.65419" lon="5.72565">
        <ele>623</ele>
        <time>2017-05-25T11:57:19Z</time>
      </trkpt>
      <trkpt lat="45.65425" lon="5.72563">
        <ele>623</ele>
        <time>2017-05-25T11:57:35Z</time>
      </trkpt>
      <trkpt lat="45.65431" lon="5.72559">
        <ele>623</ele>
        <time>2017-05-25T11:57:35Z</time>
      </trkpt>
      <trkpt lat="45.65436" lon="5.72555">
        <ele>623</ele>
        <time>2017-05-25T11:57:35Z</time>
      </trkpt>
      <trkpt lat="45.65441" lon="5.72549">
        <ele>623</ele>
        <time>2017-05-25T11:57:35Z</time>
      </trkpt>
      <trkpt lat="45.65447" lon="5.72541">
        <ele>618</ele>
        <time>2017-05-25T11:57:51Z</time>
      </trkpt>
      <trkpt lat="45.65449" lon="5.72533">
        <ele>618</ele>
        <time>2017-05-25T11:57:51Z</time>
      </trkpt>
      <trkpt lat="45.65451" lon="5.72522">
        <ele>618</ele>
        <time>2017-05-25T11:57:51Z</time>
      </trkpt>
      <trkpt lat="45.65451" lon="5.72512">
        <ele>618</ele>
        <time>2017-05-25T11:57:51Z</time>
      </trkpt>
      <trkpt lat="45.65449" lon="5.725">
        <ele>618</ele>
        <time>2017-05-25T11:58:07Z</time>
      </trkpt>
      <trkpt lat="45.65446" lon="5.72488">
        <ele>618</ele>
        <time>2017-05-25T11:58:07Z</time>
      </trkpt>
      <trkpt lat="45.65443" lon="5.72479">
        <ele>618</ele>
        <time>2017-05-25T11:58:07Z</time>
      </trkpt>
      <trkpt lat="45.6544" lon="5.72473">
        <ele>618</ele>
        <time>2017-05-25T11:58:07Z</time>
      </trkpt>
      <trkpt lat="45.6544" lon="5.72466">
        <ele>618</ele>
        <time>2017-05-25T11:58:23Z</time>
      </trkpt>
      <trkpt lat="45.65438" lon="5.7246">
        <ele>618</ele>
        <time>2017-05-25T11:58:23Z</time>
      </trkpt>
      <trkpt lat="45.65438" lon="5.72453">
        <ele>621</ele>
        <time>2017-05-25T11:58:23Z</time>
      </trkpt>
      <trkpt lat="45.65439" lon="5.72446">
        <ele>621</ele>
        <time>2017-05-25T11:58:23Z</time>
      </trkpt>
      <trkpt lat="45.65444" lon="5.72442">
        <ele>621</ele>
        <time>2017-05-25T11:58:39Z</time>
      </trkpt>
      <trkpt lat="45.65448" lon="5.72438">
        <ele>621</ele>
        <time>2017-05-25T11:58:39Z</time>
      </trkpt>
      <trkpt lat="45.65452" lon="5.72438">
        <ele>621</ele>
        <time>2017-05-25T11:58:39Z</time>
      </trkpt>
      <trkpt lat="45.65454" lon="5.72439">
        <ele>621</ele>
        <time>2017-05-25T11:58:39Z</time>
      </trkpt>
      <trkpt lat="45.65461" lon="5.72438">
        <ele>612</ele>
        <time>2017-05-25T11:59:51Z</time>
      </trkpt>
      <trkpt lat="45.65462" lon="5.72437">
        <ele>612</ele>
        <time>2017-05-25T11:59:51Z</time>
      </trkpt>
      <trkpt lat="45.65465" lon="5.72432">
        <ele>612</ele>
        <time>2017-05-25T11:59:51Z</time>
      </trkpt>
      <trkpt lat="45.65468" lon="5.72429">
        <ele>612</ele>
        <time>2017-05-25T11:59:51Z</time>
      </trkpt>
      <trkpt lat="45.6547" lon="5.72425">
        <ele>612</ele>
        <time>2017-05-25T11:59:51Z</time>
      </trkpt>
      <trkpt lat="45.65478" lon="5.72412">
        <ele>612</ele>
        <time>2017-05-25T12:00:31Z</time>
      </trkpt>
      <trkpt lat="45.65478" lon="5.72411">
        <ele>612</ele>
        <time>2017-05-25T12:00:31Z</time>
      </trkpt>
      <trkpt lat="45.65477" lon="5.7241">
        <ele>612</ele>
        <time>2017-05-25T12:00:31Z</time>
      </trkpt>
      <trkpt lat="45.65476" lon="5.72408">
        <ele>612</ele>
        <time>2017-05-25T12:00:31Z</time>
      </trkpt>
      <trkpt lat="45.65477" lon="5.72406">
        <ele>612</ele>
        <time>2017-05-25T12:00:31Z</time>
      </trkpt>
      <trkpt lat="45.65482" lon="5.72408">
        <ele>612</ele>
        <time>2017-05-25T12:01:23Z</time>
      </trkpt>
      <trkpt lat="45.65482" lon="5.72409">
        <ele>612</ele>
        <time>2017-05-25T12:01:23Z</time>
      </trkpt>
      <trkpt lat="45.65484" lon="5.72411">
        <ele>612</ele>
        <time>2017-05-25T12:01:23Z</time>
      </trkpt>
      <trkpt lat="45.6549" lon="5.7241">
        <ele>612</ele>
        <time>2017-05-25T12:01:23Z</time>
      </trkpt>
      <trkpt lat="45.65494" lon="5.7241">
        <ele>612</ele>
        <time>2017-05-25T12:01:23Z</time>
      </trkpt>
      <trkpt lat="45.65501" lon="5.7241">
        <ele>612</ele>
        <time>2017-05-25T12:01:39Z</time>
      </trkpt>
      <trkpt lat="45.65509" lon="5.7241">
        <ele>612</ele>
        <time>2017-05-25T12:01:39Z</time>
      </trkpt>
      <trkpt lat="45.65518" lon="5.72411">
        <ele>612</ele>
        <time>2017-05-25T12:01:39Z</time>
      </trkpt>
      <trkpt lat="45.65525" lon="5.72417">
        <ele>612</ele>
        <time>2017-05-25T12:01:39Z</time>
      </trkpt>
      <trkpt lat="45.6553" lon="5.72419">
        <ele>612</ele>
        <time>2017-05-25T12:01:55Z</time>
      </trkpt>
      <trkpt lat="45.65534" lon="5.72418">
        <ele>612</ele>
        <time>2017-05-25T12:01:55Z</time>
      </trkpt>
      <trkpt lat="45.65538" lon="5.72419">
        <ele>612</ele>
        <time>2017-05-25T12:01:55Z</time>
      </trkpt>
      <trkpt lat="45.65543" lon="5.72421">
        <ele>600</ele>
        <time>2017-05-25T12:01:55Z</time>
      </trkpt>
      <trkpt lat="45.65547" lon="5.72421">
        <ele>600</ele>
        <time>2017-05-25T12:02:11Z</time>
      </trkpt>
      <trkpt lat="45.6555" lon="5.72424">
        <ele>600</ele>
        <time>2017-05-25T12:02:11Z</time>
      </trkpt>
      <trkpt lat="45.65555" lon="5.72424">
        <ele>600</ele>
        <time>2017-05-25T12:02:11Z</time>
      </trkpt>
      <trkpt lat="45.65561" lon="5.72423">
        <ele>600</ele>
        <time>2017-05-25T12:02:11Z</time>
      </trkpt>
      <trkpt lat="45.65564" lon="5.72427">
        <ele>600</ele>
        <time>2017-05-25T12:02:27Z</time>
      </trkpt>
      <trkpt lat="45.65569" lon="5.72428">
        <ele>600</ele>
        <time>2017-05-25T12:02:27Z</time>
      </trkpt>
      <trkpt lat="45.65576" lon="5.72424">
        <ele>600</ele>
        <time>2017-05-25T12:02:27Z</time>
      </trkpt>
      <trkpt lat="45.65583" lon="5.72417">
        <ele>600</ele>
        <time>2017-05-25T12:02:27Z</time>
      </trkpt>
      <trkpt lat="45.6559" lon="5.72413">
        <ele>600</ele>
        <time>2017-05-25T12:02:43Z</time>
      </trkpt>
      <trkpt lat="45.65594" lon="5.72407">
        <ele>600</ele>
        <time>2017-05-25T12:02:43Z</time>
      </trkpt>
      <trkpt lat="45.65597" lon="5.72407">
        <ele>600</ele>
        <time>2017-05-25T12:02:43Z</time>
      </trkpt>
      <trkpt lat="45.65602" lon="5.72408">
        <ele>600</ele>
        <time>2017-05-25T12:02:43Z</time>
      </trkpt>
      <trkpt lat="45.65605" lon="5.72413">
        <ele>600</ele>
        <time>2017-05-25T12:02:59Z</time>
      </trkpt>
      <trkpt lat="45.65609" lon="5.72419">
        <ele>600</ele>
        <time>2017-05-25T12:02:59Z</time>
      </trkpt>
      <trkpt lat="45.65612" lon="5.72421">
        <ele>600</ele>
        <time>2017-05-25T12:02:59Z</time>
      </trkpt>
      <trkpt lat="45.65616" lon="5.72422">
        <ele>600</ele>
        <time>2017-05-25T12:02:59Z</time>
      </trkpt>
      <trkpt lat="45.6562" lon="5.72422">
        <ele>600</ele>
        <time>2017-05-25T12:03:15Z</time>
      </trkpt>
      <trkpt lat="45.65628" lon="5.72418">
        <ele>597</ele>
        <time>2017-05-25T12:03:15Z</time>
      </trkpt>
      <trkpt lat="45.65637" lon="5.7242">
        <ele>597</ele>
        <time>2017-05-25T12:03:15Z</time>
      </trkpt>
      <trkpt lat="45.65645" lon="5.72417">
        <ele>597</ele>
        <time>2017-05-25T12:03:15Z</time>
      </trkpt>
      <trkpt lat="45.65652" lon="5.72416">
        <ele>597</ele>
        <time>2017-05-25T12:03:31Z</time>
      </trkpt>
      <trkpt lat="45.65657" lon="5.72417">
        <ele>597</ele>
        <time>2017-05-25T12:03:31Z</time>
      </trkpt>
      <trkpt lat="45.65663" lon="5.72416">
        <ele>597</ele>
        <time>2017-05-25T12:03:31Z</time>
      </trkpt>
      <trkpt lat="45.65667" lon="5.72414">
        <ele>597</ele>
        <time>2017-05-25T12:03:31Z</time>
      </trkpt>
      <trkpt lat="45.65669" lon="5.7242">
        <ele>597</ele>
        <time>2017-05-25T12:03:47Z</time>
      </trkpt>
      <trkpt lat="45.65675" lon="5.72422">
        <ele>597</ele>
        <time>2017-05-25T12:03:47Z</time>
      </trkpt>
      <trkpt lat="45.65681" lon="5.72426">
        <ele>597</ele>
        <time>2017-05-25T12:03:47Z</time>
      </trkpt>
      <trkpt lat="45.65683" lon="5.72423">
        <ele>597</ele>
        <time>2017-05-25T12:03:47Z</time>
      </trkpt>
      <trkpt lat="45.65687" lon="5.72426">
        <ele>597</ele>
        <time>2017-05-25T12:04:03Z</time>
      </trkpt>
      <trkpt lat="45.65692" lon="5.72425">
        <ele>597</ele>
        <time>2017-05-25T12:04:03Z</time>
      </trkpt>
      <trkpt lat="45.65698" lon="5.72427">
        <ele>597</ele>
        <time>2017-05-25T12:04:03Z</time>
      </trkpt>
      <trkpt lat="45.65703" lon="5.72431">
        <ele>597</ele>
        <time>2017-05-25T12:04:03Z</time>
      </trkpt>
      <trkpt lat="45.65708" lon="5.72435">
        <ele>597</ele>
        <time>2017-05-25T12:04:19Z</time>
      </trkpt>
      <trkpt lat="45.65711" lon="5.72439">
        <ele>595</ele>
        <time>2017-05-25T12:04:19Z</time>
      </trkpt>
      <trkpt lat="45.65716" lon="5.72441">
        <ele>595</ele>
        <time>2017-05-25T12:04:19Z</time>
      </trkpt>
      <trkpt lat="45.65721" lon="5.72441">
        <ele>595</ele>
        <time>2017-05-25T12:04:19Z</time>
      </trkpt>
      <trkpt lat="45.65725" lon="5.72441">
        <ele>595</ele>
        <time>2017-05-25T12:04:35Z</time>
      </trkpt>
      <trkpt lat="45.6573" lon="5.72442">
        <ele>595</ele>
        <time>2017-05-25T12:04:35Z</time>
      </trkpt>
      <trkpt lat="45.65734" lon="5.72442">
        <ele>595</ele>
        <time>2017-05-25T12:04:35Z</time>
      </trkpt>
      <trkpt lat="45.6574" lon="5.72443">
        <ele>595</ele>
        <time>2017-05-25T12:04:35Z</time>
      </trkpt>
      <trkpt lat="45.65745" lon="5.72442">
        <ele>595</ele>
        <time>2017-05-25T12:04:55Z</time>
      </trkpt>
      <trkpt lat="45.65746" lon="5.72442">
        <ele>595</ele>
        <time>2017-05-25T12:04:55Z</time>
      </trkpt>
      <trkpt lat="45.65746" lon="5.72443">
        <ele>595</ele>
        <time>2017-05-25T12:04:55Z</time>
      </trkpt>
      <trkpt lat="45.65748" lon="5.72445">
        <ele>595</ele>
        <time>2017-05-25T12:04:55Z</time>
      </trkpt>
      <trkpt lat="45.65754" lon="5.72446">
        <ele>595</ele>
        <time>2017-05-25T12:04:55Z</time>
      </trkpt>
      <trkpt lat="45.65765" lon="5.72448">
        <ele>595</ele>
        <time>2017-05-25T12:05:55Z</time>
      </trkpt>
      <trkpt lat="45.65765" lon="5.72448">
        <ele>595</ele>
        <time>2017-05-25T12:05:55Z</time>
      </trkpt>
      <trkpt lat="45.65765" lon="5.72448">
        <ele>595</ele>
        <time>2017-05-25T12:05:55Z</time>
      </trkpt>
      <trkpt lat="45.65766" lon="5.72448">
        <ele>595</ele>
        <time>2017-05-25T12:05:55Z</time>
      </trkpt>
      <trkpt lat="45.65769" lon="5.7245">
        <ele>595</ele>
        <time>2017-05-25T12:05:55Z</time>
      </trkpt>
      <trkpt lat="45.65775" lon="5.72456">
        <ele>595</ele>
        <time>2017-05-25T12:06:11Z</time>
      </trkpt>
      <trkpt lat="45.65779" lon="5.72457">
        <ele>595</ele>
        <time>2017-05-25T12:06:11Z</time>
      </trkpt>
      <trkpt lat="45.65783" lon="5.72458">
        <ele>595</ele>
        <time>2017-05-25T12:06:11Z</time>
      </trkpt>
      <trkpt lat="45.65788" lon="5.72462">
        <ele>574</ele>
        <time>2017-05-25T12:06:11Z</time>
      </trkpt>
      <trkpt lat="45.65793" lon="5.72462">
        <ele>574</ele>
        <time>2017-05-25T12:06:27Z</time>
      </trkpt>
      <trkpt lat="45.65799" lon="5.72464">
        <ele>574</ele>
        <time>2017-05-25T12:06:27Z</time>
      </trkpt>
      <trkpt lat="45.65803" lon="5.72466">
        <ele>574</ele>
        <time>2017-05-25T12:06:27Z</time>
      </trkpt>
      <trkpt lat="45.65808" lon="5.72467">
        <ele>574</ele>
        <time>2017-05-25T12:06:27Z</time>
      </trkpt>
      <trkpt lat="45.65813" lon="5.7247">
        <ele>574</ele>
        <time>2017-05-25T12:06:43Z</time>
      </trkpt>
      <trkpt lat="45.65817" lon="5.72473">
        <ele>574</ele>
        <time>2017-05-25T12:06:43Z</time>
      </trkpt>
      <trkpt lat="45.65822" lon="5.72475">
        <ele>574</ele>
        <time>2017-05-25T12:06:43Z</time>
      </trkpt>
      <trkpt lat="45.65826" lon="5.72478">
        <ele>574</ele>
        <time>2017-05-25T12:06:43Z</time>
      </trkpt>
      <trkpt lat="45.6583" lon="5.72483">
        <ele>574</ele>
        <time>2017-05-25T12:06:59Z</time>
      </trkpt>
      <trkpt lat="45.65835" lon="5.72485">
        <ele>574</ele>
        <time>2017-05-25T12:06:59Z</time>
      </trkpt>
      <trkpt lat="45.65841" lon="5.72486">
        <ele>574</ele>
        <time>2017-05-25T12:06:59Z</time>
      </trkpt>
      <trkpt lat="45.65846" lon="5.72485">
        <ele>574</ele>
        <time>2017-05-25T12:06:59Z</time>
      </trkpt>
      <trkpt lat="45.65851" lon="5.72484">
        <ele>574</ele>
        <time>2017-05-25T12:07:15Z</time>
      </trkpt>
      <trkpt lat="45.65857" lon="5.7248">
        <ele>574</ele>
        <time>2017-05-25T12:07:15Z</time>
      </trkpt>
      <trkpt lat="45.65861" lon="5.7248">
        <ele>574</ele>
        <time>2017-05-25T12:07:15Z</time>
      </trkpt>
      <trkpt lat="45.65864" lon="5.72482">
        <ele>574</ele>
        <time>2017-05-25T12:07:15Z</time>
      </trkpt>
      <trkpt lat="45.65869" lon="5.72483">
        <ele>574</ele>
        <time>2017-05-25T12:07:35Z</time>
      </trkpt>
      <trkpt lat="45.65874" lon="5.72486">
        <ele>574</ele>
        <time>2017-05-25T12:07:35Z</time>
      </trkpt>
      <trkpt lat="45.65877" lon="5.72488">
        <ele>574</ele>
        <time>2017-05-25T12:07:35Z</time>
      </trkpt>
      <trkpt lat="45.65878" lon="5.72487">
        <ele>574</ele>
        <time>2017-05-25T12:07:35Z</time>
      </trkpt>
      <trkpt lat="45.65878" lon="5.72487">
        <ele>574</ele>
        <time>2017-05-25T12:07:35Z</time>
      </trkpt>
      <trkpt lat="45.65881" lon="5.72487">
        <ele>574</ele>
        <time>2017-05-25T12:07:59Z</time>
      </trkpt>
      <trkpt lat="45.65882" lon="5.72486">
        <ele>574</ele>
        <time>2017-05-25T12:07:59Z</time>
      </trkpt>
      <trkpt lat="45.65885" lon="5.72487">
        <ele>574</ele>
        <time>2017-05-25T12:07:59Z</time>
      </trkpt>
      <trkpt lat="45.65886" lon="5.72488">
        <ele>574</ele>
        <time>2017-05-25T12:07:59Z</time>
      </trkpt>
      <trkpt lat="45.65889" lon="5.72489">
        <ele>574</ele>
        <time>2017-05-25T12:07:59Z</time>
      </trkpt>
      <trkpt lat="45.6589" lon="5.72491">
        <ele>574</ele>
        <time>2017-05-25T12:08:39Z</time>
      </trkpt>
      <trkpt lat="45.65892" lon="5.72493">
        <ele>574</ele>
        <time>2017-05-25T12:08:39Z</time>
      </trkpt>
      <trkpt lat="45.65894" lon="5.72495">
        <ele>574</ele>
        <time>2017-05-25T12:08:39Z</time>
      </trkpt>
      <trkpt lat="45.65896" lon="5.72496">
        <ele>574</ele>
        <time>2017-05-25T12:08:39Z</time>
      </trkpt>
      <trkpt lat="45.65899" lon="5.72498">
        <ele>574</ele>
        <time>2017-05-25T12:08:39Z</time>
      </trkpt>
      <trkpt lat="45.65902" lon="5.725">
        <ele>574</ele>
        <time>2017-05-25T12:08:55Z</time>
      </trkpt>
      <trkpt lat="45.65904" lon="5.72503">
        <ele>574</ele>
        <time>2017-05-25T12:08:55Z</time>
      </trkpt>
      <trkpt lat="45.65905" lon="5.72508">
        <ele>574</ele>
        <time>2017-05-25T12:08:55Z</time>
      </trkpt>
      <trkpt lat="45.65908" lon="5.72511">
        <ele>574</ele>
        <time>2017-05-25T12:08:55Z</time>
      </trkpt>
      <trkpt lat="45.65911" lon="5.72513">
        <ele>574</ele>
        <time>2017-05-25T12:09:11Z</time>
      </trkpt>
      <trkpt lat="45.65914" lon="5.72517">
        <ele>574</ele>
        <time>2017-05-25T12:09:11Z</time>
      </trkpt>
      <trkpt lat="45.65918" lon="5.72521">
        <ele>574</ele>
        <time>2017-05-25T12:09:11Z</time>
      </trkpt>
      <trkpt lat="45.65923" lon="5.72522">
        <ele>574</ele>
        <time>2017-05-25T12:09:11Z</time>
      </trkpt>
      <trkpt lat="45.65928" lon="5.72522">
        <ele>574</ele>
        <time>2017-05-25T12:09:27Z</time>
      </trkpt>
      <trkpt lat="45.65934" lon="5.72523">
        <ele>574</ele>
        <time>2017-05-25T12:09:27Z</time>
      </trkpt>
      <trkpt lat="45.6594" lon="5.72524">
        <ele>574</ele>
        <time>2017-05-25T12:09:27Z</time>
      </trkpt>
      <trkpt lat="45.65943" lon="5.72527">
        <ele>574</ele>
        <time>2017-05-25T12:09:27Z</time>
      </trkpt>
      <trkpt lat="45.65946" lon="5.72534">
        <ele>574</ele>
        <time>2017-05-25T12:09:43Z</time>
      </trkpt>
      <trkpt lat="45.65949" lon="5.72537">
        <ele>574</ele>
        <time>2017-05-25T12:09:43Z</time>
      </trkpt>
      <trkpt lat="45.65952" lon="5.72544">
        <ele>559</ele>
        <time>2017-05-25T12:09:43Z</time>
      </trkpt>
      <trkpt lat="45.65955" lon="5.72549">
        <ele>559</ele>
        <time>2017-05-25T12:09:43Z</time>
      </trkpt>
      <trkpt lat="45.65959" lon="5.72554">
        <ele>555</ele>
        <time>2017-05-25T12:09:59Z</time>
      </trkpt>
      <trkpt lat="45.65962" lon="5.7256">
        <ele>555</ele>
        <time>2017-05-25T12:09:59Z</time>
      </trkpt>
      <trkpt lat="45.65965" lon="5.72564">
        <ele>555</ele>
        <time>2017-05-25T12:09:59Z</time>
      </trkpt>
      <trkpt lat="45.65968" lon="5.72568">
        <ele>555</ele>
        <time>2017-05-25T12:09:59Z</time>
      </trkpt>
      <trkpt lat="45.65972" lon="5.72571">
        <ele>555</ele>
        <time>2017-05-25T12:10:19Z</time>
      </trkpt>
      <trkpt lat="45.65972" lon="5.7257">
        <ele>555</ele>
        <time>2017-05-25T12:10:19Z</time>
      </trkpt>
      <trkpt lat="45.65974" lon="5.72571">
        <ele>555</ele>
        <time>2017-05-25T12:10:19Z</time>
      </trkpt>
      <trkpt lat="45.6598" lon="5.7257">
        <ele>555</ele>
        <time>2017-05-25T12:10:19Z</time>
      </trkpt>
      <trkpt lat="45.65983" lon="5.7257">
        <ele>555</ele>
        <time>2017-05-25T12:10:19Z</time>
      </trkpt>
      <trkpt lat="45.65985" lon="5.7257">
        <ele>555</ele>
        <time>2017-05-25T12:10:43Z</time>
      </trkpt>
      <trkpt lat="45.65986" lon="5.7257">
        <ele>555</ele>
        <time>2017-05-25T12:10:43Z</time>
      </trkpt>
      <trkpt lat="45.65986" lon="5.7257">
        <ele>555</ele>
        <time>2017-05-25T12:10:43Z</time>
      </trkpt>
      <trkpt lat="45.65991" lon="5.7257">
        <ele>555</ele>
        <time>2017-05-25T12:10:43Z</time>
      </trkpt>
      <trkpt lat="45.65995" lon="5.72569">
        <ele>555</ele>
        <time>2017-05-25T12:10:43Z</time>
      </trkpt>
      <trkpt lat="45.66001" lon="5.72568">
        <ele>555</ele>
        <time>2017-05-25T12:10:59Z</time>
      </trkpt>
      <trkpt lat="45.66008" lon="5.72569">
        <ele>555</ele>
        <time>2017-05-25T12:10:59Z</time>
      </trkpt>
      <trkpt lat="45.66014" lon="5.72569">
        <ele>555</ele>
        <time>2017-05-25T12:10:59Z</time>
      </trkpt>
      <trkpt lat="45.66019" lon="5.72568">
        <ele>555</ele>
        <time>2017-05-25T12:10:59Z</time>
      </trkpt>
      <trkpt lat="45.66024" lon="5.7257">
        <ele>555</ele>
        <time>2017-05-25T12:11:15Z</time>
      </trkpt>
      <trkpt lat="45.66028" lon="5.7257">
        <ele>555</ele>
        <time>2017-05-25T12:11:15Z</time>
      </trkpt>
      <trkpt lat="45.66034" lon="5.72573">
        <ele>555</ele>
        <time>2017-05-25T12:11:15Z</time>
      </trkpt>
      <trkpt lat="45.66038" lon="5.72579">
        <ele>555</ele>
        <time>2017-05-25T12:11:15Z</time>
      </trkpt>
      <trkpt lat="45.66042" lon="5.72583">
        <ele>543</ele>
        <time>2017-05-25T12:11:31Z</time>
      </trkpt>
      <trkpt lat="45.66048" lon="5.72586">
        <ele>543</ele>
        <time>2017-05-25T12:11:31Z</time>
      </trkpt>
      <trkpt lat="45.66054" lon="5.7259">
        <ele>543</ele>
        <time>2017-05-25T12:11:31Z</time>
      </trkpt>
      <trkpt lat="45.66058" lon="5.72593">
        <ele>543</ele>
        <time>2017-05-25T12:11:31Z</time>
      </trkpt>
      <trkpt lat="45.66063" lon="5.72595">
        <ele>543</ele>
        <time>2017-05-25T12:11:47Z</time>
      </trkpt>
      <trkpt lat="45.66068" lon="5.72595">
        <ele>543</ele>
        <time>2017-05-25T12:11:47Z</time>
      </trkpt>
      <trkpt lat="45.66074" lon="5.72598">
        <ele>543</ele>
        <time>2017-05-25T12:11:47Z</time>
      </trkpt>
      <trkpt lat="45.66078" lon="5.72596">
        <ele>543</ele>
        <time>2017-05-25T12:11:47Z</time>
      </trkpt>
      <trkpt lat="45.66082" lon="5.72596">
        <ele>543</ele>
        <time>2017-05-25T12:12:03Z</time>
      </trkpt>
      <trkpt lat="45.66084" lon="5.72601">
        <ele>543</ele>
        <time>2017-05-25T12:12:03Z</time>
      </trkpt>
      <trkpt lat="45.66088" lon="5.72606">
        <ele>543</ele>
        <time>2017-05-25T12:12:03Z</time>
      </trkpt>
      <trkpt lat="45.66092" lon="5.72611">
        <ele>543</ele>
        <time>2017-05-25T12:12:03Z</time>
      </trkpt>
      <trkpt lat="45.66095" lon="5.72615">
        <ele>543</ele>
        <time>2017-05-25T12:12:19Z</time>
      </trkpt>
      <trkpt lat="45.66099" lon="5.72619">
        <ele>543</ele>
        <time>2017-05-25T12:12:19Z</time>
      </trkpt>
      <trkpt lat="45.66101" lon="5.72624">
        <ele>543</ele>
        <time>2017-05-25T12:12:19Z</time>
      </trkpt>
      <trkpt lat="45.66103" lon="5.7263">
        <ele>535</ele>
        <time>2017-05-25T12:12:19Z</time>
      </trkpt>
      <trkpt lat="45.66106" lon="5.72635">
        <ele>535</ele>
        <time>2017-05-25T12:12:35Z</time>
      </trkpt>
      <trkpt lat="45.6611" lon="5.72638">
        <ele>535</ele>
        <time>2017-05-25T12:12:35Z</time>
      </trkpt>
      <trkpt lat="45.66113" lon="5.72643">
        <ele>535</ele>
        <time>2017-05-25T12:12:35Z</time>
      </trkpt>
      <trkpt lat="45.66117" lon="5.72648">
        <ele>535</ele>
        <time>2017-05-25T12:12:35Z</time>
      </trkpt>
      <trkpt lat="45.66121" lon="5.72658">
        <ele>535</ele>
        <time>2017-05-25T12:12:51Z</time>
      </trkpt>
      <trkpt lat="45.66128" lon="5.72662">
        <ele>531</ele>
        <time>2017-05-25T12:12:51Z</time>
      </trkpt>
      <trkpt lat="45.66131" lon="5.72665">
        <ele>531</ele>
        <time>2017-05-25T12:12:51Z</time>
      </trkpt>
      <trkpt lat="45.66134" lon="5.72666">
        <ele>531</ele>
        <time>2017-05-25T12:12:51Z</time>
      </trkpt>
      <trkpt lat="45.66139" lon="5.72671">
        <ele>531</ele>
        <time>2017-05-25T12:13:07Z</time>
      </trkpt>
      <trkpt lat="45.66145" lon="5.72679">
        <ele>531</ele>
        <time>2017-05-25T12:13:07Z</time>
      </trkpt>
      <trkpt lat="45.66151" lon="5.72685">
        <ele>531</ele>
        <time>2017-05-25T12:13:07Z</time>
      </trkpt>
      <trkpt lat="45.66156" lon="5.72691">
        <ele>531</ele>
        <time>2017-05-25T12:13:07Z</time>
      </trkpt>
      <trkpt lat="45.6616" lon="5.72696">
        <ele>531</ele>
        <time>2017-05-25T12:13:23Z</time>
      </trkpt>
      <trkpt lat="45.66168" lon="5.72702">
        <ele>531</ele>
        <time>2017-05-25T12:13:23Z</time>
      </trkpt>
      <trkpt lat="45.66174" lon="5.72705">
        <ele>531</ele>
        <time>2017-05-25T12:13:23Z</time>
      </trkpt>
      <trkpt lat="45.6618" lon="5.72708">
        <ele>531</ele>
        <time>2017-05-25T12:13:23Z</time>
      </trkpt>
      <trkpt lat="45.66185" lon="5.72711">
        <ele>523</ele>
        <time>2017-05-25T12:13:39Z</time>
      </trkpt>
      <trkpt lat="45.6619" lon="5.72715">
        <ele>523</ele>
        <time>2017-05-25T12:13:39Z</time>
      </trkpt>
      <trkpt lat="45.66193" lon="5.72714">
        <ele>523</ele>
        <time>2017-05-25T12:13:39Z</time>
      </trkpt>
      <trkpt lat="45.66195" lon="5.72704">
        <ele>531</ele>
        <time>2017-05-25T12:13:39Z</time>
      </trkpt>
      <trkpt lat="45.66195" lon="5.72689">
        <ele>531</ele>
        <time>2017-05-25T12:13:55Z</time>
      </trkpt>
      <trkpt lat="45.66197" lon="5.72661">
        <ele>531</ele>
        <time>2017-05-25T12:13:55Z</time>
      </trkpt>
      <trkpt lat="45.66206" lon="5.7263">
        <ele>531</ele>
        <time>2017-05-25T12:13:55Z</time>
      </trkpt>
      <trkpt lat="45.66215" lon="5.72615">
        <ele>545</ele>
        <time>2017-05-25T12:13:55Z</time>
      </trkpt>
      <trkpt lat="45.66245" lon="5.72611">
        <ele>545</ele>
        <time>2017-05-25T12:14:11Z</time>
      </trkpt>
      <trkpt lat="45.66268" lon="5.72597">
        <ele>545</ele>
        <time>2017-05-25T12:14:11Z</time>
      </trkpt>
      <trkpt lat="45.66284" lon="5.72582">
        <ele>545</ele>
        <time>2017-05-25T12:14:11Z</time>
      </trkpt>
      <trkpt lat="45.66298" lon="5.72565">
        <ele>538</ele>
        <time>2017-05-25T12:14:11Z</time>
      </trkpt>
      <trkpt lat="45.66305" lon="5.72561">
        <ele>538</ele>
        <time>2017-05-25T12:14:27Z</time>
      </trkpt>
      <trkpt lat="45.6631" lon="5.72556">
        <ele>538</ele>
        <time>2017-05-25T12:14:27Z</time>
      </trkpt>
      <trkpt lat="45.66324" lon="5.72529">
        <ele>548</ele>
        <time>2017-05-25T12:14:27Z</time>
      </trkpt>
      <trkpt lat="45.66331" lon="5.72499">
        <ele>548</ele>
        <time>2017-05-25T12:14:27Z</time>
      </trkpt>
      <trkpt lat="45.66342" lon="5.72467">
        <ele>548</ele>
        <time>2017-05-25T12:14:43Z</time>
      </trkpt>
      <trkpt lat="45.66348" lon="5.72435">
        <ele>555</ele>
        <time>2017-05-25T12:14:43Z</time>
      </trkpt>
      <trkpt lat="45.66354" lon="5.7242">
        <ele>555</ele>
        <time>2017-05-25T12:14:43Z</time>
      </trkpt>
      <trkpt lat="45.66357" lon="5.72394">
        <ele>555</ele>
        <time>2017-05-25T12:14:43Z</time>
      </trkpt>
      <trkpt lat="45.66353" lon="5.72389">
        <ele>555</ele>
        <time>2017-05-25T12:14:59Z</time>
      </trkpt>
      <trkpt lat="45.66349" lon="5.72384">
        <ele>555</ele>
        <time>2017-05-25T12:14:59Z</time>
      </trkpt>
      <trkpt lat="45.66344" lon="5.7238">
        <ele>555</ele>
        <time>2017-05-25T12:14:59Z</time>
      </trkpt>
      <trkpt lat="45.66336" lon="5.72377">
        <ele>555</ele>
        <time>2017-05-25T12:14:59Z</time>
      </trkpt>
      <trkpt lat="45.66327" lon="5.7237">
        <ele>564</ele>
        <time>2017-05-25T12:15:15Z</time>
      </trkpt>
      <trkpt lat="45.66316" lon="5.72366">
        <ele>564</ele>
        <time>2017-05-25T12:15:15Z</time>
      </trkpt>
      <trkpt lat="45.6631" lon="5.72361">
        <ele>564</ele>
        <time>2017-05-25T12:15:15Z</time>
      </trkpt>
      <trkpt lat="45.66307" lon="5.72356">
        <ele>564</ele>
        <time>2017-05-25T12:15:15Z</time>
      </trkpt>
      <trkpt lat="45.66308" lon="5.7235">
        <ele>564</ele>
        <time>2017-05-25T12:15:31Z</time>
      </trkpt>
      <trkpt lat="45.66308" lon="5.72344">
        <ele>564</ele>
        <time>2017-05-25T12:15:31Z</time>
      </trkpt>
      <trkpt lat="45.66307" lon="5.72339">
        <ele>564</ele>
        <time>2017-05-25T12:15:31Z</time>
      </trkpt>
      <trkpt lat="45.66307" lon="5.72334">
        <ele>564</ele>
        <time>2017-05-25T12:15:31Z</time>
      </trkpt>
      <trkpt lat="45.66305" lon="5.72328">
        <ele>564</ele>
        <time>2017-05-25T12:15:47Z</time>
      </trkpt>
      <trkpt lat="45.66303" lon="5.72323">
        <ele>564</ele>
        <time>2017-05-25T12:15:47Z</time>
      </trkpt>
      <trkpt lat="45.66298" lon="5.72321">
        <ele>564</ele>
        <time>2017-05-25T12:15:47Z</time>
      </trkpt>
      <trkpt lat="45.66292" lon="5.72316">
        <ele>564</ele>
        <time>2017-05-25T12:15:47Z</time>
      </trkpt>
      <trkpt lat="45.66283" lon="5.7231">
        <ele>565</ele>
        <time>2017-05-25T12:16:03Z</time>
      </trkpt>
      <trkpt lat="45.66276" lon="5.72308">
        <ele>565</ele>
        <time>2017-05-25T12:16:03Z</time>
      </trkpt>
      <trkpt lat="45.66271" lon="5.72305">
        <ele>565</ele>
        <time>2017-05-25T12:16:03Z</time>
      </trkpt>
      <trkpt lat="45.66259" lon="5.72304">
        <ele>565</ele>
        <time>2017-05-25T12:16:03Z</time>
      </trkpt>
      <trkpt lat="45.66245" lon="5.72304">
        <ele>565</ele>
        <time>2017-05-25T12:16:19Z</time>
      </trkpt>
      <trkpt lat="45.66235" lon="5.72301">
        <ele>565</ele>
        <time>2017-05-25T12:16:19Z</time>
      </trkpt>
      <trkpt lat="45.66229" lon="5.72302">
        <ele>565</ele>
        <time>2017-05-25T12:16:19Z</time>
      </trkpt>
      <trkpt lat="45.66225" lon="5.72302">
        <ele>565</ele>
        <time>2017-05-25T12:16:19Z</time>
      </trkpt>
      <trkpt lat="45.66221" lon="5.72299">
        <ele>565</ele>
        <time>2017-05-25T12:16:35Z</time>
      </trkpt>
      <trkpt lat="45.66218" lon="5.72293">
        <ele>565</ele>
        <time>2017-05-25T12:16:35Z</time>
      </trkpt>
      <trkpt lat="45.66223" lon="5.72284">
        <ele>580</ele>
        <time>2017-05-25T12:16:35Z</time>
      </trkpt>
      <trkpt lat="45.66229" lon="5.72278">
        <ele>580</ele>
        <time>2017-05-25T12:16:35Z</time>
      </trkpt>
      <trkpt lat="45.66234" lon="5.72277">
        <ele>580</ele>
        <time>2017-05-25T12:16:51Z</time>
      </trkpt>
      <trkpt lat="45.66239" lon="5.72277">
        <ele>580</ele>
        <time>2017-05-25T12:16:51Z</time>
      </trkpt>
      <trkpt lat="45.66243" lon="5.72277">
        <ele>580</ele>
        <time>2017-05-25T12:16:51Z</time>
      </trkpt>
      <trkpt lat="45.66247" lon="5.72277">
        <ele>580</ele>
        <time>2017-05-25T12:16:51Z</time>
      </trkpt>
      <trkpt lat="45.6625" lon="5.72276">
        <ele>580</ele>
        <time>2017-05-25T12:17:07Z</time>
      </trkpt>
      <trkpt lat="45.66254" lon="5.72274">
        <ele>580</ele>
        <time>2017-05-25T12:17:07Z</time>
      </trkpt>
      <trkpt lat="45.6626" lon="5.72272">
        <ele>580</ele>
        <time>2017-05-25T12:17:07Z</time>
      </trkpt>
      <trkpt lat="45.66265" lon="5.72268">
        <ele>580</ele>
        <time>2017-05-25T12:17:07Z</time>
      </trkpt>
      <trkpt lat="45.66272" lon="5.72267">
        <ele>580</ele>
        <time>2017-05-25T12:17:23Z</time>
      </trkpt>
      <trkpt lat="45.66279" lon="5.72267">
        <ele>580</ele>
        <time>2017-05-25T12:17:23Z</time>
      </trkpt>
      <trkpt lat="45.66284" lon="5.72264">
        <ele>580</ele>
        <time>2017-05-25T12:17:23Z</time>
      </trkpt>
      <trkpt lat="45.66289" lon="5.7226">
        <ele>580</ele>
        <time>2017-05-25T12:17:23Z</time>
      </trkpt>
      <trkpt lat="45.66293" lon="5.72259">
        <ele>578</ele>
        <time>2017-05-25T12:17:39Z</time>
      </trkpt>
      <trkpt lat="45.663" lon="5.72255">
        <ele>578</ele>
        <time>2017-05-25T12:17:39Z</time>
      </trkpt>
      <trkpt lat="45.66309" lon="5.7225">
        <ele>578</ele>
        <time>2017-05-25T12:17:39Z</time>
      </trkpt>
      <trkpt lat="45.66313" lon="5.72247">
        <ele>578</ele>
        <time>2017-05-25T12:17:39Z</time>
      </trkpt>
      <trkpt lat="45.66317" lon="5.72247">
        <ele>578</ele>
        <time>2017-05-25T12:17:55Z</time>
      </trkpt>
      <trkpt lat="45.66321" lon="5.72244">
        <ele>578</ele>
        <time>2017-05-25T12:17:55Z</time>
      </trkpt>
      <trkpt lat="45.66328" lon="5.72241">
        <ele>578</ele>
        <time>2017-05-25T12:17:55Z</time>
      </trkpt>
      <trkpt lat="45.66334" lon="5.72242">
        <ele>578</ele>
        <time>2017-05-25T12:17:55Z</time>
      </trkpt>
      <trkpt lat="45.66339" lon="5.72241">
        <ele>578</ele>
        <time>2017-05-25T12:18:11Z</time>
      </trkpt>
      <trkpt lat="45.66345" lon="5.72232">
        <ele>578</ele>
        <time>2017-05-25T12:18:11Z</time>
      </trkpt>
      <trkpt lat="45.6635" lon="5.72229">
        <ele>578</ele>
        <time>2017-05-25T12:18:11Z</time>
      </trkpt>
      <trkpt lat="45.66356" lon="5.72224">
        <ele>578</ele>
        <time>2017-05-25T12:18:11Z</time>
      </trkpt>
      <trkpt lat="45.66361" lon="5.72221">
        <ele>578</ele>
        <time>2017-05-25T12:18:27Z</time>
      </trkpt>
      <trkpt lat="45.66364" lon="5.72216">
        <ele>578</ele>
        <time>2017-05-25T12:18:27Z</time>
      </trkpt>
      <trkpt lat="45.66363" lon="5.72211">
        <ele>578</ele>
        <time>2017-05-25T12:18:27Z</time>
      </trkpt>
      <trkpt lat="45.66362" lon="5.72206">
        <ele>591</ele>
        <time>2017-05-25T12:18:27Z</time>
      </trkpt>
      <trkpt lat="45.66359" lon="5.722">
        <ele>591</ele>
        <time>2017-05-25T12:18:43Z</time>
      </trkpt>
      <trkpt lat="45.66356" lon="5.72192">
        <ele>591</ele>
        <time>2017-05-25T12:18:43Z</time>
      </trkpt>
      <trkpt lat="45.66351" lon="5.72185">
        <ele>591</ele>
        <time>2017-05-25T12:18:43Z</time>
      </trkpt>
      <trkpt lat="45.66347" lon="5.72178">
        <ele>591</ele>
        <time>2017-05-25T12:18:43Z</time>
      </trkpt>
      <trkpt lat="45.66343" lon="5.72175">
        <ele>591</ele>
        <time>2017-05-25T12:18:59Z</time>
      </trkpt>
      <trkpt lat="45.66336" lon="5.72171">
        <ele>591</ele>
        <time>2017-05-25T12:18:59Z</time>
      </trkpt>
      <trkpt lat="45.66333" lon="5.72162">
        <ele>591</ele>
        <time>2017-05-25T12:18:59Z</time>
      </trkpt>
      <trkpt lat="45.66331" lon="5.72153">
        <ele>591</ele>
        <time>2017-05-25T12:18:59Z</time>
      </trkpt>
      <trkpt lat="45.66331" lon="5.72143">
        <ele>591</ele>
        <time>2017-05-25T12:19:15Z</time>
      </trkpt>
      <trkpt lat="45.66331" lon="5.72134">
        <ele>591</ele>
        <time>2017-05-25T12:19:15Z</time>
      </trkpt>
      <trkpt lat="45.66328" lon="5.72129">
        <ele>591</ele>
        <time>2017-05-25T12:19:15Z</time>
      </trkpt>
      <trkpt lat="45.66326" lon="5.72119">
        <ele>593</ele>
        <time>2017-05-25T12:19:15Z</time>
      </trkpt>
      <trkpt lat="45.66334" lon="5.72108">
        <ele>593</ele>
        <time>2017-05-25T12:19:31Z</time>
      </trkpt>
      <trkpt lat="45.66337" lon="5.72097">
        <ele>593</ele>
        <time>2017-05-25T12:19:31Z</time>
      </trkpt>
      <trkpt lat="45.66337" lon="5.7209">
        <ele>593</ele>
        <time>2017-05-25T12:19:31Z</time>
      </trkpt>
      <trkpt lat="45.66328" lon="5.72091">
        <ele>593</ele>
        <time>2017-05-25T12:19:31Z</time>
      </trkpt>
      <trkpt lat="45.66327" lon="5.72086">
        <ele>593</ele>
        <time>2017-05-25T12:19:47Z</time>
      </trkpt>
      <trkpt lat="45.66328" lon="5.72083">
        <ele>593</ele>
        <time>2017-05-25T12:19:47Z</time>
      </trkpt>
      <trkpt lat="45.66331" lon="5.72075">
        <ele>593</ele>
        <time>2017-05-25T12:19:47Z</time>
      </trkpt>
      <trkpt lat="45.66334" lon="5.72067">
        <ele>593</ele>
        <time>2017-05-25T12:19:47Z</time>
      </trkpt>
      <trkpt lat="45.66337" lon="5.72054">
        <ele>593</ele>
        <time>2017-05-25T12:20:03Z</time>
      </trkpt>
      <trkpt lat="45.66334" lon="5.72042">
        <ele>593</ele>
        <time>2017-05-25T12:20:03Z</time>
      </trkpt>
      <trkpt lat="45.66331" lon="5.72035">
        <ele>586</ele>
        <time>2017-05-25T12:20:03Z</time>
      </trkpt>
      <trkpt lat="45.6633" lon="5.72026">
        <ele>586</ele>
        <time>2017-05-25T12:20:03Z</time>
      </trkpt>
      <trkpt lat="45.66331" lon="5.72017">
        <ele>586</ele>
        <time>2017-05-25T12:20:19Z</time>
      </trkpt>
      <trkpt lat="45.66327" lon="5.7201">
        <ele>586</ele>
        <time>2017-05-25T12:20:19Z</time>
      </trkpt>
      <trkpt lat="45.66325" lon="5.72004">
        <ele>586</ele>
        <time>2017-05-25T12:20:19Z</time>
      </trkpt>
      <trkpt lat="45.6632" lon="5.72001">
        <ele>586</ele>
        <time>2017-05-25T12:20:19Z</time>
      </trkpt>
      <trkpt lat="45.6632" lon="5.71993">
        <ele>586</ele>
        <time>2017-05-25T12:20:35Z</time>
      </trkpt>
      <trkpt lat="45.66325" lon="5.71985">
        <ele>586</ele>
        <time>2017-05-25T12:20:35Z</time>
      </trkpt>
      <trkpt lat="45.66327" lon="5.71976">
        <ele>586</ele>
        <time>2017-05-25T12:20:35Z</time>
      </trkpt>
      <trkpt lat="45.66329" lon="5.7197">
        <ele>586</ele>
        <time>2017-05-25T12:20:35Z</time>
      </trkpt>
      <trkpt lat="45.66332" lon="5.71962">
        <ele>586</ele>
        <time>2017-05-25T12:20:51Z</time>
      </trkpt>
      <trkpt lat="45.66335" lon="5.71959">
        <ele>586</ele>
        <time>2017-05-25T12:20:51Z</time>
      </trkpt>
      <trkpt lat="45.66337" lon="5.71955">
        <ele>587</ele>
        <time>2017-05-25T12:20:51Z</time>
      </trkpt>
      <trkpt lat="45.6634" lon="5.7195">
        <ele>587</ele>
        <time>2017-05-25T12:20:51Z</time>
      </trkpt>
      <trkpt lat="45.66345" lon="5.71949">
        <ele>587</ele>
        <time>2017-05-25T12:21:07Z</time>
      </trkpt>
      <trkpt lat="45.66349" lon="5.71947">
        <ele>587</ele>
        <time>2017-05-25T12:21:07Z</time>
      </trkpt>
      <trkpt lat="45.66356" lon="5.71944">
        <ele>587</ele>
        <time>2017-05-25T12:21:07Z</time>
      </trkpt>
      <trkpt lat="45.6636" lon="5.71943">
        <ele>587</ele>
        <time>2017-05-25T12:21:07Z</time>
      </trkpt>
      <trkpt lat="45.66364" lon="5.71936">
        <ele>587</ele>
        <time>2017-05-25T12:21:23Z</time>
      </trkpt>
      <trkpt lat="45.66365" lon="5.71928">
        <ele>587</ele>
        <time>2017-05-25T12:21:23Z</time>
      </trkpt>
      <trkpt lat="45.66363" lon="5.71922">
        <ele>587</ele>
        <time>2017-05-25T12:21:23Z</time>
      </trkpt>
      <trkpt lat="45.66362" lon="5.71918">
        <ele>587</ele>
        <time>2017-05-25T12:21:23Z</time>
      </trkpt>
      <trkpt lat="45.66363" lon="5.71912">
        <ele>587</ele>
        <time>2017-05-25T12:21:39Z</time>
      </trkpt>
      <trkpt lat="45.66366" lon="5.71907">
        <ele>587</ele>
        <time>2017-05-25T12:21:39Z</time>
      </trkpt>
      <trkpt lat="45.66369" lon="5.71901">
        <ele>587</ele>
        <time>2017-05-25T12:21:39Z</time>
      </trkpt>
      <trkpt lat="45.66375" lon="5.71893">
        <ele>587</ele>
        <time>2017-05-25T12:21:39Z</time>
      </trkpt>
      <trkpt lat="45.66377" lon="5.71888">
        <ele>575</ele>
        <time>2017-05-25T12:21:59Z</time>
      </trkpt>
      <trkpt lat="45.66379" lon="5.71887">
        <ele>575</ele>
        <time>2017-05-25T12:21:59Z</time>
      </trkpt>
      <trkpt lat="45.66381" lon="5.71886">
        <ele>575</ele>
        <time>2017-05-25T12:21:59Z</time>
      </trkpt>
      <trkpt lat="45.66385" lon="5.71885">
        <ele>575</ele>
        <time>2017-05-25T12:21:59Z</time>
      </trkpt>
      <trkpt lat="45.66387" lon="5.71885">
        <ele>575</ele>
        <time>2017-05-25T12:21:59Z</time>
      </trkpt>
      <trkpt lat="45.66391" lon="5.71884">
        <ele>575</ele>
        <time>2017-05-25T12:22:15Z</time>
      </trkpt>
      <trkpt lat="45.66396" lon="5.71878">
        <ele>575</ele>
        <time>2017-05-25T12:22:15Z</time>
      </trkpt>
      <trkpt lat="45.66401" lon="5.7187">
        <ele>579</ele>
        <time>2017-05-25T12:22:15Z</time>
      </trkpt>
      <trkpt lat="45.66406" lon="5.71856">
        <ele>579</ele>
        <time>2017-05-25T12:22:15Z</time>
      </trkpt>
      <trkpt lat="45.66411" lon="5.71841">
        <ele>579</ele>
        <time>2017-05-25T12:22:31Z</time>
      </trkpt>
      <trkpt lat="45.66415" lon="5.71826">
        <ele>579</ele>
        <time>2017-05-25T12:22:31Z</time>
      </trkpt>
      <trkpt lat="45.66413" lon="5.71808">
        <ele>579</ele>
        <time>2017-05-25T12:22:31Z</time>
      </trkpt>
      <trkpt lat="45.66409" lon="5.71794">
        <ele>579</ele>
        <time>2017-05-25T12:22:31Z</time>
      </trkpt>
      <trkpt lat="45.66412" lon="5.71789">
        <ele>584</ele>
        <time>2017-05-25T12:22:47Z</time>
      </trkpt>
      <trkpt lat="45.66414" lon="5.71782">
        <ele>584</ele>
        <time>2017-05-25T12:22:47Z</time>
      </trkpt>
      <trkpt lat="45.66413" lon="5.71774">
        <ele>584</ele>
        <time>2017-05-25T12:22:47Z</time>
      </trkpt>
      <trkpt lat="45.66418" lon="5.71769">
        <ele>584</ele>
        <time>2017-05-25T12:22:47Z</time>
      </trkpt>
      <trkpt lat="45.66422" lon="5.71762">
        <ele>584</ele>
        <time>2017-05-25T12:23:03Z</time>
      </trkpt>
      <trkpt lat="45.66426" lon="5.71759">
        <ele>584</ele>
        <time>2017-05-25T12:23:03Z</time>
      </trkpt>
      <trkpt lat="45.66432" lon="5.71754">
        <ele>584</ele>
        <time>2017-05-25T12:23:03Z</time>
      </trkpt>
      <trkpt lat="45.66435" lon="5.7175">
        <ele>584</ele>
        <time>2017-05-25T12:23:03Z</time>
      </trkpt>
      <trkpt lat="45.66438" lon="5.7175">
        <ele>584</ele>
        <time>2017-05-25T12:23:19Z</time>
      </trkpt>
      <trkpt lat="45.66443" lon="5.71751">
        <ele>584</ele>
        <time>2017-05-25T12:23:19Z</time>
      </trkpt>
      <trkpt lat="45.66446" lon="5.71755">
        <ele>584</ele>
        <time>2017-05-25T12:23:19Z</time>
      </trkpt>
      <trkpt lat="45.66448" lon="5.71758">
        <ele>584</ele>
        <time>2017-05-25T12:23:19Z</time>
      </trkpt>
      <trkpt lat="45.66452" lon="5.71761">
        <ele>584</ele>
        <time>2017-05-25T12:23:39Z</time>
      </trkpt>
      <trkpt lat="45.66454" lon="5.71761">
        <ele>584</ele>
        <time>2017-05-25T12:23:39Z</time>
      </trkpt>
      <trkpt lat="45.66454" lon="5.71764">
        <ele>584</ele>
        <time>2017-05-25T12:23:39Z</time>
      </trkpt>
      <trkpt lat="45.66456" lon="5.71767">
        <ele>584</ele>
        <time>2017-05-25T12:23:39Z</time>
      </trkpt>
      <trkpt lat="45.66457" lon="5.71772">
        <ele>584</ele>
        <time>2017-05-25T12:23:39Z</time>
      </trkpt>
      <trkpt lat="45.66457" lon="5.71775">
        <ele>584</ele>
        <time>2017-05-25T12:23:59Z</time>
      </trkpt>
      <trkpt lat="45.66459" lon="5.71777">
        <ele>572</ele>
        <time>2017-05-25T12:23:59Z</time>
      </trkpt>
      <trkpt lat="45.6646" lon="5.71779">
        <ele>572</ele>
        <time>2017-05-25T12:23:59Z</time>
      </trkpt>
      <trkpt lat="45.6646" lon="5.7178">
        <ele>572</ele>
        <time>2017-05-25T12:23:59Z</time>
      </trkpt>
      <trkpt lat="45.66464" lon="5.71787">
        <ele>572</ele>
        <time>2017-05-25T12:23:59Z</time>
      </trkpt>
      <trkpt lat="45.66472" lon="5.71795">
        <ele>568</ele>
        <time>2017-05-25T12:24:15Z</time>
      </trkpt>
      <trkpt lat="45.66481" lon="5.718">
        <ele>568</ele>
        <time>2017-05-25T12:24:15Z</time>
      </trkpt>
      <trkpt lat="45.6649" lon="5.71806">
        <ele>568</ele>
        <time>2017-05-25T12:24:15Z</time>
      </trkpt>
      <trkpt lat="45.66508" lon="5.71816">
        <ele>568</ele>
        <time>2017-05-25T12:24:15Z</time>
      </trkpt>
      <trkpt lat="45.66522" lon="5.71815">
        <ele>568</ele>
        <time>2017-05-25T12:24:31Z</time>
      </trkpt>
      <trkpt lat="45.66533" lon="5.71812">
        <ele>568</ele>
        <time>2017-05-25T12:24:31Z</time>
      </trkpt>
      <trkpt lat="45.66536" lon="5.7181">
        <ele>568</ele>
        <time>2017-05-25T12:24:31Z</time>
      </trkpt>
      <trkpt lat="45.66542" lon="5.71812">
        <ele>567</ele>
        <time>2017-05-25T12:24:31Z</time>
      </trkpt>
      <trkpt lat="45.66548" lon="5.71814">
        <ele>567</ele>
        <time>2017-05-25T12:24:47Z</time>
      </trkpt>
      <trkpt lat="45.66553" lon="5.71814">
        <ele>567</ele>
        <time>2017-05-25T12:24:47Z</time>
      </trkpt>
      <trkpt lat="45.66556" lon="5.71812">
        <ele>567</ele>
        <time>2017-05-25T12:24:47Z</time>
      </trkpt>
      <trkpt lat="45.66558" lon="5.7181">
        <ele>567</ele>
        <time>2017-05-25T12:24:47Z</time>
      </trkpt>
      <trkpt lat="45.66561" lon="5.71813">
        <ele>567</ele>
        <time>2017-05-25T12:25:03Z</time>
      </trkpt>
      <trkpt lat="45.66565" lon="5.71813">
        <ele>567</ele>
        <time>2017-05-25T12:25:03Z</time>
      </trkpt>
      <trkpt lat="45.6657" lon="5.7181">
        <ele>567</ele>
        <time>2017-05-25T12:25:03Z</time>
      </trkpt>
      <trkpt lat="45.66574" lon="5.7181">
        <ele>567</ele>
        <time>2017-05-25T12:25:03Z</time>
      </trkpt>
      <trkpt lat="45.66581" lon="5.71809">
        <ele>567</ele>
        <time>2017-05-25T12:25:19Z</time>
      </trkpt>
      <trkpt lat="45.66589" lon="5.71809">
        <ele>567</ele>
        <time>2017-05-25T12:25:19Z</time>
      </trkpt>
      <trkpt lat="45.66597" lon="5.71807">
        <ele>567</ele>
        <time>2017-05-25T12:25:19Z</time>
      </trkpt>
      <trkpt lat="45.66605" lon="5.71809">
        <ele>567</ele>
        <time>2017-05-25T12:25:19Z</time>
      </trkpt>
      <trkpt lat="45.66613" lon="5.71811">
        <ele>567</ele>
        <time>2017-05-25T12:25:35Z</time>
      </trkpt>
      <trkpt lat="45.66618" lon="5.71812">
        <ele>567</ele>
        <time>2017-05-25T12:25:35Z</time>
      </trkpt>
      <trkpt lat="45.66625" lon="5.71812">
        <ele>567</ele>
        <time>2017-05-25T12:25:35Z</time>
      </trkpt>
      <trkpt lat="45.66635" lon="5.71814">
        <ele>574</ele>
        <time>2017-05-25T12:25:35Z</time>
      </trkpt>
      <trkpt lat="45.66641" lon="5.71817">
        <ele>574</ele>
        <time>2017-05-25T12:25:51Z</time>
      </trkpt>
      <trkpt lat="45.66649" lon="5.7182">
        <ele>574</ele>
        <time>2017-05-25T12:25:51Z</time>
      </trkpt>
      <trkpt lat="45.66657" lon="5.71823">
        <ele>574</ele>
        <time>2017-05-25T12:25:51Z</time>
      </trkpt>
      <trkpt lat="45.66666" lon="5.71825">
        <ele>574</ele>
        <time>2017-05-25T12:25:51Z</time>
      </trkpt>
      <trkpt lat="45.66673" lon="5.71825">
        <ele>574</ele>
        <time>2017-05-25T12:26:07Z</time>
      </trkpt>
      <trkpt lat="45.66678" lon="5.71828">
        <ele>574</ele>
        <time>2017-05-25T12:26:07Z</time>
      </trkpt>
      <trkpt lat="45.66683" lon="5.71833">
        <ele>574</ele>
        <time>2017-05-25T12:26:07Z</time>
      </trkpt>
      <trkpt lat="45.66689" lon="5.7184">
        <ele>574</ele>
        <time>2017-05-25T12:26:07Z</time>
      </trkpt>
      <trkpt lat="45.66697" lon="5.71835">
        <ele>574</ele>
        <time>2017-05-25T12:26:23Z</time>
      </trkpt>
      <trkpt lat="45.66704" lon="5.71825">
        <ele>574</ele>
        <time>2017-05-25T12:26:23Z</time>
      </trkpt>
      <trkpt lat="45.66709" lon="5.71817">
        <ele>562</ele>
        <time>2017-05-25T12:26:23Z</time>
      </trkpt>
      <trkpt lat="45.66709" lon="5.71808">
        <ele>562</ele>
        <time>2017-05-25T12:26:23Z</time>
      </trkpt>
      <trkpt lat="45.66713" lon="5.71804">
        <ele>562</ele>
        <time>2017-05-25T12:26:39Z</time>
      </trkpt>
      <trkpt lat="45.66716" lon="5.71798">
        <ele>562</ele>
        <time>2017-05-25T12:26:39Z</time>
      </trkpt>
      <trkpt lat="45.66721" lon="5.71791">
        <ele>573</ele>
        <time>2017-05-25T12:26:39Z</time>
      </trkpt>
      <trkpt lat="45.66727" lon="5.71786">
        <ele>573</ele>
        <time>2017-05-25T12:26:39Z</time>
      </trkpt>
      <trkpt lat="45.6674" lon="5.71781">
        <ele>573</ele>
        <time>2017-05-25T12:26:55Z</time>
      </trkpt>
      <trkpt lat="45.66759" lon="5.71783">
        <ele>573</ele>
        <time>2017-05-25T12:26:55Z</time>
      </trkpt>
      <trkpt lat="45.66773" lon="5.71785">
        <ele>573</ele>
        <time>2017-05-25T12:26:55Z</time>
      </trkpt>
      <trkpt lat="45.66775" lon="5.71787">
        <ele>573</ele>
        <time>2017-05-25T12:26:55Z</time>
      </trkpt>
      <trkpt lat="45.6678" lon="5.71792">
        <ele>562</ele>
        <time>2017-05-25T12:27:11Z</time>
      </trkpt>
      <trkpt lat="45.66786" lon="5.71799">
        <ele>562</ele>
        <time>2017-05-25T12:27:11Z</time>
      </trkpt>
      <trkpt lat="45.6679" lon="5.71805">
        <ele>562</ele>
        <time>2017-05-25T12:27:11Z</time>
      </trkpt>
      <trkpt lat="45.66797" lon="5.71807">
        <ele>573</ele>
        <time>2017-05-25T12:27:11Z</time>
      </trkpt>
      <trkpt lat="45.66801" lon="5.71809">
        <ele>573</ele>
        <time>2017-05-25T12:27:27Z</time>
      </trkpt>
      <trkpt lat="45.66806" lon="5.71813">
        <ele>573</ele>
        <time>2017-05-25T12:27:27Z</time>
      </trkpt>
      <trkpt lat="45.66812" lon="5.71817">
        <ele>573</ele>
        <time>2017-05-25T12:27:27Z</time>
      </trkpt>
      <trkpt lat="45.66816" lon="5.71822">
        <ele>573</ele>
        <time>2017-05-25T12:27:27Z</time>
      </trkpt>
      <trkpt lat="45.66822" lon="5.71824">
        <ele>573</ele>
        <time>2017-05-25T12:27:43Z</time>
      </trkpt>
      <trkpt lat="45.66828" lon="5.71826">
        <ele>573</ele>
        <time>2017-05-25T12:27:43Z</time>
      </trkpt>
      <trkpt lat="45.66832" lon="5.7183">
        <ele>573</ele>
        <time>2017-05-25T12:27:43Z</time>
      </trkpt>
      <trkpt lat="45.66834" lon="5.71836">
        <ele>573</ele>
        <time>2017-05-25T12:27:43Z</time>
      </trkpt>
      <trkpt lat="45.66838" lon="5.71837">
        <ele>573</ele>
        <time>2017-05-25T12:27:59Z</time>
      </trkpt>
      <trkpt lat="45.66844" lon="5.71836">
        <ele>573</ele>
        <time>2017-05-25T12:27:59Z</time>
      </trkpt>
      <trkpt lat="45.66849" lon="5.71837">
        <ele>573</ele>
        <time>2017-05-25T12:27:59Z</time>
      </trkpt>
      <trkpt lat="45.66855" lon="5.71837">
        <ele>573</ele>
        <time>2017-05-25T12:27:59Z</time>
      </trkpt>
      <trkpt lat="45.6686" lon="5.7184">
        <ele>573</ele>
        <time>2017-05-25T12:28:15Z</time>
      </trkpt>
      <trkpt lat="45.66865" lon="5.7185">
        <ele>573</ele>
        <time>2017-05-25T12:28:15Z</time>
      </trkpt>
      <trkpt lat="45.66869" lon="5.71857">
        <ele>573</ele>
        <time>2017-05-25T12:28:15Z</time>
      </trkpt>
      <trkpt lat="45.66878" lon="5.71865">
        <ele>573</ele>
        <time>2017-05-25T12:28:15Z</time>
      </trkpt>
      <trkpt lat="45.66888" lon="5.71866">
        <ele>573</ele>
        <time>2017-05-25T12:28:31Z</time>
      </trkpt>
      <trkpt lat="45.66892" lon="5.71863">
        <ele>573</ele>
        <time>2017-05-25T12:28:31Z</time>
      </trkpt>
      <trkpt lat="45.669" lon="5.71862">
        <ele>573</ele>
        <time>2017-05-25T12:28:31Z</time>
      </trkpt>
      <trkpt lat="45.66909" lon="5.71859">
        <ele>573</ele>
        <time>2017-05-25T12:28:31Z</time>
      </trkpt>
      <trkpt lat="45.66914" lon="5.71855">
        <ele>573</ele>
        <time>2017-05-25T12:28:47Z</time>
      </trkpt>
      <trkpt lat="45.6692" lon="5.71847">
        <ele>573</ele>
        <time>2017-05-25T12:28:47Z</time>
      </trkpt>
      <trkpt lat="45.66926" lon="5.71843">
        <ele>573</ele>
        <time>2017-05-25T12:28:47Z</time>
      </trkpt>
      <trkpt lat="45.66931" lon="5.71842">
        <ele>573</ele>
        <time>2017-05-25T12:28:47Z</time>
      </trkpt>
      <trkpt lat="45.66936" lon="5.71839">
        <ele>573</ele>
        <time>2017-05-25T12:29:03Z</time>
      </trkpt>
      <trkpt lat="45.6694" lon="5.71836">
        <ele>573</ele>
        <time>2017-05-25T12:29:03Z</time>
      </trkpt>
      <trkpt lat="45.66942" lon="5.71835">
        <ele>573</ele>
        <time>2017-05-25T12:29:03Z</time>
      </trkpt>
      <trkpt lat="45.66947" lon="5.71833">
        <ele>573</ele>
        <time>2017-05-25T12:29:03Z</time>
      </trkpt>
      <trkpt lat="45.66953" lon="5.7183">
        <ele>573</ele>
        <time>2017-05-25T12:29:19Z</time>
      </trkpt>
      <trkpt lat="45.66957" lon="5.71831">
        <ele>573</ele>
        <time>2017-05-25T12:29:19Z</time>
      </trkpt>
      <trkpt lat="45.66962" lon="5.7183">
        <ele>567</ele>
        <time>2017-05-25T12:29:19Z</time>
      </trkpt>
      <trkpt lat="45.66968" lon="5.71832">
        <ele>567</ele>
        <time>2017-05-25T12:29:19Z</time>
      </trkpt>
      <trkpt lat="45.66973" lon="5.71837">
        <ele>567</ele>
        <time>2017-05-25T12:29:35Z</time>
      </trkpt>
      <trkpt lat="45.6698" lon="5.71834">
        <ele>567</ele>
        <time>2017-05-25T12:29:35Z</time>
      </trkpt>
      <trkpt lat="45.66989" lon="5.71832">
        <ele>567</ele>
        <time>2017-05-25T12:29:35Z</time>
      </trkpt>
      <trkpt lat="45.66994" lon="5.71831">
        <ele>567</ele>
        <time>2017-05-25T12:29:35Z</time>
      </trkpt>
      <trkpt lat="45.66998" lon="5.7183">
        <ele>567</ele>
        <time>2017-05-25T12:29:51Z</time>
      </trkpt>
      <trkpt lat="45.67004" lon="5.71829">
        <ele>567</ele>
        <time>2017-05-25T12:29:51Z</time>
      </trkpt>
      <trkpt lat="45.67009" lon="5.71827">
        <ele>567</ele>
        <time>2017-05-25T12:29:51Z</time>
      </trkpt>
      <trkpt lat="45.67016" lon="5.71829">
        <ele>567</ele>
        <time>2017-05-25T12:29:51Z</time>
      </trkpt>
      <trkpt lat="45.67021" lon="5.7183">
        <ele>567</ele>
        <time>2017-05-25T12:30:07Z</time>
      </trkpt>
      <trkpt lat="45.67026" lon="5.71831">
        <ele>567</ele>
        <time>2017-05-25T12:30:07Z</time>
      </trkpt>
      <trkpt lat="45.67032" lon="5.71834">
        <ele>567</ele>
        <time>2017-05-25T12:30:07Z</time>
      </trkpt>
      <trkpt lat="45.67038" lon="5.71836">
        <ele>567</ele>
        <time>2017-05-25T12:30:07Z</time>
      </trkpt>
      <trkpt lat="45.67042" lon="5.71835">
        <ele>567</ele>
        <time>2017-05-25T12:30:27Z</time>
      </trkpt>
      <trkpt lat="45.67043" lon="5.71834">
        <ele>566</ele>
        <time>2017-05-25T12:30:27Z</time>
      </trkpt>
      <trkpt lat="45.67047" lon="5.71835">
        <ele>566</ele>
        <time>2017-05-25T12:30:27Z</time>
      </trkpt>
      <trkpt lat="45.6705" lon="5.71834">
        <ele>566</ele>
        <time>2017-05-25T12:30:27Z</time>
      </trkpt>
      <trkpt lat="45.67054" lon="5.71835">
        <ele>566</ele>
        <time>2017-05-25T12:30:27Z</time>
      </trkpt>
      <trkpt lat="45.67059" lon="5.71835">
        <ele>566</ele>
        <time>2017-05-25T12:30:43Z</time>
      </trkpt>
      <trkpt lat="45.67064" lon="5.71837">
        <ele>566</ele>
        <time>2017-05-25T12:30:43Z</time>
      </trkpt>
      <trkpt lat="45.67069" lon="5.7184">
        <ele>566</ele>
        <time>2017-05-25T12:30:43Z</time>
      </trkpt>
      <trkpt lat="45.67072" lon="5.71848">
        <ele>566</ele>
        <time>2017-05-25T12:30:43Z</time>
      </trkpt>
      <trkpt lat="45.67076" lon="5.71856">
        <ele>566</ele>
        <time>2017-05-25T12:30:59Z</time>
      </trkpt>
      <trkpt lat="45.67083" lon="5.71868">
        <ele>566</ele>
        <time>2017-05-25T12:30:59Z</time>
      </trkpt>
      <trkpt lat="45.6709" lon="5.71877">
        <ele>572</ele>
        <time>2017-05-25T12:30:59Z</time>
      </trkpt>
      <trkpt lat="45.67095" lon="5.7188">
        <ele>572</ele>
        <time>2017-05-25T12:30:59Z</time>
      </trkpt>
      <trkpt lat="45.67099" lon="5.71883">
        <ele>572</ele>
        <time>2017-05-25T12:31:15Z</time>
      </trkpt>
      <trkpt lat="45.67104" lon="5.71886">
        <ele>572</ele>
        <time>2017-05-25T12:31:15Z</time>
      </trkpt>
      <trkpt lat="45.67107" lon="5.71887">
        <ele>572</ele>
        <time>2017-05-25T12:31:15Z</time>
      </trkpt>
      <trkpt lat="45.67108" lon="5.71888">
        <ele>572</ele>
        <time>2017-05-25T12:31:15Z</time>
      </trkpt>
      <trkpt lat="45.67108" lon="5.71888">
        <ele>572</ele>
        <time>2017-05-25T12:31:31Z</time>
      </trkpt>
      <trkpt lat="45.67115" lon="5.71889">
        <ele>572</ele>
        <time>2017-05-25T12:31:31Z</time>
      </trkpt>
      <trkpt lat="45.67124" lon="5.71891">
        <ele>572</ele>
        <time>2017-05-25T12:31:31Z</time>
      </trkpt>
      <trkpt lat="45.67132" lon="5.71892">
        <ele>567</ele>
        <time>2017-05-25T12:31:31Z</time>
      </trkpt>
      <trkpt lat="45.67138" lon="5.71895">
        <ele>567</ele>
        <time>2017-05-25T12:31:47Z</time>
      </trkpt>
      <trkpt lat="45.67146" lon="5.71903">
        <ele>567</ele>
        <time>2017-05-25T12:31:47Z</time>
      </trkpt>
      <trkpt lat="45.67152" lon="5.71912">
        <ele>567</ele>
        <time>2017-05-25T12:31:47Z</time>
      </trkpt>
      <trkpt lat="45.67158" lon="5.71918">
        <ele>567</ele>
        <time>2017-05-25T12:31:47Z</time>
      </trkpt>
      <trkpt lat="45.67163" lon="5.71919">
        <ele>567</ele>
        <time>2017-05-25T12:32:03Z</time>
      </trkpt>
      <trkpt lat="45.67168" lon="5.71923">
        <ele>567</ele>
        <time>2017-05-25T12:32:03Z</time>
      </trkpt>
      <trkpt lat="45.67171" lon="5.71926">
        <ele>567</ele>
        <time>2017-05-25T12:32:03Z</time>
      </trkpt>
      <trkpt lat="45.67175" lon="5.71933">
        <ele>567</ele>
        <time>2017-05-25T12:32:03Z</time>
      </trkpt>
      <trkpt lat="45.6718" lon="5.71938">
        <ele>567</ele>
        <time>2017-05-25T12:32:19Z</time>
      </trkpt>
      <trkpt lat="45.67182" lon="5.71942">
        <ele>567</ele>
        <time>2017-05-25T12:32:19Z</time>
      </trkpt>
      <trkpt lat="45.67186" lon="5.71948">
        <ele>567</ele>
        <time>2017-05-25T12:32:19Z</time>
      </trkpt>
      <trkpt lat="45.67194" lon="5.71952">
        <ele>567</ele>
        <time>2017-05-25T12:32:19Z</time>
      </trkpt>
      <trkpt lat="45.67202" lon="5.71958">
        <ele>567</ele>
        <time>2017-05-25T12:32:43Z</time>
      </trkpt>
      <trkpt lat="45.67205" lon="5.71956">
        <ele>567</ele>
        <time>2017-05-25T12:32:43Z</time>
      </trkpt>
      <trkpt lat="45.67206" lon="5.71956">
        <ele>567</ele>
        <time>2017-05-25T12:32:43Z</time>
      </trkpt>
      <trkpt lat="45.67206" lon="5.71956">
        <ele>567</ele>
        <time>2017-05-25T12:32:43Z</time>
      </trkpt>
      <trkpt lat="45.67209" lon="5.71955">
        <ele>560</ele>
        <time>2017-05-25T12:32:43Z</time>
      </trkpt>
      <trkpt lat="45.67217" lon="5.71954">
        <ele>560</ele>
        <time>2017-05-25T12:32:59Z</time>
      </trkpt>
      <trkpt lat="45.67223" lon="5.71952">
        <ele>560</ele>
        <time>2017-05-25T12:32:59Z</time>
      </trkpt>
      <trkpt lat="45.67233" lon="5.71949">
        <ele>560</ele>
        <time>2017-05-25T12:32:59Z</time>
      </trkpt>
      <trkpt lat="45.67242" lon="5.71947">
        <ele>560</ele>
        <time>2017-05-25T12:32:59Z</time>
      </trkpt>
      <trkpt lat="45.6725" lon="5.71946">
        <ele>560</ele>
        <time>2017-05-25T12:33:15Z</time>
      </trkpt>
      <trkpt lat="45.67261" lon="5.71947">
        <ele>560</ele>
        <time>2017-05-25T12:33:15Z</time>
      </trkpt>
      <trkpt lat="45.67269" lon="5.71948">
        <ele>560</ele>
        <time>2017-05-25T12:33:15Z</time>
      </trkpt>
      <trkpt lat="45.67272" lon="5.71951">
        <ele>560</ele>
        <time>2017-05-25T12:33:15Z</time>
      </trkpt>
      <trkpt lat="45.67276" lon="5.71956">
        <ele>560</ele>
        <time>2017-05-25T12:33:51Z</time>
      </trkpt>
      <trkpt lat="45.6728" lon="5.71958">
        <ele>575</ele>
        <time>2017-05-25T12:33:51Z</time>
      </trkpt>
      <trkpt lat="45.67288" lon="5.71965">
        <ele>575</ele>
        <time>2017-05-25T12:33:51Z</time>
      </trkpt>
      <trkpt lat="45.67294" lon="5.71972">
        <ele>568</ele>
        <time>2017-05-25T12:33:51Z</time>
      </trkpt>
      <trkpt lat="45.67302" lon="5.7198">
        <ele>568</ele>
        <time>2017-05-25T12:33:51Z</time>
      </trkpt>
      <trkpt lat="45.67311" lon="5.71992">
        <ele>568</ele>
        <time>2017-05-25T12:34:07Z</time>
      </trkpt>
      <trkpt lat="45.67322" lon="5.72002">
        <ele>568</ele>
        <time>2017-05-25T12:34:07Z</time>
      </trkpt>
      <trkpt lat="45.67327" lon="5.72017">
        <ele>568</ele>
        <time>2017-05-25T12:34:07Z</time>
      </trkpt>
      <trkpt lat="45.6733" lon="5.72025">
        <ele>568</ele>
        <time>2017-05-25T12:34:07Z</time>
      </trkpt>
      <trkpt lat="45.6733" lon="5.72032">
        <ele>568</ele>
        <time>2017-05-25T12:34:23Z</time>
      </trkpt>
      <trkpt lat="45.67331" lon="5.72042">
        <ele>573</ele>
        <time>2017-05-25T12:34:23Z</time>
      </trkpt>
      <trkpt lat="45.67331" lon="5.72047">
        <ele>573</ele>
        <time>2017-05-25T12:34:23Z</time>
      </trkpt>
      <trkpt lat="45.67329" lon="5.72052">
        <ele>573</ele>
        <time>2017-05-25T12:34:23Z</time>
      </trkpt>
      <trkpt lat="45.67329" lon="5.7206">
        <ele>573</ele>
        <time>2017-05-25T12:34:39Z</time>
      </trkpt>
      <trkpt lat="45.67328" lon="5.72065">
        <ele>573</ele>
        <time>2017-05-25T12:34:39Z</time>
      </trkpt>
      <trkpt lat="45.67326" lon="5.72072">
        <ele>573</ele>
        <time>2017-05-25T12:34:39Z</time>
      </trkpt>
      <trkpt lat="45.67325" lon="5.72081">
        <ele>573</ele>
        <time>2017-05-25T12:34:39Z</time>
      </trkpt>
      <trkpt lat="45.67328" lon="5.72089">
        <ele>573</ele>
        <time>2017-05-25T12:34:55Z</time>
      </trkpt>
      <trkpt lat="45.67332" lon="5.72097">
        <ele>573</ele>
        <time>2017-05-25T12:34:55Z</time>
      </trkpt>
      <trkpt lat="45.67335" lon="5.72105">
        <ele>573</ele>
        <time>2017-05-25T12:34:55Z</time>
      </trkpt>
      <trkpt lat="45.67334" lon="5.72114">
        <ele>573</ele>
        <time>2017-05-25T12:34:55Z</time>
      </trkpt>
      <trkpt lat="45.67335" lon="5.72122">
        <ele>573</ele>
        <time>2017-05-25T12:35:11Z</time>
      </trkpt>
      <trkpt lat="45.67335" lon="5.72131">
        <ele>575</ele>
        <time>2017-05-25T12:35:11Z</time>
      </trkpt>
      <trkpt lat="45.67336" lon="5.72139">
        <ele>575</ele>
        <time>2017-05-25T12:35:11Z</time>
      </trkpt>
      <trkpt lat="45.67337" lon="5.72148">
        <ele>575</ele>
        <time>2017-05-25T12:35:11Z</time>
      </trkpt>
      <trkpt lat="45.67338" lon="5.72155">
        <ele>575</ele>
        <time>2017-05-25T12:35:27Z</time>
      </trkpt>
      <trkpt lat="45.67337" lon="5.72162">
        <ele>575</ele>
        <time>2017-05-25T12:35:27Z</time>
      </trkpt>
      <trkpt lat="45.67335" lon="5.72169">
        <ele>575</ele>
        <time>2017-05-25T12:35:27Z</time>
      </trkpt>
      <trkpt lat="45.67338" lon="5.72175">
        <ele>575</ele>
        <time>2017-05-25T12:35:27Z</time>
      </trkpt>
      <trkpt lat="45.6734" lon="5.7218">
        <ele>575</ele>
        <time>2017-05-25T12:35:43Z</time>
      </trkpt>
      <trkpt lat="45.67341" lon="5.72187">
        <ele>575</ele>
        <time>2017-05-25T12:35:43Z</time>
      </trkpt>
      <trkpt lat="45.67341" lon="5.72193">
        <ele>575</ele>
        <time>2017-05-25T12:35:43Z</time>
      </trkpt>
      <trkpt lat="45.6734" lon="5.72199">
        <ele>575</ele>
        <time>2017-05-25T12:35:43Z</time>
      </trkpt>
      <trkpt lat="45.6734" lon="5.72205">
        <ele>575</ele>
        <time>2017-05-25T12:35:59Z</time>
      </trkpt>
      <trkpt lat="45.67341" lon="5.72211">
        <ele>572</ele>
        <time>2017-05-25T12:35:59Z</time>
      </trkpt>
      <trkpt lat="45.67344" lon="5.72219">
        <ele>572</ele>
        <time>2017-05-25T12:35:59Z</time>
      </trkpt>
      <trkpt lat="45.67346" lon="5.72226">
        <ele>572</ele>
        <time>2017-05-25T12:35:59Z</time>
      </trkpt>
      <trkpt lat="45.6735" lon="5.72235">
        <ele>572</ele>
        <time>2017-05-25T12:36:15Z</time>
      </trkpt>
      <trkpt lat="45.6735" lon="5.72245">
        <ele>572</ele>
        <time>2017-05-25T12:36:15Z</time>
      </trkpt>
      <trkpt lat="45.67349" lon="5.72265">
        <ele>572</ele>
        <time>2017-05-25T12:36:15Z</time>
      </trkpt>
      <trkpt lat="45.67349" lon="5.72275">
        <ele>572</ele>
        <time>2017-05-25T12:36:15Z</time>
      </trkpt>
      <trkpt lat="45.67349" lon="5.72284">
        <ele>572</ele>
        <time>2017-05-25T12:36:31Z</time>
      </trkpt>
      <trkpt lat="45.67349" lon="5.72292">
        <ele>572</ele>
        <time>2017-05-25T12:36:31Z</time>
      </trkpt>
      <trkpt lat="45.67348" lon="5.72299">
        <ele>563</ele>
        <time>2017-05-25T12:36:31Z</time>
      </trkpt>
      <trkpt lat="45.67345" lon="5.72307">
        <ele>563</ele>
        <time>2017-05-25T12:36:31Z</time>
      </trkpt>
      <trkpt lat="45.67347" lon="5.72315">
        <ele>563</ele>
        <time>2017-05-25T12:36:47Z</time>
      </trkpt>
      <trkpt lat="45.67348" lon="5.72324">
        <ele>563</ele>
        <time>2017-05-25T12:36:47Z</time>
      </trkpt>
      <trkpt lat="45.67347" lon="5.72333">
        <ele>563</ele>
        <time>2017-05-25T12:36:47Z</time>
      </trkpt>
      <trkpt lat="45.67343" lon="5.72339">
        <ele>563</ele>
        <time>2017-05-25T12:36:47Z</time>
      </trkpt>
      <trkpt lat="45.67342" lon="5.72349">
        <ele>563</ele>
        <time>2017-05-25T12:37:07Z</time>
      </trkpt>
      <trkpt lat="45.67343" lon="5.72358">
        <ele>563</ele>
        <time>2017-05-25T12:37:07Z</time>
      </trkpt>
      <trkpt lat="45.67344" lon="5.7236">
        <ele>563</ele>
        <time>2017-05-25T12:37:07Z</time>
      </trkpt>
      <trkpt lat="45.67347" lon="5.72358">
        <ele>563</ele>
        <time>2017-05-25T12:37:07Z</time>
      </trkpt>
      <trkpt lat="45.6735" lon="5.72356">
        <ele>563</ele>
        <time>2017-05-25T12:37:07Z</time>
      </trkpt>
      <trkpt lat="45.67346" lon="5.72356">
        <ele>563</ele>
        <time>2017-05-25T12:37:51Z</time>
      </trkpt>
      <trkpt lat="45.67345" lon="5.72357">
        <ele>563</ele>
        <time>2017-05-25T12:37:51Z</time>
      </trkpt>
      <trkpt lat="45.67346" lon="5.7236">
        <ele>563</ele>
        <time>2017-05-25T12:37:51Z</time>
      </trkpt>
      <trkpt lat="45.67348" lon="5.72367">
        <ele>563</ele>
        <time>2017-05-25T12:37:51Z</time>
      </trkpt>
      <trkpt lat="45.6735" lon="5.72374">
        <ele>563</ele>
        <time>2017-05-25T12:37:51Z</time>
      </trkpt>
      <trkpt lat="45.67351" lon="5.72378">
        <ele>555</ele>
        <time>2017-05-25T12:38:07Z</time>
      </trkpt>
      <trkpt lat="45.67354" lon="5.72382">
        <ele>555</ele>
        <time>2017-05-25T12:38:07Z</time>
      </trkpt>
      <trkpt lat="45.67355" lon="5.72386">
        <ele>555</ele>
        <time>2017-05-25T12:38:07Z</time>
      </trkpt>
      <trkpt lat="45.67357" lon="5.72391">
        <ele>555</ele>
        <time>2017-05-25T12:38:07Z</time>
      </trkpt>
      <trkpt lat="45.6736" lon="5.72397">
        <ele>555</ele>
        <time>2017-05-25T12:38:23Z</time>
      </trkpt>
      <trkpt lat="45.67362" lon="5.72401">
        <ele>555</ele>
        <time>2017-05-25T12:38:23Z</time>
      </trkpt>
      <trkpt lat="45.67365" lon="5.72406">
        <ele>555</ele>
        <time>2017-05-25T12:38:23Z</time>
      </trkpt>
      <trkpt lat="45.6737" lon="5.72414">
        <ele>555</ele>
        <time>2017-05-25T12:38:23Z</time>
      </trkpt>
      <trkpt lat="45.67371" lon="5.72428">
        <ele>555</ele>
        <time>2017-05-25T12:39:11Z</time>
      </trkpt>
      <trkpt lat="45.67371" lon="5.72428">
        <ele>555</ele>
        <time>2017-05-25T12:39:11Z</time>
      </trkpt>
      <trkpt lat="45.67371" lon="5.72428">
        <ele>555</ele>
        <time>2017-05-25T12:39:11Z</time>
      </trkpt>
      <trkpt lat="45.67372" lon="5.72431">
        <ele>555</ele>
        <time>2017-05-25T12:39:11Z</time>
      </trkpt>
      <trkpt lat="45.67373" lon="5.72438">
        <ele>555</ele>
        <time>2017-05-25T12:39:11Z</time>
      </trkpt>
      <trkpt lat="45.67372" lon="5.72445">
        <ele>555</ele>
        <time>2017-05-25T12:39:27Z</time>
      </trkpt>
      <trkpt lat="45.67371" lon="5.72449">
        <ele>555</ele>
        <time>2017-05-25T12:39:27Z</time>
      </trkpt>
      <trkpt lat="45.67371" lon="5.72455">
        <ele>555</ele>
        <time>2017-05-25T12:39:27Z</time>
      </trkpt>
      <trkpt lat="45.67371" lon="5.72459">
        <ele>549</ele>
        <time>2017-05-25T12:39:27Z</time>
      </trkpt>
      <trkpt lat="45.67372" lon="5.72465">
        <ele>549</ele>
        <time>2017-05-25T12:39:43Z</time>
      </trkpt>
      <trkpt lat="45.67374" lon="5.72469">
        <ele>549</ele>
        <time>2017-05-25T12:39:43Z</time>
      </trkpt>
      <trkpt lat="45.67374" lon="5.72474">
        <ele>549</ele>
        <time>2017-05-25T12:39:43Z</time>
      </trkpt>
      <trkpt lat="45.67375" lon="5.72479">
        <ele>549</ele>
        <time>2017-05-25T12:39:43Z</time>
      </trkpt>
      <trkpt lat="45.67376" lon="5.72485">
        <ele>543</ele>
        <time>2017-05-25T12:39:59Z</time>
      </trkpt>
      <trkpt lat="45.67378" lon="5.72494">
        <ele>543</ele>
        <time>2017-05-25T12:39:59Z</time>
      </trkpt>
      <trkpt lat="45.67379" lon="5.72503">
        <ele>543</ele>
        <time>2017-05-25T12:39:59Z</time>
      </trkpt>
      <trkpt lat="45.6738" lon="5.72511">
        <ele>543</ele>
        <time>2017-05-25T12:39:59Z</time>
      </trkpt>
      <trkpt lat="45.67379" lon="5.72518">
        <ele>543</ele>
        <time>2017-05-25T12:40:19Z</time>
      </trkpt>
      <trkpt lat="45.67379" lon="5.72523">
        <ele>543</ele>
        <time>2017-05-25T12:40:19Z</time>
      </trkpt>
      <trkpt lat="45.67379" lon="5.72526">
        <ele>543</ele>
        <time>2017-05-25T12:40:19Z</time>
      </trkpt>
      <trkpt lat="45.67379" lon="5.7253">
        <ele>543</ele>
        <time>2017-05-25T12:40:19Z</time>
      </trkpt>
      <trkpt lat="45.67377" lon="5.72538">
        <ele>543</ele>
        <time>2017-05-25T12:40:19Z</time>
      </trkpt>
      <trkpt lat="45.67376" lon="5.72545">
        <ele>531</ele>
        <time>2017-05-25T12:40:35Z</time>
      </trkpt>
      <trkpt lat="45.67375" lon="5.72553">
        <ele>540</ele>
        <time>2017-05-25T12:40:35Z</time>
      </trkpt>
      <trkpt lat="45.67375" lon="5.72559">
        <ele>531</ele>
        <time>2017-05-25T12:40:35Z</time>
      </trkpt>
      <trkpt lat="45.67374" lon="5.72566">
        <ele>540</ele>
        <time>2017-05-25T12:40:35Z</time>
      </trkpt>
      <trkpt lat="45.67369" lon="5.72569">
        <ele>540</ele>
        <time>2017-05-25T12:40:55Z</time>
      </trkpt>
      <trkpt lat="45.67366" lon="5.72573">
        <ele>540</ele>
        <time>2017-05-25T12:40:55Z</time>
      </trkpt>
      <trkpt lat="45.67365" lon="5.72576">
        <ele>540</ele>
        <time>2017-05-25T12:40:55Z</time>
      </trkpt>
      <trkpt lat="45.67366" lon="5.72581">
        <ele>540</ele>
        <time>2017-05-25T12:40:55Z</time>
      </trkpt>
      <trkpt lat="45.67369" lon="5.72586">
        <ele>540</ele>
        <time>2017-05-25T12:40:55Z</time>
      </trkpt>
      <trkpt lat="45.67371" lon="5.72594">
        <ele>540</ele>
        <time>2017-05-25T12:41:11Z</time>
      </trkpt>
      <trkpt lat="45.6737" lon="5.72602">
        <ele>540</ele>
        <time>2017-05-25T12:41:11Z</time>
      </trkpt>
      <trkpt lat="45.67369" lon="5.72606">
        <ele>540</ele>
        <time>2017-05-25T12:41:11Z</time>
      </trkpt>
      <trkpt lat="45.67364" lon="5.7261">
        <ele>540</ele>
        <time>2017-05-25T12:41:11Z</time>
      </trkpt>
      <trkpt lat="45.67362" lon="5.72615">
        <ele>540</ele>
        <time>2017-05-25T12:41:27Z</time>
      </trkpt>
      <trkpt lat="45.67359" lon="5.72622">
        <ele>540</ele>
        <time>2017-05-25T12:41:27Z</time>
      </trkpt>
      <trkpt lat="45.67355" lon="5.72626">
        <ele>529</ele>
        <time>2017-05-25T12:41:27Z</time>
      </trkpt>
      <trkpt lat="45.67352" lon="5.72627">
        <ele>529</ele>
        <time>2017-05-25T12:41:27Z</time>
      </trkpt>
      <trkpt lat="45.67351" lon="5.72629">
        <ele>529</ele>
        <time>2017-05-25T12:41:43Z</time>
      </trkpt>
      <trkpt lat="45.67349" lon="5.72634">
        <ele>529</ele>
        <time>2017-05-25T12:41:43Z</time>
      </trkpt>
      <trkpt lat="45.67345" lon="5.7264">
        <ele>529</ele>
        <time>2017-05-25T12:41:43Z</time>
      </trkpt>
      <trkpt lat="45.67344" lon="5.72642">
        <ele>529</ele>
        <time>2017-05-25T12:41:43Z</time>
      </trkpt>
      <trkpt lat="45.67341" lon="5.72649">
        <ele>529</ele>
        <time>2017-05-25T12:42:19Z</time>
      </trkpt>
      <trkpt lat="45.67341" lon="5.72649">
        <ele>529</ele>
        <time>2017-05-25T12:42:19Z</time>
      </trkpt>
      <trkpt lat="45.67341" lon="5.72649">
        <ele>529</ele>
        <time>2017-05-25T12:42:19Z</time>
      </trkpt>
      <trkpt lat="45.6734" lon="5.72651">
        <ele>529</ele>
        <time>2017-05-25T12:42:19Z</time>
      </trkpt>
      <trkpt lat="45.67335" lon="5.72654">
        <ele>529</ele>
        <time>2017-05-25T12:42:19Z</time>
      </trkpt>
      <trkpt lat="45.67332" lon="5.72657">
        <ele>529</ele>
        <time>2017-05-25T12:42:35Z</time>
      </trkpt>
      <trkpt lat="45.67331" lon="5.72662">
        <ele>529</ele>
        <time>2017-05-25T12:42:35Z</time>
      </trkpt>
      <trkpt lat="45.67328" lon="5.72675">
        <ele>529</ele>
        <time>2017-05-25T12:42:35Z</time>
      </trkpt>
      <trkpt lat="45.67327" lon="5.72686">
        <ele>529</ele>
        <time>2017-05-25T12:42:35Z</time>
      </trkpt>
      <trkpt lat="45.67327" lon="5.72692">
        <ele>529</ele>
        <time>2017-05-25T12:42:51Z</time>
      </trkpt>
      <trkpt lat="45.67329" lon="5.72697">
        <ele>529</ele>
        <time>2017-05-25T12:42:51Z</time>
      </trkpt>
      <trkpt lat="45.67329" lon="5.72704">
        <ele>529</ele>
        <time>2017-05-25T12:42:51Z</time>
      </trkpt>
      <trkpt lat="45.67329" lon="5.72708">
        <ele>529</ele>
        <time>2017-05-25T12:42:51Z</time>
      </trkpt>
      <trkpt lat="45.67329" lon="5.72715">
        <ele>520</ele>
        <time>2017-05-25T12:43:07Z</time>
      </trkpt>
      <trkpt lat="45.6733" lon="5.72724">
        <ele>520</ele>
        <time>2017-05-25T12:43:07Z</time>
      </trkpt>
      <trkpt lat="45.67334" lon="5.72735">
        <ele>520</ele>
        <time>2017-05-25T12:43:07Z</time>
      </trkpt>
      <trkpt lat="45.67332" lon="5.72743">
        <ele>520</ele>
        <time>2017-05-25T12:43:07Z</time>
      </trkpt>
      <trkpt lat="45.6733" lon="5.72748">
        <ele>520</ele>
        <time>2017-05-25T12:43:23Z</time>
      </trkpt>
      <trkpt lat="45.67325" lon="5.72756">
        <ele>520</ele>
        <time>2017-05-25T12:43:23Z</time>
      </trkpt>
      <trkpt lat="45.67322" lon="5.72763">
        <ele>520</ele>
        <time>2017-05-25T12:43:23Z</time>
      </trkpt>
      <trkpt lat="45.6732" lon="5.72775">
        <ele>520</ele>
        <time>2017-05-25T12:43:23Z</time>
      </trkpt>
      <trkpt lat="45.6732" lon="5.72784">
        <ele>520</ele>
        <time>2017-05-25T12:43:39Z</time>
      </trkpt>
      <trkpt lat="45.67324" lon="5.72791">
        <ele>520</ele>
        <time>2017-05-25T12:43:39Z</time>
      </trkpt>
      <trkpt lat="45.67328" lon="5.72796">
        <ele>507</ele>
        <time>2017-05-25T12:43:39Z</time>
      </trkpt>
      <trkpt lat="45.67332" lon="5.72798">
        <ele>507</ele>
        <time>2017-05-25T12:43:39Z</time>
      </trkpt>
      <trkpt lat="45.67337" lon="5.72802">
        <ele>507</ele>
        <time>2017-05-25T12:43:55Z</time>
      </trkpt>
      <trkpt lat="45.67342" lon="5.72805">
        <ele>507</ele>
        <time>2017-05-25T12:43:55Z</time>
      </trkpt>
      <trkpt lat="45.67347" lon="5.72808">
        <ele>507</ele>
        <time>2017-05-25T12:43:55Z</time>
      </trkpt>
      <trkpt lat="45.67351" lon="5.72811">
        <ele>507</ele>
        <time>2017-05-25T12:43:55Z</time>
      </trkpt>
      <trkpt lat="45.67356" lon="5.72815">
        <ele>507</ele>
        <time>2017-05-25T12:44:11Z</time>
      </trkpt>
      <trkpt lat="45.67359" lon="5.7282">
        <ele>507</ele>
        <time>2017-05-25T12:44:11Z</time>
      </trkpt>
      <trkpt lat="45.67362" lon="5.72824">
        <ele>507</ele>
        <time>2017-05-25T12:44:11Z</time>
      </trkpt>
      <trkpt lat="45.67367" lon="5.7283">
        <ele>507</ele>
        <time>2017-05-25T12:44:11Z</time>
      </trkpt>
      <trkpt lat="45.67371" lon="5.72836">
        <ele>507</ele>
        <time>2017-05-25T12:44:27Z</time>
      </trkpt>
      <trkpt lat="45.67375" lon="5.72843">
        <ele>507</ele>
        <time>2017-05-25T12:44:27Z</time>
      </trkpt>
      <trkpt lat="45.67379" lon="5.72847">
        <ele>506</ele>
        <time>2017-05-25T12:44:27Z</time>
      </trkpt>
      <trkpt lat="45.67383" lon="5.72847">
        <ele>506</ele>
        <time>2017-05-25T12:44:27Z</time>
      </trkpt>
      <trkpt lat="45.67385" lon="5.7285">
        <ele>506</ele>
        <time>2017-05-25T12:44:43Z</time>
      </trkpt>
      <trkpt lat="45.6739" lon="5.72854">
        <ele>506</ele>
        <time>2017-05-25T12:44:43Z</time>
      </trkpt>
      <trkpt lat="45.67394" lon="5.72858">
        <ele>506</ele>
        <time>2017-05-25T12:44:43Z</time>
      </trkpt>
      <trkpt lat="45.67398" lon="5.72863">
        <ele>506</ele>
        <time>2017-05-25T12:44:43Z</time>
      </trkpt>
      <trkpt lat="45.67402" lon="5.72868">
        <ele>506</ele>
        <time>2017-05-25T12:44:59Z</time>
      </trkpt>
      <trkpt lat="45.67406" lon="5.7287">
        <ele>506</ele>
        <time>2017-05-25T12:44:59Z</time>
      </trkpt>
      <trkpt lat="45.6741" lon="5.72874">
        <ele>506</ele>
        <time>2017-05-25T12:44:59Z</time>
      </trkpt>
      <trkpt lat="45.67415" lon="5.72879">
        <ele>496</ele>
        <time>2017-05-25T12:44:59Z</time>
      </trkpt>
      <trkpt lat="45.67419" lon="5.72882">
        <ele>496</ele>
        <time>2017-05-25T12:45:15Z</time>
      </trkpt>
      <trkpt lat="45.67423" lon="5.72885">
        <ele>496</ele>
        <time>2017-05-25T12:45:15Z</time>
      </trkpt>
      <trkpt lat="45.67428" lon="5.72889">
        <ele>496</ele>
        <time>2017-05-25T12:45:15Z</time>
      </trkpt>
      <trkpt lat="45.67431" lon="5.72891">
        <ele>496</ele>
        <time>2017-05-25T12:45:15Z</time>
      </trkpt>
      <trkpt lat="45.67436" lon="5.72893">
        <ele>496</ele>
        <time>2017-05-25T12:45:31Z</time>
      </trkpt>
      <trkpt lat="45.67441" lon="5.72896">
        <ele>496</ele>
        <time>2017-05-25T12:45:31Z</time>
      </trkpt>
      <trkpt lat="45.67444" lon="5.72898">
        <ele>496</ele>
        <time>2017-05-25T12:45:31Z</time>
      </trkpt>
      <trkpt lat="45.6745" lon="5.72902">
        <ele>496</ele>
        <time>2017-05-25T12:45:31Z</time>
      </trkpt>
      <trkpt lat="45.67454" lon="5.72903">
        <ele>496</ele>
        <time>2017-05-25T12:45:47Z</time>
      </trkpt>
      <trkpt lat="45.67458" lon="5.72905">
        <ele>496</ele>
        <time>2017-05-25T12:45:47Z</time>
      </trkpt>
      <trkpt lat="45.67462" lon="5.72905">
        <ele>489</ele>
        <time>2017-05-25T12:45:47Z</time>
      </trkpt>
      <trkpt lat="45.67465" lon="5.72907">
        <ele>489</ele>
        <time>2017-05-25T12:45:47Z</time>
      </trkpt>
      <trkpt lat="45.67467" lon="5.7291">
        <ele>489</ele>
        <time>2017-05-25T12:46:11Z</time>
      </trkpt>
      <trkpt lat="45.67467" lon="5.72912">
        <ele>489</ele>
        <time>2017-05-25T12:46:11Z</time>
      </trkpt>
      <trkpt lat="45.67464" lon="5.72916">
        <ele>489</ele>
        <time>2017-05-25T12:46:11Z</time>
      </trkpt>
      <trkpt lat="45.67459" lon="5.72917">
        <ele>489</ele>
        <time>2017-05-25T12:46:11Z</time>
      </trkpt>
      <trkpt lat="45.67455" lon="5.7292">
        <ele>496</ele>
        <time>2017-05-25T12:46:11Z</time>
      </trkpt>
      <trkpt lat="45.67452" lon="5.72926">
        <ele>496</ele>
        <time>2017-05-25T12:46:27Z</time>
      </trkpt>
      <trkpt lat="45.67455" lon="5.72932">
        <ele>496</ele>
        <time>2017-05-25T12:46:27Z</time>
      </trkpt>
      <trkpt lat="45.67453" lon="5.72938">
        <ele>496</ele>
        <time>2017-05-25T12:46:27Z</time>
      </trkpt>
      <trkpt lat="45.67455" lon="5.72944">
        <ele>496</ele>
        <time>2017-05-25T12:46:27Z</time>
      </trkpt>
      <trkpt lat="45.67456" lon="5.72951">
        <ele>496</ele>
        <time>2017-05-25T12:46:43Z</time>
      </trkpt>
      <trkpt lat="45.67453" lon="5.72956">
        <ele>496</ele>
        <time>2017-05-25T12:46:43Z</time>
      </trkpt>
      <trkpt lat="45.67449" lon="5.72959">
        <ele>484</ele>
        <time>2017-05-25T12:46:43Z</time>
      </trkpt>
      <trkpt lat="45.67449" lon="5.72959">
        <ele>484</ele>
        <time>2017-05-25T12:46:43Z</time>
      </trkpt>
      <trkpt lat="45.6745" lon="5.72961">
        <ele>484</ele>
        <time>2017-05-25T12:47:15Z</time>
      </trkpt>
      <trkpt lat="45.67449" lon="5.72961">
        <ele>484</ele>
        <time>2017-05-25T12:47:15Z</time>
      </trkpt>
      <trkpt lat="45.6745" lon="5.72965">
        <ele>484</ele>
        <time>2017-05-25T12:47:15Z</time>
      </trkpt>
      <trkpt lat="45.67454" lon="5.72969">
        <ele>484</ele>
        <time>2017-05-25T12:47:15Z</time>
      </trkpt>
      <trkpt lat="45.67458" lon="5.72971">
        <ele>484</ele>
        <time>2017-05-25T12:47:15Z</time>
      </trkpt>
      <trkpt lat="45.67462" lon="5.72973">
        <ele>481</ele>
        <time>2017-05-25T12:47:31Z</time>
      </trkpt>
      <trkpt lat="45.67466" lon="5.72974">
        <ele>481</ele>
        <time>2017-05-25T12:47:31Z</time>
      </trkpt>
      <trkpt lat="45.67471" lon="5.72973">
        <ele>481</ele>
        <time>2017-05-25T12:47:31Z</time>
      </trkpt>
      <trkpt lat="45.67475" lon="5.72976">
        <ele>481</ele>
        <time>2017-05-25T12:47:31Z</time>
      </trkpt>
      <trkpt lat="45.67476" lon="5.72979">
        <ele>481</ele>
        <time>2017-05-25T12:47:47Z</time>
      </trkpt>
      <trkpt lat="45.67478" lon="5.72983">
        <ele>481</ele>
        <time>2017-05-25T12:47:47Z</time>
      </trkpt>
      <trkpt lat="45.6748" lon="5.72985">
        <ele>481</ele>
        <time>2017-05-25T12:47:47Z</time>
      </trkpt>
      <trkpt lat="45.6748" lon="5.72994">
        <ele>481</ele>
        <time>2017-05-25T12:47:47Z</time>
      </trkpt>
      <trkpt lat="45.67477" lon="5.73001">
        <ele>481</ele>
        <time>2017-05-25T12:48:03Z</time>
      </trkpt>
      <trkpt lat="45.67474" lon="5.73006">
        <ele>481</ele>
        <time>2017-05-25T12:48:03Z</time>
      </trkpt>
      <trkpt lat="45.67471" lon="5.73009">
        <ele>481</ele>
        <time>2017-05-25T12:48:03Z</time>
      </trkpt>
      <trkpt lat="45.67466" lon="5.73012">
        <ele>481</ele>
        <time>2017-05-25T12:48:03Z</time>
      </trkpt>
      <trkpt lat="45.67462" lon="5.73016">
        <ele>481</ele>
        <time>2017-05-25T12:48:19Z</time>
      </trkpt>
      <trkpt lat="45.67458" lon="5.73021">
        <ele>481</ele>
        <time>2017-05-25T12:48:19Z</time>
      </trkpt>
      <trkpt lat="45.67456" lon="5.73027">
        <ele>484</ele>
        <time>2017-05-25T12:48:19Z</time>
      </trkpt>
      <trkpt lat="45.67452" lon="5.73032">
        <ele>484</ele>
        <time>2017-05-25T12:48:19Z</time>
      </trkpt>
      <trkpt lat="45.67448" lon="5.73036">
        <ele>484</ele>
        <time>2017-05-25T12:48:35Z</time>
      </trkpt>
      <trkpt lat="45.67446" lon="5.73039">
        <ele>484</ele>
        <time>2017-05-25T12:48:35Z</time>
      </trkpt>
      <trkpt lat="45.67444" lon="5.73044">
        <ele>472</ele>
        <time>2017-05-25T12:48:35Z</time>
      </trkpt>
      <trkpt lat="45.6744" lon="5.73048">
        <ele>472</ele>
        <time>2017-05-25T12:48:35Z</time>
      </trkpt>
      <trkpt lat="45.67435" lon="5.73051">
        <ele>472</ele>
        <time>2017-05-25T12:48:51Z</time>
      </trkpt>
      <trkpt lat="45.67431" lon="5.73055">
        <ele>472</ele>
        <time>2017-05-25T12:48:51Z</time>
      </trkpt>
      <trkpt lat="45.67427" lon="5.73058">
        <ele>472</ele>
        <time>2017-05-25T12:48:51Z</time>
      </trkpt>
      <trkpt lat="45.67423" lon="5.73061">
        <ele>472</ele>
        <time>2017-05-25T12:48:51Z</time>
      </trkpt>
      <trkpt lat="45.67418" lon="5.73063">
        <ele>472</ele>
        <time>2017-05-25T12:49:07Z</time>
      </trkpt>
      <trkpt lat="45.67414" lon="5.73064">
        <ele>472</ele>
        <time>2017-05-25T12:49:07Z</time>
      </trkpt>
      <trkpt lat="45.67409" lon="5.73068">
        <ele>472</ele>
        <time>2017-05-25T12:49:07Z</time>
      </trkpt>
      <trkpt lat="45.67404" lon="5.73071">
        <ele>472</ele>
        <time>2017-05-25T12:49:07Z</time>
      </trkpt>
      <trkpt lat="45.67399" lon="5.73074">
        <ele>472</ele>
        <time>2017-05-25T12:49:23Z</time>
      </trkpt>
      <trkpt lat="45.67394" lon="5.73077">
        <ele>472</ele>
        <time>2017-05-25T12:49:23Z</time>
      </trkpt>
      <trkpt lat="45.6739" lon="5.7308">
        <ele>472</ele>
        <time>2017-05-25T12:49:23Z</time>
      </trkpt>
      <trkpt lat="45.67385" lon="5.73083">
        <ele>472</ele>
        <time>2017-05-25T12:49:23Z</time>
      </trkpt>
      <trkpt lat="45.67382" lon="5.73086">
        <ele>472</ele>
        <time>2017-05-25T12:49:39Z</time>
      </trkpt>
      <trkpt lat="45.67376" lon="5.73088">
        <ele>472</ele>
        <time>2017-05-25T12:49:39Z</time>
      </trkpt>
      <trkpt lat="45.67371" lon="5.7309">
        <ele>471</ele>
        <time>2017-05-25T12:49:39Z</time>
      </trkpt>
      <trkpt lat="45.67366" lon="5.73092">
        <ele>471</ele>
        <time>2017-05-25T12:49:39Z</time>
      </trkpt>
      <trkpt lat="45.67361" lon="5.73094">
        <ele>471</ele>
        <time>2017-05-25T12:49:55Z</time>
      </trkpt>
      <trkpt lat="45.67357" lon="5.73097">
        <ele>471</ele>
        <time>2017-05-25T12:49:55Z</time>
      </trkpt>
      <trkpt lat="45.67354" lon="5.731">
        <ele>471</ele>
        <time>2017-05-25T12:49:55Z</time>
      </trkpt>
      <trkpt lat="45.67354" lon="5.73102">
        <ele>471</ele>
        <time>2017-05-25T12:49:55Z</time>
      </trkpt>
      <trkpt lat="45.67352" lon="5.73103">
        <ele>471</ele>
        <time>2017-05-25T12:50:11Z</time>
      </trkpt>
      <trkpt lat="45.67349" lon="5.73103">
        <ele>471</ele>
        <time>2017-05-25T12:50:11Z</time>
      </trkpt>
      <trkpt lat="45.67345" lon="5.73101">
        <ele>471</ele>
        <time>2017-05-25T12:50:11Z</time>
      </trkpt>
      <trkpt lat="45.6734" lon="5.731">
        <ele>471</ele>
        <time>2017-05-25T12:50:11Z</time>
      </trkpt>
      <trkpt lat="45.67334" lon="5.73099">
        <ele>471</ele>
        <time>2017-05-25T12:50:27Z</time>
      </trkpt>
      <trkpt lat="45.67329" lon="5.73099">
        <ele>471</ele>
        <time>2017-05-25T12:50:27Z</time>
      </trkpt>
      <trkpt lat="45.67323" lon="5.73101">
        <ele>471</ele>
        <time>2017-05-25T12:50:27Z</time>
      </trkpt>
      <trkpt lat="45.67325" lon="5.73108">
        <ele>471</ele>
        <time>2017-05-25T12:50:27Z</time>
      </trkpt>
      <trkpt lat="45.6733" lon="5.73113">
        <ele>471</ele>
        <time>2017-05-25T12:50:43Z</time>
      </trkpt>
      <trkpt lat="45.67334" lon="5.73118">
        <ele>471</ele>
        <time>2017-05-25T12:50:43Z</time>
      </trkpt>
      <trkpt lat="45.67338" lon="5.73125">
        <ele>462</ele>
        <time>2017-05-25T12:50:43Z</time>
      </trkpt>
      <trkpt lat="45.67342" lon="5.73132">
        <ele>462</ele>
        <time>2017-05-25T12:50:43Z</time>
      </trkpt>
      <trkpt lat="45.67345" lon="5.73137">
        <ele>462</ele>
        <time>2017-05-25T12:50:59Z</time>
      </trkpt>
      <trkpt lat="45.6735" lon="5.73143">
        <ele>462</ele>
        <time>2017-05-25T12:50:59Z</time>
      </trkpt>
      <trkpt lat="45.67353" lon="5.73147">
        <ele>462</ele>
        <time>2017-05-25T12:50:59Z</time>
      </trkpt>
      <trkpt lat="45.67356" lon="5.73151">
        <ele>462</ele>
        <time>2017-05-25T12:50:59Z</time>
      </trkpt>
      <trkpt lat="45.6736" lon="5.73156">
        <ele>462</ele>
        <time>2017-05-25T12:51:15Z</time>
      </trkpt>
      <trkpt lat="45.67365" lon="5.73162">
        <ele>462</ele>
        <time>2017-05-25T12:51:15Z</time>
      </trkpt>
      <trkpt lat="45.6737" lon="5.73166">
        <ele>462</ele>
        <time>2017-05-25T12:51:15Z</time>
      </trkpt>
      <trkpt lat="45.67375" lon="5.73171">
        <ele>462</ele>
        <time>2017-05-25T12:51:15Z</time>
      </trkpt>
      <trkpt lat="45.67379" lon="5.73177">
        <ele>459</ele>
        <time>2017-05-25T12:51:31Z</time>
      </trkpt>
      <trkpt lat="45.67384" lon="5.7318">
        <ele>459</ele>
        <time>2017-05-25T12:51:31Z</time>
      </trkpt>
      <trkpt lat="45.67389" lon="5.73184">
        <ele>459</ele>
        <time>2017-05-25T12:51:31Z</time>
      </trkpt>
      <trkpt lat="45.67391" lon="5.73185">
        <ele>459</ele>
        <time>2017-05-25T12:51:31Z</time>
      </trkpt>
      <trkpt lat="45.67391" lon="5.73185">
        <ele>459</ele>
        <time>2017-05-25T12:51:47Z</time>
      </trkpt>
      <trkpt lat="45.67395" lon="5.73186">
        <ele>459</ele>
        <time>2017-05-25T12:51:47Z</time>
      </trkpt>
      <trkpt lat="45.67401" lon="5.7319">
        <ele>459</ele>
        <time>2017-05-25T12:51:47Z</time>
      </trkpt>
      <trkpt lat="45.67406" lon="5.73194">
        <ele>459</ele>
        <time>2017-05-25T12:51:47Z</time>
      </trkpt>
      <trkpt lat="45.67411" lon="5.73196">
        <ele>459</ele>
        <time>2017-05-25T12:52:03Z</time>
      </trkpt>
      <trkpt lat="45.67416" lon="5.73199">
        <ele>459</ele>
        <time>2017-05-25T12:52:03Z</time>
      </trkpt>
      <trkpt lat="45.6742" lon="5.73201">
        <ele>459</ele>
        <time>2017-05-25T12:52:03Z</time>
      </trkpt>
      <trkpt lat="45.67425" lon="5.73203">
        <ele>459</ele>
        <time>2017-05-25T12:52:03Z</time>
      </trkpt>
      <trkpt lat="45.67431" lon="5.73203">
        <ele>459</ele>
        <time>2017-05-25T12:52:19Z</time>
      </trkpt>
      <trkpt lat="45.67438" lon="5.73205">
        <ele>459</ele>
        <time>2017-05-25T12:52:19Z</time>
      </trkpt>
      <trkpt lat="45.67444" lon="5.73206">
        <ele>459</ele>
        <time>2017-05-25T12:52:19Z</time>
      </trkpt>
      <trkpt lat="45.67449" lon="5.73207">
        <ele>459</ele>
        <time>2017-05-25T12:52:19Z</time>
      </trkpt>
      <trkpt lat="45.67453" lon="5.73208">
        <ele>448</ele>
        <time>2017-05-25T12:52:35Z</time>
      </trkpt>
      <trkpt lat="45.67458" lon="5.7321">
        <ele>448</ele>
        <time>2017-05-25T12:52:35Z</time>
      </trkpt>
      <trkpt lat="45.67462" lon="5.73212">
        <ele>449</ele>
        <time>2017-05-25T12:52:35Z</time>
      </trkpt>
      <trkpt lat="45.67468" lon="5.73215">
        <ele>449</ele>
        <time>2017-05-25T12:52:35Z</time>
      </trkpt>
      <trkpt lat="45.67473" lon="5.73215">
        <ele>449</ele>
        <time>2017-05-25T12:52:51Z</time>
      </trkpt>
      <trkpt lat="45.67476" lon="5.73215">
        <ele>449</ele>
        <time>2017-05-25T12:52:51Z</time>
      </trkpt>
      <trkpt lat="45.67482" lon="5.73217">
        <ele>449</ele>
        <time>2017-05-25T12:52:51Z</time>
      </trkpt>
      <trkpt lat="45.67487" lon="5.73218">
        <ele>449</ele>
        <time>2017-05-25T12:52:51Z</time>
      </trkpt>
      <trkpt lat="45.67491" lon="5.73219">
        <ele>449</ele>
        <time>2017-05-25T12:53:07Z</time>
      </trkpt>
      <trkpt lat="45.67497" lon="5.7322">
        <ele>449</ele>
        <time>2017-05-25T12:53:07Z</time>
      </trkpt>
      <trkpt lat="45.67501" lon="5.73221">
        <ele>449</ele>
        <time>2017-05-25T12:53:07Z</time>
      </trkpt>
      <trkpt lat="45.67501" lon="5.7322">
        <ele>449</ele>
        <time>2017-05-25T12:53:07Z</time>
      </trkpt>
      <trkpt lat="45.67502" lon="5.73219">
        <ele>449</ele>
        <time>2017-05-25T12:54:15Z</time>
      </trkpt>
      <trkpt lat="45.67503" lon="5.73219">
        <ele>449</ele>
        <time>2017-05-25T12:54:15Z</time>
      </trkpt>
      <trkpt lat="45.67506" lon="5.73219">
        <ele>449</ele>
        <time>2017-05-25T12:54:15Z</time>
      </trkpt>
      <trkpt lat="45.67511" lon="5.73221">
        <ele>449</ele>
        <time>2017-05-25T12:54:15Z</time>
      </trkpt>
      <trkpt lat="45.67518" lon="5.73223">
        <ele>449</ele>
        <time>2017-05-25T12:54:15Z</time>
      </trkpt>
      <trkpt lat="45.67522" lon="5.73225">
        <ele>449</ele>
        <time>2017-05-25T12:54:31Z</time>
      </trkpt>
      <trkpt lat="45.67527" lon="5.73229">
        <ele>449</ele>
        <time>2017-05-25T12:54:31Z</time>
      </trkpt>
      <trkpt lat="45.67531" lon="5.73229">
        <ele>449</ele>
        <time>2017-05-25T12:54:31Z</time>
      </trkpt>
      <trkpt lat="45.67533" lon="5.73228">
        <ele>449</ele>
        <time>2017-05-25T12:54:31Z</time>
      </trkpt>
      <trkpt lat="45.67534" lon="5.73227">
        <ele>449</ele>
        <time>2017-05-25T12:54:51Z</time>
      </trkpt>
      <trkpt lat="45.67534" lon="5.73227">
        <ele>449</ele>
        <time>2017-05-25T12:54:51Z</time>
      </trkpt>
      <trkpt lat="45.67534" lon="5.73226">
        <ele>449</ele>
        <time>2017-05-25T12:54:51Z</time>
      </trkpt>
      <trkpt lat="45.67538" lon="5.73223">
        <ele>449</ele>
        <time>2017-05-25T12:54:51Z</time>
      </trkpt>
      <trkpt lat="45.67543" lon="5.73222">
        <ele>449</ele>
        <time>2017-05-25T12:54:51Z</time>
      </trkpt>
      <trkpt lat="45.67549" lon="5.7322">
        <ele>449</ele>
        <time>2017-05-25T12:55:07Z</time>
      </trkpt>
      <trkpt lat="45.67554" lon="5.73216">
        <ele>449</ele>
        <time>2017-05-25T12:55:07Z</time>
      </trkpt>
      <trkpt lat="45.67558" lon="5.7321">
        <ele>449</ele>
        <time>2017-05-25T12:55:07Z</time>
      </trkpt>
      <trkpt lat="45.67564" lon="5.7321">
        <ele>449</ele>
        <time>2017-05-25T12:55:07Z</time>
      </trkpt>
      <trkpt lat="45.67571" lon="5.73211">
        <ele>449</ele>
        <time>2017-05-25T12:55:23Z</time>
      </trkpt>
      <trkpt lat="45.67575" lon="5.73213">
        <ele>449</ele>
        <time>2017-05-25T12:55:23Z</time>
      </trkpt>
      <trkpt lat="45.67579" lon="5.73213">
        <ele>449</ele>
        <time>2017-05-25T12:55:23Z</time>
      </trkpt>
      <trkpt lat="45.67586" lon="5.73213">
        <ele>449</ele>
        <time>2017-05-25T12:55:23Z</time>
      </trkpt>
      <trkpt lat="45.6759" lon="5.7321">
        <ele>449</ele>
        <time>2017-05-25T12:55:39Z</time>
      </trkpt>
      <trkpt lat="45.67595" lon="5.7321">
        <ele>449</ele>
        <time>2017-05-25T12:55:39Z</time>
      </trkpt>
      <trkpt lat="45.67597" lon="5.73208">
        <ele>458</ele>
        <time>2017-05-25T12:55:39Z</time>
      </trkpt>
      <trkpt lat="45.67599" lon="5.73208">
        <ele>458</ele>
        <time>2017-05-25T12:55:39Z</time>
      </trkpt>
      <trkpt lat="45.67601" lon="5.73209">
        <ele>449</ele>
        <time>2017-05-25T12:55:55Z</time>
      </trkpt>
      <trkpt lat="45.67608" lon="5.73206">
        <ele>458</ele>
        <time>2017-05-25T12:55:55Z</time>
      </trkpt>
      <trkpt lat="45.67614" lon="5.73206">
        <ele>458</ele>
        <time>2017-05-25T12:55:55Z</time>
      </trkpt>
      <trkpt lat="45.6762" lon="5.73207">
        <ele>458</ele>
        <time>2017-05-25T12:55:55Z</time>
      </trkpt>
      <trkpt lat="45.67627" lon="5.73207">
        <ele>457</ele>
        <time>2017-05-25T12:56:11Z</time>
      </trkpt>
      <trkpt lat="45.67633" lon="5.73206">
        <ele>457</ele>
        <time>2017-05-25T12:56:11Z</time>
      </trkpt>
      <trkpt lat="45.67639" lon="5.73203">
        <ele>457</ele>
        <time>2017-05-25T12:56:11Z</time>
      </trkpt>
      <trkpt lat="45.67644" lon="5.73201">
        <ele>457</ele>
        <time>2017-05-25T12:56:11Z</time>
      </trkpt>
      <trkpt lat="45.67649" lon="5.73197">
        <ele>457</ele>
        <time>2017-05-25T12:56:27Z</time>
      </trkpt>
      <trkpt lat="45.67653" lon="5.73194">
        <ele>457</ele>
        <time>2017-05-25T12:56:27Z</time>
      </trkpt>
      <trkpt lat="45.67659" lon="5.73191">
        <ele>457</ele>
        <time>2017-05-25T12:56:27Z</time>
      </trkpt>
      <trkpt lat="45.67664" lon="5.73188">
        <ele>457</ele>
        <time>2017-05-25T12:56:27Z</time>
      </trkpt>
      <trkpt lat="45.67668" lon="5.73183">
        <ele>457</ele>
        <time>2017-05-25T12:56:43Z</time>
      </trkpt>
      <trkpt lat="45.67672" lon="5.73177">
        <ele>457</ele>
        <time>2017-05-25T12:56:43Z</time>
      </trkpt>
      <trkpt lat="45.67676" lon="5.73173">
        <ele>457</ele>
        <time>2017-05-25T12:56:43Z</time>
      </trkpt>
      <trkpt lat="45.67681" lon="5.7317">
        <ele>457</ele>
        <time>2017-05-25T12:56:43Z</time>
      </trkpt>
      <trkpt lat="45.67688" lon="5.73168">
        <ele>457</ele>
        <time>2017-05-25T12:56:59Z</time>
      </trkpt>
      <trkpt lat="45.67694" lon="5.73165">
        <ele>457</ele>
        <time>2017-05-25T12:56:59Z</time>
      </trkpt>
      <trkpt lat="45.677" lon="5.73162">
        <ele>457</ele>
        <time>2017-05-25T12:56:59Z</time>
      </trkpt>
      <trkpt lat="45.67705" lon="5.73157">
        <ele>457</ele>
        <time>2017-05-25T12:56:59Z</time>
      </trkpt>
      <trkpt lat="45.6771" lon="5.73152">
        <ele>457</ele>
        <time>2017-05-25T12:57:15Z</time>
      </trkpt>
      <trkpt lat="45.67713" lon="5.73146">
        <ele>457</ele>
        <time>2017-05-25T12:57:15Z</time>
      </trkpt>
      <trkpt lat="45.67717" lon="5.73141">
        <ele>457</ele>
        <time>2017-05-25T12:57:15Z</time>
      </trkpt>
      <trkpt lat="45.67721" lon="5.73136">
        <ele>457</ele>
        <time>2017-05-25T12:57:15Z</time>
      </trkpt>
      <trkpt lat="45.67726" lon="5.73131">
        <ele>457</ele>
        <time>2017-05-25T12:57:31Z</time>
      </trkpt>
      <trkpt lat="45.6773" lon="5.73125">
        <ele>463</ele>
        <time>2017-05-25T12:57:31Z</time>
      </trkpt>
      <trkpt lat="45.67734" lon="5.73119">
        <ele>463</ele>
        <time>2017-05-25T12:57:31Z</time>
      </trkpt>
      <trkpt lat="45.67738" lon="5.73113">
        <ele>463</ele>
        <time>2017-05-25T12:57:31Z</time>
      </trkpt>
      <trkpt lat="45.67745" lon="5.73106">
        <ele>463</ele>
        <time>2017-05-25T12:57:47Z</time>
      </trkpt>
      <trkpt lat="45.67752" lon="5.73096">
        <ele>463</ele>
        <time>2017-05-25T12:57:47Z</time>
      </trkpt>
      <trkpt lat="45.6776" lon="5.73086">
        <ele>463</ele>
        <time>2017-05-25T12:57:47Z</time>
      </trkpt>
      <trkpt lat="45.67766" lon="5.73086">
        <ele>463</ele>
        <time>2017-05-25T12:57:47Z</time>
      </trkpt>
      <trkpt lat="45.67771" lon="5.73091">
        <ele>463</ele>
        <time>2017-05-25T12:58:03Z</time>
      </trkpt>
      <trkpt lat="45.67777" lon="5.73092">
        <ele>463</ele>
        <time>2017-05-25T12:58:03Z</time>
      </trkpt>
      <trkpt lat="45.67783" lon="5.73093">
        <ele>463</ele>
        <time>2017-05-25T12:58:03Z</time>
      </trkpt>
      <trkpt lat="45.67788" lon="5.7309">
        <ele>463</ele>
        <time>2017-05-25T12:58:03Z</time>
      </trkpt>
      <trkpt lat="45.67793" lon="5.73089">
        <ele>465</ele>
        <time>2017-05-25T12:58:19Z</time>
      </trkpt>
      <trkpt lat="45.67798" lon="5.73088">
        <ele>465</ele>
        <time>2017-05-25T12:58:19Z</time>
      </trkpt>
      <trkpt lat="45.67805" lon="5.73086">
        <ele>465</ele>
        <time>2017-05-25T12:58:19Z</time>
      </trkpt>
      <trkpt lat="45.67812" lon="5.73084">
        <ele>465</ele>
        <time>2017-05-25T12:58:19Z</time>
      </trkpt>
      <trkpt lat="45.67819" lon="5.73082">
        <ele>465</ele>
        <time>2017-05-25T12:58:35Z</time>
      </trkpt>
      <trkpt lat="45.67826" lon="5.73081">
        <ele>465</ele>
        <time>2017-05-25T12:58:35Z</time>
      </trkpt>
      <trkpt lat="45.67833" lon="5.7308">
        <ele>465</ele>
        <time>2017-05-25T12:58:35Z</time>
      </trkpt>
      <trkpt lat="45.6784" lon="5.7308">
        <ele>465</ele>
        <time>2017-05-25T12:58:35Z</time>
      </trkpt>
      <trkpt lat="45.67846" lon="5.73079">
        <ele>465</ele>
        <time>2017-05-25T12:58:51Z</time>
      </trkpt>
      <trkpt lat="45.6785" lon="5.73077">
        <ele>465</ele>
        <time>2017-05-25T12:58:51Z</time>
      </trkpt>
      <trkpt lat="45.67855" lon="5.73075">
        <ele>465</ele>
        <time>2017-05-25T12:58:51Z</time>
      </trkpt>
      <trkpt lat="45.67857" lon="5.73072">
        <ele>465</ele>
        <time>2017-05-25T12:58:51Z</time>
      </trkpt>
      <trkpt lat="45.67859" lon="5.73067">
        <ele>465</ele>
        <time>2017-05-25T12:59:07Z</time>
      </trkpt>
      <trkpt lat="45.6786" lon="5.73061">
        <ele>465</ele>
        <time>2017-05-25T12:59:07Z</time>
      </trkpt>
      <trkpt lat="45.67863" lon="5.73055">
        <ele>465</ele>
        <time>2017-05-25T12:59:07Z</time>
      </trkpt>
      <trkpt lat="45.67868" lon="5.73052">
        <ele>465</ele>
        <time>2017-05-25T12:59:07Z</time>
      </trkpt>
      <trkpt lat="45.67872" lon="5.73051">
        <ele>465</ele>
        <time>2017-05-25T12:59:23Z</time>
      </trkpt>
      <trkpt lat="45.67877" lon="5.73051">
        <ele>466</ele>
        <time>2017-05-25T12:59:23Z</time>
      </trkpt>
      <trkpt lat="45.67882" lon="5.73049">
        <ele>466</ele>
        <time>2017-05-25T12:59:23Z</time>
      </trkpt>
      <trkpt lat="45.67888" lon="5.73047">
        <ele>466</ele>
        <time>2017-05-25T12:59:23Z</time>
      </trkpt>
      <trkpt lat="45.67895" lon="5.73046">
        <ele>466</ele>
        <time>2017-05-25T12:59:39Z</time>
      </trkpt>
      <trkpt lat="45.67901" lon="5.73045">
        <ele>466</ele>
        <time>2017-05-25T12:59:39Z</time>
      </trkpt>
      <trkpt lat="45.67908" lon="5.73042">
        <ele>466</ele>
        <time>2017-05-25T12:59:39Z</time>
      </trkpt>
      <trkpt lat="45.67915" lon="5.73037">
        <ele>473</ele>
        <time>2017-05-25T12:59:39Z</time>
      </trkpt>
      <trkpt lat="45.67922" lon="5.73032">
        <ele>473</ele>
        <time>2017-05-25T12:59:55Z</time>
      </trkpt>
      <trkpt lat="45.67928" lon="5.73029">
        <ele>473</ele>
        <time>2017-05-25T12:59:55Z</time>
      </trkpt>
      <trkpt lat="45.67934" lon="5.73027">
        <ele>473</ele>
        <time>2017-05-25T12:59:55Z</time>
      </trkpt>
      <trkpt lat="45.67939" lon="5.73028">
        <ele>473</ele>
        <time>2017-05-25T12:59:55Z</time>
      </trkpt>
      <trkpt lat="45.67944" lon="5.73025">
        <ele>473</ele>
        <time>2017-05-25T13:00:11Z</time>
      </trkpt>
      <trkpt lat="45.67951" lon="5.73019">
        <ele>473</ele>
        <time>2017-05-25T13:00:11Z</time>
      </trkpt>
      <trkpt lat="45.67955" lon="5.73016">
        <ele>473</ele>
        <time>2017-05-25T13:00:11Z</time>
      </trkpt>
      <trkpt lat="45.6796" lon="5.73012">
        <ele>476</ele>
        <time>2017-05-25T13:00:11Z</time>
      </trkpt>
      <trkpt lat="45.67964" lon="5.73007">
        <ele>476</ele>
        <time>2017-05-25T13:00:27Z</time>
      </trkpt>
      <trkpt lat="45.67966" lon="5.73002">
        <ele>476</ele>
        <time>2017-05-25T13:00:27Z</time>
      </trkpt>
      <trkpt lat="45.67969" lon="5.72999">
        <ele>476</ele>
        <time>2017-05-25T13:00:27Z</time>
      </trkpt>
      <trkpt lat="45.67974" lon="5.72995">
        <ele>476</ele>
        <time>2017-05-25T13:00:27Z</time>
      </trkpt>
      <trkpt lat="45.67978" lon="5.72991">
        <ele>476</ele>
        <time>2017-05-25T13:00:43Z</time>
      </trkpt>
      <trkpt lat="45.67982" lon="5.72986">
        <ele>476</ele>
        <time>2017-05-25T13:00:43Z</time>
      </trkpt>
      <trkpt lat="45.67984" lon="5.72979">
        <ele>476</ele>
        <time>2017-05-25T13:00:43Z</time>
      </trkpt>
      <trkpt lat="45.67984" lon="5.72973">
        <ele>476</ele>
        <time>2017-05-25T13:00:43Z</time>
      </trkpt>
      <trkpt lat="45.67984" lon="5.72965">
        <ele>476</ele>
        <time>2017-05-25T13:00:59Z</time>
      </trkpt>
      <trkpt lat="45.67986" lon="5.72956">
        <ele>486</ele>
        <time>2017-05-25T13:00:59Z</time>
      </trkpt>
      <trkpt lat="45.67988" lon="5.72948">
        <ele>486</ele>
        <time>2017-05-25T13:00:59Z</time>
      </trkpt>
      <trkpt lat="45.67993" lon="5.72943">
        <ele>486</ele>
        <time>2017-05-25T13:00:59Z</time>
      </trkpt>
      <trkpt lat="45.67999" lon="5.72938">
        <ele>486</ele>
        <time>2017-05-25T13:01:15Z</time>
      </trkpt>
      <trkpt lat="45.68002" lon="5.72931">
        <ele>486</ele>
        <time>2017-05-25T13:01:15Z</time>
      </trkpt>
      <trkpt lat="45.68006" lon="5.72924">
        <ele>486</ele>
        <time>2017-05-25T13:01:15Z</time>
      </trkpt>
      <trkpt lat="45.68011" lon="5.72919">
        <ele>486</ele>
        <time>2017-05-25T13:01:15Z</time>
      </trkpt>
      <trkpt lat="45.68016" lon="5.72916">
        <ele>486</ele>
        <time>2017-05-25T13:01:31Z</time>
      </trkpt>
      <trkpt lat="45.68021" lon="5.72914">
        <ele>486</ele>
        <time>2017-05-25T13:01:31Z</time>
      </trkpt>
      <trkpt lat="45.68026" lon="5.72911">
        <ele>486</ele>
        <time>2017-05-25T13:01:31Z</time>
      </trkpt>
      <trkpt lat="45.6803" lon="5.72909">
        <ele>486</ele>
        <time>2017-05-25T13:01:31Z</time>
      </trkpt>
      <trkpt lat="45.68034" lon="5.72905">
        <ele>486</ele>
        <time>2017-05-25T13:01:47Z</time>
      </trkpt>
      <trkpt lat="45.68037" lon="5.72902">
        <ele>486</ele>
        <time>2017-05-25T13:01:47Z</time>
      </trkpt>
      <trkpt lat="45.68041" lon="5.72901">
        <ele>486</ele>
        <time>2017-05-25T13:01:47Z</time>
      </trkpt>
      <trkpt lat="45.68044" lon="5.72897">
        <ele>489</ele>
        <time>2017-05-25T13:01:47Z</time>
      </trkpt>
      <trkpt lat="45.68049" lon="5.72892">
        <ele>489</ele>
        <time>2017-05-25T13:02:03Z</time>
      </trkpt>
      <trkpt lat="45.68056" lon="5.72884">
        <ele>489</ele>
        <time>2017-05-25T13:02:03Z</time>
      </trkpt>
      <trkpt lat="45.68061" lon="5.72878">
        <ele>489</ele>
        <time>2017-05-25T13:02:03Z</time>
      </trkpt>
      <trkpt lat="45.68066" lon="5.72875">
        <ele>499</ele>
        <time>2017-05-25T13:02:03Z</time>
      </trkpt>
      <trkpt lat="45.68072" lon="5.72871">
        <ele>499</ele>
        <time>2017-05-25T13:02:19Z</time>
      </trkpt>
      <trkpt lat="45.68077" lon="5.72868">
        <ele>499</ele>
        <time>2017-05-25T13:02:19Z</time>
      </trkpt>
      <trkpt lat="45.68081" lon="5.72863">
        <ele>499</ele>
        <time>2017-05-25T13:02:19Z</time>
      </trkpt>
      <trkpt lat="45.68087" lon="5.7286">
        <ele>499</ele>
        <time>2017-05-25T13:02:19Z</time>
      </trkpt>
      <trkpt lat="45.68095" lon="5.72856">
        <ele>499</ele>
        <time>2017-05-25T13:02:43Z</time>
      </trkpt>
      <trkpt lat="45.68096" lon="5.72855">
        <ele>499</ele>
        <time>2017-05-25T13:02:43Z</time>
      </trkpt>
      <trkpt lat="45.68098" lon="5.72852">
        <ele>499</ele>
        <time>2017-05-25T13:02:43Z</time>
      </trkpt>
      <trkpt lat="45.68101" lon="5.7285">
        <ele>499</ele>
        <time>2017-05-25T13:02:43Z</time>
      </trkpt>
      <trkpt lat="45.68107" lon="5.72846">
        <ele>499</ele>
        <time>2017-05-25T13:02:43Z</time>
      </trkpt>
      <trkpt lat="45.68114" lon="5.72841">
        <ele>499</ele>
        <time>2017-05-25T13:02:59Z</time>
      </trkpt>
      <trkpt lat="45.6812" lon="5.72834">
        <ele>499</ele>
        <time>2017-05-25T13:02:59Z</time>
      </trkpt>
      <trkpt lat="45.68126" lon="5.72828">
        <ele>499</ele>
        <time>2017-05-25T13:02:59Z</time>
      </trkpt>
      <trkpt lat="45.68132" lon="5.72823">
        <ele>499</ele>
        <time>2017-05-25T13:02:59Z</time>
      </trkpt>
      <trkpt lat="45.68137" lon="5.72817">
        <ele>499</ele>
        <time>2017-05-25T13:03:15Z</time>
      </trkpt>
      <trkpt lat="45.68143" lon="5.72812">
        <ele>499</ele>
        <time>2017-05-25T13:03:15Z</time>
      </trkpt>
      <trkpt lat="45.68146" lon="5.72807">
        <ele>499</ele>
        <time>2017-05-25T13:03:15Z</time>
      </trkpt>
      <trkpt lat="45.6815" lon="5.72802">
        <ele>499</ele>
        <time>2017-05-25T13:03:15Z</time>
      </trkpt>
      <trkpt lat="45.68156" lon="5.72794">
        <ele>499</ele>
        <time>2017-05-25T13:03:31Z</time>
      </trkpt>
      <trkpt lat="45.68157" lon="5.72788">
        <ele>505</ele>
        <time>2017-05-25T13:03:31Z</time>
      </trkpt>
      <trkpt lat="45.68162" lon="5.72782">
        <ele>505</ele>
        <time>2017-05-25T13:03:31Z</time>
      </trkpt>
      <trkpt lat="45.68165" lon="5.72775">
        <ele>505</ele>
        <time>2017-05-25T13:03:31Z</time>
      </trkpt>
      <trkpt lat="45.68167" lon="5.72768">
        <ele>505</ele>
        <time>2017-05-25T13:03:47Z</time>
      </trkpt>
      <trkpt lat="45.6817" lon="5.72763">
        <ele>505</ele>
        <time>2017-05-25T13:03:47Z</time>
      </trkpt>
      <trkpt lat="45.68171" lon="5.72758">
        <ele>505</ele>
        <time>2017-05-25T13:03:47Z</time>
      </trkpt>
      <trkpt lat="45.68171" lon="5.72752">
        <ele>505</ele>
        <time>2017-05-25T13:03:47Z</time>
      </trkpt>
      <trkpt lat="45.68174" lon="5.72741">
        <ele>505</ele>
        <time>2017-05-25T13:04:03Z</time>
      </trkpt>
      <trkpt lat="45.68177" lon="5.72734">
        <ele>505</ele>
        <time>2017-05-25T13:04:03Z</time>
      </trkpt>
      <trkpt lat="45.68179" lon="5.72726">
        <ele>505</ele>
        <time>2017-05-25T13:04:03Z</time>
      </trkpt>
      <trkpt lat="45.68179" lon="5.72721">
        <ele>505</ele>
        <time>2017-05-25T13:04:03Z</time>
      </trkpt>
      <trkpt lat="45.68182" lon="5.72716">
        <ele>505</ele>
        <time>2017-05-25T13:04:19Z</time>
      </trkpt>
      <trkpt lat="45.68187" lon="5.72712">
        <ele>505</ele>
        <time>2017-05-25T13:04:19Z</time>
      </trkpt>
      <trkpt lat="45.68199" lon="5.72705">
        <ele>508</ele>
        <time>2017-05-25T13:04:19Z</time>
      </trkpt>
      <trkpt lat="45.68208" lon="5.72702">
        <ele>508</ele>
        <time>2017-05-25T13:04:19Z</time>
      </trkpt>
      <trkpt lat="45.68213" lon="5.727">
        <ele>504</ele>
        <time>2017-05-25T13:04:35Z</time>
      </trkpt>
      <trkpt lat="45.68217" lon="5.72698">
        <ele>504</ele>
        <time>2017-05-25T13:04:35Z</time>
      </trkpt>
      <trkpt lat="45.68223" lon="5.72698">
        <ele>504</ele>
        <time>2017-05-25T13:04:35Z</time>
      </trkpt>
      <trkpt lat="45.68229" lon="5.727">
        <ele>504</ele>
        <time>2017-05-25T13:04:35Z</time>
      </trkpt>
      <trkpt lat="45.68234" lon="5.727">
        <ele>504</ele>
        <time>2017-05-25T13:04:51Z</time>
      </trkpt>
      <trkpt lat="45.68239" lon="5.72698">
        <ele>504</ele>
        <time>2017-05-25T13:04:51Z</time>
      </trkpt>
      <trkpt lat="45.68243" lon="5.72698">
        <ele>504</ele>
        <time>2017-05-25T13:04:51Z</time>
      </trkpt>
      <trkpt lat="45.68247" lon="5.727">
        <ele>504</ele>
        <time>2017-05-25T13:04:51Z</time>
      </trkpt>
      <trkpt lat="45.68252" lon="5.72702">
        <ele>504</ele>
        <time>2017-05-25T13:05:07Z</time>
      </trkpt>
      <trkpt lat="45.68258" lon="5.72705">
        <ele>504</ele>
        <time>2017-05-25T13:05:07Z</time>
      </trkpt>
      <trkpt lat="45.68264" lon="5.72707">
        <ele>504</ele>
        <time>2017-05-25T13:05:07Z</time>
      </trkpt>
      <trkpt lat="45.68269" lon="5.72708">
        <ele>504</ele>
        <time>2017-05-25T13:05:07Z</time>
      </trkpt>
      <trkpt lat="45.68275" lon="5.72711">
        <ele>501</ele>
        <time>2017-05-25T13:05:23Z</time>
      </trkpt>
      <trkpt lat="45.6828" lon="5.72714">
        <ele>501</ele>
        <time>2017-05-25T13:05:23Z</time>
      </trkpt>
      <trkpt lat="45.68284" lon="5.72721">
        <ele>501</ele>
        <time>2017-05-25T13:05:23Z</time>
      </trkpt>
      <trkpt lat="45.68288" lon="5.72727">
        <ele>501</ele>
        <time>2017-05-25T13:05:23Z</time>
      </trkpt>
      <trkpt lat="45.68292" lon="5.72732">
        <ele>504</ele>
        <time>2017-05-25T13:05:39Z</time>
      </trkpt>
      <trkpt lat="45.68294" lon="5.72738">
        <ele>504</ele>
        <time>2017-05-25T13:05:39Z</time>
      </trkpt>
      <trkpt lat="45.68297" lon="5.72743">
        <ele>504</ele>
        <time>2017-05-25T13:05:39Z</time>
      </trkpt>
      <trkpt lat="45.68301" lon="5.72748">
        <ele>504</ele>
        <time>2017-05-25T13:05:39Z</time>
      </trkpt>
      <trkpt lat="45.68307" lon="5.72748">
        <ele>504</ele>
        <time>2017-05-25T13:05:55Z</time>
      </trkpt>
      <trkpt lat="45.68315" lon="5.72748">
        <ele>504</ele>
        <time>2017-05-25T13:05:55Z</time>
      </trkpt>
      <trkpt lat="45.6832" lon="5.72749">
        <ele>504</ele>
        <time>2017-05-25T13:05:55Z</time>
      </trkpt>
      <trkpt lat="45.68325" lon="5.72749">
        <ele>504</ele>
        <time>2017-05-25T13:05:55Z</time>
      </trkpt>
      <trkpt lat="45.68333" lon="5.72753">
        <ele>504</ele>
        <time>2017-05-25T13:06:11Z</time>
      </trkpt>
      <trkpt lat="45.6834" lon="5.72757">
        <ele>504</ele>
        <time>2017-05-25T13:06:11Z</time>
      </trkpt>
      <trkpt lat="45.68347" lon="5.72759">
        <ele>504</ele>
        <time>2017-05-25T13:06:11Z</time>
      </trkpt>
      <trkpt lat="45.68352" lon="5.7276">
        <ele>504</ele>
        <time>2017-05-25T13:06:11Z</time>
      </trkpt>
      <trkpt lat="45.68357" lon="5.72764">
        <ele>504</ele>
        <time>2017-05-25T13:06:27Z</time>
      </trkpt>
      <trkpt lat="45.68363" lon="5.7277">
        <ele>504</ele>
        <time>2017-05-25T13:06:27Z</time>
      </trkpt>
      <trkpt lat="45.68369" lon="5.72771">
        <ele>504</ele>
        <time>2017-05-25T13:06:27Z</time>
      </trkpt>
      <trkpt lat="45.68373" lon="5.72773">
        <ele>504</ele>
        <time>2017-05-25T13:06:27Z</time>
      </trkpt>
      <trkpt lat="45.68377" lon="5.72772">
        <ele>510</ele>
        <time>2017-05-25T13:06:43Z</time>
      </trkpt>
      <trkpt lat="45.68382" lon="5.72762">
        <ele>510</ele>
        <time>2017-05-25T13:06:43Z</time>
      </trkpt>
      <trkpt lat="45.68388" lon="5.72754">
        <ele>510</ele>
        <time>2017-05-25T13:06:43Z</time>
      </trkpt>
      <trkpt lat="45.68392" lon="5.72748">
        <ele>510</ele>
        <time>2017-05-25T13:06:43Z</time>
      </trkpt>
      <trkpt lat="45.684" lon="5.72729">
        <ele>510</ele>
        <time>2017-05-25T13:07:35Z</time>
      </trkpt>
      <trkpt lat="45.68399" lon="5.72736">
        <ele>510</ele>
        <time>2017-05-25T13:07:35Z</time>
      </trkpt>
      <trkpt lat="45.68397" lon="5.72743">
        <ele>510</ele>
        <time>2017-05-25T13:07:35Z</time>
      </trkpt>
      <trkpt lat="45.68394" lon="5.7275">
        <ele>510</ele>
        <time>2017-05-25T13:07:35Z</time>
      </trkpt>
      <trkpt lat="45.6839" lon="5.72753">
        <ele>510</ele>
        <time>2017-05-25T13:07:35Z</time>
      </trkpt>
      <trkpt lat="45.68386" lon="5.72759">
        <ele>510</ele>
        <time>2017-05-25T13:07:51Z</time>
      </trkpt>
      <trkpt lat="45.68381" lon="5.72766">
        <ele>510</ele>
        <time>2017-05-25T13:07:51Z</time>
      </trkpt>
      <trkpt lat="45.68377" lon="5.72768">
        <ele>510</ele>
        <time>2017-05-25T13:07:51Z</time>
      </trkpt>
      <trkpt lat="45.68378" lon="5.7277">
        <ele>510</ele>
        <time>2017-05-25T13:07:51Z</time>
      </trkpt>
      <trkpt lat="45.68385" lon="5.72773">
        <ele>510</ele>
        <time>2017-05-25T13:08:07Z</time>
      </trkpt>
      <trkpt lat="45.68391" lon="5.72776">
        <ele>510</ele>
        <time>2017-05-25T13:08:07Z</time>
      </trkpt>
      <trkpt lat="45.68396" lon="5.7278">
        <ele>510</ele>
        <time>2017-05-25T13:08:07Z</time>
      </trkpt>
      <trkpt lat="45.68401" lon="5.72785">
        <ele>510</ele>
        <time>2017-05-25T13:08:07Z</time>
      </trkpt>
      <trkpt lat="45.68405" lon="5.72786">
        <ele>510</ele>
        <time>2017-05-25T13:08:23Z</time>
      </trkpt>
      <trkpt lat="45.68408" lon="5.72785">
        <ele>510</ele>
        <time>2017-05-25T13:08:23Z</time>
      </trkpt>
      <trkpt lat="45.68411" lon="5.72782">
        <ele>510</ele>
        <time>2017-05-25T13:08:23Z</time>
      </trkpt>
      <trkpt lat="45.68415" lon="5.72775">
        <ele>510</ele>
        <time>2017-05-25T13:08:23Z</time>
      </trkpt>
      <trkpt lat="45.68422" lon="5.72769">
        <ele>510</ele>
        <time>2017-05-25T13:08:39Z</time>
      </trkpt>
      <trkpt lat="45.68427" lon="5.72765">
        <ele>510</ele>
        <time>2017-05-25T13:08:39Z</time>
      </trkpt>
      <trkpt lat="45.68433" lon="5.72761">
        <ele>510</ele>
        <time>2017-05-25T13:08:39Z</time>
      </trkpt>
      <trkpt lat="45.68436" lon="5.72759">
        <ele>510</ele>
        <time>2017-05-25T13:08:39Z</time>
      </trkpt>
      <trkpt lat="45.68441" lon="5.72755">
        <ele>510</ele>
        <time>2017-05-25T13:08:55Z</time>
      </trkpt>
      <trkpt lat="45.68446" lon="5.72751">
        <ele>510</ele>
        <time>2017-05-25T13:08:55Z</time>
      </trkpt>
      <trkpt lat="45.68451" lon="5.72749">
        <ele>510</ele>
        <time>2017-05-25T13:08:55Z</time>
      </trkpt>
      <trkpt lat="45.68456" lon="5.72747">
        <ele>510</ele>
        <time>2017-05-25T13:08:55Z</time>
      </trkpt>
      <trkpt lat="45.68461" lon="5.72745">
        <ele>515</ele>
        <time>2017-05-25T13:09:11Z</time>
      </trkpt>
      <trkpt lat="45.68465" lon="5.72744">
        <ele>515</ele>
        <time>2017-05-25T13:09:11Z</time>
      </trkpt>
      <trkpt lat="45.68471" lon="5.72743">
        <ele>515</ele>
        <time>2017-05-25T13:09:11Z</time>
      </trkpt>
      <trkpt lat="45.6848" lon="5.72741">
        <ele>515</ele>
        <time>2017-05-25T13:09:11Z</time>
      </trkpt>
      <trkpt lat="45.68489" lon="5.72739">
        <ele>515</ele>
        <time>2017-05-25T13:09:27Z</time>
      </trkpt>
      <trkpt lat="45.68494" lon="5.72738">
        <ele>515</ele>
        <time>2017-05-25T13:09:27Z</time>
      </trkpt>
      <trkpt lat="45.68496" lon="5.72739">
        <ele>515</ele>
        <time>2017-05-25T13:09:27Z</time>
      </trkpt>
      <trkpt lat="45.68502" lon="5.72737">
        <ele>515</ele>
        <time>2017-05-25T13:09:27Z</time>
      </trkpt>
      <trkpt lat="45.68507" lon="5.72735">
        <ele>515</ele>
        <time>2017-05-25T13:09:43Z</time>
      </trkpt>
      <trkpt lat="45.68512" lon="5.72732">
        <ele>515</ele>
        <time>2017-05-25T13:09:43Z</time>
      </trkpt>
      <trkpt lat="45.68518" lon="5.72728">
        <ele>515</ele>
        <time>2017-05-25T13:09:43Z</time>
      </trkpt>
      <trkpt lat="45.68522" lon="5.7272">
        <ele>515</ele>
        <time>2017-05-25T13:09:43Z</time>
      </trkpt>
      <trkpt lat="45.68524" lon="5.72714">
        <ele>515</ele>
        <time>2017-05-25T13:10:03Z</time>
      </trkpt>
      <trkpt lat="45.68526" lon="5.72709">
        <ele>515</ele>
        <time>2017-05-25T13:10:03Z</time>
      </trkpt>
      <trkpt lat="45.68528" lon="5.72706">
        <ele>520</ele>
        <time>2017-05-25T13:10:03Z</time>
      </trkpt>
      <trkpt lat="45.68529" lon="5.72705">
        <ele>520</ele>
        <time>2017-05-25T13:10:03Z</time>
      </trkpt>
      <trkpt lat="45.68532" lon="5.72701">
        <ele>520</ele>
        <time>2017-05-25T13:10:03Z</time>
      </trkpt>
      <trkpt lat="45.68536" lon="5.72698">
        <ele>520</ele>
        <time>2017-05-25T13:10:19Z</time>
      </trkpt>
      <trkpt lat="45.68538" lon="5.72692">
        <ele>520</ele>
        <time>2017-05-25T13:10:19Z</time>
      </trkpt>
      <trkpt lat="45.68541" lon="5.72686">
        <ele>520</ele>
        <time>2017-05-25T13:10:19Z</time>
      </trkpt>
      <trkpt lat="45.68543" lon="5.72681">
        <ele>530</ele>
        <time>2017-05-25T13:10:19Z</time>
      </trkpt>
      <trkpt lat="45.68546" lon="5.72675">
        <ele>530</ele>
        <time>2017-05-25T13:10:35Z</time>
      </trkpt>
      <trkpt lat="45.6855" lon="5.7267">
        <ele>530</ele>
        <time>2017-05-25T13:10:35Z</time>
      </trkpt>
      <trkpt lat="45.68553" lon="5.72659">
        <ele>530</ele>
        <time>2017-05-25T13:10:35Z</time>
      </trkpt>
      <trkpt lat="45.68557" lon="5.72646">
        <ele>530</ele>
        <time>2017-05-25T13:10:35Z</time>
      </trkpt>
      <trkpt lat="45.6856" lon="5.7264">
        <ele>530</ele>
        <time>2017-05-25T13:10:51Z</time>
      </trkpt>
      <trkpt lat="45.68563" lon="5.72634">
        <ele>530</ele>
        <time>2017-05-25T13:10:51Z</time>
      </trkpt>
      <trkpt lat="45.68564" lon="5.72627">
        <ele>530</ele>
        <time>2017-05-25T13:10:51Z</time>
      </trkpt>
      <trkpt lat="45.68564" lon="5.72621">
        <ele>538</ele>
        <time>2017-05-25T13:10:51Z</time>
      </trkpt>
      <trkpt lat="45.68562" lon="5.72615">
        <ele>538</ele>
        <time>2017-05-25T13:11:07Z</time>
      </trkpt>
      <trkpt lat="45.68566" lon="5.72608">
        <ele>538</ele>
        <time>2017-05-25T13:11:07Z</time>
      </trkpt>
      <trkpt lat="45.6857" lon="5.726">
        <ele>538</ele>
        <time>2017-05-25T13:11:07Z</time>
      </trkpt>
      <trkpt lat="45.68573" lon="5.72592">
        <ele>538</ele>
        <time>2017-05-25T13:11:07Z</time>
      </trkpt>
      <trkpt lat="45.68579" lon="5.72588">
        <ele>538</ele>
        <time>2017-05-25T13:11:23Z</time>
      </trkpt>
      <trkpt lat="45.68586" lon="5.72589">
        <ele>538</ele>
        <time>2017-05-25T13:11:23Z</time>
      </trkpt>
      <trkpt lat="45.68592" lon="5.72586">
        <ele>538</ele>
        <time>2017-05-25T13:11:23Z</time>
      </trkpt>
      <trkpt lat="45.68597" lon="5.72582">
        <ele>538</ele>
        <time>2017-05-25T13:11:23Z</time>
      </trkpt>
      <trkpt lat="45.686" lon="5.72576">
        <ele>538</ele>
        <time>2017-05-25T13:11:39Z</time>
      </trkpt>
      <trkpt lat="45.68599" lon="5.72567">
        <ele>538</ele>
        <time>2017-05-25T13:11:39Z</time>
      </trkpt>
      <trkpt lat="45.68599" lon="5.72558">
        <ele>538</ele>
        <time>2017-05-25T13:11:39Z</time>
      </trkpt>
      <trkpt lat="45.686" lon="5.7255">
        <ele>538</ele>
        <time>2017-05-25T13:11:39Z</time>
      </trkpt>
      <trkpt lat="45.68601" lon="5.72542">
        <ele>538</ele>
        <time>2017-05-25T13:11:55Z</time>
      </trkpt>
      <trkpt lat="45.68603" lon="5.72535">
        <ele>545</ele>
        <time>2017-05-25T13:11:55Z</time>
      </trkpt>
      <trkpt lat="45.68607" lon="5.72531">
        <ele>545</ele>
        <time>2017-05-25T13:11:55Z</time>
      </trkpt>
      <trkpt lat="45.68609" lon="5.72526">
        <ele>545</ele>
        <time>2017-05-25T13:11:55Z</time>
      </trkpt>
      <trkpt lat="45.68612" lon="5.7252">
        <ele>545</ele>
        <time>2017-05-25T13:12:11Z</time>
      </trkpt>
      <trkpt lat="45.68617" lon="5.72513">
        <ele>545</ele>
        <time>2017-05-25T13:12:11Z</time>
      </trkpt>
      <trkpt lat="45.68621" lon="5.72507">
        <ele>545</ele>
        <time>2017-05-25T13:12:11Z</time>
      </trkpt>
      <trkpt lat="45.68625" lon="5.72502">
        <ele>556</ele>
        <time>2017-05-25T13:12:11Z</time>
      </trkpt>
      <trkpt lat="45.68629" lon="5.72497">
        <ele>556</ele>
        <time>2017-05-25T13:12:27Z</time>
      </trkpt>
      <trkpt lat="45.68633" lon="5.72491">
        <ele>556</ele>
        <time>2017-05-25T13:12:27Z</time>
      </trkpt>
      <trkpt lat="45.68637" lon="5.72487">
        <ele>556</ele>
        <time>2017-05-25T13:12:27Z</time>
      </trkpt>
      <trkpt lat="45.68641" lon="5.72484">
        <ele>556</ele>
        <time>2017-05-25T13:12:27Z</time>
      </trkpt>
      <trkpt lat="45.68644" lon="5.72479">
        <ele>556</ele>
        <time>2017-05-25T13:12:43Z</time>
      </trkpt>
      <trkpt lat="45.68645" lon="5.72473">
        <ele>556</ele>
        <time>2017-05-25T13:12:43Z</time>
      </trkpt>
      <trkpt lat="45.68646" lon="5.72466">
        <ele>556</ele>
        <time>2017-05-25T13:12:43Z</time>
      </trkpt>
      <trkpt lat="45.68648" lon="5.72459">
        <ele>556</ele>
        <time>2017-05-25T13:12:43Z</time>
      </trkpt>
      <trkpt lat="45.68649" lon="5.72453">
        <ele>563</ele>
        <time>2017-05-25T13:12:59Z</time>
      </trkpt>
      <trkpt lat="45.68647" lon="5.72448">
        <ele>563</ele>
        <time>2017-05-25T13:12:59Z</time>
      </trkpt>
      <trkpt lat="45.68646" lon="5.7244">
        <ele>563</ele>
        <time>2017-05-25T13:12:59Z</time>
      </trkpt>
      <trkpt lat="45.68647" lon="5.72431">
        <ele>563</ele>
        <time>2017-05-25T13:12:59Z</time>
      </trkpt>
      <trkpt lat="45.68651" lon="5.72425">
        <ele>563</ele>
        <time>2017-05-25T13:13:15Z</time>
      </trkpt>
      <trkpt lat="45.68654" lon="5.7242">
        <ele>563</ele>
        <time>2017-05-25T13:13:15Z</time>
      </trkpt>
      <trkpt lat="45.68659" lon="5.72417">
        <ele>563</ele>
        <time>2017-05-25T13:13:15Z</time>
      </trkpt>
      <trkpt lat="45.68663" lon="5.72411">
        <ele>563</ele>
        <time>2017-05-25T13:13:15Z</time>
      </trkpt>
      <trkpt lat="45.68666" lon="5.72404">
        <ele>563</ele>
        <time>2017-05-25T13:13:31Z</time>
      </trkpt>
      <trkpt lat="45.68669" lon="5.72399">
        <ele>563</ele>
        <time>2017-05-25T13:13:31Z</time>
      </trkpt>
      <trkpt lat="45.68674" lon="5.72397">
        <ele>563</ele>
        <time>2017-05-25T13:13:31Z</time>
      </trkpt>
      <trkpt lat="45.68679" lon="5.72396">
        <ele>563</ele>
        <time>2017-05-25T13:13:31Z</time>
      </trkpt>
      <trkpt lat="45.68684" lon="5.72392">
        <ele>563</ele>
        <time>2017-05-25T13:13:47Z</time>
      </trkpt>
      <trkpt lat="45.68687" lon="5.72388">
        <ele>563</ele>
        <time>2017-05-25T13:13:47Z</time>
      </trkpt>
      <trkpt lat="45.68691" lon="5.72385">
        <ele>563</ele>
        <time>2017-05-25T13:13:47Z</time>
      </trkpt>
      <trkpt lat="45.68698" lon="5.72383">
        <ele>563</ele>
        <time>2017-05-25T13:13:47Z</time>
      </trkpt>
      <trkpt lat="45.68708" lon="5.72378">
        <ele>563</ele>
        <time>2017-05-25T13:14:03Z</time>
      </trkpt>
      <trkpt lat="45.68714" lon="5.72373">
        <ele>580</ele>
        <time>2017-05-25T13:14:03Z</time>
      </trkpt>
      <trkpt lat="45.68719" lon="5.72367">
        <ele>580</ele>
        <time>2017-05-25T13:14:03Z</time>
      </trkpt>
      <trkpt lat="45.68725" lon="5.72362">
        <ele>580</ele>
        <time>2017-05-25T13:14:03Z</time>
      </trkpt>
      <trkpt lat="45.68725" lon="5.7236">
        <ele>580</ele>
        <time>2017-05-25T13:14:19Z</time>
      </trkpt>
      <trkpt lat="45.68728" lon="5.72358">
        <ele>580</ele>
        <time>2017-05-25T13:14:19Z</time>
      </trkpt>
      <trkpt lat="45.68731" lon="5.72353">
        <ele>580</ele>
        <time>2017-05-25T13:14:19Z</time>
      </trkpt>
      <trkpt lat="45.68733" lon="5.72345">
        <ele>580</ele>
        <time>2017-05-25T13:14:19Z</time>
      </trkpt>
      <trkpt lat="45.68732" lon="5.72337">
        <ele>580</ele>
        <time>2017-05-25T13:14:35Z</time>
      </trkpt>
      <trkpt lat="45.68731" lon="5.7233">
        <ele>580</ele>
        <time>2017-05-25T13:14:35Z</time>
      </trkpt>
      <trkpt lat="45.68728" lon="5.72324">
        <ele>580</ele>
        <time>2017-05-25T13:14:35Z</time>
      </trkpt>
      <trkpt lat="45.68726" lon="5.72319">
        <ele>580</ele>
        <time>2017-05-25T13:14:35Z</time>
      </trkpt>
      <trkpt lat="45.68724" lon="5.72312">
        <ele>580</ele>
        <time>2017-05-25T13:14:51Z</time>
      </trkpt>
      <trkpt lat="45.68725" lon="5.72304">
        <ele>580</ele>
        <time>2017-05-25T13:14:51Z</time>
      </trkpt>
      <trkpt lat="45.68724" lon="5.72296">
        <ele>580</ele>
        <time>2017-05-25T13:14:51Z</time>
      </trkpt>
      <trkpt lat="45.68725" lon="5.72289">
        <ele>588</ele>
        <time>2017-05-25T13:14:51Z</time>
      </trkpt>
      <trkpt lat="45.68727" lon="5.72285">
        <ele>588</ele>
        <time>2017-05-25T13:15:07Z</time>
      </trkpt>
      <trkpt lat="45.68731" lon="5.72282">
        <ele>588</ele>
        <time>2017-05-25T13:15:07Z</time>
      </trkpt>
      <trkpt lat="45.68735" lon="5.72283">
        <ele>588</ele>
        <time>2017-05-25T13:15:07Z</time>
      </trkpt>
      <trkpt lat="45.6874" lon="5.72288">
        <ele>588</ele>
        <time>2017-05-25T13:15:07Z</time>
      </trkpt>
      <trkpt lat="45.68744" lon="5.7229">
        <ele>588</ele>
        <time>2017-05-25T13:15:23Z</time>
      </trkpt>
      <trkpt lat="45.68749" lon="5.72291">
        <ele>588</ele>
        <time>2017-05-25T13:15:23Z</time>
      </trkpt>
      <trkpt lat="45.68754" lon="5.72291">
        <ele>588</ele>
        <time>2017-05-25T13:15:23Z</time>
      </trkpt>
      <trkpt lat="45.68759" lon="5.72288">
        <ele>588</ele>
        <time>2017-05-25T13:15:23Z</time>
      </trkpt>
      <trkpt lat="45.68759" lon="5.72282">
        <ele>588</ele>
        <time>2017-05-25T13:15:39Z</time>
      </trkpt>
      <trkpt lat="45.68761" lon="5.72276">
        <ele>588</ele>
        <time>2017-05-25T13:15:39Z</time>
      </trkpt>
      <trkpt lat="45.68765" lon="5.72271">
        <ele>588</ele>
        <time>2017-05-25T13:15:39Z</time>
      </trkpt>
      <trkpt lat="45.68771" lon="5.72264">
        <ele>588</ele>
        <time>2017-05-25T13:15:39Z</time>
      </trkpt>
      <trkpt lat="45.68776" lon="5.7226">
        <ele>588</ele>
        <time>2017-05-25T13:15:55Z</time>
      </trkpt>
      <trkpt lat="45.68779" lon="5.7226">
        <ele>588</ele>
        <time>2017-05-25T13:15:55Z</time>
      </trkpt>
      <trkpt lat="45.68785" lon="5.7226">
        <ele>588</ele>
        <time>2017-05-25T13:15:55Z</time>
      </trkpt>
      <trkpt lat="45.68789" lon="5.72259">
        <ele>588</ele>
        <time>2017-05-25T13:15:55Z</time>
      </trkpt>
      <trkpt lat="45.68793" lon="5.72256">
        <ele>591</ele>
        <time>2017-05-25T13:16:11Z</time>
      </trkpt>
      <trkpt lat="45.68796" lon="5.72253">
        <ele>591</ele>
        <time>2017-05-25T13:16:11Z</time>
      </trkpt>
      <trkpt lat="45.68799" lon="5.72247">
        <ele>591</ele>
        <time>2017-05-25T13:16:11Z</time>
      </trkpt>
      <trkpt lat="45.68802" lon="5.72239">
        <ele>591</ele>
        <time>2017-05-25T13:16:11Z</time>
      </trkpt>
      <trkpt lat="45.68803" lon="5.72232">
        <ele>591</ele>
        <time>2017-05-25T13:16:27Z</time>
      </trkpt>
      <trkpt lat="45.68804" lon="5.72226">
        <ele>591</ele>
        <time>2017-05-25T13:16:27Z</time>
      </trkpt>
      <trkpt lat="45.68805" lon="5.7222">
        <ele>591</ele>
        <time>2017-05-25T13:16:27Z</time>
      </trkpt>
      <trkpt lat="45.68807" lon="5.72212">
        <ele>591</ele>
        <time>2017-05-25T13:16:27Z</time>
      </trkpt>
      <trkpt lat="45.68809" lon="5.72205">
        <ele>597</ele>
        <time>2017-05-25T13:16:43Z</time>
      </trkpt>
      <trkpt lat="45.6881" lon="5.72197">
        <ele>597</ele>
        <time>2017-05-25T13:16:43Z</time>
      </trkpt>
      <trkpt lat="45.68811" lon="5.72194">
        <ele>597</ele>
        <time>2017-05-25T13:16:43Z</time>
      </trkpt>
      <trkpt lat="45.68811" lon="5.72193">
        <ele>597</ele>
        <time>2017-05-25T13:16:43Z</time>
      </trkpt>
      <trkpt lat="45.68812" lon="5.72191">
        <ele>597</ele>
        <time>2017-05-25T13:16:59Z</time>
      </trkpt>
      <trkpt lat="45.68813" lon="5.7219">
        <ele>597</ele>
        <time>2017-05-25T13:16:59Z</time>
      </trkpt>
      <trkpt lat="45.68821" lon="5.72193">
        <ele>597</ele>
        <time>2017-05-25T13:16:59Z</time>
      </trkpt>
      <trkpt lat="45.68829" lon="5.722">
        <ele>597</ele>
        <time>2017-05-25T13:16:59Z</time>
      </trkpt>
      <trkpt lat="45.68831" lon="5.72206">
        <ele>597</ele>
        <time>2017-05-25T13:17:15Z</time>
      </trkpt>
      <trkpt lat="45.68833" lon="5.72214">
        <ele>591</ele>
        <time>2017-05-25T13:17:15Z</time>
      </trkpt>
      <trkpt lat="45.68834" lon="5.72222">
        <ele>591</ele>
        <time>2017-05-25T13:17:15Z</time>
      </trkpt>
      <trkpt lat="45.68834" lon="5.72225">
        <ele>591</ele>
        <time>2017-05-25T13:17:15Z</time>
      </trkpt>
      <trkpt lat="45.68839" lon="5.72241">
        <ele>591</ele>
        <time>2017-05-25T13:17:51Z</time>
      </trkpt>
      <trkpt lat="45.6884" lon="5.72242">
        <ele>591</ele>
        <time>2017-05-25T13:17:51Z</time>
      </trkpt>
      <trkpt lat="45.6884" lon="5.72242">
        <ele>591</ele>
        <time>2017-05-25T13:17:51Z</time>
      </trkpt>
      <trkpt lat="45.6884" lon="5.72242">
        <ele>591</ele>
        <time>2017-05-25T13:17:51Z</time>
      </trkpt>
      <trkpt lat="45.68842" lon="5.72246">
        <ele>591</ele>
        <time>2017-05-25T13:17:51Z</time>
      </trkpt>
      <trkpt lat="45.68852" lon="5.72268">
        <ele>591</ele>
        <time>2017-05-25T13:18:07Z</time>
      </trkpt>
      <trkpt lat="45.68871" lon="5.72275">
        <ele>591</ele>
        <time>2017-05-25T13:18:07Z</time>
      </trkpt>
      <trkpt lat="45.68896" lon="5.72277">
        <ele>592</ele>
        <time>2017-05-25T13:18:07Z</time>
      </trkpt>
      <trkpt lat="45.68918" lon="5.72289">
        <ele>592</ele>
        <time>2017-05-25T13:18:07Z</time>
      </trkpt>
      <trkpt lat="45.68942" lon="5.72277">
        <ele>592</ele>
        <time>2017-05-25T13:18:55Z</time>
      </trkpt>
      <trkpt lat="45.68943" lon="5.72275">
        <ele>592</ele>
        <time>2017-05-25T13:18:55Z</time>
      </trkpt>
      <trkpt lat="45.68942" lon="5.72267">
        <ele>592</ele>
        <time>2017-05-25T13:18:55Z</time>
      </trkpt>
      <trkpt lat="45.68939" lon="5.72262">
        <ele>592</ele>
        <time>2017-05-25T13:18:55Z</time>
      </trkpt>
      <trkpt lat="45.68934" lon="5.72257">
        <ele>592</ele>
        <time>2017-05-25T13:18:55Z</time>
      </trkpt>
      <trkpt lat="45.68925" lon="5.72249">
        <ele>592</ele>
        <time>2017-05-25T13:19:11Z</time>
      </trkpt>
      <trkpt lat="45.68923" lon="5.72238">
        <ele>592</ele>
        <time>2017-05-25T13:19:11Z</time>
      </trkpt>
      <trkpt lat="45.68925" lon="5.72233">
        <ele>592</ele>
        <time>2017-05-25T13:19:11Z</time>
      </trkpt>
      <trkpt lat="45.68931" lon="5.7223">
        <ele>592</ele>
        <time>2017-05-25T13:19:11Z</time>
      </trkpt>
      <trkpt lat="45.68936" lon="5.72229">
        <ele>592</ele>
        <time>2017-05-25T13:19:27Z</time>
      </trkpt>
      <trkpt lat="45.68941" lon="5.72231">
        <ele>592</ele>
        <time>2017-05-25T13:19:27Z</time>
      </trkpt>
      <trkpt lat="45.68946" lon="5.72234">
        <ele>592</ele>
        <time>2017-05-25T13:19:27Z</time>
      </trkpt>
      <trkpt lat="45.68952" lon="5.72236">
        <ele>592</ele>
        <time>2017-05-25T13:19:27Z</time>
      </trkpt>
      <trkpt lat="45.68957" lon="5.72239">
        <ele>592</ele>
        <time>2017-05-25T13:19:43Z</time>
      </trkpt>
      <trkpt lat="45.6896" lon="5.72241">
        <ele>593</ele>
        <time>2017-05-25T13:19:43Z</time>
      </trkpt>
      <trkpt lat="45.68965" lon="5.72246">
        <ele>593</ele>
        <time>2017-05-25T13:19:43Z</time>
      </trkpt>
      <trkpt lat="45.6897" lon="5.72248">
        <ele>593</ele>
        <time>2017-05-25T13:19:43Z</time>
      </trkpt>
      <trkpt lat="45.68976" lon="5.72247">
        <ele>593</ele>
        <time>2017-05-25T13:19:59Z</time>
      </trkpt>
      <trkpt lat="45.68984" lon="5.72241">
        <ele>593</ele>
        <time>2017-05-25T13:19:59Z</time>
      </trkpt>
      <trkpt lat="45.68988" lon="5.72231">
        <ele>593</ele>
        <time>2017-05-25T13:19:59Z</time>
      </trkpt>
      <trkpt lat="45.68989" lon="5.72227">
        <ele>593</ele>
        <time>2017-05-25T13:19:59Z</time>
      </trkpt>
      <trkpt lat="45.68989" lon="5.72227">
        <ele>593</ele>
        <time>2017-05-25T13:20:15Z</time>
      </trkpt>
      <trkpt lat="45.68989" lon="5.72217">
        <ele>593</ele>
        <time>2017-05-25T13:20:15Z</time>
      </trkpt>
      <trkpt lat="45.68987" lon="5.72203">
        <ele>594</ele>
        <time>2017-05-25T13:20:15Z</time>
      </trkpt>
      <trkpt lat="45.68985" lon="5.72192">
        <ele>594</ele>
        <time>2017-05-25T13:20:15Z</time>
      </trkpt>
      <trkpt lat="45.68985" lon="5.72184">
        <ele>594</ele>
        <time>2017-05-25T13:20:31Z</time>
      </trkpt>
      <trkpt lat="45.68985" lon="5.72177">
        <ele>594</ele>
        <time>2017-05-25T13:20:31Z</time>
      </trkpt>
      <trkpt lat="45.68985" lon="5.72171">
        <ele>594</ele>
        <time>2017-05-25T13:20:31Z</time>
      </trkpt>
      <trkpt lat="45.68984" lon="5.72165">
        <ele>594</ele>
        <time>2017-05-25T13:20:31Z</time>
      </trkpt>
      <trkpt lat="45.68984" lon="5.72158">
        <ele>594</ele>
        <time>2017-05-25T13:20:47Z</time>
      </trkpt>
      <trkpt lat="45.68983" lon="5.72152">
        <ele>594</ele>
        <time>2017-05-25T13:20:47Z</time>
      </trkpt>
      <trkpt lat="45.68981" lon="5.72146">
        <ele>594</ele>
        <time>2017-05-25T13:20:47Z</time>
      </trkpt>
      <trkpt lat="45.68978" lon="5.72141">
        <ele>594</ele>
        <time>2017-05-25T13:20:47Z</time>
      </trkpt>
      <trkpt lat="45.68974" lon="5.72137">
        <ele>594</ele>
        <time>2017-05-25T13:21:03Z</time>
      </trkpt>
      <trkpt lat="45.6897" lon="5.72132">
        <ele>594</ele>
        <time>2017-05-25T13:21:03Z</time>
      </trkpt>
      <trkpt lat="45.68966" lon="5.72128">
        <ele>594</ele>
        <time>2017-05-25T13:21:03Z</time>
      </trkpt>
      <trkpt lat="45.68963" lon="5.72124">
        <ele>584</ele>
        <time>2017-05-25T13:21:03Z</time>
      </trkpt>
      <trkpt lat="45.68959" lon="5.72125">
        <ele>584</ele>
        <time>2017-05-25T13:21:19Z</time>
      </trkpt>
      <trkpt lat="45.68955" lon="5.72124">
        <ele>591</ele>
        <time>2017-05-25T13:21:19Z</time>
      </trkpt>
      <trkpt lat="45.68951" lon="5.72123">
        <ele>591</ele>
        <time>2017-05-25T13:21:19Z</time>
      </trkpt>
      <trkpt lat="45.68946" lon="5.7212">
        <ele>591</ele>
        <time>2017-05-25T13:21:19Z</time>
      </trkpt>
      <trkpt lat="45.68942" lon="5.72114">
        <ele>591</ele>
        <time>2017-05-25T13:21:35Z</time>
      </trkpt>
      <trkpt lat="45.68938" lon="5.72106">
        <ele>591</ele>
        <time>2017-05-25T13:21:35Z</time>
      </trkpt>
      <trkpt lat="45.68934" lon="5.72098">
        <ele>591</ele>
        <time>2017-05-25T13:21:35Z</time>
      </trkpt>
      <trkpt lat="45.68931" lon="5.72092">
        <ele>591</ele>
        <time>2017-05-25T13:21:35Z</time>
      </trkpt>
      <trkpt lat="45.68933" lon="5.72082">
        <ele>591</ele>
        <time>2017-05-25T13:22:11Z</time>
      </trkpt>
      <trkpt lat="45.68936" lon="5.72083">
        <ele>591</ele>
        <time>2017-05-25T13:22:11Z</time>
      </trkpt>
      <trkpt lat="45.68938" lon="5.72085">
        <ele>591</ele>
        <time>2017-05-25T13:22:11Z</time>
      </trkpt>
      <trkpt lat="45.68942" lon="5.72087">
        <ele>591</ele>
        <time>2017-05-25T13:22:11Z</time>
      </trkpt>
      <trkpt lat="45.68946" lon="5.72092">
        <ele>591</ele>
        <time>2017-05-25T13:22:11Z</time>
      </trkpt>
      <trkpt lat="45.68951" lon="5.72095">
        <ele>591</ele>
        <time>2017-05-25T13:22:27Z</time>
      </trkpt>
      <trkpt lat="45.68957" lon="5.72097">
        <ele>591</ele>
        <time>2017-05-25T13:22:27Z</time>
      </trkpt>
      <trkpt lat="45.68962" lon="5.72099">
        <ele>584</ele>
        <time>2017-05-25T13:22:27Z</time>
      </trkpt>
      <trkpt lat="45.68969" lon="5.72098">
        <ele>584</ele>
        <time>2017-05-25T13:22:27Z</time>
      </trkpt>
      <trkpt lat="45.68975" lon="5.72095">
        <ele>584</ele>
        <time>2017-05-25T13:22:43Z</time>
      </trkpt>
      <trkpt lat="45.68978" lon="5.72088">
        <ele>584</ele>
        <time>2017-05-25T13:22:43Z</time>
      </trkpt>
      <trkpt lat="45.6898" lon="5.72082">
        <ele>584</ele>
        <time>2017-05-25T13:22:43Z</time>
      </trkpt>
      <trkpt lat="45.68983" lon="5.72077">
        <ele>584</ele>
        <time>2017-05-25T13:22:43Z</time>
      </trkpt>
      <trkpt lat="45.68987" lon="5.72077">
        <ele>584</ele>
        <time>2017-05-25T13:22:59Z</time>
      </trkpt>
      <trkpt lat="45.68993" lon="5.72077">
        <ele>584</ele>
        <time>2017-05-25T13:22:59Z</time>
      </trkpt>
      <trkpt lat="45.68998" lon="5.72075">
        <ele>584</ele>
        <time>2017-05-25T13:22:59Z</time>
      </trkpt>
      <trkpt lat="45.69004" lon="5.72075">
        <ele>584</ele>
        <time>2017-05-25T13:22:59Z</time>
      </trkpt>
      <trkpt lat="45.69006" lon="5.72073">
        <ele>584</ele>
        <time>2017-05-25T13:23:15Z</time>
      </trkpt>
      <trkpt lat="45.69009" lon="5.72072">
        <ele>584</ele>
        <time>2017-05-25T13:23:15Z</time>
      </trkpt>
      <trkpt lat="45.69013" lon="5.72071">
        <ele>584</ele>
        <time>2017-05-25T13:23:15Z</time>
      </trkpt>
      <trkpt lat="45.69018" lon="5.7207">
        <ele>584</ele>
        <time>2017-05-25T13:23:15Z</time>
      </trkpt>
      <trkpt lat="45.69024" lon="5.7207">
        <ele>584</ele>
        <time>2017-05-25T13:23:31Z</time>
      </trkpt>
      <trkpt lat="45.6903" lon="5.7207">
        <ele>584</ele>
        <time>2017-05-25T13:23:31Z</time>
      </trkpt>
      <trkpt lat="45.69037" lon="5.72072">
        <ele>584</ele>
        <time>2017-05-25T13:23:31Z</time>
      </trkpt>
      <trkpt lat="45.69043" lon="5.72072">
        <ele>596</ele>
        <time>2017-05-25T13:23:31Z</time>
      </trkpt>
      <trkpt lat="45.69049" lon="5.72073">
        <ele>596</ele>
        <time>2017-05-25T13:23:47Z</time>
      </trkpt>
      <trkpt lat="45.69051" lon="5.72072">
        <ele>596</ele>
        <time>2017-05-25T13:23:47Z</time>
      </trkpt>
      <trkpt lat="45.69055" lon="5.72073">
        <ele>596</ele>
        <time>2017-05-25T13:23:47Z</time>
      </trkpt>
      <trkpt lat="45.69059" lon="5.72077">
        <ele>596</ele>
        <time>2017-05-25T13:23:47Z</time>
      </trkpt>
      <trkpt lat="45.69064" lon="5.72078">
        <ele>596</ele>
        <time>2017-05-25T13:24:03Z</time>
      </trkpt>
      <trkpt lat="45.69068" lon="5.72074">
        <ele>596</ele>
        <time>2017-05-25T13:24:03Z</time>
      </trkpt>
      <trkpt lat="45.69072" lon="5.72074">
        <ele>596</ele>
        <time>2017-05-25T13:24:03Z</time>
      </trkpt>
      <trkpt lat="45.69078" lon="5.72078">
        <ele>596</ele>
        <time>2017-05-25T13:24:03Z</time>
      </trkpt>
      <trkpt lat="45.69086" lon="5.7208">
        <ele>596</ele>
        <time>2017-05-25T13:24:19Z</time>
      </trkpt>
      <trkpt lat="45.69094" lon="5.72081">
        <ele>596</ele>
        <time>2017-05-25T13:24:19Z</time>
      </trkpt>
      <trkpt lat="45.691" lon="5.72085">
        <ele>596</ele>
        <time>2017-05-25T13:24:19Z</time>
      </trkpt>
      <trkpt lat="45.69106" lon="5.72087">
        <ele>596</ele>
        <time>2017-05-25T13:24:19Z</time>
      </trkpt>
      <trkpt lat="45.6911" lon="5.7209">
        <ele>596</ele>
        <time>2017-05-25T13:24:35Z</time>
      </trkpt>
      <trkpt lat="45.69114" lon="5.72093">
        <ele>596</ele>
        <time>2017-05-25T13:24:35Z</time>
      </trkpt>
      <trkpt lat="45.69119" lon="5.72095">
        <ele>596</ele>
        <time>2017-05-25T13:24:35Z</time>
      </trkpt>
      <trkpt lat="45.69124" lon="5.72096">
        <ele>596</ele>
        <time>2017-05-25T13:24:35Z</time>
      </trkpt>
      <trkpt lat="45.69127" lon="5.72099">
        <ele>589</ele>
        <time>2017-05-25T13:24:51Z</time>
      </trkpt>
      <trkpt lat="45.69131" lon="5.72104">
        <ele>589</ele>
        <time>2017-05-25T13:24:51Z</time>
      </trkpt>
      <trkpt lat="45.69136" lon="5.72105">
        <ele>589</ele>
        <time>2017-05-25T13:24:51Z</time>
      </trkpt>
      <trkpt lat="45.69144" lon="5.72102">
        <ele>589</ele>
        <time>2017-05-25T13:24:51Z</time>
      </trkpt>
      <trkpt lat="45.69151" lon="5.72102">
        <ele>589</ele>
        <time>2017-05-25T13:25:07Z</time>
      </trkpt>
      <trkpt lat="45.69158" lon="5.72104">
        <ele>589</ele>
        <time>2017-05-25T13:25:07Z</time>
      </trkpt>
      <trkpt lat="45.69164" lon="5.72106">
        <ele>589</ele>
        <time>2017-05-25T13:25:07Z</time>
      </trkpt>
      <trkpt lat="45.6917" lon="5.72107">
        <ele>589</ele>
        <time>2017-05-25T13:25:07Z</time>
      </trkpt>
      <trkpt lat="45.69175" lon="5.72109">
        <ele>589</ele>
        <time>2017-05-25T13:25:23Z</time>
      </trkpt>
      <trkpt lat="45.6918" lon="5.72112">
        <ele>589</ele>
        <time>2017-05-25T13:25:23Z</time>
      </trkpt>
      <trkpt lat="45.69183" lon="5.72114">
        <ele>589</ele>
        <time>2017-05-25T13:25:23Z</time>
      </trkpt>
      <trkpt lat="45.69185" lon="5.72119">
        <ele>589</ele>
        <time>2017-05-25T13:25:23Z</time>
      </trkpt>
      <trkpt lat="45.69189" lon="5.72123">
        <ele>589</ele>
        <time>2017-05-25T13:25:39Z</time>
      </trkpt>
      <trkpt lat="45.69195" lon="5.72127">
        <ele>602</ele>
        <time>2017-05-25T13:25:39Z</time>
      </trkpt>
      <trkpt lat="45.692" lon="5.72129">
        <ele>602</ele>
        <time>2017-05-25T13:25:39Z</time>
      </trkpt>
      <trkpt lat="45.69205" lon="5.72132">
        <ele>602</ele>
        <time>2017-05-25T13:25:39Z</time>
      </trkpt>
      <trkpt lat="45.6921" lon="5.72135">
        <ele>593</ele>
        <time>2017-05-25T13:25:55Z</time>
      </trkpt>
      <trkpt lat="45.69214" lon="5.72137">
        <ele>593</ele>
        <time>2017-05-25T13:25:55Z</time>
      </trkpt>
      <trkpt lat="45.69219" lon="5.72139">
        <ele>593</ele>
        <time>2017-05-25T13:25:55Z</time>
      </trkpt>
      <trkpt lat="45.69224" lon="5.72142">
        <ele>593</ele>
        <time>2017-05-25T13:25:55Z</time>
      </trkpt>
      <trkpt lat="45.69227" lon="5.72147">
        <ele>593</ele>
        <time>2017-05-25T13:26:11Z</time>
      </trkpt>
      <trkpt lat="45.69231" lon="5.7215">
        <ele>593</ele>
        <time>2017-05-25T13:26:11Z</time>
      </trkpt>
      <trkpt lat="45.69234" lon="5.72151">
        <ele>593</ele>
        <time>2017-05-25T13:26:11Z</time>
      </trkpt>
      <trkpt lat="45.69241" lon="5.72153">
        <ele>593</ele>
        <time>2017-05-25T13:26:11Z</time>
      </trkpt>
      <trkpt lat="45.69245" lon="5.72157">
        <ele>593</ele>
        <time>2017-05-25T13:26:27Z</time>
      </trkpt>
      <trkpt lat="45.6925" lon="5.72161">
        <ele>593</ele>
        <time>2017-05-25T13:26:27Z</time>
      </trkpt>
      <trkpt lat="45.69255" lon="5.72165">
        <ele>593</ele>
        <time>2017-05-25T13:26:27Z</time>
      </trkpt>
      <trkpt lat="45.6926" lon="5.7217">
        <ele>593</ele>
        <time>2017-05-25T13:26:27Z</time>
      </trkpt>
      <trkpt lat="45.69266" lon="5.72172">
        <ele>593</ele>
        <time>2017-05-25T13:26:43Z</time>
      </trkpt>
      <trkpt lat="45.69271" lon="5.72175">
        <ele>593</ele>
        <time>2017-05-25T13:26:43Z</time>
      </trkpt>
      <trkpt lat="45.69277" lon="5.72179">
        <ele>593</ele>
        <time>2017-05-25T13:26:43Z</time>
      </trkpt>
      <trkpt lat="45.69281" lon="5.72185">
        <ele>593</ele>
        <time>2017-05-25T13:26:43Z</time>
      </trkpt>
      <trkpt lat="45.69285" lon="5.7219">
        <ele>593</ele>
        <time>2017-05-25T13:26:59Z</time>
      </trkpt>
      <trkpt lat="45.69288" lon="5.72192">
        <ele>593</ele>
        <time>2017-05-25T13:26:59Z</time>
      </trkpt>
      <trkpt lat="45.69294" lon="5.72201">
        <ele>574</ele>
        <time>2017-05-25T13:26:59Z</time>
      </trkpt>
      <trkpt lat="45.69298" lon="5.72205">
        <ele>574</ele>
        <time>2017-05-25T13:26:59Z</time>
      </trkpt>
      <trkpt lat="45.69301" lon="5.72203">
        <ele>574</ele>
        <time>2017-05-25T13:27:15Z</time>
      </trkpt>
      <trkpt lat="45.69302" lon="5.722">
        <ele>574</ele>
        <time>2017-05-25T13:27:15Z</time>
      </trkpt>
      <trkpt lat="45.69302" lon="5.72194">
        <ele>574</ele>
        <time>2017-05-25T13:27:15Z</time>
      </trkpt>
      <trkpt lat="45.693" lon="5.72187">
        <ele>574</ele>
        <time>2017-05-25T13:27:15Z</time>
      </trkpt>
      <trkpt lat="45.69294" lon="5.72178">
        <ele>574</ele>
        <time>2017-05-25T13:27:47Z</time>
      </trkpt>
      <trkpt lat="45.69294" lon="5.72176">
        <ele>574</ele>
        <time>2017-05-25T13:27:47Z</time>
      </trkpt>
      <trkpt lat="45.69295" lon="5.7217">
        <ele>574</ele>
        <time>2017-05-25T13:27:47Z</time>
      </trkpt>
      <trkpt lat="45.69296" lon="5.72164">
        <ele>574</ele>
        <time>2017-05-25T13:27:47Z</time>
      </trkpt>
      <trkpt lat="45.69296" lon="5.72159">
        <ele>574</ele>
        <time>2017-05-25T13:27:47Z</time>
      </trkpt>
      <trkpt lat="45.69296" lon="5.72143">
        <ele>574</ele>
        <time>2017-05-25T13:28:39Z</time>
      </trkpt>
      <trkpt lat="45.69297" lon="5.72142">
        <ele>574</ele>
        <time>2017-05-25T13:28:39Z</time>
      </trkpt>
      <trkpt lat="45.693" lon="5.72143">
        <ele>574</ele>
        <time>2017-05-25T13:28:39Z</time>
      </trkpt>
      <trkpt lat="45.69305" lon="5.72145">
        <ele>574</ele>
        <time>2017-05-25T13:28:39Z</time>
      </trkpt>
      <trkpt lat="45.69309" lon="5.72148">
        <ele>574</ele>
        <time>2017-05-25T13:28:39Z</time>
      </trkpt>
      <trkpt lat="45.69314" lon="5.72153">
        <ele>574</ele>
        <time>2017-05-25T13:28:55Z</time>
      </trkpt>
      <trkpt lat="45.6932" lon="5.72157">
        <ele>574</ele>
        <time>2017-05-25T13:28:55Z</time>
      </trkpt>
      <trkpt lat="45.69325" lon="5.7216">
        <ele>574</ele>
        <time>2017-05-25T13:28:55Z</time>
      </trkpt>
      <trkpt lat="45.69328" lon="5.72165">
        <ele>574</ele>
        <time>2017-05-25T13:28:55Z</time>
      </trkpt>
      <trkpt lat="45.69333" lon="5.72168">
        <ele>574</ele>
        <time>2017-05-25T13:29:11Z</time>
      </trkpt>
      <trkpt lat="45.69336" lon="5.72173">
        <ele>574</ele>
        <time>2017-05-25T13:29:11Z</time>
      </trkpt>
      <trkpt lat="45.69341" lon="5.72176">
        <ele>574</ele>
        <time>2017-05-25T13:29:11Z</time>
      </trkpt>
      <trkpt lat="45.69346" lon="5.7218">
        <ele>574</ele>
        <time>2017-05-25T13:29:11Z</time>
      </trkpt>
      <trkpt lat="45.6935" lon="5.72184">
        <ele>574</ele>
        <time>2017-05-25T13:29:31Z</time>
      </trkpt>
      <trkpt lat="45.69352" lon="5.72188">
        <ele>574</ele>
        <time>2017-05-25T13:29:31Z</time>
      </trkpt>
      <trkpt lat="45.69352" lon="5.72191">
        <ele>574</ele>
        <time>2017-05-25T13:29:31Z</time>
      </trkpt>
      <trkpt lat="45.69354" lon="5.72196">
        <ele>574</ele>
        <time>2017-05-25T13:29:31Z</time>
      </trkpt>
      <trkpt lat="45.69356" lon="5.72197">
        <ele>574</ele>
        <time>2017-05-25T13:29:31Z</time>
      </trkpt>
      <trkpt lat="45.69357" lon="5.72199">
        <ele>574</ele>
        <time>2017-05-25T13:29:55Z</time>
      </trkpt>
      <trkpt lat="45.69357" lon="5.722">
        <ele>574</ele>
        <time>2017-05-25T13:29:55Z</time>
      </trkpt>
      <trkpt lat="45.69359" lon="5.72202">
        <ele>574</ele>
        <time>2017-05-25T13:29:55Z</time>
      </trkpt>
      <trkpt lat="45.69361" lon="5.72208">
        <ele>574</ele>
        <time>2017-05-25T13:29:55Z</time>
      </trkpt>
      <trkpt lat="45.69364" lon="5.72214">
        <ele>580</ele>
        <time>2017-05-25T13:29:55Z</time>
      </trkpt>
      <trkpt lat="45.69366" lon="5.72217">
        <ele>580</ele>
        <time>2017-05-25T13:30:11Z</time>
      </trkpt>
      <trkpt lat="45.69368" lon="5.72221">
        <ele>580</ele>
        <time>2017-05-25T13:30:11Z</time>
      </trkpt>
      <trkpt lat="45.69371" lon="5.72228">
        <ele>580</ele>
        <time>2017-05-25T13:30:11Z</time>
      </trkpt>
      <trkpt lat="45.69373" lon="5.72234">
        <ele>580</ele>
        <time>2017-05-25T13:30:11Z</time>
      </trkpt>
      <trkpt lat="45.69376" lon="5.72238">
        <ele>554</ele>
        <time>2017-05-25T13:30:31Z</time>
      </trkpt>
      <trkpt lat="45.69378" lon="5.72242">
        <ele>554</ele>
        <time>2017-05-25T13:30:31Z</time>
      </trkpt>
      <trkpt lat="45.6938" lon="5.72246">
        <ele>554</ele>
        <time>2017-05-25T13:30:31Z</time>
      </trkpt>
      <trkpt lat="45.69381" lon="5.72249">
        <ele>554</ele>
        <time>2017-05-25T13:30:31Z</time>
      </trkpt>
      <trkpt lat="45.69381" lon="5.72251">
        <ele>554</ele>
        <time>2017-05-25T13:30:31Z</time>
      </trkpt>
      <trkpt lat="45.69381" lon="5.72253">
        <ele>554</ele>
        <time>2017-05-25T13:30:47Z</time>
      </trkpt>
      <trkpt lat="45.69382" lon="5.72255">
        <ele>554</ele>
        <time>2017-05-25T13:30:47Z</time>
      </trkpt>
      <trkpt lat="45.69383" lon="5.7226">
        <ele>554</ele>
        <time>2017-05-25T13:30:47Z</time>
      </trkpt>
      <trkpt lat="45.69384" lon="5.72267">
        <ele>554</ele>
        <time>2017-05-25T13:30:47Z</time>
      </trkpt>
      <trkpt lat="45.69385" lon="5.72275">
        <ele>554</ele>
        <time>2017-05-25T13:31:03Z</time>
      </trkpt>
      <trkpt lat="45.69385" lon="5.72281">
        <ele>554</ele>
        <time>2017-05-25T13:31:03Z</time>
      </trkpt>
      <trkpt lat="45.69386" lon="5.72287">
        <ele>554</ele>
        <time>2017-05-25T13:31:03Z</time>
      </trkpt>
      <trkpt lat="45.69386" lon="5.72293">
        <ele>547</ele>
        <time>2017-05-25T13:31:03Z</time>
      </trkpt>
      <trkpt lat="45.69386" lon="5.72302">
        <ele>547</ele>
        <time>2017-05-25T13:31:19Z</time>
      </trkpt>
      <trkpt lat="45.69387" lon="5.7231">
        <ele>547</ele>
        <time>2017-05-25T13:31:19Z</time>
      </trkpt>
      <trkpt lat="45.6939" lon="5.72315">
        <ele>547</ele>
        <time>2017-05-25T13:31:19Z</time>
      </trkpt>
      <trkpt lat="45.69395" lon="5.72319">
        <ele>547</ele>
        <time>2017-05-25T13:31:19Z</time>
      </trkpt>
      <trkpt lat="45.69401" lon="5.72326">
        <ele>547</ele>
        <time>2017-05-25T13:31:43Z</time>
      </trkpt>
      <trkpt lat="45.69401" lon="5.72328">
        <ele>547</ele>
        <time>2017-05-25T13:31:43Z</time>
      </trkpt>
      <trkpt lat="45.69402" lon="5.72331">
        <ele>547</ele>
        <time>2017-05-25T13:31:43Z</time>
      </trkpt>
      <trkpt lat="45.69405" lon="5.72331">
        <ele>547</ele>
        <time>2017-05-25T13:31:43Z</time>
      </trkpt>
      <trkpt lat="45.69407" lon="5.72334">
        <ele>547</ele>
        <time>2017-05-25T13:31:43Z</time>
      </trkpt>
      <trkpt lat="45.69407" lon="5.72334">
        <ele>547</ele>
        <time>2017-05-25T13:31:59Z</time>
      </trkpt>
      <trkpt lat="45.69407" lon="5.72334">
        <ele>547</ele>
        <time>2017-05-25T13:31:59Z</time>
      </trkpt>
      <trkpt lat="45.69411" lon="5.72328">
        <ele>547</ele>
        <time>2017-05-25T13:31:59Z</time>
      </trkpt>
      <trkpt lat="45.69414" lon="5.72323">
        <ele>547</ele>
        <time>2017-05-25T13:31:59Z</time>
      </trkpt>
      <trkpt lat="45.69417" lon="5.72317">
        <ele>547</ele>
        <time>2017-05-25T13:32:15Z</time>
      </trkpt>
      <trkpt lat="45.69421" lon="5.72311">
        <ele>547</ele>
        <time>2017-05-25T13:32:15Z</time>
      </trkpt>
      <trkpt lat="45.69427" lon="5.72305">
        <ele>547</ele>
        <time>2017-05-25T13:32:15Z</time>
      </trkpt>
      <trkpt lat="45.69429" lon="5.72299">
        <ele>547</ele>
        <time>2017-05-25T13:32:15Z</time>
      </trkpt>
      <trkpt lat="45.69432" lon="5.72291">
        <ele>554</ele>
        <time>2017-05-25T13:32:31Z</time>
      </trkpt>
      <trkpt lat="45.69435" lon="5.72283">
        <ele>554</ele>
        <time>2017-05-25T13:32:31Z</time>
      </trkpt>
      <trkpt lat="45.6944" lon="5.72273">
        <ele>554</ele>
        <time>2017-05-25T13:32:31Z</time>
      </trkpt>
      <trkpt lat="45.69442" lon="5.72264">
        <ele>554</ele>
        <time>2017-05-25T13:32:31Z</time>
      </trkpt>
      <trkpt lat="45.69444" lon="5.72255">
        <ele>554</ele>
        <time>2017-05-25T13:32:47Z</time>
      </trkpt>
      <trkpt lat="45.69447" lon="5.72247">
        <ele>554</ele>
        <time>2017-05-25T13:32:47Z</time>
      </trkpt>
      <trkpt lat="45.69448" lon="5.72242">
        <ele>554</ele>
        <time>2017-05-25T13:32:47Z</time>
      </trkpt>
      <trkpt lat="45.69451" lon="5.72238">
        <ele>554</ele>
        <time>2017-05-25T13:32:47Z</time>
      </trkpt>
      <trkpt lat="45.69455" lon="5.72234">
        <ele>554</ele>
        <time>2017-05-25T13:33:03Z</time>
      </trkpt>
      <trkpt lat="45.69458" lon="5.72229">
        <ele>544</ele>
        <time>2017-05-25T13:33:03Z</time>
      </trkpt>
      <trkpt lat="45.69463" lon="5.72224">
        <ele>544</ele>
        <time>2017-05-25T13:33:03Z</time>
      </trkpt>
      <trkpt lat="45.69471" lon="5.7222">
        <ele>544</ele>
        <time>2017-05-25T13:33:03Z</time>
      </trkpt>
      <trkpt lat="45.69477" lon="5.72221">
        <ele>544</ele>
        <time>2017-05-25T13:33:19Z</time>
      </trkpt>
      <trkpt lat="45.69483" lon="5.72221">
        <ele>544</ele>
        <time>2017-05-25T13:33:19Z</time>
      </trkpt>
      <trkpt lat="45.69489" lon="5.72221">
        <ele>544</ele>
        <time>2017-05-25T13:33:19Z</time>
      </trkpt>
      <trkpt lat="45.69492" lon="5.72221">
        <ele>544</ele>
        <time>2017-05-25T13:33:19Z</time>
      </trkpt>
      <trkpt lat="45.69496" lon="5.72216">
        <ele>544</ele>
        <time>2017-05-25T13:33:35Z</time>
      </trkpt>
      <trkpt lat="45.69501" lon="5.72213">
        <ele>544</ele>
        <time>2017-05-25T13:33:35Z</time>
      </trkpt>
      <trkpt lat="45.69505" lon="5.72209">
        <ele>544</ele>
        <time>2017-05-25T13:33:35Z</time>
      </trkpt>
      <trkpt lat="45.69507" lon="5.72207">
        <ele>542</ele>
        <time>2017-05-25T13:33:35Z</time>
      </trkpt>
      <trkpt lat="45.69514" lon="5.72205">
        <ele>542</ele>
        <time>2017-05-25T13:33:51Z</time>
      </trkpt>
      <trkpt lat="45.69521" lon="5.72203">
        <ele>542</ele>
        <time>2017-05-25T13:33:51Z</time>
      </trkpt>
      <trkpt lat="45.69526" lon="5.72203">
        <ele>542</ele>
        <time>2017-05-25T13:33:51Z</time>
      </trkpt>
      <trkpt lat="45.69528" lon="5.72201">
        <ele>542</ele>
        <time>2017-05-25T13:33:51Z</time>
      </trkpt>
      <trkpt lat="45.69535" lon="5.72201">
        <ele>542</ele>
        <time>2017-05-25T13:34:27Z</time>
      </trkpt>
      <trkpt lat="45.69536" lon="5.72201">
        <ele>542</ele>
        <time>2017-05-25T13:34:27Z</time>
      </trkpt>
      <trkpt lat="45.69537" lon="5.72201">
        <ele>542</ele>
        <time>2017-05-25T13:34:27Z</time>
      </trkpt>
      <trkpt lat="45.69538" lon="5.72202">
        <ele>542</ele>
        <time>2017-05-25T13:34:27Z</time>
      </trkpt>
      <trkpt lat="45.69541" lon="5.72204">
        <ele>542</ele>
        <time>2017-05-25T13:34:27Z</time>
      </trkpt>
      <trkpt lat="45.69543" lon="5.72206">
        <ele>534</ele>
        <time>2017-05-25T13:34:47Z</time>
      </trkpt>
      <trkpt lat="45.69545" lon="5.72208">
        <ele>534</ele>
        <time>2017-05-25T13:34:47Z</time>
      </trkpt>
      <trkpt lat="45.69546" lon="5.72211">
        <ele>534</ele>
        <time>2017-05-25T13:34:47Z</time>
      </trkpt>
      <trkpt lat="45.69548" lon="5.72214">
        <ele>534</ele>
        <time>2017-05-25T13:34:47Z</time>
      </trkpt>
      <trkpt lat="45.69549" lon="5.72217">
        <ele>534</ele>
        <time>2017-05-25T13:34:47Z</time>
      </trkpt>
      <trkpt lat="45.69551" lon="5.7222">
        <ele>534</ele>
        <time>2017-05-25T13:35:07Z</time>
      </trkpt>
      <trkpt lat="45.69552" lon="5.72223">
        <ele>534</ele>
        <time>2017-05-25T13:35:07Z</time>
      </trkpt>
      <trkpt lat="45.69554" lon="5.72226">
        <ele>534</ele>
        <time>2017-05-25T13:35:07Z</time>
      </trkpt>
      <trkpt lat="45.69557" lon="5.72227">
        <ele>534</ele>
        <time>2017-05-25T13:35:07Z</time>
      </trkpt>
      <trkpt lat="45.6956" lon="5.72229">
        <ele>534</ele>
        <time>2017-05-25T13:35:07Z</time>
      </trkpt>
      <trkpt lat="45.69567" lon="5.72241">
        <ele>534</ele>
        <time>2017-05-25T13:35:39Z</time>
      </trkpt>
      <trkpt lat="45.69568" lon="5.72242">
        <ele>534</ele>
        <time>2017-05-25T13:35:39Z</time>
      </trkpt>
      <trkpt lat="45.69568" lon="5.72243">
        <ele>534</ele>
        <time>2017-05-25T13:35:39Z</time>
      </trkpt>
      <trkpt lat="45.69568" lon="5.72243">
        <ele>534</ele>
        <time>2017-05-25T13:35:39Z</time>
      </trkpt>
      <trkpt lat="45.69568" lon="5.72244">
        <ele>534</ele>
        <time>2017-05-25T13:35:39Z</time>
      </trkpt>
      <trkpt lat="45.69571" lon="5.72246">
        <ele>534</ele>
        <time>2017-05-25T13:35:55Z</time>
      </trkpt>
      <trkpt lat="45.69575" lon="5.72251">
        <ele>534</ele>
        <time>2017-05-25T13:35:55Z</time>
      </trkpt>
      <trkpt lat="45.69578" lon="5.72253">
        <ele>534</ele>
        <time>2017-05-25T13:35:55Z</time>
      </trkpt>
      <trkpt lat="45.69583" lon="5.72256">
        <ele>534</ele>
        <time>2017-05-25T13:35:55Z</time>
      </trkpt>
      <trkpt lat="45.69587" lon="5.72259">
        <ele>534</ele>
        <time>2017-05-25T13:36:11Z</time>
      </trkpt>
      <trkpt lat="45.6959" lon="5.72261">
        <ele>534</ele>
        <time>2017-05-25T13:36:11Z</time>
      </trkpt>
      <trkpt lat="45.69595" lon="5.7226">
        <ele>534</ele>
        <time>2017-05-25T13:36:11Z</time>
      </trkpt>
      <trkpt lat="45.69599" lon="5.72259">
        <ele>534</ele>
        <time>2017-05-25T13:36:11Z</time>
      </trkpt>
      <trkpt lat="45.69603" lon="5.72258">
        <ele>534</ele>
        <time>2017-05-25T13:36:27Z</time>
      </trkpt>
      <trkpt lat="45.69608" lon="5.72258">
        <ele>534</ele>
        <time>2017-05-25T13:36:27Z</time>
      </trkpt>
      <trkpt lat="45.69614" lon="5.72259">
        <ele>534</ele>
        <time>2017-05-25T13:36:27Z</time>
      </trkpt>
      <trkpt lat="45.69618" lon="5.72259">
        <ele>534</ele>
        <time>2017-05-25T13:36:27Z</time>
      </trkpt>
      <trkpt lat="45.69622" lon="5.7226">
        <ele>534</ele>
        <time>2017-05-25T13:36:47Z</time>
      </trkpt>
      <trkpt lat="45.69624" lon="5.72258">
        <ele>534</ele>
        <time>2017-05-25T13:36:47Z</time>
      </trkpt>
      <trkpt lat="45.69625" lon="5.72255">
        <ele>520</ele>
        <time>2017-05-25T13:36:47Z</time>
      </trkpt>
      <trkpt lat="45.69626" lon="5.72252">
        <ele>520</ele>
        <time>2017-05-25T13:36:47Z</time>
      </trkpt>
      <trkpt lat="45.69632" lon="5.72249">
        <ele>520</ele>
        <time>2017-05-25T13:36:47Z</time>
      </trkpt>
      <trkpt lat="45.69633" lon="5.72248">
        <ele>520</ele>
        <time>2017-05-25T13:37:03Z</time>
      </trkpt>
      <trkpt lat="45.69636" lon="5.72246">
        <ele>520</ele>
        <time>2017-05-25T13:37:03Z</time>
      </trkpt>
      <trkpt lat="45.69641" lon="5.72235">
        <ele>520</ele>
        <time>2017-05-25T13:37:03Z</time>
      </trkpt>
      <trkpt lat="45.69646" lon="5.72222">
        <ele>520</ele>
        <time>2017-05-25T13:37:03Z</time>
      </trkpt>
      <trkpt lat="45.6965" lon="5.7221">
        <ele>520</ele>
        <time>2017-05-25T13:37:19Z</time>
      </trkpt>
      <trkpt lat="45.69657" lon="5.72205">
        <ele>521</ele>
        <time>2017-05-25T13:37:19Z</time>
      </trkpt>
      <trkpt lat="45.69662" lon="5.72203">
        <ele>521</ele>
        <time>2017-05-25T13:37:19Z</time>
      </trkpt>
      <trkpt lat="45.69666" lon="5.72201">
        <ele>521</ele>
        <time>2017-05-25T13:37:19Z</time>
      </trkpt>
      <trkpt lat="45.6967" lon="5.72197">
        <ele>521</ele>
        <time>2017-05-25T13:37:35Z</time>
      </trkpt>
      <trkpt lat="45.69677" lon="5.72194">
        <ele>521</ele>
        <time>2017-05-25T13:37:35Z</time>
      </trkpt>
      <trkpt lat="45.69684" lon="5.72192">
        <ele>521</ele>
        <time>2017-05-25T13:37:35Z</time>
      </trkpt>
      <trkpt lat="45.69692" lon="5.72192">
        <ele>521</ele>
        <time>2017-05-25T13:37:35Z</time>
      </trkpt>
      <trkpt lat="45.69698" lon="5.72193">
        <ele>521</ele>
        <time>2017-05-25T13:37:51Z</time>
      </trkpt>
      <trkpt lat="45.69701" lon="5.72194">
        <ele>521</ele>
        <time>2017-05-25T13:37:51Z</time>
      </trkpt>
      <trkpt lat="45.69706" lon="5.72195">
        <ele>521</ele>
        <time>2017-05-25T13:37:51Z</time>
      </trkpt>
      <trkpt lat="45.69708" lon="5.72195">
        <ele>521</ele>
        <time>2017-05-25T13:37:51Z</time>
      </trkpt>
      <trkpt lat="45.69711" lon="5.72196">
        <ele>517</ele>
        <time>2017-05-25T13:38:07Z</time>
      </trkpt>
      <trkpt lat="45.69714" lon="5.72196">
        <ele>517</ele>
        <time>2017-05-25T13:38:07Z</time>
      </trkpt>
      <trkpt lat="45.69717" lon="5.72197">
        <ele>517</ele>
        <time>2017-05-25T13:38:07Z</time>
      </trkpt>
      <trkpt lat="45.69723" lon="5.72196">
        <ele>517</ele>
        <time>2017-05-25T13:38:07Z</time>
      </trkpt>
      <trkpt lat="45.69727" lon="5.72192">
        <ele>517</ele>
        <time>2017-05-25T13:38:23Z</time>
      </trkpt>
      <trkpt lat="45.69732" lon="5.7219">
        <ele>517</ele>
        <time>2017-05-25T13:38:23Z</time>
      </trkpt>
      <trkpt lat="45.69738" lon="5.72191">
        <ele>517</ele>
        <time>2017-05-25T13:38:23Z</time>
      </trkpt>
      <trkpt lat="45.69744" lon="5.72192">
        <ele>517</ele>
        <time>2017-05-25T13:38:23Z</time>
      </trkpt>
      <trkpt lat="45.69751" lon="5.72194">
        <ele>517</ele>
        <time>2017-05-25T13:38:39Z</time>
      </trkpt>
      <trkpt lat="45.69757" lon="5.72197">
        <ele>517</ele>
        <time>2017-05-25T13:38:39Z</time>
      </trkpt>
      <trkpt lat="45.69761" lon="5.722">
        <ele>517</ele>
        <time>2017-05-25T13:38:39Z</time>
      </trkpt>
      <trkpt lat="45.69765" lon="5.72202">
        <ele>517</ele>
        <time>2017-05-25T13:38:39Z</time>
      </trkpt>
      <trkpt lat="45.69769" lon="5.72207">
        <ele>517</ele>
        <time>2017-05-25T13:38:55Z</time>
      </trkpt>
      <trkpt lat="45.69774" lon="5.7221">
        <ele>513</ele>
        <time>2017-05-25T13:38:55Z</time>
      </trkpt>
      <trkpt lat="45.69779" lon="5.72212">
        <ele>513</ele>
        <time>2017-05-25T13:38:55Z</time>
      </trkpt>
      <trkpt lat="45.69783" lon="5.72216">
        <ele>513</ele>
        <time>2017-05-25T13:38:55Z</time>
      </trkpt>
      <trkpt lat="45.69787" lon="5.72221">
        <ele>513</ele>
        <time>2017-05-25T13:39:11Z</time>
      </trkpt>
      <trkpt lat="45.69789" lon="5.72227">
        <ele>513</ele>
        <time>2017-05-25T13:39:11Z</time>
      </trkpt>
      <trkpt lat="45.69793" lon="5.72234">
        <ele>520</ele>
        <time>2017-05-25T13:39:11Z</time>
      </trkpt>
      <trkpt lat="45.69796" lon="5.72241">
        <ele>520</ele>
        <time>2017-05-25T13:39:11Z</time>
      </trkpt>
      <trkpt lat="45.698" lon="5.72247">
        <ele>520</ele>
        <time>2017-05-25T13:39:27Z</time>
      </trkpt>
      <trkpt lat="45.69804" lon="5.72252">
        <ele>520</ele>
        <time>2017-05-25T13:39:27Z</time>
      </trkpt>
      <trkpt lat="45.69808" lon="5.72258">
        <ele>520</ele>
        <time>2017-05-25T13:39:27Z</time>
      </trkpt>
      <trkpt lat="45.69811" lon="5.72264">
        <ele>520</ele>
        <time>2017-05-25T13:39:27Z</time>
      </trkpt>
      <trkpt lat="45.69812" lon="5.72271">
        <ele>520</ele>
        <time>2017-05-25T13:39:43Z</time>
      </trkpt>
      <trkpt lat="45.69811" lon="5.72278">
        <ele>520</ele>
        <time>2017-05-25T13:39:43Z</time>
      </trkpt>
      <trkpt lat="45.6981" lon="5.72285">
        <ele>520</ele>
        <time>2017-05-25T13:39:43Z</time>
      </trkpt>
      <trkpt lat="45.69807" lon="5.72291">
        <ele>520</ele>
        <time>2017-05-25T13:39:43Z</time>
      </trkpt>
      <trkpt lat="45.69804" lon="5.72298">
        <ele>516</ele>
        <time>2017-05-25T13:39:59Z</time>
      </trkpt>
      <trkpt lat="45.69802" lon="5.72305">
        <ele>516</ele>
        <time>2017-05-25T13:39:59Z</time>
      </trkpt>
      <trkpt lat="45.69801" lon="5.72313">
        <ele>516</ele>
        <time>2017-05-25T13:39:59Z</time>
      </trkpt>
      <trkpt lat="45.69801" lon="5.72319">
        <ele>516</ele>
        <time>2017-05-25T13:39:59Z</time>
      </trkpt>
      <trkpt lat="45.698" lon="5.72326">
        <ele>516</ele>
        <time>2017-05-25T13:40:15Z</time>
      </trkpt>
      <trkpt lat="45.698" lon="5.72332">
        <ele>516</ele>
        <time>2017-05-25T13:40:15Z</time>
      </trkpt>
      <trkpt lat="45.69799" lon="5.72338">
        <ele>516</ele>
        <time>2017-05-25T13:40:15Z</time>
      </trkpt>
      <trkpt lat="45.69797" lon="5.72345">
        <ele>516</ele>
        <time>2017-05-25T13:40:15Z</time>
      </trkpt>
      <trkpt lat="45.69796" lon="5.72352">
        <ele>516</ele>
        <time>2017-05-25T13:40:31Z</time>
      </trkpt>
      <trkpt lat="45.69794" lon="5.72358">
        <ele>516</ele>
        <time>2017-05-25T13:40:31Z</time>
      </trkpt>
      <trkpt lat="45.69793" lon="5.72366">
        <ele>516</ele>
        <time>2017-05-25T13:40:31Z</time>
      </trkpt>
      <trkpt lat="45.69794" lon="5.72373">
        <ele>516</ele>
        <time>2017-05-25T13:40:31Z</time>
      </trkpt>
      <trkpt lat="45.69794" lon="5.72379">
        <ele>514</ele>
        <time>2017-05-25T13:40:47Z</time>
      </trkpt>
      <trkpt lat="45.69793" lon="5.72385">
        <ele>514</ele>
        <time>2017-05-25T13:40:47Z</time>
      </trkpt>
      <trkpt lat="45.69792" lon="5.7239">
        <ele>500</ele>
        <time>2017-05-25T13:40:47Z</time>
      </trkpt>
      <trkpt lat="45.6979" lon="5.72394">
        <ele>500</ele>
        <time>2017-05-25T13:40:47Z</time>
      </trkpt>
      <trkpt lat="45.69788" lon="5.72397">
        <ele>500</ele>
        <time>2017-05-25T13:41:03Z</time>
      </trkpt>
      <trkpt lat="45.69787" lon="5.72401">
        <ele>500</ele>
        <time>2017-05-25T13:41:03Z</time>
      </trkpt>
      <trkpt lat="45.69786" lon="5.72407">
        <ele>500</ele>
        <time>2017-05-25T13:41:03Z</time>
      </trkpt>
      <trkpt lat="45.69784" lon="5.72413">
        <ele>500</ele>
        <time>2017-05-25T13:41:03Z</time>
      </trkpt>
      <trkpt lat="45.69781" lon="5.7242">
        <ele>500</ele>
        <time>2017-05-25T13:41:19Z</time>
      </trkpt>
      <trkpt lat="45.69779" lon="5.72426">
        <ele>500</ele>
        <time>2017-05-25T13:41:19Z</time>
      </trkpt>
      <trkpt lat="45.69778" lon="5.72433">
        <ele>500</ele>
        <time>2017-05-25T13:41:19Z</time>
      </trkpt>
      <trkpt lat="45.69776" lon="5.72436">
        <ele>500</ele>
        <time>2017-05-25T13:41:19Z</time>
      </trkpt>
      <trkpt lat="45.69775" lon="5.72442">
        <ele>500</ele>
        <time>2017-05-25T13:41:51Z</time>
      </trkpt>
      <trkpt lat="45.69775" lon="5.72446">
        <ele>500</ele>
        <time>2017-05-25T13:41:51Z</time>
      </trkpt>
      <trkpt lat="45.69774" lon="5.72447">
        <ele>500</ele>
        <time>2017-05-25T13:41:51Z</time>
      </trkpt>
      <trkpt lat="45.69774" lon="5.72448">
        <ele>500</ele>
        <time>2017-05-25T13:41:51Z</time>
      </trkpt>
      <trkpt lat="45.69773" lon="5.72452">
        <ele>500</ele>
        <time>2017-05-25T13:41:51Z</time>
      </trkpt>
      <trkpt lat="45.69773" lon="5.72455">
        <ele>500</ele>
        <time>2017-05-25T13:42:07Z</time>
      </trkpt>
      <trkpt lat="45.69771" lon="5.72459">
        <ele>497</ele>
        <time>2017-05-25T13:42:07Z</time>
      </trkpt>
      <trkpt lat="45.69769" lon="5.72464">
        <ele>497</ele>
        <time>2017-05-25T13:42:07Z</time>
      </trkpt>
      <trkpt lat="45.69767" lon="5.7247">
        <ele>497</ele>
        <time>2017-05-25T13:42:07Z</time>
      </trkpt>
      <trkpt lat="45.69764" lon="5.72476">
        <ele>497</ele>
        <time>2017-05-25T13:42:23Z</time>
      </trkpt>
      <trkpt lat="45.69762" lon="5.72483">
        <ele>497</ele>
        <time>2017-05-25T13:42:23Z</time>
      </trkpt>
      <trkpt lat="45.69762" lon="5.72486">
        <ele>497</ele>
        <time>2017-05-25T13:42:23Z</time>
      </trkpt>
      <trkpt lat="45.69762" lon="5.7249">
        <ele>497</ele>
        <time>2017-05-25T13:42:23Z</time>
      </trkpt>
      <trkpt lat="45.69761" lon="5.72496">
        <ele>497</ele>
        <time>2017-05-25T13:42:39Z</time>
      </trkpt>
      <trkpt lat="45.6976" lon="5.72504">
        <ele>497</ele>
        <time>2017-05-25T13:42:39Z</time>
      </trkpt>
      <trkpt lat="45.6976" lon="5.72512">
        <ele>497</ele>
        <time>2017-05-25T13:42:39Z</time>
      </trkpt>
      <trkpt lat="45.69761" lon="5.72518">
        <ele>497</ele>
        <time>2017-05-25T13:42:39Z</time>
      </trkpt>
      <trkpt lat="45.69761" lon="5.72525">
        <ele>497</ele>
        <time>2017-05-25T13:42:55Z</time>
      </trkpt>
      <trkpt lat="45.69763" lon="5.7253">
        <ele>497</ele>
        <time>2017-05-25T13:42:55Z</time>
      </trkpt>
      <trkpt lat="45.69764" lon="5.72535">
        <ele>497</ele>
        <time>2017-05-25T13:42:55Z</time>
      </trkpt>
      <trkpt lat="45.69766" lon="5.72539">
        <ele>497</ele>
        <time>2017-05-25T13:42:55Z</time>
      </trkpt>
      <trkpt lat="45.69767" lon="5.72543">
        <ele>489</ele>
        <time>2017-05-25T13:43:15Z</time>
      </trkpt>
      <trkpt lat="45.69766" lon="5.72545">
        <ele>489</ele>
        <time>2017-05-25T13:43:15Z</time>
      </trkpt>
      <trkpt lat="45.69767" lon="5.72546">
        <ele>489</ele>
        <time>2017-05-25T13:43:15Z</time>
      </trkpt>
      <trkpt lat="45.69768" lon="5.7255">
        <ele>489</ele>
        <time>2017-05-25T13:43:15Z</time>
      </trkpt>
      <trkpt lat="45.69768" lon="5.72556">
        <ele>489</ele>
        <time>2017-05-25T13:43:15Z</time>
      </trkpt>
      <trkpt lat="45.69769" lon="5.7256">
        <ele>489</ele>
        <time>2017-05-25T13:43:31Z</time>
      </trkpt>
      <trkpt lat="45.69771" lon="5.72567">
        <ele>489</ele>
        <time>2017-05-25T13:43:31Z</time>
      </trkpt>
      <trkpt lat="45.69773" lon="5.72575">
        <ele>489</ele>
        <time>2017-05-25T13:43:31Z</time>
      </trkpt>
      <trkpt lat="45.69774" lon="5.72581">
        <ele>489</ele>
        <time>2017-05-25T13:43:31Z</time>
      </trkpt>
      <trkpt lat="45.69776" lon="5.72587">
        <ele>489</ele>
        <time>2017-05-25T13:43:47Z</time>
      </trkpt>
      <trkpt lat="45.69777" lon="5.72593">
        <ele>489</ele>
        <time>2017-05-25T13:43:47Z</time>
      </trkpt>
      <trkpt lat="45.69779" lon="5.72602">
        <ele>489</ele>
        <time>2017-05-25T13:43:47Z</time>
      </trkpt>
      <trkpt lat="45.6978" lon="5.72611">
        <ele>489</ele>
        <time>2017-05-25T13:43:47Z</time>
      </trkpt>
      <trkpt lat="45.6978" lon="5.7262">
        <ele>489</ele>
        <time>2017-05-25T13:44:03Z</time>
      </trkpt>
      <trkpt lat="45.69781" lon="5.72629">
        <ele>482</ele>
        <time>2017-05-25T13:44:03Z</time>
      </trkpt>
      <trkpt lat="45.69782" lon="5.72637">
        <ele>482</ele>
        <time>2017-05-25T13:44:03Z</time>
      </trkpt>
      <trkpt lat="45.69784" lon="5.72644">
        <ele>482</ele>
        <time>2017-05-25T13:44:03Z</time>
      </trkpt>
      <trkpt lat="45.69786" lon="5.7265">
        <ele>482</ele>
        <time>2017-05-25T13:44:19Z</time>
      </trkpt>
      <trkpt lat="45.69788" lon="5.72657">
        <ele>482</ele>
        <time>2017-05-25T13:44:19Z</time>
      </trkpt>
      <trkpt lat="45.69789" lon="5.72663">
        <ele>482</ele>
        <time>2017-05-25T13:44:19Z</time>
      </trkpt>
      <trkpt lat="45.69791" lon="5.72668">
        <ele>482</ele>
        <time>2017-05-25T13:44:19Z</time>
      </trkpt>
      <trkpt lat="45.69789" lon="5.72673">
        <ele>482</ele>
        <time>2017-05-25T13:44:35Z</time>
      </trkpt>
      <trkpt lat="45.69787" lon="5.72679">
        <ele>482</ele>
        <time>2017-05-25T13:44:35Z</time>
      </trkpt>
      <trkpt lat="45.69784" lon="5.72685">
        <ele>482</ele>
        <time>2017-05-25T13:44:35Z</time>
      </trkpt>
      <trkpt lat="45.69779" lon="5.72691">
        <ele>482</ele>
        <time>2017-05-25T13:44:35Z</time>
      </trkpt>
      <trkpt lat="45.69776" lon="5.72697">
        <ele>482</ele>
        <time>2017-05-25T13:44:51Z</time>
      </trkpt>
      <trkpt lat="45.69775" lon="5.72703">
        <ele>482</ele>
        <time>2017-05-25T13:44:51Z</time>
      </trkpt>
      <trkpt lat="45.69773" lon="5.72709">
        <ele>476</ele>
        <time>2017-05-25T13:44:51Z</time>
      </trkpt>
      <trkpt lat="45.6977" lon="5.72714">
        <ele>476</ele>
        <time>2017-05-25T13:44:51Z</time>
      </trkpt>
      <trkpt lat="45.69768" lon="5.72721">
        <ele>476</ele>
        <time>2017-05-25T13:45:07Z</time>
      </trkpt>
      <trkpt lat="45.69766" lon="5.72727">
        <ele>476</ele>
        <time>2017-05-25T13:45:07Z</time>
      </trkpt>
      <trkpt lat="45.69764" lon="5.72734">
        <ele>476</ele>
        <time>2017-05-25T13:45:07Z</time>
      </trkpt>
      <trkpt lat="45.69763" lon="5.7274">
        <ele>476</ele>
        <time>2017-05-25T13:45:07Z</time>
      </trkpt>
      <trkpt lat="45.69762" lon="5.72747">
        <ele>476</ele>
        <time>2017-05-25T13:45:23Z</time>
      </trkpt>
      <trkpt lat="45.69762" lon="5.72754">
        <ele>476</ele>
        <time>2017-05-25T13:45:23Z</time>
      </trkpt>
      <trkpt lat="45.69761" lon="5.7276">
        <ele>476</ele>
        <time>2017-05-25T13:45:23Z</time>
      </trkpt>
      <trkpt lat="45.69761" lon="5.72766">
        <ele>476</ele>
        <time>2017-05-25T13:45:23Z</time>
      </trkpt>
      <trkpt lat="45.6976" lon="5.72772">
        <ele>476</ele>
        <time>2017-05-25T13:45:39Z</time>
      </trkpt>
      <trkpt lat="45.69758" lon="5.72779">
        <ele>476</ele>
        <time>2017-05-25T13:45:39Z</time>
      </trkpt>
      <trkpt lat="45.69757" lon="5.72786">
        <ele>476</ele>
        <time>2017-05-25T13:45:39Z</time>
      </trkpt>
      <trkpt lat="45.69754" lon="5.72792">
        <ele>469</ele>
        <time>2017-05-25T13:45:39Z</time>
      </trkpt>
      <trkpt lat="45.69749" lon="5.72807">
        <ele>469</ele>
        <time>2017-05-25T13:46:31Z</time>
      </trkpt>
      <trkpt lat="45.69748" lon="5.72809">
        <ele>469</ele>
        <time>2017-05-25T13:46:31Z</time>
      </trkpt>
      <trkpt lat="45.69743" lon="5.72814">
        <ele>469</ele>
        <time>2017-05-25T13:46:31Z</time>
      </trkpt>
      <trkpt lat="45.69739" lon="5.7282">
        <ele>469</ele>
        <time>2017-05-25T13:46:31Z</time>
      </trkpt>
      <trkpt lat="45.69736" lon="5.72827">
        <ele>469</ele>
        <time>2017-05-25T13:46:31Z</time>
      </trkpt>
      <trkpt lat="45.69734" lon="5.72833">
        <ele>469</ele>
        <time>2017-05-25T13:46:47Z</time>
      </trkpt>
      <trkpt lat="45.69731" lon="5.7284">
        <ele>469</ele>
        <time>2017-05-25T13:46:47Z</time>
      </trkpt>
      <trkpt lat="45.69728" lon="5.72846">
        <ele>469</ele>
        <time>2017-05-25T13:46:47Z</time>
      </trkpt>
      <trkpt lat="45.69724" lon="5.72852">
        <ele>469</ele>
        <time>2017-05-25T13:46:47Z</time>
      </trkpt>
      <trkpt lat="45.69721" lon="5.72859">
        <ele>469</ele>
        <time>2017-05-25T13:47:03Z</time>
      </trkpt>
      <trkpt lat="45.69717" lon="5.72865">
        <ele>469</ele>
        <time>2017-05-25T13:47:03Z</time>
      </trkpt>
      <trkpt lat="45.69712" lon="5.72872">
        <ele>469</ele>
        <time>2017-05-25T13:47:03Z</time>
      </trkpt>
      <trkpt lat="45.69707" lon="5.72878">
        <ele>451</ele>
        <time>2017-05-25T13:47:03Z</time>
      </trkpt>
      <trkpt lat="45.69702" lon="5.72883">
        <ele>451</ele>
        <time>2017-05-25T13:47:19Z</time>
      </trkpt>
      <trkpt lat="45.69699" lon="5.72889">
        <ele>451</ele>
        <time>2017-05-25T13:47:19Z</time>
      </trkpt>
      <trkpt lat="45.69699" lon="5.72896">
        <ele>451</ele>
        <time>2017-05-25T13:47:19Z</time>
      </trkpt>
      <trkpt lat="45.69702" lon="5.72899">
        <ele>451</ele>
        <time>2017-05-25T13:47:19Z</time>
      </trkpt>
      <trkpt lat="45.69706" lon="5.72902">
        <ele>451</ele>
        <time>2017-05-25T13:47:35Z</time>
      </trkpt>
      <trkpt lat="45.6971" lon="5.72905">
        <ele>461</ele>
        <time>2017-05-25T13:47:35Z</time>
      </trkpt>
      <trkpt lat="45.69714" lon="5.7291">
        <ele>461</ele>
        <time>2017-05-25T13:47:35Z</time>
      </trkpt>
      <trkpt lat="45.69717" lon="5.72916">
        <ele>461</ele>
        <time>2017-05-25T13:47:35Z</time>
      </trkpt>
      <trkpt lat="45.69717" lon="5.72923">
        <ele>461</ele>
        <time>2017-05-25T13:47:51Z</time>
      </trkpt>
      <trkpt lat="45.69718" lon="5.72929">
        <ele>461</ele>
        <time>2017-05-25T13:47:51Z</time>
      </trkpt>
      <trkpt lat="45.69718" lon="5.72935">
        <ele>461</ele>
        <time>2017-05-25T13:47:51Z</time>
      </trkpt>
      <trkpt lat="45.69718" lon="5.72944">
        <ele>461</ele>
        <time>2017-05-25T13:47:51Z</time>
      </trkpt>
      <trkpt lat="45.69718" lon="5.72952">
        <ele>461</ele>
        <time>2017-05-25T13:48:07Z</time>
      </trkpt>
      <trkpt lat="45.69718" lon="5.72959">
        <ele>453</ele>
        <time>2017-05-25T13:48:07Z</time>
      </trkpt>
      <trkpt lat="45.69719" lon="5.72966">
        <ele>453</ele>
        <time>2017-05-25T13:48:07Z</time>
      </trkpt>
      <trkpt lat="45.6972" lon="5.72973">
        <ele>453</ele>
        <time>2017-05-25T13:48:07Z</time>
      </trkpt>
      <trkpt lat="45.69721" lon="5.72981">
        <ele>453</ele>
        <time>2017-05-25T13:48:23Z</time>
      </trkpt>
      <trkpt lat="45.69722" lon="5.7299">
        <ele>453</ele>
        <time>2017-05-25T13:48:23Z</time>
      </trkpt>
      <trkpt lat="45.69725" lon="5.72996">
        <ele>453</ele>
        <time>2017-05-25T13:48:23Z</time>
      </trkpt>
      <trkpt lat="45.69729" lon="5.73001">
        <ele>453</ele>
        <time>2017-05-25T13:48:23Z</time>
      </trkpt>
      <trkpt lat="45.69733" lon="5.73006">
        <ele>453</ele>
        <time>2017-05-25T13:48:39Z</time>
      </trkpt>
      <trkpt lat="45.69738" lon="5.73009">
        <ele>453</ele>
        <time>2017-05-25T13:48:39Z</time>
      </trkpt>
      <trkpt lat="45.69741" lon="5.7301">
        <ele>453</ele>
        <time>2017-05-25T13:48:39Z</time>
      </trkpt>
      <trkpt lat="45.69744" lon="5.73011">
        <ele>453</ele>
        <time>2017-05-25T13:48:39Z</time>
      </trkpt>
      <trkpt lat="45.69745" lon="5.73011">
        <ele>453</ele>
        <time>2017-05-25T13:48:55Z</time>
      </trkpt>
      <trkpt lat="45.69748" lon="5.73011">
        <ele>453</ele>
        <time>2017-05-25T13:48:55Z</time>
      </trkpt>
      <trkpt lat="45.69751" lon="5.73012">
        <ele>453</ele>
        <time>2017-05-25T13:48:55Z</time>
      </trkpt>
      <trkpt lat="45.69757" lon="5.73013">
        <ele>453</ele>
        <time>2017-05-25T13:48:55Z</time>
      </trkpt>
      <trkpt lat="45.69762" lon="5.73013">
        <ele>453</ele>
        <time>2017-05-25T13:49:11Z</time>
      </trkpt>
      <trkpt lat="45.69766" lon="5.73014">
        <ele>453</ele>
        <time>2017-05-25T13:49:11Z</time>
      </trkpt>
      <trkpt lat="45.69768" lon="5.73014">
        <ele>453</ele>
        <time>2017-05-25T13:49:11Z</time>
      </trkpt>
      <trkpt lat="45.69772" lon="5.73016">
        <ele>453</ele>
        <time>2017-05-25T13:49:11Z</time>
      </trkpt>
      <trkpt lat="45.69775" lon="5.73022">
        <ele>453</ele>
        <time>2017-05-25T13:49:27Z</time>
      </trkpt>
      <trkpt lat="45.69776" lon="5.73029">
        <ele>453</ele>
        <time>2017-05-25T13:49:27Z</time>
      </trkpt>
      <trkpt lat="45.69777" lon="5.73036">
        <ele>453</ele>
        <time>2017-05-25T13:49:27Z</time>
      </trkpt>
      <trkpt lat="45.69778" lon="5.73044">
        <ele>442</ele>
        <time>2017-05-25T13:49:27Z</time>
      </trkpt>
      <trkpt lat="45.69778" lon="5.73052">
        <ele>442</ele>
        <time>2017-05-25T13:49:43Z</time>
      </trkpt>
      <trkpt lat="45.69778" lon="5.7306">
        <ele>442</ele>
        <time>2017-05-25T13:49:43Z</time>
      </trkpt>
      <trkpt lat="45.69778" lon="5.73068">
        <ele>442</ele>
        <time>2017-05-25T13:49:43Z</time>
      </trkpt>
      <trkpt lat="45.69777" lon="5.73076">
        <ele>442</ele>
        <time>2017-05-25T13:49:43Z</time>
      </trkpt>
      <trkpt lat="45.69778" lon="5.73083">
        <ele>442</ele>
        <time>2017-05-25T13:49:59Z</time>
      </trkpt>
      <trkpt lat="45.69778" lon="5.73085">
        <ele>442</ele>
        <time>2017-05-25T13:49:59Z</time>
      </trkpt>
      <trkpt lat="45.6978" lon="5.73092">
        <ele>442</ele>
        <time>2017-05-25T13:49:59Z</time>
      </trkpt>
      <trkpt lat="45.69781" lon="5.73099">
        <ele>442</ele>
        <time>2017-05-25T13:49:59Z</time>
      </trkpt>
      <trkpt lat="45.69782" lon="5.73107">
        <ele>442</ele>
        <time>2017-05-25T13:50:15Z</time>
      </trkpt>
      <trkpt lat="45.69784" lon="5.73114">
        <ele>442</ele>
        <time>2017-05-25T13:50:15Z</time>
      </trkpt>
      <trkpt lat="45.69787" lon="5.7312">
        <ele>442</ele>
        <time>2017-05-25T13:50:15Z</time>
      </trkpt>
      <trkpt lat="45.69788" lon="5.73127">
        <ele>431</ele>
        <time>2017-05-25T13:50:15Z</time>
      </trkpt>
      <trkpt lat="45.69791" lon="5.73134">
        <ele>431</ele>
        <time>2017-05-25T13:50:31Z</time>
      </trkpt>
      <trkpt lat="45.69793" lon="5.73143">
        <ele>441</ele>
        <time>2017-05-25T13:50:31Z</time>
      </trkpt>
      <trkpt lat="45.69792" lon="5.73151">
        <ele>441</ele>
        <time>2017-05-25T13:50:31Z</time>
      </trkpt>
      <trkpt lat="45.69791" lon="5.73158">
        <ele>431</ele>
        <time>2017-05-25T13:50:31Z</time>
      </trkpt>
      <trkpt lat="45.69789" lon="5.73165">
        <ele>431</ele>
        <time>2017-05-25T13:50:47Z</time>
      </trkpt>
      <trkpt lat="45.69787" lon="5.73171">
        <ele>431</ele>
        <time>2017-05-25T13:50:47Z</time>
      </trkpt>
      <trkpt lat="45.69784" lon="5.73176">
        <ele>431</ele>
        <time>2017-05-25T13:50:47Z</time>
      </trkpt>
      <trkpt lat="45.69781" lon="5.73181">
        <ele>431</ele>
        <time>2017-05-25T13:50:47Z</time>
      </trkpt>
      <trkpt lat="45.69778" lon="5.73187">
        <ele>431</ele>
        <time>2017-05-25T13:51:03Z</time>
      </trkpt>
      <trkpt lat="45.69774" lon="5.73192">
        <ele>431</ele>
        <time>2017-05-25T13:51:03Z</time>
      </trkpt>
      <trkpt lat="45.6977" lon="5.73198">
        <ele>431</ele>
        <time>2017-05-25T13:51:03Z</time>
      </trkpt>
      <trkpt lat="45.69767" lon="5.73204">
        <ele>431</ele>
        <time>2017-05-25T13:51:03Z</time>
      </trkpt>
      <trkpt lat="45.69765" lon="5.73208">
        <ele>431</ele>
        <time>2017-05-25T13:51:19Z</time>
      </trkpt>
      <trkpt lat="45.69763" lon="5.73215">
        <ele>424</ele>
        <time>2017-05-25T13:51:19Z</time>
      </trkpt>
      <trkpt lat="45.6976" lon="5.73221">
        <ele>424</ele>
        <time>2017-05-25T13:51:19Z</time>
      </trkpt>
      <trkpt lat="45.69757" lon="5.73227">
        <ele>424</ele>
        <time>2017-05-25T13:51:19Z</time>
      </trkpt>
      <trkpt lat="45.69754" lon="5.73232">
        <ele>424</ele>
        <time>2017-05-25T13:51:35Z</time>
      </trkpt>
      <trkpt lat="45.69751" lon="5.73238">
        <ele>424</ele>
        <time>2017-05-25T13:51:35Z</time>
      </trkpt>
      <trkpt lat="45.6975" lon="5.73245">
        <ele>424</ele>
        <time>2017-05-25T13:51:35Z</time>
      </trkpt>
      <trkpt lat="45.6975" lon="5.73253">
        <ele>424</ele>
        <time>2017-05-25T13:51:35Z</time>
      </trkpt>
      <trkpt lat="45.69749" lon="5.7326">
        <ele>424</ele>
        <time>2017-05-25T13:51:51Z</time>
      </trkpt>
      <trkpt lat="45.69749" lon="5.73267">
        <ele>424</ele>
        <time>2017-05-25T13:51:51Z</time>
      </trkpt>
      <trkpt lat="45.69749" lon="5.73274">
        <ele>424</ele>
        <time>2017-05-25T13:51:51Z</time>
      </trkpt>
      <trkpt lat="45.6975" lon="5.73279">
        <ele>424</ele>
        <time>2017-05-25T13:51:51Z</time>
      </trkpt>
      <trkpt lat="45.6975" lon="5.73283">
        <ele>424</ele>
        <time>2017-05-25T13:52:07Z</time>
      </trkpt>
      <trkpt lat="45.69751" lon="5.73288">
        <ele>424</ele>
        <time>2017-05-25T13:52:07Z</time>
      </trkpt>
      <trkpt lat="45.69752" lon="5.73292">
        <ele>413</ele>
        <time>2017-05-25T13:52:07Z</time>
      </trkpt>
      <trkpt lat="45.69752" lon="5.733">
        <ele>413</ele>
        <time>2017-05-25T13:52:07Z</time>
      </trkpt>
      <trkpt lat="45.69753" lon="5.73307">
        <ele>413</ele>
        <time>2017-05-25T13:52:23Z</time>
      </trkpt>
      <trkpt lat="45.69751" lon="5.73315">
        <ele>413</ele>
        <time>2017-05-25T13:52:23Z</time>
      </trkpt>
      <trkpt lat="45.69749" lon="5.73322">
        <ele>413</ele>
        <time>2017-05-25T13:52:23Z</time>
      </trkpt>
      <trkpt lat="45.69747" lon="5.73327">
        <ele>413</ele>
        <time>2017-05-25T13:52:23Z</time>
      </trkpt>
      <trkpt lat="45.69744" lon="5.73332">
        <ele>413</ele>
        <time>2017-05-25T13:52:39Z</time>
      </trkpt>
      <trkpt lat="45.69743" lon="5.73337">
        <ele>413</ele>
        <time>2017-05-25T13:52:39Z</time>
      </trkpt>
      <trkpt lat="45.69742" lon="5.73343">
        <ele>413</ele>
        <time>2017-05-25T13:52:39Z</time>
      </trkpt>
      <trkpt lat="45.69741" lon="5.73348">
        <ele>413</ele>
        <time>2017-05-25T13:52:39Z</time>
      </trkpt>
      <trkpt lat="45.69741" lon="5.73347">
        <ele>413</ele>
        <time>2017-05-25T13:52:55Z</time>
      </trkpt>
      <trkpt lat="45.6974" lon="5.73349">
        <ele>413</ele>
        <time>2017-05-25T13:52:55Z</time>
      </trkpt>
      <trkpt lat="45.69739" lon="5.73355">
        <ele>413</ele>
        <time>2017-05-25T13:52:55Z</time>
      </trkpt>
      <trkpt lat="45.69738" lon="5.73361">
        <ele>413</ele>
        <time>2017-05-25T13:52:55Z</time>
      </trkpt>
      <trkpt lat="45.69737" lon="5.73367">
        <ele>413</ele>
        <time>2017-05-25T13:53:11Z</time>
      </trkpt>
      <trkpt lat="45.69735" lon="5.73373">
        <ele>413</ele>
        <time>2017-05-25T13:53:11Z</time>
      </trkpt>
      <trkpt lat="45.69733" lon="5.73378">
        <ele>401</ele>
        <time>2017-05-25T13:53:11Z</time>
      </trkpt>
      <trkpt lat="45.69731" lon="5.73383">
        <ele>401</ele>
        <time>2017-05-25T13:53:11Z</time>
      </trkpt>
      <trkpt lat="45.6973" lon="5.73387">
        <ele>401</ele>
        <time>2017-05-25T13:53:27Z</time>
      </trkpt>
      <trkpt lat="45.69728" lon="5.73392">
        <ele>401</ele>
        <time>2017-05-25T13:53:27Z</time>
      </trkpt>
      <trkpt lat="45.69726" lon="5.73396">
        <ele>401</ele>
        <time>2017-05-25T13:53:27Z</time>
      </trkpt>
      <trkpt lat="45.69722" lon="5.73401">
        <ele>401</ele>
        <time>2017-05-25T13:53:27Z</time>
      </trkpt>
      <trkpt lat="45.6972" lon="5.73406">
        <ele>401</ele>
        <time>2017-05-25T13:53:43Z</time>
      </trkpt>
      <trkpt lat="45.69717" lon="5.73412">
        <ele>401</ele>
        <time>2017-05-25T13:53:43Z</time>
      </trkpt>
      <trkpt lat="45.69715" lon="5.73416">
        <ele>401</ele>
        <time>2017-05-25T13:53:43Z</time>
      </trkpt>
      <trkpt lat="45.69712" lon="5.73422">
        <ele>401</ele>
        <time>2017-05-25T13:53:43Z</time>
      </trkpt>
      <trkpt lat="45.69708" lon="5.73427">
        <ele>396</ele>
        <time>2017-05-25T13:53:59Z</time>
      </trkpt>
      <trkpt lat="45.69704" lon="5.73432">
        <ele>396</ele>
        <time>2017-05-25T13:53:59Z</time>
      </trkpt>
      <trkpt lat="45.69701" lon="5.73437">
        <ele>396</ele>
        <time>2017-05-25T13:53:59Z</time>
      </trkpt>
      <trkpt lat="45.69698" lon="5.73443">
        <ele>396</ele>
        <time>2017-05-25T13:53:59Z</time>
      </trkpt>
      <trkpt lat="45.69697" lon="5.73447">
        <ele>396</ele>
        <time>2017-05-25T13:54:19Z</time>
      </trkpt>
      <trkpt lat="45.69696" lon="5.7345">
        <ele>396</ele>
        <time>2017-05-25T13:54:19Z</time>
      </trkpt>
      <trkpt lat="45.69698" lon="5.73454">
        <ele>396</ele>
        <time>2017-05-25T13:54:19Z</time>
      </trkpt>
      <trkpt lat="45.697" lon="5.73457">
        <ele>396</ele>
        <time>2017-05-25T13:54:19Z</time>
      </trkpt>
      <trkpt lat="45.69704" lon="5.73459">
        <ele>388</ele>
        <time>2017-05-25T13:54:19Z</time>
      </trkpt>
      <trkpt lat="45.69707" lon="5.73461">
        <ele>388</ele>
        <time>2017-05-25T13:54:35Z</time>
      </trkpt>
      <trkpt lat="45.6971" lon="5.73465">
        <ele>395</ele>
        <time>2017-05-25T13:54:35Z</time>
      </trkpt>
      <trkpt lat="45.69712" lon="5.73469">
        <ele>395</ele>
        <time>2017-05-25T13:54:35Z</time>
      </trkpt>
      <trkpt lat="45.69715" lon="5.73471">
        <ele>395</ele>
        <time>2017-05-25T13:54:35Z</time>
      </trkpt>
      <trkpt lat="45.69716" lon="5.73476">
        <ele>395</ele>
        <time>2017-05-25T13:54:51Z</time>
      </trkpt>
      <trkpt lat="45.69716" lon="5.73482">
        <ele>395</ele>
        <time>2017-05-25T13:54:51Z</time>
      </trkpt>
      <trkpt lat="45.69717" lon="5.73487">
        <ele>395</ele>
        <time>2017-05-25T13:54:51Z</time>
      </trkpt>
      <trkpt lat="45.69717" lon="5.73494">
        <ele>395</ele>
        <time>2017-05-25T13:54:51Z</time>
      </trkpt>
      <trkpt lat="45.69715" lon="5.73501">
        <ele>395</ele>
        <time>2017-05-25T13:55:07Z</time>
      </trkpt>
      <trkpt lat="45.69713" lon="5.73509">
        <ele>395</ele>
        <time>2017-05-25T13:55:07Z</time>
      </trkpt>
      <trkpt lat="45.69712" lon="5.73517">
        <ele>395</ele>
        <time>2017-05-25T13:55:07Z</time>
      </trkpt>
      <trkpt lat="45.69711" lon="5.73524">
        <ele>395</ele>
        <time>2017-05-25T13:55:07Z</time>
      </trkpt>
      <trkpt lat="45.69712" lon="5.73531">
        <ele>395</ele>
        <time>2017-05-25T13:55:23Z</time>
      </trkpt>
      <trkpt lat="45.69714" lon="5.73538">
        <ele>395</ele>
        <time>2017-05-25T13:55:23Z</time>
      </trkpt>
      <trkpt lat="45.69715" lon="5.73545">
        <ele>392</ele>
        <time>2017-05-25T13:55:23Z</time>
      </trkpt>
      <trkpt lat="45.69718" lon="5.73551">
        <ele>392</ele>
        <time>2017-05-25T13:55:23Z</time>
      </trkpt>
      <trkpt lat="45.6972" lon="5.73557">
        <ele>392</ele>
        <time>2017-05-25T13:55:39Z</time>
      </trkpt>
      <trkpt lat="45.69721" lon="5.73564">
        <ele>392</ele>
        <time>2017-05-25T13:55:39Z</time>
      </trkpt>
      <trkpt lat="45.69722" lon="5.7357">
        <ele>392</ele>
        <time>2017-05-25T13:55:39Z</time>
      </trkpt>
      <trkpt lat="45.69723" lon="5.73577">
        <ele>392</ele>
        <time>2017-05-25T13:55:39Z</time>
      </trkpt>
      <trkpt lat="45.69724" lon="5.73583">
        <ele>392</ele>
        <time>2017-05-25T13:55:55Z</time>
      </trkpt>
      <trkpt lat="45.69726" lon="5.7359">
        <ele>392</ele>
        <time>2017-05-25T13:55:55Z</time>
      </trkpt>
      <trkpt lat="45.69726" lon="5.73598">
        <ele>392</ele>
        <time>2017-05-25T13:55:55Z</time>
      </trkpt>
      <trkpt lat="45.69728" lon="5.73604">
        <ele>392</ele>
        <time>2017-05-25T13:55:55Z</time>
      </trkpt>
      <trkpt lat="45.69728" lon="5.73611">
        <ele>392</ele>
        <time>2017-05-25T13:56:11Z</time>
      </trkpt>
      <trkpt lat="45.69726" lon="5.7362">
        <ele>392</ele>
        <time>2017-05-25T13:56:11Z</time>
      </trkpt>
      <trkpt lat="45.69724" lon="5.73628">
        <ele>390</ele>
        <time>2017-05-25T13:56:11Z</time>
      </trkpt>
      <trkpt lat="45.69723" lon="5.73636">
        <ele>390</ele>
        <time>2017-05-25T13:56:11Z</time>
      </trkpt>
      <trkpt lat="45.69722" lon="5.73644">
        <ele>390</ele>
        <time>2017-05-25T13:56:27Z</time>
      </trkpt>
      <trkpt lat="45.6972" lon="5.73651">
        <ele>390</ele>
        <time>2017-05-25T13:56:27Z</time>
      </trkpt>
      <trkpt lat="45.69718" lon="5.73658">
        <ele>390</ele>
        <time>2017-05-25T13:56:27Z</time>
      </trkpt>
      <trkpt lat="45.69717" lon="5.73665">
        <ele>390</ele>
        <time>2017-05-25T13:56:27Z</time>
      </trkpt>
      <trkpt lat="45.69716" lon="5.73672">
        <ele>390</ele>
        <time>2017-05-25T13:56:43Z</time>
      </trkpt>
      <trkpt lat="45.69715" lon="5.73679">
        <ele>390</ele>
        <time>2017-05-25T13:56:43Z</time>
      </trkpt>
      <trkpt lat="45.69713" lon="5.73685">
        <ele>390</ele>
        <time>2017-05-25T13:56:43Z</time>
      </trkpt>
      <trkpt lat="45.69711" lon="5.73691">
        <ele>390</ele>
        <time>2017-05-25T13:56:43Z</time>
      </trkpt>
      <trkpt lat="45.6971" lon="5.73697">
        <ele>390</ele>
        <time>2017-05-25T13:56:59Z</time>
      </trkpt>
      <trkpt lat="45.69709" lon="5.73705">
        <ele>390</ele>
        <time>2017-05-25T13:56:59Z</time>
      </trkpt>
      <trkpt lat="45.69709" lon="5.73713">
        <ele>389</ele>
        <time>2017-05-25T13:56:59Z</time>
      </trkpt>
      <trkpt lat="45.69707" lon="5.7372">
        <ele>390</ele>
        <time>2017-05-25T13:56:59Z</time>
      </trkpt>
      <trkpt lat="45.69709" lon="5.73733">
        <ele>389</ele>
        <time>2017-05-25T13:58:15Z</time>
      </trkpt>
      <trkpt lat="45.6971" lon="5.73733">
        <ele>389</ele>
        <time>2017-05-25T13:58:15Z</time>
      </trkpt>
      <trkpt lat="45.69711" lon="5.73732">
        <ele>389</ele>
        <time>2017-05-25T13:58:15Z</time>
      </trkpt>
      <trkpt lat="45.69714" lon="5.73731">
        <ele>389</ele>
        <time>2017-05-25T13:58:15Z</time>
      </trkpt>
      <trkpt lat="45.69718" lon="5.73727">
        <ele>389</ele>
        <time>2017-05-25T13:58:15Z</time>
      </trkpt>
      <trkpt lat="45.69726" lon="5.7372">
        <ele>389</ele>
        <time>2017-05-25T13:58:55Z</time>
      </trkpt>
      <trkpt lat="45.69727" lon="5.7372">
        <ele>389</ele>
        <time>2017-05-25T13:58:55Z</time>
      </trkpt>
      <trkpt lat="45.69727" lon="5.7372">
        <ele>389</ele>
        <time>2017-05-25T13:58:55Z</time>
      </trkpt>
      <trkpt lat="45.6973" lon="5.73719">
        <ele>389</ele>
        <time>2017-05-25T13:58:55Z</time>
      </trkpt>
      <trkpt lat="45.69735" lon="5.73719">
        <ele>389</ele>
        <time>2017-05-25T13:58:55Z</time>
      </trkpt>
      <trkpt lat="45.69742" lon="5.73717">
        <ele>389</ele>
        <time>2017-05-25T13:59:11Z</time>
      </trkpt>
      <trkpt lat="45.69748" lon="5.73716">
        <ele>389</ele>
        <time>2017-05-25T13:59:11Z</time>
      </trkpt>
      <trkpt lat="45.69754" lon="5.73715">
        <ele>389</ele>
        <time>2017-05-25T13:59:11Z</time>
      </trkpt>
      <trkpt lat="45.69758" lon="5.73713">
        <ele>389</ele>
        <time>2017-05-25T13:59:11Z</time>
      </trkpt>
      <trkpt lat="45.69764" lon="5.73709">
        <ele>389</ele>
        <time>2017-05-25T13:59:27Z</time>
      </trkpt>
      <trkpt lat="45.6977" lon="5.73706">
        <ele>390</ele>
        <time>2017-05-25T13:59:27Z</time>
      </trkpt>
      <trkpt lat="45.69777" lon="5.73704">
        <ele>390</ele>
        <time>2017-05-25T13:59:27Z</time>
      </trkpt>
      <trkpt lat="45.69785" lon="5.73703">
        <ele>390</ele>
        <time>2017-05-25T13:59:27Z</time>
      </trkpt>
      <trkpt lat="45.6979" lon="5.73705">
        <ele>390</ele>
        <time>2017-05-25T13:59:43Z</time>
      </trkpt>
      <trkpt lat="45.69794" lon="5.73707">
        <ele>390</ele>
        <time>2017-05-25T13:59:43Z</time>
      </trkpt>
      <trkpt lat="45.698" lon="5.73709">
        <ele>383</ele>
        <time>2017-05-25T13:59:43Z</time>
      </trkpt>
      <trkpt lat="45.69802" lon="5.73709">
        <ele>383</ele>
        <time>2017-05-25T13:59:43Z</time>
      </trkpt>
      <trkpt lat="45.69808" lon="5.7371">
        <ele>383</ele>
        <time>2017-05-25T13:59:59Z</time>
      </trkpt>
      <trkpt lat="45.69814" lon="5.7371">
        <ele>383</ele>
        <time>2017-05-25T13:59:59Z</time>
      </trkpt>
      <trkpt lat="45.69821" lon="5.73711">
        <ele>383</ele>
        <time>2017-05-25T13:59:59Z</time>
      </trkpt>
      <trkpt lat="45.69829" lon="5.73712">
        <ele>383</ele>
        <time>2017-05-25T13:59:59Z</time>
      </trkpt>
      <trkpt lat="45.69832" lon="5.73712">
        <ele>383</ele>
        <time>2017-05-25T14:00:15Z</time>
      </trkpt>
      <trkpt lat="45.69838" lon="5.73711">
        <ele>383</ele>
        <time>2017-05-25T14:00:15Z</time>
      </trkpt>
      <trkpt lat="45.69843" lon="5.73711">
        <ele>383</ele>
        <time>2017-05-25T14:00:15Z</time>
      </trkpt>
      <trkpt lat="45.6985" lon="5.73711">
        <ele>383</ele>
        <time>2017-05-25T14:00:15Z</time>
      </trkpt>
      <trkpt lat="45.69856" lon="5.73712">
        <ele>383</ele>
        <time>2017-05-25T14:00:31Z</time>
      </trkpt>
      <trkpt lat="45.69861" lon="5.73711">
        <ele>383</ele>
        <time>2017-05-25T14:00:31Z</time>
      </trkpt>
      <trkpt lat="45.69866" lon="5.7371">
        <ele>383</ele>
        <time>2017-05-25T14:00:31Z</time>
      </trkpt>
      <trkpt lat="45.69871" lon="5.73708">
        <ele>390</ele>
        <time>2017-05-25T14:00:31Z</time>
      </trkpt>
      <trkpt lat="45.69877" lon="5.73706">
        <ele>383</ele>
        <time>2017-05-25T14:00:47Z</time>
      </trkpt>
      <trkpt lat="45.69884" lon="5.73705">
        <ele>383</ele>
        <time>2017-05-25T14:00:47Z</time>
      </trkpt>
      <trkpt lat="45.69891" lon="5.73704">
        <ele>383</ele>
        <time>2017-05-25T14:00:47Z</time>
      </trkpt>
      <trkpt lat="45.699" lon="5.73702">
        <ele>383</ele>
        <time>2017-05-25T14:00:47Z</time>
      </trkpt>
      <trkpt lat="45.69905" lon="5.73701">
        <ele>383</ele>
        <time>2017-05-25T14:01:03Z</time>
      </trkpt>
      <trkpt lat="45.6991" lon="5.73701">
        <ele>383</ele>
        <time>2017-05-25T14:01:03Z</time>
      </trkpt>
      <trkpt lat="45.69915" lon="5.73703">
        <ele>383</ele>
        <time>2017-05-25T14:01:03Z</time>
      </trkpt>
      <trkpt lat="45.6992" lon="5.73707">
        <ele>383</ele>
        <time>2017-05-25T14:01:03Z</time>
      </trkpt>
      <trkpt lat="45.69925" lon="5.73711">
        <ele>375</ele>
        <time>2017-05-25T14:01:19Z</time>
      </trkpt>
      <trkpt lat="45.6993" lon="5.73718">
        <ele>375</ele>
        <time>2017-05-25T14:01:19Z</time>
      </trkpt>
      <trkpt lat="45.69934" lon="5.73726">
        <ele>375</ele>
        <time>2017-05-25T14:01:19Z</time>
      </trkpt>
      <trkpt lat="45.69937" lon="5.73733">
        <ele>375</ele>
        <time>2017-05-25T14:01:19Z</time>
      </trkpt>
      <trkpt lat="45.69939" lon="5.73739">
        <ele>375</ele>
        <time>2017-05-25T14:01:35Z</time>
      </trkpt>
      <trkpt lat="45.69942" lon="5.73744">
        <ele>375</ele>
        <time>2017-05-25T14:01:35Z</time>
      </trkpt>
      <trkpt lat="45.69944" lon="5.73748">
        <ele>375</ele>
        <time>2017-05-25T14:01:35Z</time>
      </trkpt>
      <trkpt lat="45.6995" lon="5.73753">
        <ele>375</ele>
        <time>2017-05-25T14:01:35Z</time>
      </trkpt>
      <trkpt lat="45.69954" lon="5.73758">
        <ele>375</ele>
        <time>2017-05-25T14:01:55Z</time>
      </trkpt>
      <trkpt lat="45.69957" lon="5.73762">
        <ele>375</ele>
        <time>2017-05-25T14:01:55Z</time>
      </trkpt>
      <trkpt lat="45.6996" lon="5.73766">
        <ele>374</ele>
        <time>2017-05-25T14:01:55Z</time>
      </trkpt>
      <trkpt lat="45.6996" lon="5.73767">
        <ele>374</ele>
        <time>2017-05-25T14:01:55Z</time>
      </trkpt>
      <trkpt lat="45.69961" lon="5.73769">
        <ele>374</ele>
        <time>2017-05-25T14:01:55Z</time>
      </trkpt>
      <trkpt lat="45.69962" lon="5.73769">
        <ele>374</ele>
        <time>2017-05-25T14:02:11Z</time>
      </trkpt>
      <trkpt lat="45.69966" lon="5.73771">
        <ele>374</ele>
        <time>2017-05-25T14:02:11Z</time>
      </trkpt>
      <trkpt lat="45.6997" lon="5.73771">
        <ele>374</ele>
        <time>2017-05-25T14:02:11Z</time>
      </trkpt>
      <trkpt lat="45.69975" lon="5.73768">
        <ele>374</ele>
        <time>2017-05-25T14:02:11Z</time>
      </trkpt>
      <trkpt lat="45.69979" lon="5.73764">
        <ele>374</ele>
        <time>2017-05-25T14:02:27Z</time>
      </trkpt>
      <trkpt lat="45.69984" lon="5.73762">
        <ele>374</ele>
        <time>2017-05-25T14:02:27Z</time>
      </trkpt>
      <trkpt lat="45.69988" lon="5.7376">
        <ele>374</ele>
        <time>2017-05-25T14:02:27Z</time>
      </trkpt>
      <trkpt lat="45.69993" lon="5.73759">
        <ele>374</ele>
        <time>2017-05-25T14:02:27Z</time>
      </trkpt>
      <trkpt lat="45.69998" lon="5.73759">
        <ele>374</ele>
        <time>2017-05-25T14:02:43Z</time>
      </trkpt>
      <trkpt lat="45.70002" lon="5.73759">
        <ele>374</ele>
        <time>2017-05-25T14:02:43Z</time>
      </trkpt>
      <trkpt lat="45.70009" lon="5.73761">
        <ele>374</ele>
        <time>2017-05-25T14:02:43Z</time>
      </trkpt>
      <trkpt lat="45.70019" lon="5.73764">
        <ele>374</ele>
        <time>2017-05-25T14:02:43Z</time>
      </trkpt>
      <trkpt lat="45.70023" lon="5.73763">
        <ele>374</ele>
        <time>2017-05-25T14:02:59Z</time>
      </trkpt>
      <trkpt lat="45.70026" lon="5.73766">
        <ele>374</ele>
        <time>2017-05-25T14:02:59Z</time>
      </trkpt>
      <trkpt lat="45.70029" lon="5.73768">
        <ele>374</ele>
        <time>2017-05-25T14:02:59Z</time>
      </trkpt>
      <trkpt lat="45.70033" lon="5.73772">
        <ele>374</ele>
        <time>2017-05-25T14:02:59Z</time>
      </trkpt>
      <trkpt lat="45.70037" lon="5.73775">
        <ele>374</ele>
        <time>2017-05-25T14:03:15Z</time>
      </trkpt>
      <trkpt lat="45.70042" lon="5.73778">
        <ele>370</ele>
        <time>2017-05-25T14:03:15Z</time>
      </trkpt>
      <trkpt lat="45.70048" lon="5.73781">
        <ele>370</ele>
        <time>2017-05-25T14:03:15Z</time>
      </trkpt>
      <trkpt lat="45.70053" lon="5.73785">
        <ele>370</ele>
        <time>2017-05-25T14:03:15Z</time>
      </trkpt>
      <trkpt lat="45.70056" lon="5.73788">
        <ele>370</ele>
        <time>2017-05-25T14:03:31Z</time>
      </trkpt>
      <trkpt lat="45.70059" lon="5.7379">
        <ele>370</ele>
        <time>2017-05-25T14:03:31Z</time>
      </trkpt>
      <trkpt lat="45.70061" lon="5.73793">
        <ele>368</ele>
        <time>2017-05-25T14:03:31Z</time>
      </trkpt>
      <trkpt lat="45.70064" lon="5.73794">
        <ele>368</ele>
        <time>2017-05-25T14:03:31Z</time>
      </trkpt>
      <trkpt lat="45.70067" lon="5.73796">
        <ele>368</ele>
        <time>2017-05-25T14:04:03Z</time>
      </trkpt>
      <trkpt lat="45.70067" lon="5.73796">
        <ele>368</ele>
        <time>2017-05-25T14:04:03Z</time>
      </trkpt>
      <trkpt lat="45.70068" lon="5.73797">
        <ele>368</ele>
        <time>2017-05-25T14:04:03Z</time>
      </trkpt>
      <trkpt lat="45.7007" lon="5.738">
        <ele>368</ele>
        <time>2017-05-25T14:04:03Z</time>
      </trkpt>
      <trkpt lat="45.70074" lon="5.73804">
        <ele>368</ele>
        <time>2017-05-25T14:04:03Z</time>
      </trkpt>
      <trkpt lat="45.7008" lon="5.7381">
        <ele>368</ele>
        <time>2017-05-25T14:04:19Z</time>
      </trkpt>
      <trkpt lat="45.70084" lon="5.73814">
        <ele>368</ele>
        <time>2017-05-25T14:04:19Z</time>
      </trkpt>
      <trkpt lat="45.70087" lon="5.73819">
        <ele>368</ele>
        <time>2017-05-25T14:04:19Z</time>
      </trkpt>
      <trkpt lat="45.70089" lon="5.73821">
        <ele>368</ele>
        <time>2017-05-25T14:04:19Z</time>
      </trkpt>
      <trkpt lat="45.7009" lon="5.73822">
        <ele>368</ele>
        <time>2017-05-25T14:04:39Z</time>
      </trkpt>
      <trkpt lat="45.7009" lon="5.73822">
        <ele>368</ele>
        <time>2017-05-25T14:04:39Z</time>
      </trkpt>
      <trkpt lat="45.70092" lon="5.73824">
        <ele>368</ele>
        <time>2017-05-25T14:04:39Z</time>
      </trkpt>
      <trkpt lat="45.70095" lon="5.73827">
        <ele>368</ele>
        <time>2017-05-25T14:04:39Z</time>
      </trkpt>
      <trkpt lat="45.70098" lon="5.73832">
        <ele>368</ele>
        <time>2017-05-25T14:04:39Z</time>
      </trkpt>
      <trkpt lat="45.701" lon="5.73839">
        <ele>368</ele>
        <time>2017-05-25T14:04:55Z</time>
      </trkpt>
      <trkpt lat="45.70103" lon="5.73845">
        <ele>368</ele>
        <time>2017-05-25T14:04:55Z</time>
      </trkpt>
      <trkpt lat="45.70105" lon="5.73853">
        <ele>368</ele>
        <time>2017-05-25T14:04:55Z</time>
      </trkpt>
      <trkpt lat="45.70105" lon="5.73855">
        <ele>368</ele>
        <time>2017-05-25T14:04:55Z</time>
      </trkpt>
      <trkpt lat="45.70106" lon="5.73858">
        <ele>368</ele>
        <time>2017-05-25T14:05:11Z</time>
      </trkpt>
      <trkpt lat="45.70106" lon="5.73861">
        <ele>368</ele>
        <time>2017-05-25T14:05:11Z</time>
      </trkpt>
      <trkpt lat="45.70106" lon="5.73867">
        <ele>368</ele>
        <time>2017-05-25T14:05:11Z</time>
      </trkpt>
      <trkpt lat="45.70107" lon="5.73873">
        <ele>368</ele>
        <time>2017-05-25T14:05:11Z</time>
      </trkpt>
      <trkpt lat="45.70108" lon="5.73878">
        <ele>362</ele>
        <time>2017-05-25T14:05:27Z</time>
      </trkpt>
      <trkpt lat="45.70108" lon="5.73885">
        <ele>362</ele>
        <time>2017-05-25T14:05:27Z</time>
      </trkpt>
      <trkpt lat="45.70107" lon="5.73891">
        <ele>362</ele>
        <time>2017-05-25T14:05:27Z</time>
      </trkpt>
      <trkpt lat="45.70107" lon="5.73896">
        <ele>362</ele>
        <time>2017-05-25T14:05:27Z</time>
      </trkpt>
      <trkpt lat="45.70108" lon="5.73901">
        <ele>362</ele>
        <time>2017-05-25T14:05:47Z</time>
      </trkpt>
      <trkpt lat="45.70108" lon="5.73902">
        <ele>362</ele>
        <time>2017-05-25T14:05:47Z</time>
      </trkpt>
      <trkpt lat="45.7011" lon="5.73903">
        <ele>362</ele>
        <time>2017-05-25T14:05:47Z</time>
      </trkpt>
      <trkpt lat="45.70112" lon="5.73907">
        <ele>362</ele>
        <time>2017-05-25T14:05:47Z</time>
      </trkpt>
      <trkpt lat="45.70114" lon="5.73914">
        <ele>362</ele>
        <time>2017-05-25T14:05:47Z</time>
      </trkpt>
      <trkpt lat="45.70116" lon="5.73921">
        <ele>362</ele>
        <time>2017-05-25T14:06:03Z</time>
      </trkpt>
      <trkpt lat="45.70117" lon="5.73926">
        <ele>362</ele>
        <time>2017-05-25T14:06:03Z</time>
      </trkpt>
      <trkpt lat="45.7012" lon="5.7393">
        <ele>362</ele>
        <time>2017-05-25T14:06:03Z</time>
      </trkpt>
      <trkpt lat="45.70121" lon="5.73935">
        <ele>362</ele>
        <time>2017-05-25T14:06:03Z</time>
      </trkpt>
      <trkpt lat="45.70122" lon="5.73938">
        <ele>362</ele>
        <time>2017-05-25T14:06:19Z</time>
      </trkpt>
      <trkpt lat="45.70124" lon="5.73941">
        <ele>362</ele>
        <time>2017-05-25T14:06:19Z</time>
      </trkpt>
      <trkpt lat="45.70126" lon="5.73946">
        <ele>355</ele>
        <time>2017-05-25T14:06:19Z</time>
      </trkpt>
      <trkpt lat="45.70126" lon="5.73954">
        <ele>355</ele>
        <time>2017-05-25T14:06:19Z</time>
      </trkpt>
      <trkpt lat="45.70126" lon="5.7396">
        <ele>348</ele>
        <time>2017-05-25T14:06:35Z</time>
      </trkpt>
      <trkpt lat="45.70126" lon="5.73963">
        <ele>348</ele>
        <time>2017-05-25T14:06:35Z</time>
      </trkpt>
      <trkpt lat="45.70128" lon="5.73968">
        <ele>348</ele>
        <time>2017-05-25T14:06:35Z</time>
      </trkpt>
      <trkpt lat="45.70128" lon="5.73973">
        <ele>348</ele>
        <time>2017-05-25T14:06:35Z</time>
      </trkpt>
      <trkpt lat="45.7013" lon="5.73979">
        <ele>348</ele>
        <time>2017-05-25T14:06:55Z</time>
      </trkpt>
      <trkpt lat="45.70131" lon="5.73985">
        <ele>348</ele>
        <time>2017-05-25T14:06:55Z</time>
      </trkpt>
      <trkpt lat="45.7013" lon="5.7399">
        <ele>348</ele>
        <time>2017-05-25T14:06:55Z</time>
      </trkpt>
      <trkpt lat="45.70129" lon="5.73991">
        <ele>348</ele>
        <time>2017-05-25T14:06:55Z</time>
      </trkpt>
      <trkpt lat="45.70126" lon="5.73993">
        <ele>348</ele>
        <time>2017-05-25T14:06:55Z</time>
      </trkpt>
      <trkpt lat="45.70118" lon="5.73992">
        <ele>351</ele>
        <time>2017-05-25T14:07:31Z</time>
      </trkpt>
      <trkpt lat="45.70116" lon="5.7399">
        <ele>351</ele>
        <time>2017-05-25T14:07:31Z</time>
      </trkpt>
      <trkpt lat="45.70115" lon="5.73989">
        <ele>351</ele>
        <time>2017-05-25T14:07:31Z</time>
      </trkpt>
      <trkpt lat="45.70115" lon="5.73989">
        <ele>351</ele>
        <time>2017-05-25T14:07:31Z</time>
      </trkpt>
      <trkpt lat="45.70113" lon="5.73991">
        <ele>351</ele>
        <time>2017-05-25T14:07:31Z</time>
      </trkpt>
      <trkpt lat="45.7011" lon="5.73992">
        <ele>351</ele>
        <time>2017-05-25T14:07:47Z</time>
      </trkpt>
      <trkpt lat="45.70108" lon="5.73994">
        <ele>351</ele>
        <time>2017-05-25T14:07:47Z</time>
      </trkpt>
      <trkpt lat="45.70104" lon="5.73997">
        <ele>351</ele>
        <time>2017-05-25T14:07:47Z</time>
      </trkpt>
      <trkpt lat="45.701" lon="5.73999">
        <ele>351</ele>
        <time>2017-05-25T14:07:47Z</time>
      </trkpt>
      <trkpt lat="45.70096" lon="5.74">
        <ele>351</ele>
        <time>2017-05-25T14:08:07Z</time>
      </trkpt>
      <trkpt lat="45.70093" lon="5.74">
        <ele>351</ele>
        <time>2017-05-25T14:08:07Z</time>
      </trkpt>
      <trkpt lat="45.70091" lon="5.74002">
        <ele>351</ele>
        <time>2017-05-25T14:08:07Z</time>
      </trkpt>
      <trkpt lat="45.70087" lon="5.74004">
        <ele>351</ele>
        <time>2017-05-25T14:08:07Z</time>
      </trkpt>
      <trkpt lat="45.70082" lon="5.74008">
        <ele>351</ele>
        <time>2017-05-25T14:08:07Z</time>
      </trkpt>
      <trkpt lat="45.70079" lon="5.74011">
        <ele>351</ele>
        <time>2017-05-25T14:08:23Z</time>
      </trkpt>
      <trkpt lat="45.70077" lon="5.74012">
        <ele>351</ele>
        <time>2017-05-25T14:08:23Z</time>
      </trkpt>
      <trkpt lat="45.70073" lon="5.74016">
        <ele>351</ele>
        <time>2017-05-25T14:08:23Z</time>
      </trkpt>
      <trkpt lat="45.7007" lon="5.74021">
        <ele>351</ele>
        <time>2017-05-25T14:08:23Z</time>
      </trkpt>
      <trkpt lat="45.70059" lon="5.74027">
        <ele>351</ele>
        <time>2017-05-25T14:08:55Z</time>
      </trkpt>
      <trkpt lat="45.70059" lon="5.74027">
        <ele>351</ele>
        <time>2017-05-25T14:08:55Z</time>
      </trkpt>
      <trkpt lat="45.70059" lon="5.74027">
        <ele>351</ele>
        <time>2017-05-25T14:08:55Z</time>
      </trkpt>
      <trkpt lat="45.70058" lon="5.74029">
        <ele>351</ele>
        <time>2017-05-25T14:08:55Z</time>
      </trkpt>
      <trkpt lat="45.70053" lon="5.74032">
        <ele>351</ele>
        <time>2017-05-25T14:08:55Z</time>
      </trkpt>
      <trkpt lat="45.7005" lon="5.74033">
        <ele>351</ele>
        <time>2017-05-25T14:09:11Z</time>
      </trkpt>
      <trkpt lat="45.70046" lon="5.74036">
        <ele>351</ele>
        <time>2017-05-25T14:09:11Z</time>
      </trkpt>
      <trkpt lat="45.70042" lon="5.74038">
        <ele>357</ele>
        <time>2017-05-25T14:09:11Z</time>
      </trkpt>
      <trkpt lat="45.70037" lon="5.74039">
        <ele>357</ele>
        <time>2017-05-25T14:09:11Z</time>
      </trkpt>
      <trkpt lat="45.70028" lon="5.74043">
        <ele>341</ele>
        <time>2017-05-25T14:10:11Z</time>
      </trkpt>
      <trkpt lat="45.70028" lon="5.74043">
        <ele>341</ele>
        <time>2017-05-25T14:10:11Z</time>
      </trkpt>
      <trkpt lat="45.70028" lon="5.74043">
        <ele>341</ele>
        <time>2017-05-25T14:10:11Z</time>
      </trkpt>
      <trkpt lat="45.70026" lon="5.74044">
        <ele>341</ele>
        <time>2017-05-25T14:10:11Z</time>
      </trkpt>
      <trkpt lat="45.7002" lon="5.74046">
        <ele>341</ele>
        <time>2017-05-25T14:10:11Z</time>
      </trkpt>
      <trkpt lat="45.70012" lon="5.74044">
        <ele>341</ele>
        <time>2017-05-25T14:10:27Z</time>
      </trkpt>
      <trkpt lat="45.70009" lon="5.74048">
        <ele>341</ele>
        <time>2017-05-25T14:10:27Z</time>
      </trkpt>
      <trkpt lat="45.70007" lon="5.74048">
        <ele>341</ele>
        <time>2017-05-25T14:10:27Z</time>
      </trkpt>
      <trkpt lat="45.70002" lon="5.74049">
        <ele>341</ele>
        <time>2017-05-25T14:10:27Z</time>
      </trkpt>
      <trkpt lat="45.70001" lon="5.74048">
        <ele>341</ele>
        <time>2017-05-25T14:10:47Z</time>
      </trkpt>
      <trkpt lat="45.7" lon="5.74048">
        <ele>341</ele>
        <time>2017-05-25T14:10:47Z</time>
      </trkpt>
      <trkpt lat="45.69998" lon="5.74048">
        <ele>341</ele>
        <time>2017-05-25T14:10:47Z</time>
      </trkpt>
      <trkpt lat="45.69994" lon="5.74049">
        <ele>341</ele>
        <time>2017-05-25T14:10:47Z</time>
      </trkpt>
      <trkpt lat="45.69989" lon="5.74048">
        <ele>341</ele>
        <time>2017-05-25T14:10:47Z</time>
      </trkpt>
      <trkpt lat="45.69984" lon="5.74048">
        <ele>341</ele>
        <time>2017-05-25T14:11:03Z</time>
      </trkpt>
      <trkpt lat="45.69979" lon="5.74048">
        <ele>341</ele>
        <time>2017-05-25T14:11:03Z</time>
      </trkpt>
      <trkpt lat="45.69972" lon="5.74052">
        <ele>341</ele>
        <time>2017-05-25T14:11:03Z</time>
      </trkpt>
      <trkpt lat="45.69965" lon="5.74057">
        <ele>341</ele>
        <time>2017-05-25T14:11:03Z</time>
      </trkpt>
      <trkpt lat="45.6996" lon="5.74063">
        <ele>341</ele>
        <time>2017-05-25T14:11:19Z</time>
      </trkpt>
      <trkpt lat="45.69955" lon="5.74069">
        <ele>342</ele>
        <time>2017-05-25T14:11:19Z</time>
      </trkpt>
      <trkpt lat="45.6995" lon="5.74072">
        <ele>342</ele>
        <time>2017-05-25T14:11:19Z</time>
      </trkpt>
      <trkpt lat="45.69949" lon="5.74076">
        <ele>342</ele>
        <time>2017-05-25T14:11:19Z</time>
      </trkpt>
      <trkpt lat="45.69946" lon="5.74082">
        <ele>342</ele>
        <time>2017-05-25T14:11:35Z</time>
      </trkpt>
      <trkpt lat="45.69945" lon="5.74087">
        <ele>342</ele>
        <time>2017-05-25T14:11:35Z</time>
      </trkpt>
      <trkpt lat="45.69945" lon="5.74095">
        <ele>342</ele>
        <time>2017-05-25T14:11:35Z</time>
      </trkpt>
      <trkpt lat="45.69947" lon="5.74103">
        <ele>342</ele>
        <time>2017-05-25T14:11:35Z</time>
      </trkpt>
      <trkpt lat="45.69948" lon="5.74111">
        <ele>342</ele>
        <time>2017-05-25T14:11:51Z</time>
      </trkpt>
      <trkpt lat="45.69949" lon="5.74119">
        <ele>342</ele>
        <time>2017-05-25T14:11:51Z</time>
      </trkpt>
      <trkpt lat="45.6995" lon="5.74127">
        <ele>341</ele>
        <time>2017-05-25T14:11:51Z</time>
      </trkpt>
      <trkpt lat="45.69951" lon="5.74133">
        <ele>341</ele>
        <time>2017-05-25T14:11:51Z</time>
      </trkpt>
      <trkpt lat="45.69952" lon="5.74139">
        <ele>341</ele>
        <time>2017-05-25T14:12:07Z</time>
      </trkpt>
      <trkpt lat="45.6995" lon="5.74144">
        <ele>341</ele>
        <time>2017-05-25T14:12:07Z</time>
      </trkpt>
      <trkpt lat="45.69947" lon="5.74149">
        <ele>341</ele>
        <time>2017-05-25T14:12:07Z</time>
      </trkpt>
      <trkpt lat="45.69942" lon="5.74156">
        <ele>341</ele>
        <time>2017-05-25T14:12:07Z</time>
      </trkpt>
      <trkpt lat="45.69938" lon="5.74167">
        <ele>341</ele>
        <time>2017-05-25T14:12:23Z</time>
      </trkpt>
      <trkpt lat="45.69935" lon="5.74174">
        <ele>341</ele>
        <time>2017-05-25T14:12:23Z</time>
      </trkpt>
      <trkpt lat="45.69935" lon="5.74179">
        <ele>341</ele>
        <time>2017-05-25T14:12:23Z</time>
      </trkpt>
      <trkpt lat="45.69932" lon="5.74184">
        <ele>341</ele>
        <time>2017-05-25T14:12:23Z</time>
      </trkpt>
      <trkpt lat="45.69933" lon="5.74189">
        <ele>341</ele>
        <time>2017-05-25T14:12:39Z</time>
      </trkpt>
      <trkpt lat="45.69931" lon="5.74195">
        <ele>341</ele>
        <time>2017-05-25T14:12:39Z</time>
      </trkpt>
      <trkpt lat="45.69933" lon="5.742">
        <ele>341</ele>
        <time>2017-05-25T14:12:39Z</time>
      </trkpt>
      <trkpt lat="45.69933" lon="5.74206">
        <ele>341</ele>
        <time>2017-05-25T14:12:39Z</time>
      </trkpt>
      <trkpt lat="45.69933" lon="5.74212">
        <ele>344</ele>
        <time>2017-05-25T14:12:55Z</time>
      </trkpt>
      <trkpt lat="45.69933" lon="5.74221">
        <ele>344</ele>
        <time>2017-05-25T14:12:55Z</time>
      </trkpt>
      <trkpt lat="45.69931" lon="5.74234">
        <ele>344</ele>
        <time>2017-05-25T14:12:55Z</time>
      </trkpt>
      <trkpt lat="45.69927" lon="5.74246">
        <ele>344</ele>
        <time>2017-05-25T14:12:55Z</time>
      </trkpt>
      <trkpt lat="45.69924" lon="5.74256">
        <ele>344</ele>
        <time>2017-05-25T14:13:11Z</time>
      </trkpt>
      <trkpt lat="45.69922" lon="5.74264">
        <ele>344</ele>
        <time>2017-05-25T14:13:11Z</time>
      </trkpt>
      <trkpt lat="45.69917" lon="5.74267">
        <ele>344</ele>
        <time>2017-05-25T14:13:11Z</time>
      </trkpt>
      <trkpt lat="45.69912" lon="5.7427">
        <ele>344</ele>
        <time>2017-05-25T14:13:11Z</time>
      </trkpt>
      <trkpt lat="45.69907" lon="5.74267">
        <ele>344</ele>
        <time>2017-05-25T14:13:27Z</time>
      </trkpt>
      <trkpt lat="45.69905" lon="5.74261">
        <ele>344</ele>
        <time>2017-05-25T14:13:27Z</time>
      </trkpt>
      <trkpt lat="45.69903" lon="5.74254">
        <ele>344</ele>
        <time>2017-05-25T14:13:27Z</time>
      </trkpt>
      <trkpt lat="45.69901" lon="5.74248">
        <ele>344</ele>
        <time>2017-05-25T14:13:27Z</time>
      </trkpt>
      <trkpt lat="45.69896" lon="5.74245">
        <ele>344</ele>
        <time>2017-05-25T14:13:43Z</time>
      </trkpt>
      <trkpt lat="45.69892" lon="5.74245">
        <ele>344</ele>
        <time>2017-05-25T14:13:43Z</time>
      </trkpt>
      <trkpt lat="45.69889" lon="5.74248">
        <ele>344</ele>
        <time>2017-05-25T14:13:43Z</time>
      </trkpt>
      <trkpt lat="45.69885" lon="5.74251">
        <ele>344</ele>
        <time>2017-05-25T14:13:43Z</time>
      </trkpt>
      <trkpt lat="45.6988" lon="5.74252">
        <ele>344</ele>
        <time>2017-05-25T14:13:59Z</time>
      </trkpt>
      <trkpt lat="45.69875" lon="5.74256">
        <ele>349</ele>
        <time>2017-05-25T14:13:59Z</time>
      </trkpt>
      <trkpt lat="45.69871" lon="5.74258">
        <ele>349</ele>
        <time>2017-05-25T14:13:59Z</time>
      </trkpt>
      <trkpt lat="45.69865" lon="5.74261">
        <ele>349</ele>
        <time>2017-05-25T14:13:59Z</time>
      </trkpt>
      <trkpt lat="45.6986" lon="5.74262">
        <ele>349</ele>
        <time>2017-05-25T14:14:15Z</time>
      </trkpt>
      <trkpt lat="45.69856" lon="5.74263">
        <ele>349</ele>
        <time>2017-05-25T14:14:15Z</time>
      </trkpt>
      <trkpt lat="45.69851" lon="5.74265">
        <ele>349</ele>
        <time>2017-05-25T14:14:15Z</time>
      </trkpt>
      <trkpt lat="45.69845" lon="5.74268">
        <ele>349</ele>
        <time>2017-05-25T14:14:15Z</time>
      </trkpt>
      <trkpt lat="45.69841" lon="5.74268">
        <ele>349</ele>
        <time>2017-05-25T14:14:31Z</time>
      </trkpt>
      <trkpt lat="45.69836" lon="5.74269">
        <ele>349</ele>
        <time>2017-05-25T14:14:31Z</time>
      </trkpt>
      <trkpt lat="45.69832" lon="5.74271">
        <ele>349</ele>
        <time>2017-05-25T14:14:31Z</time>
      </trkpt>
      <trkpt lat="45.69825" lon="5.74271">
        <ele>349</ele>
        <time>2017-05-25T14:14:31Z</time>
      </trkpt>
      <trkpt lat="45.69818" lon="5.74273">
        <ele>349</ele>
        <time>2017-05-25T14:14:47Z</time>
      </trkpt>
      <trkpt lat="45.69812" lon="5.74274">
        <ele>349</ele>
        <time>2017-05-25T14:14:47Z</time>
      </trkpt>
      <trkpt lat="45.69808" lon="5.74274">
        <ele>349</ele>
        <time>2017-05-25T14:14:47Z</time>
      </trkpt>
      <trkpt lat="45.69803" lon="5.74274">
        <ele>349</ele>
        <time>2017-05-25T14:14:47Z</time>
      </trkpt>
      <trkpt lat="45.69797" lon="5.74274">
        <ele>349</ele>
        <time>2017-05-25T14:15:03Z</time>
      </trkpt>
      <trkpt lat="45.69793" lon="5.74276">
        <ele>349</ele>
        <time>2017-05-25T14:15:03Z</time>
      </trkpt>
      <trkpt lat="45.69788" lon="5.74281">
        <ele>348</ele>
        <time>2017-05-25T14:15:03Z</time>
      </trkpt>
      <trkpt lat="45.69784" lon="5.74287">
        <ele>348</ele>
        <time>2017-05-25T14:15:03Z</time>
      </trkpt>
      <trkpt lat="45.69779" lon="5.74292">
        <ele>338</ele>
        <time>2017-05-25T14:15:19Z</time>
      </trkpt>
      <trkpt lat="45.69774" lon="5.74296">
        <ele>338</ele>
        <time>2017-05-25T14:15:19Z</time>
      </trkpt>
      <trkpt lat="45.6977" lon="5.743">
        <ele>338</ele>
        <time>2017-05-25T14:15:19Z</time>
      </trkpt>
      <trkpt lat="45.69766" lon="5.74302">
        <ele>338</ele>
        <time>2017-05-25T14:15:19Z</time>
      </trkpt>
      <trkpt lat="45.69762" lon="5.74303">
        <ele>338</ele>
        <time>2017-05-25T14:15:35Z</time>
      </trkpt>
      <trkpt lat="45.69758" lon="5.74302">
        <ele>338</ele>
        <time>2017-05-25T14:15:35Z</time>
      </trkpt>
      <trkpt lat="45.69752" lon="5.74301">
        <ele>338</ele>
        <time>2017-05-25T14:15:35Z</time>
      </trkpt>
      <trkpt lat="45.69747" lon="5.743">
        <ele>338</ele>
        <time>2017-05-25T14:15:35Z</time>
      </trkpt>
      <trkpt lat="45.69742" lon="5.743">
        <ele>338</ele>
        <time>2017-05-25T14:15:51Z</time>
      </trkpt>
      <trkpt lat="45.69736" lon="5.743">
        <ele>338</ele>
        <time>2017-05-25T14:15:51Z</time>
      </trkpt>
      <trkpt lat="45.69731" lon="5.74297">
        <ele>338</ele>
        <time>2017-05-25T14:15:51Z</time>
      </trkpt>
      <trkpt lat="45.69725" lon="5.74296">
        <ele>338</ele>
        <time>2017-05-25T14:15:51Z</time>
      </trkpt>
      <trkpt lat="45.6972" lon="5.74295">
        <ele>338</ele>
        <time>2017-05-25T14:16:07Z</time>
      </trkpt>
      <trkpt lat="45.69715" lon="5.74293">
        <ele>338</ele>
        <time>2017-05-25T14:16:07Z</time>
      </trkpt>
      <trkpt lat="45.6971" lon="5.74293">
        <ele>338</ele>
        <time>2017-05-25T14:16:07Z</time>
      </trkpt>
      <trkpt lat="45.69705" lon="5.74296">
        <ele>332</ele>
        <time>2017-05-25T14:16:07Z</time>
      </trkpt>
      <trkpt lat="45.69703" lon="5.74301">
        <ele>332</ele>
        <time>2017-05-25T14:16:23Z</time>
      </trkpt>
      <trkpt lat="45.69702" lon="5.74307">
        <ele>332</ele>
        <time>2017-05-25T14:16:23Z</time>
      </trkpt>
      <trkpt lat="45.69699" lon="5.74311">
        <ele>332</ele>
        <time>2017-05-25T14:16:23Z</time>
      </trkpt>
      <trkpt lat="45.69696" lon="5.74312">
        <ele>332</ele>
        <time>2017-05-25T14:16:23Z</time>
      </trkpt>
      <trkpt lat="45.69693" lon="5.74315">
        <ele>332</ele>
        <time>2017-05-25T14:16:39Z</time>
      </trkpt>
      <trkpt lat="45.69691" lon="5.74319">
        <ele>332</ele>
        <time>2017-05-25T14:16:39Z</time>
      </trkpt>
      <trkpt lat="45.69687" lon="5.74321">
        <ele>332</ele>
        <time>2017-05-25T14:16:39Z</time>
      </trkpt>
      <trkpt lat="45.69684" lon="5.74323">
        <ele>332</ele>
        <time>2017-05-25T14:16:39Z</time>
      </trkpt>
      <trkpt lat="45.69683" lon="5.74324">
        <ele>332</ele>
        <time>2017-05-25T14:17:07Z</time>
      </trkpt>
      <trkpt lat="45.69679" lon="5.7433">
        <ele>332</ele>
        <time>2017-05-25T14:17:07Z</time>
      </trkpt>
      <trkpt lat="45.69675" lon="5.74333">
        <ele>332</ele>
        <time>2017-05-25T14:17:07Z</time>
      </trkpt>
      <trkpt lat="45.69671" lon="5.74336">
        <ele>332</ele>
        <time>2017-05-25T14:17:07Z</time>
      </trkpt>
      <trkpt lat="45.69667" lon="5.7434">
        <ele>332</ele>
        <time>2017-05-25T14:17:07Z</time>
      </trkpt>
      <trkpt lat="45.69664" lon="5.74342">
        <ele>332</ele>
        <time>2017-05-25T14:17:23Z</time>
      </trkpt>
      <trkpt lat="45.69659" lon="5.74345">
        <ele>332</ele>
        <time>2017-05-25T14:17:23Z</time>
      </trkpt>
      <trkpt lat="45.69656" lon="5.74348">
        <ele>332</ele>
        <time>2017-05-25T14:17:23Z</time>
      </trkpt>
      <trkpt lat="45.69654" lon="5.74352">
        <ele>332</ele>
        <time>2017-05-25T14:17:23Z</time>
      </trkpt>
      <trkpt lat="45.69651" lon="5.74354">
        <ele>332</ele>
        <time>2017-05-25T14:17:43Z</time>
      </trkpt>
      <trkpt lat="45.69648" lon="5.74356">
        <ele>332</ele>
        <time>2017-05-25T14:17:43Z</time>
      </trkpt>
      <trkpt lat="45.69646" lon="5.74357">
        <ele>332</ele>
        <time>2017-05-25T14:17:43Z</time>
      </trkpt>
      <trkpt lat="45.69645" lon="5.74358">
        <ele>332</ele>
        <time>2017-05-25T14:17:43Z</time>
      </trkpt>
      <trkpt lat="45.69642" lon="5.74362">
        <ele>332</ele>
        <time>2017-05-25T14:17:43Z</time>
      </trkpt>
      <trkpt lat="45.6964" lon="5.74373">
        <ele>332</ele>
        <time>2017-05-25T14:17:59Z</time>
      </trkpt>
      <trkpt lat="45.6964" lon="5.74381">
        <ele>327</ele>
        <time>2017-05-25T14:17:59Z</time>
      </trkpt>
      <trkpt lat="45.69641" lon="5.74389">
        <ele>327</ele>
        <time>2017-05-25T14:17:59Z</time>
      </trkpt>
      <trkpt lat="45.69641" lon="5.74397">
        <ele>327</ele>
        <time>2017-05-25T14:17:59Z</time>
      </trkpt>
      <trkpt lat="45.69642" lon="5.74402">
        <ele>327</ele>
        <time>2017-05-25T14:18:15Z</time>
      </trkpt>
      <trkpt lat="45.69643" lon="5.74408">
        <ele>327</ele>
        <time>2017-05-25T14:18:15Z</time>
      </trkpt>
      <trkpt lat="45.69645" lon="5.74413">
        <ele>327</ele>
        <time>2017-05-25T14:18:15Z</time>
      </trkpt>
      <trkpt lat="45.69648" lon="5.74419">
        <ele>327</ele>
        <time>2017-05-25T14:18:15Z</time>
      </trkpt>
      <trkpt lat="45.6965" lon="5.74426">
        <ele>327</ele>
        <time>2017-05-25T14:18:31Z</time>
      </trkpt>
      <trkpt lat="45.69651" lon="5.74432">
        <ele>327</ele>
        <time>2017-05-25T14:18:31Z</time>
      </trkpt>
      <trkpt lat="45.69656" lon="5.7444">
        <ele>327</ele>
        <time>2017-05-25T14:18:31Z</time>
      </trkpt>
      <trkpt lat="45.69662" lon="5.74447">
        <ele>327</ele>
        <time>2017-05-25T14:18:31Z</time>
      </trkpt>
      <trkpt lat="45.69665" lon="5.74451">
        <ele>327</ele>
        <time>2017-05-25T14:18:47Z</time>
      </trkpt>
      <trkpt lat="45.69665" lon="5.74459">
        <ele>328</ele>
        <time>2017-05-25T14:18:47Z</time>
      </trkpt>
      <trkpt lat="45.69669" lon="5.74465">
        <ele>328</ele>
        <time>2017-05-25T14:18:47Z</time>
      </trkpt>
      <trkpt lat="45.69673" lon="5.7447">
        <ele>328</ele>
        <time>2017-05-25T14:18:47Z</time>
      </trkpt>
      <trkpt lat="45.69679" lon="5.74475">
        <ele>328</ele>
        <time>2017-05-25T14:19:03Z</time>
      </trkpt>
      <trkpt lat="45.69685" lon="5.7448">
        <ele>328</ele>
        <time>2017-05-25T14:19:03Z</time>
      </trkpt>
      <trkpt lat="45.69686" lon="5.74484">
        <ele>328</ele>
        <time>2017-05-25T14:19:03Z</time>
      </trkpt>
      <trkpt lat="45.69687" lon="5.74488">
        <ele>328</ele>
        <time>2017-05-25T14:19:03Z</time>
      </trkpt>
      <trkpt lat="45.69698" lon="5.74493">
        <ele>328</ele>
        <time>2017-05-25T14:19:31Z</time>
      </trkpt>
      <trkpt lat="45.69699" lon="5.74495">
        <ele>328</ele>
        <time>2017-05-25T14:19:31Z</time>
      </trkpt>
      <trkpt lat="45.697" lon="5.74496">
        <ele>328</ele>
        <time>2017-05-25T14:19:31Z</time>
      </trkpt>
      <trkpt lat="45.697" lon="5.74497">
        <ele>328</ele>
        <time>2017-05-25T14:19:31Z</time>
      </trkpt>
      <trkpt lat="45.69701" lon="5.74501">
        <ele>328</ele>
        <time>2017-05-25T14:19:31Z</time>
      </trkpt>
      <trkpt lat="45.697" lon="5.74503">
        <ele>328</ele>
        <time>2017-05-25T14:19:47Z</time>
      </trkpt>
      <trkpt lat="45.697" lon="5.74505">
        <ele>328</ele>
        <time>2017-05-25T14:19:47Z</time>
      </trkpt>
      <trkpt lat="45.69704" lon="5.7451">
        <ele>328</ele>
        <time>2017-05-25T14:19:47Z</time>
      </trkpt>
      <trkpt lat="45.69707" lon="5.74516">
        <ele>328</ele>
        <time>2017-05-25T14:19:47Z</time>
      </trkpt>
      <trkpt lat="45.69713" lon="5.74523">
        <ele>314</ele>
        <time>2017-05-25T14:20:03Z</time>
      </trkpt>
      <trkpt lat="45.69716" lon="5.74527">
        <ele>314</ele>
        <time>2017-05-25T14:20:03Z</time>
      </trkpt>
      <trkpt lat="45.6972" lon="5.74534">
        <ele>314</ele>
        <time>2017-05-25T14:20:03Z</time>
      </trkpt>
      <trkpt lat="45.69722" lon="5.74538">
        <ele>314</ele>
        <time>2017-05-25T14:20:03Z</time>
      </trkpt>
      <trkpt lat="45.69725" lon="5.7454">
        <ele>314</ele>
        <time>2017-05-25T14:20:23Z</time>
      </trkpt>
      <trkpt lat="45.69726" lon="5.74541">
        <ele>314</ele>
        <time>2017-05-25T14:20:23Z</time>
      </trkpt>
      <trkpt lat="45.69726" lon="5.74543">
        <ele>316</ele>
        <time>2017-05-25T14:20:23Z</time>
      </trkpt>
      <trkpt lat="45.6973" lon="5.74546">
        <ele>316</ele>
        <time>2017-05-25T14:20:23Z</time>
      </trkpt>
      <trkpt lat="45.69734" lon="5.74549">
        <ele>316</ele>
        <time>2017-05-25T14:20:23Z</time>
      </trkpt>
      <trkpt lat="45.69739" lon="5.74556">
        <ele>316</ele>
        <time>2017-05-25T14:20:39Z</time>
      </trkpt>
      <trkpt lat="45.69745" lon="5.74563">
        <ele>316</ele>
        <time>2017-05-25T14:20:39Z</time>
      </trkpt>
      <trkpt lat="45.69753" lon="5.74569">
        <ele>316</ele>
        <time>2017-05-25T14:20:39Z</time>
      </trkpt>
      <trkpt lat="45.69757" lon="5.74574">
        <ele>316</ele>
        <time>2017-05-25T14:20:39Z</time>
      </trkpt>
      <trkpt lat="45.69761" lon="5.74581">
        <ele>316</ele>
        <time>2017-05-25T14:20:55Z</time>
      </trkpt>
      <trkpt lat="45.69766" lon="5.74586">
        <ele>316</ele>
        <time>2017-05-25T14:20:55Z</time>
      </trkpt>
      <trkpt lat="45.69775" lon="5.7459">
        <ele>316</ele>
        <time>2017-05-25T14:20:55Z</time>
      </trkpt>
      <trkpt lat="45.69782" lon="5.74591">
        <ele>316</ele>
        <time>2017-05-25T14:20:55Z</time>
      </trkpt>
      <trkpt lat="45.69796" lon="5.74594">
        <ele>306</ele>
        <time>2017-05-25T14:21:39Z</time>
      </trkpt>
      <trkpt lat="45.698" lon="5.74595">
        <ele>306</ele>
        <time>2017-05-25T14:21:39Z</time>
      </trkpt>
      <trkpt lat="45.69808" lon="5.74601">
        <ele>306</ele>
        <time>2017-05-25T14:21:39Z</time>
      </trkpt>
      <trkpt lat="45.69815" lon="5.74604">
        <ele>306</ele>
        <time>2017-05-25T14:21:39Z</time>
      </trkpt>
      <trkpt lat="45.69821" lon="5.74611">
        <ele>306</ele>
        <time>2017-05-25T14:21:39Z</time>
      </trkpt>
      <trkpt lat="45.69825" lon="5.74614">
        <ele>306</ele>
        <time>2017-05-25T14:21:59Z</time>
      </trkpt>
      <trkpt lat="45.69828" lon="5.74615">
        <ele>306</ele>
        <time>2017-05-25T14:21:59Z</time>
      </trkpt>
      <trkpt lat="45.69829" lon="5.74617">
        <ele>306</ele>
        <time>2017-05-25T14:21:59Z</time>
      </trkpt>
      <trkpt lat="45.69833" lon="5.74618">
        <ele>306</ele>
        <time>2017-05-25T14:21:59Z</time>
      </trkpt>
      <trkpt lat="45.69838" lon="5.74623">
        <ele>306</ele>
        <time>2017-05-25T14:21:59Z</time>
      </trkpt>
      <trkpt lat="45.69849" lon="5.74626">
        <ele>312</ele>
        <time>2017-05-25T14:22:15Z</time>
      </trkpt>
      <trkpt lat="45.69855" lon="5.74628">
        <ele>312</ele>
        <time>2017-05-25T14:22:15Z</time>
      </trkpt>
      <trkpt lat="45.69858" lon="5.74629">
        <ele>312</ele>
        <time>2017-05-25T14:22:15Z</time>
      </trkpt>
      <trkpt lat="45.69862" lon="5.74631">
        <ele>312</ele>
        <time>2017-05-25T14:22:15Z</time>
      </trkpt>
      <trkpt lat="45.69865" lon="5.74633">
        <ele>312</ele>
        <time>2017-05-25T14:22:35Z</time>
      </trkpt>
      <trkpt lat="45.69867" lon="5.74634">
        <ele>312</ele>
        <time>2017-05-25T14:22:35Z</time>
      </trkpt>
      <trkpt lat="45.69868" lon="5.74634">
        <ele>312</ele>
        <time>2017-05-25T14:22:35Z</time>
      </trkpt>
      <trkpt lat="45.69872" lon="5.74636">
        <ele>312</ele>
        <time>2017-05-25T14:22:35Z</time>
      </trkpt>
      <trkpt lat="45.6988" lon="5.74641">
        <ele>304</ele>
        <time>2017-05-25T14:22:35Z</time>
      </trkpt>
      <trkpt lat="45.69889" lon="5.74646">
        <ele>304</ele>
        <time>2017-05-25T14:22:51Z</time>
      </trkpt>
      <trkpt lat="45.69898" lon="5.74651">
        <ele>304</ele>
        <time>2017-05-25T14:22:51Z</time>
      </trkpt>
      <trkpt lat="45.69904" lon="5.74653">
        <ele>304</ele>
        <time>2017-05-25T14:22:51Z</time>
      </trkpt>
      <trkpt lat="45.69905" lon="5.74654">
        <ele>304</ele>
        <time>2017-05-25T14:22:51Z</time>
      </trkpt>
      <trkpt lat="45.69911" lon="5.74658">
        <ele>304</ele>
        <time>2017-05-25T14:23:55Z</time>
      </trkpt>
      <trkpt lat="45.69911" lon="5.74658">
        <ele>304</ele>
        <time>2017-05-25T14:23:55Z</time>
      </trkpt>
      <trkpt lat="45.69911" lon="5.74658">
        <ele>304</ele>
        <time>2017-05-25T14:23:55Z</time>
      </trkpt>
      <trkpt lat="45.69915" lon="5.74659">
        <ele>304</ele>
        <time>2017-05-25T14:23:55Z</time>
      </trkpt>
      <trkpt lat="45.69917" lon="5.74659">
        <ele>304</ele>
        <time>2017-05-25T14:23:55Z</time>
      </trkpt>
      <trkpt lat="45.69921" lon="5.74659">
        <ele>304</ele>
        <time>2017-05-25T14:24:19Z</time>
      </trkpt>
      <trkpt lat="45.69921" lon="5.7466">
        <ele>304</ele>
        <time>2017-05-25T14:24:19Z</time>
      </trkpt>
      <trkpt lat="45.69924" lon="5.74661">
        <ele>304</ele>
        <time>2017-05-25T14:24:19Z</time>
      </trkpt>
      <trkpt lat="45.69926" lon="5.74662">
        <ele>304</ele>
        <time>2017-05-25T14:24:19Z</time>
      </trkpt>
      <trkpt lat="45.69932" lon="5.74664">
        <ele>304</ele>
        <time>2017-05-25T14:24:19Z</time>
      </trkpt>
      <trkpt lat="45.69939" lon="5.74664">
        <ele>304</ele>
        <time>2017-05-25T14:24:35Z</time>
      </trkpt>
      <trkpt lat="45.69944" lon="5.74662">
        <ele>304</ele>
        <time>2017-05-25T14:24:35Z</time>
      </trkpt>
      <trkpt lat="45.69948" lon="5.7466">
        <ele>304</ele>
        <time>2017-05-25T14:24:35Z</time>
      </trkpt>
      <trkpt lat="45.69954" lon="5.74661">
        <ele>304</ele>
        <time>2017-05-25T14:24:35Z</time>
      </trkpt>
      <trkpt lat="45.69959" lon="5.74663">
        <ele>293</ele>
        <time>2017-05-25T14:24:51Z</time>
      </trkpt>
      <trkpt lat="45.69965" lon="5.74666">
        <ele>293</ele>
        <time>2017-05-25T14:24:51Z</time>
      </trkpt>
      <trkpt lat="45.69967" lon="5.74668">
        <ele>293</ele>
        <time>2017-05-25T14:24:51Z</time>
      </trkpt>
      <trkpt lat="45.69969" lon="5.74669">
        <ele>293</ele>
        <time>2017-05-25T14:24:51Z</time>
      </trkpt>
      <trkpt lat="45.69969" lon="5.74669">
        <ele>293</ele>
        <time>2017-05-25T14:25:07Z</time>
      </trkpt>
      <trkpt lat="45.69969" lon="5.74669">
        <ele>293</ele>
        <time>2017-05-25T14:25:07Z</time>
      </trkpt>
      <trkpt lat="45.69975" lon="5.74676">
        <ele>293</ele>
        <time>2017-05-25T14:25:07Z</time>
      </trkpt>
      <trkpt lat="45.69982" lon="5.74685">
        <ele>293</ele>
        <time>2017-05-25T14:25:07Z</time>
      </trkpt>
      <trkpt lat="45.69988" lon="5.7469">
        <ele>293</ele>
        <time>2017-05-25T14:25:23Z</time>
      </trkpt>
      <trkpt lat="45.69992" lon="5.74696">
        <ele>293</ele>
        <time>2017-05-25T14:25:23Z</time>
      </trkpt>
      <trkpt lat="45.69999" lon="5.74699">
        <ele>293</ele>
        <time>2017-05-25T14:25:23Z</time>
      </trkpt>
      <trkpt lat="45.70003" lon="5.74702">
        <ele>293</ele>
        <time>2017-05-25T14:25:23Z</time>
      </trkpt>
      <trkpt lat="45.70013" lon="5.74704">
        <ele>293</ele>
        <time>2017-05-25T14:26:07Z</time>
      </trkpt>
      <trkpt lat="45.70013" lon="5.74704">
        <ele>293</ele>
        <time>2017-05-25T14:26:07Z</time>
      </trkpt>
      <trkpt lat="45.70013" lon="5.74704">
        <ele>293</ele>
        <time>2017-05-25T14:26:07Z</time>
      </trkpt>
      <trkpt lat="45.70013" lon="5.74704">
        <ele>293</ele>
        <time>2017-05-25T14:26:07Z</time>
      </trkpt>
      <trkpt lat="45.70017" lon="5.74704">
        <ele>293</ele>
        <time>2017-05-25T14:26:07Z</time>
      </trkpt>
      <trkpt lat="45.70023" lon="5.74705">
        <ele>293</ele>
        <time>2017-05-25T14:26:23Z</time>
      </trkpt>
      <trkpt lat="45.70028" lon="5.74705">
        <ele>293</ele>
        <time>2017-05-25T14:26:23Z</time>
      </trkpt>
      <trkpt lat="45.70031" lon="5.74706">
        <ele>293</ele>
        <time>2017-05-25T14:26:23Z</time>
      </trkpt>
      <trkpt lat="45.70034" lon="5.7471">
        <ele>304</ele>
        <time>2017-05-25T14:26:23Z</time>
      </trkpt>
      <trkpt lat="45.70039" lon="5.74713">
        <ele>304</ele>
        <time>2017-05-25T14:26:39Z</time>
      </trkpt>
      <trkpt lat="45.70044" lon="5.74718">
        <ele>288</ele>
        <time>2017-05-25T14:26:39Z</time>
      </trkpt>
      <trkpt lat="45.70051" lon="5.74721">
        <ele>288</ele>
        <time>2017-05-25T14:26:39Z</time>
      </trkpt>
      <trkpt lat="45.70055" lon="5.7472">
        <ele>288</ele>
        <time>2017-05-25T14:26:39Z</time>
      </trkpt>
      <trkpt lat="45.70058" lon="5.74721">
        <ele>288</ele>
        <time>2017-05-25T14:27:07Z</time>
      </trkpt>
      <trkpt lat="45.7006" lon="5.74722">
        <ele>288</ele>
        <time>2017-05-25T14:27:07Z</time>
      </trkpt>
      <trkpt lat="45.7006" lon="5.74722">
        <ele>288</ele>
        <time>2017-05-25T14:27:07Z</time>
      </trkpt>
      <trkpt lat="45.70062" lon="5.74723">
        <ele>288</ele>
        <time>2017-05-25T14:27:07Z</time>
      </trkpt>
      <trkpt lat="45.70072" lon="5.74734">
        <ele>288</ele>
        <time>2017-05-25T14:27:07Z</time>
      </trkpt>
      <trkpt lat="45.70076" lon="5.74738">
        <ele>288</ele>
        <time>2017-05-25T14:27:23Z</time>
      </trkpt>
      <trkpt lat="45.70078" lon="5.74742">
        <ele>288</ele>
        <time>2017-05-25T14:27:23Z</time>
      </trkpt>
      <trkpt lat="45.7008" lon="5.74745">
        <ele>288</ele>
        <time>2017-05-25T14:27:23Z</time>
      </trkpt>
      <trkpt lat="45.70084" lon="5.74749">
        <ele>288</ele>
        <time>2017-05-25T14:27:23Z</time>
      </trkpt>
      <trkpt lat="45.70087" lon="5.74753">
        <ele>288</ele>
        <time>2017-05-25T14:27:39Z</time>
      </trkpt>
      <trkpt lat="45.70091" lon="5.74759">
        <ele>288</ele>
        <time>2017-05-25T14:27:39Z</time>
      </trkpt>
      <trkpt lat="45.70095" lon="5.74763">
        <ele>288</ele>
        <time>2017-05-25T14:27:39Z</time>
      </trkpt>
      <trkpt lat="45.70099" lon="5.74767">
        <ele>288</ele>
        <time>2017-05-25T14:27:39Z</time>
      </trkpt>
      <trkpt lat="45.70102" lon="5.7477">
        <ele>288</ele>
        <time>2017-05-25T14:27:55Z</time>
      </trkpt>
      <trkpt lat="45.70105" lon="5.74772">
        <ele>288</ele>
        <time>2017-05-25T14:27:55Z</time>
      </trkpt>
      <trkpt lat="45.70108" lon="5.74774">
        <ele>288</ele>
        <time>2017-05-25T14:27:55Z</time>
      </trkpt>
      <trkpt lat="45.70112" lon="5.74778">
        <ele>288</ele>
        <time>2017-05-25T14:27:55Z</time>
      </trkpt>
      <trkpt lat="45.70114" lon="5.74782">
        <ele>288</ele>
        <time>2017-05-25T14:28:11Z</time>
      </trkpt>
      <trkpt lat="45.70118" lon="5.74785">
        <ele>288</ele>
        <time>2017-05-25T14:28:11Z</time>
      </trkpt>
      <trkpt lat="45.70124" lon="5.74791">
        <ele>288</ele>
        <time>2017-05-25T14:28:11Z</time>
      </trkpt>
      <trkpt lat="45.70129" lon="5.74797">
        <ele>273</ele>
        <time>2017-05-25T14:28:11Z</time>
      </trkpt>
      <trkpt lat="45.70132" lon="5.748">
        <ele>273</ele>
        <time>2017-05-25T14:28:31Z</time>
      </trkpt>
      <trkpt lat="45.70132" lon="5.74803">
        <ele>273</ele>
        <time>2017-05-25T14:28:31Z</time>
      </trkpt>
      <trkpt lat="45.70133" lon="5.74807">
        <ele>273</ele>
        <time>2017-05-25T14:28:31Z</time>
      </trkpt>
      <trkpt lat="45.70134" lon="5.7481">
        <ele>273</ele>
        <time>2017-05-25T14:28:31Z</time>
      </trkpt>
      <trkpt lat="45.70137" lon="5.74812">
        <ele>273</ele>
        <time>2017-05-25T14:28:31Z</time>
      </trkpt>
      <trkpt lat="45.70139" lon="5.74817">
        <ele>273</ele>
        <time>2017-05-25T14:28:47Z</time>
      </trkpt>
      <trkpt lat="45.70144" lon="5.7482">
        <ele>273</ele>
        <time>2017-05-25T14:28:47Z</time>
      </trkpt>
      <trkpt lat="45.70146" lon="5.74824">
        <ele>273</ele>
        <time>2017-05-25T14:28:47Z</time>
      </trkpt>
      <trkpt lat="45.70147" lon="5.74827">
        <ele>273</ele>
        <time>2017-05-25T14:28:47Z</time>
      </trkpt>
      <trkpt lat="45.70149" lon="5.74831">
        <ele>273</ele>
        <time>2017-05-25T14:29:03Z</time>
      </trkpt>
      <trkpt lat="45.70152" lon="5.74835">
        <ele>273</ele>
        <time>2017-05-25T14:29:03Z</time>
      </trkpt>
      <trkpt lat="45.70156" lon="5.74839">
        <ele>273</ele>
        <time>2017-05-25T14:29:03Z</time>
      </trkpt>
      <trkpt lat="45.70163" lon="5.74843">
        <ele>273</ele>
        <time>2017-05-25T14:29:03Z</time>
      </trkpt>
      <trkpt lat="45.7017" lon="5.74848">
        <ele>273</ele>
        <time>2017-05-25T14:29:19Z</time>
      </trkpt>
      <trkpt lat="45.70174" lon="5.74852">
        <ele>273</ele>
        <time>2017-05-25T14:29:19Z</time>
      </trkpt>
      <trkpt lat="45.70179" lon="5.74853">
        <ele>273</ele>
        <time>2017-05-25T14:29:19Z</time>
      </trkpt>
      <trkpt lat="45.70184" lon="5.74857">
        <ele>273</ele>
        <time>2017-05-25T14:29:19Z</time>
      </trkpt>
      <trkpt lat="45.70189" lon="5.74861">
        <ele>273</ele>
        <time>2017-05-25T14:29:35Z</time>
      </trkpt>
      <trkpt lat="45.70193" lon="5.74865">
        <ele>273</ele>
        <time>2017-05-25T14:29:35Z</time>
      </trkpt>
      <trkpt lat="45.70197" lon="5.74866">
        <ele>273</ele>
        <time>2017-05-25T14:29:35Z</time>
      </trkpt>
      <trkpt lat="45.70201" lon="5.74869">
        <ele>273</ele>
        <time>2017-05-25T14:29:35Z</time>
      </trkpt>
      <trkpt lat="45.70202" lon="5.74874">
        <ele>273</ele>
        <time>2017-05-25T14:29:51Z</time>
      </trkpt>
      <trkpt lat="45.70205" lon="5.74879">
        <ele>280</ele>
        <time>2017-05-25T14:29:51Z</time>
      </trkpt>
      <trkpt lat="45.70207" lon="5.74883">
        <ele>280</ele>
        <time>2017-05-25T14:29:51Z</time>
      </trkpt>
      <trkpt lat="45.70211" lon="5.74887">
        <ele>259</ele>
        <time>2017-05-25T14:29:51Z</time>
      </trkpt>
      <trkpt lat="45.70218" lon="5.74891">
        <ele>259</ele>
        <time>2017-05-25T14:30:07Z</time>
      </trkpt>
      <trkpt lat="45.70225" lon="5.74895">
        <ele>259</ele>
        <time>2017-05-25T14:30:07Z</time>
      </trkpt>
      <trkpt lat="45.70233" lon="5.74899">
        <ele>259</ele>
        <time>2017-05-25T14:30:07Z</time>
      </trkpt>
      <trkpt lat="45.70238" lon="5.74904">
        <ele>259</ele>
        <time>2017-05-25T14:30:07Z</time>
      </trkpt>
      <trkpt lat="45.70241" lon="5.7491">
        <ele>259</ele>
        <time>2017-05-25T14:30:23Z</time>
      </trkpt>
      <trkpt lat="45.70243" lon="5.74914">
        <ele>259</ele>
        <time>2017-05-25T14:30:23Z</time>
      </trkpt>
      <trkpt lat="45.70244" lon="5.74918">
        <ele>259</ele>
        <time>2017-05-25T14:30:23Z</time>
      </trkpt>
      <trkpt lat="45.70247" lon="5.74922">
        <ele>259</ele>
        <time>2017-05-25T14:30:23Z</time>
      </trkpt>
      <trkpt lat="45.70251" lon="5.74926">
        <ele>259</ele>
        <time>2017-05-25T14:30:39Z</time>
      </trkpt>
      <trkpt lat="45.70258" lon="5.7493">
        <ele>259</ele>
        <time>2017-05-25T14:30:39Z</time>
      </trkpt>
      <trkpt lat="45.70264" lon="5.74936">
        <ele>259</ele>
        <time>2017-05-25T14:30:39Z</time>
      </trkpt>
      <trkpt lat="45.70267" lon="5.74941">
        <ele>259</ele>
        <time>2017-05-25T14:30:39Z</time>
      </trkpt>
      <trkpt lat="45.70269" lon="5.74945">
        <ele>259</ele>
        <time>2017-05-25T14:30:55Z</time>
      </trkpt>
      <trkpt lat="45.70272" lon="5.74949">
        <ele>259</ele>
        <time>2017-05-25T14:30:55Z</time>
      </trkpt>
      <trkpt lat="45.70275" lon="5.7495">
        <ele>259</ele>
        <time>2017-05-25T14:30:55Z</time>
      </trkpt>
      <trkpt lat="45.70277" lon="5.74951">
        <ele>259</ele>
        <time>2017-05-25T14:30:55Z</time>
      </trkpt>
      <trkpt lat="45.70281" lon="5.74954">
        <ele>259</ele>
        <time>2017-05-25T14:31:11Z</time>
      </trkpt>
      <trkpt lat="45.70286" lon="5.7496">
        <ele>262</ele>
        <time>2017-05-25T14:31:11Z</time>
      </trkpt>
      <trkpt lat="45.70289" lon="5.74965">
        <ele>262</ele>
        <time>2017-05-25T14:31:11Z</time>
      </trkpt>
      <trkpt lat="45.70293" lon="5.74968">
        <ele>247</ele>
        <time>2017-05-25T14:31:11Z</time>
      </trkpt>
      <trkpt lat="45.70298" lon="5.74971">
        <ele>247</ele>
        <time>2017-05-25T14:31:27Z</time>
      </trkpt>
      <trkpt lat="45.70304" lon="5.74974">
        <ele>247</ele>
        <time>2017-05-25T14:31:27Z</time>
      </trkpt>
      <trkpt lat="45.70309" lon="5.74978">
        <ele>247</ele>
        <time>2017-05-25T14:31:27Z</time>
      </trkpt>
      <trkpt lat="45.70313" lon="5.74981">
        <ele>247</ele>
        <time>2017-05-25T14:31:27Z</time>
      </trkpt>
      <trkpt lat="45.70318" lon="5.74984">
        <ele>247</ele>
        <time>2017-05-25T14:31:43Z</time>
      </trkpt>
      <trkpt lat="45.70323" lon="5.74986">
        <ele>247</ele>
        <time>2017-05-25T14:31:43Z</time>
      </trkpt>
      <trkpt lat="45.70328" lon="5.74988">
        <ele>247</ele>
        <time>2017-05-25T14:31:43Z</time>
      </trkpt>
      <trkpt lat="45.70334" lon="5.74993">
        <ele>247</ele>
        <time>2017-05-25T14:31:43Z</time>
      </trkpt>
      <trkpt lat="45.70341" lon="5.74997">
        <ele>247</ele>
        <time>2017-05-25T14:31:59Z</time>
      </trkpt>
      <trkpt lat="45.70344" lon="5.75002">
        <ele>247</ele>
        <time>2017-05-25T14:31:59Z</time>
      </trkpt>
      <trkpt lat="45.70347" lon="5.75006">
        <ele>247</ele>
        <time>2017-05-25T14:31:59Z</time>
      </trkpt>
      <trkpt lat="45.70352" lon="5.75011">
        <ele>247</ele>
        <time>2017-05-25T14:31:59Z</time>
      </trkpt>
      <trkpt lat="45.70356" lon="5.75017">
        <ele>247</ele>
        <time>2017-05-25T14:32:15Z</time>
      </trkpt>
      <trkpt lat="45.7036" lon="5.75022">
        <ele>247</ele>
        <time>2017-05-25T14:32:15Z</time>
      </trkpt>
      <trkpt lat="45.70365" lon="5.75026">
        <ele>247</ele>
        <time>2017-05-25T14:32:15Z</time>
      </trkpt>
      <trkpt lat="45.70368" lon="5.75033">
        <ele>247</ele>
        <time>2017-05-25T14:32:15Z</time>
      </trkpt>
      <trkpt lat="45.70372" lon="5.75039">
        <ele>247</ele>
        <time>2017-05-25T14:32:31Z</time>
      </trkpt>
      <trkpt lat="45.70376" lon="5.75044">
        <ele>239</ele>
        <time>2017-05-25T14:32:31Z</time>
      </trkpt>
      <trkpt lat="45.70381" lon="5.75047">
        <ele>239</ele>
        <time>2017-05-25T14:32:31Z</time>
      </trkpt>
      <trkpt lat="45.70385" lon="5.7505">
        <ele>239</ele>
        <time>2017-05-25T14:32:31Z</time>
      </trkpt>
      <trkpt lat="45.70391" lon="5.75052">
        <ele>239</ele>
        <time>2017-05-25T14:32:47Z</time>
      </trkpt>
      <trkpt lat="45.70396" lon="5.75056">
        <ele>239</ele>
        <time>2017-05-25T14:32:47Z</time>
      </trkpt>
      <trkpt lat="45.70401" lon="5.7506">
        <ele>239</ele>
        <time>2017-05-25T14:32:47Z</time>
      </trkpt>
      <trkpt lat="45.70407" lon="5.75064">
        <ele>239</ele>
        <time>2017-05-25T14:32:47Z</time>
      </trkpt>
      <trkpt lat="45.70412" lon="5.75067">
        <ele>239</ele>
        <time>2017-05-25T14:33:03Z</time>
      </trkpt>
      <trkpt lat="45.70417" lon="5.7507">
        <ele>239</ele>
        <time>2017-05-25T14:33:03Z</time>
      </trkpt>
      <trkpt lat="45.70423" lon="5.75072">
        <ele>239</ele>
        <time>2017-05-25T14:33:03Z</time>
      </trkpt>
      <trkpt lat="45.70428" lon="5.75076">
        <ele>239</ele>
        <time>2017-05-25T14:33:03Z</time>
      </trkpt>
      <trkpt lat="45.70432" lon="5.75077">
        <ele>239</ele>
        <time>2017-05-25T14:33:19Z</time>
      </trkpt>
      <trkpt lat="45.70436" lon="5.7508">
        <ele>239</ele>
        <time>2017-05-25T14:33:19Z</time>
      </trkpt>
      <trkpt lat="45.70441" lon="5.75083">
        <ele>239</ele>
        <time>2017-05-25T14:33:19Z</time>
      </trkpt>
      <trkpt lat="45.70445" lon="5.75086">
        <ele>239</ele>
        <time>2017-05-25T14:33:19Z</time>
      </trkpt>
      <trkpt lat="45.70449" lon="5.75089">
        <ele>239</ele>
        <time>2017-05-25T14:33:35Z</time>
      </trkpt>
      <trkpt lat="45.70455" lon="5.75093">
        <ele>239</ele>
        <time>2017-05-25T14:33:35Z</time>
      </trkpt>
      <trkpt lat="45.70461" lon="5.75097">
        <ele>234</ele>
        <time>2017-05-25T14:33:35Z</time>
      </trkpt>
      <trkpt lat="45.70466" lon="5.75101">
        <ele>234</ele>
        <time>2017-05-25T14:33:35Z</time>
      </trkpt>
      <trkpt lat="45.70472" lon="5.75104">
        <ele>234</ele>
        <time>2017-05-25T14:33:51Z</time>
      </trkpt>
      <trkpt lat="45.70476" lon="5.75108">
        <ele>234</ele>
        <time>2017-05-25T14:33:51Z</time>
      </trkpt>
      <trkpt lat="45.7048" lon="5.75111">
        <ele>234</ele>
        <time>2017-05-25T14:33:51Z</time>
      </trkpt>
      <trkpt lat="45.70485" lon="5.75115">
        <ele>234</ele>
        <time>2017-05-25T14:33:51Z</time>
      </trkpt>
      <trkpt lat="45.7049" lon="5.75119">
        <ele>234</ele>
        <time>2017-05-25T14:34:07Z</time>
      </trkpt>
      <trkpt lat="45.70494" lon="5.75123">
        <ele>234</ele>
        <time>2017-05-25T14:34:07Z</time>
      </trkpt>
      <trkpt lat="45.705" lon="5.75127">
        <ele>232</ele>
        <time>2017-05-25T14:34:07Z</time>
      </trkpt>
      <trkpt lat="45.70505" lon="5.75131">
        <ele>232</ele>
        <time>2017-05-25T14:34:07Z</time>
      </trkpt>
      <trkpt lat="45.70509" lon="5.75135">
        <ele>232</ele>
        <time>2017-05-25T14:34:23Z</time>
      </trkpt>
      <trkpt lat="45.70514" lon="5.7514">
        <ele>232</ele>
        <time>2017-05-25T14:34:23Z</time>
      </trkpt>
      <trkpt lat="45.70519" lon="5.75144">
        <ele>232</ele>
        <time>2017-05-25T14:34:23Z</time>
      </trkpt>
      <trkpt lat="45.70519" lon="5.75153">
        <ele>232</ele>
        <time>2017-05-25T14:34:23Z</time>
      </trkpt>
      <trkpt lat="45.70517" lon="5.75162">
        <ele>232</ele>
        <time>2017-05-25T14:34:39Z</time>
      </trkpt>
      <trkpt lat="45.70516" lon="5.75169">
        <ele>232</ele>
        <time>2017-05-25T14:34:39Z</time>
      </trkpt>
      <trkpt lat="45.70515" lon="5.75177">
        <ele>232</ele>
        <time>2017-05-25T14:34:39Z</time>
      </trkpt>
      <trkpt lat="45.70514" lon="5.75184">
        <ele>232</ele>
        <time>2017-05-25T14:34:39Z</time>
      </trkpt>
      <trkpt lat="45.70512" lon="5.75191">
        <ele>232</ele>
        <time>2017-05-25T14:34:55Z</time>
      </trkpt>
      <trkpt lat="45.70511" lon="5.75199">
        <ele>232</ele>
        <time>2017-05-25T14:34:55Z</time>
      </trkpt>
      <trkpt lat="45.70508" lon="5.75206">
        <ele>232</ele>
        <time>2017-05-25T14:34:55Z</time>
      </trkpt>
      <trkpt lat="45.70506" lon="5.75213">
        <ele>231</ele>
        <time>2017-05-25T14:34:55Z</time>
      </trkpt>
      <trkpt lat="45.70503" lon="5.75219">
        <ele>231</ele>
        <time>2017-05-25T14:35:11Z</time>
      </trkpt>
      <trkpt lat="45.705" lon="5.75226">
        <ele>231</ele>
        <time>2017-05-25T14:35:11Z</time>
      </trkpt>
      <trkpt lat="45.70499" lon="5.75233">
        <ele>231</ele>
        <time>2017-05-25T14:35:11Z</time>
      </trkpt>
      <trkpt lat="45.70499" lon="5.75242">
        <ele>231</ele>
        <time>2017-05-25T14:35:11Z</time>
      </trkpt>
      <trkpt lat="45.70499" lon="5.7525">
        <ele>231</ele>
        <time>2017-05-25T14:35:27Z</time>
      </trkpt>
      <trkpt lat="45.705" lon="5.75258">
        <ele>231</ele>
        <time>2017-05-25T14:35:27Z</time>
      </trkpt>
      <trkpt lat="45.70498" lon="5.75267">
        <ele>231</ele>
        <time>2017-05-25T14:35:27Z</time>
      </trkpt>
      <trkpt lat="45.70497" lon="5.75275">
        <ele>231</ele>
        <time>2017-05-25T14:35:27Z</time>
      </trkpt>
      <trkpt lat="45.70494" lon="5.75282">
        <ele>231</ele>
        <time>2017-05-25T14:35:43Z</time>
      </trkpt>
      <trkpt lat="45.70492" lon="5.7529">
        <ele>231</ele>
        <time>2017-05-25T14:35:43Z</time>
      </trkpt>
      <trkpt lat="45.70491" lon="5.75298">
        <ele>227</ele>
        <time>2017-05-25T14:35:43Z</time>
      </trkpt>
      <trkpt lat="45.70491" lon="5.75303">
        <ele>227</ele>
        <time>2017-05-25T14:35:43Z</time>
      </trkpt>
      <trkpt lat="45.70491" lon="5.75308">
        <ele>227</ele>
        <time>2017-05-25T14:35:59Z</time>
      </trkpt>
      <trkpt lat="45.70492" lon="5.75316">
        <ele>227</ele>
        <time>2017-05-25T14:35:59Z</time>
      </trkpt>
      <trkpt lat="45.70492" lon="5.75324">
        <ele>227</ele>
        <time>2017-05-25T14:35:59Z</time>
      </trkpt>
      <trkpt lat="45.70491" lon="5.75331">
        <ele>227</ele>
        <time>2017-05-25T14:35:59Z</time>
      </trkpt>
      <trkpt lat="45.7049" lon="5.75338">
        <ele>227</ele>
        <time>2017-05-25T14:36:15Z</time>
      </trkpt>
      <trkpt lat="45.70489" lon="5.75345">
        <ele>227</ele>
        <time>2017-05-25T14:36:15Z</time>
      </trkpt>
      <trkpt lat="45.70489" lon="5.75352">
        <ele>227</ele>
        <time>2017-05-25T14:36:15Z</time>
      </trkpt>
      <trkpt lat="45.70492" lon="5.75358">
        <ele>227</ele>
        <time>2017-05-25T14:36:15Z</time>
      </trkpt>
      <trkpt lat="45.70497" lon="5.75359">
        <ele>227</ele>
        <time>2017-05-25T14:36:31Z</time>
      </trkpt>
      <trkpt lat="45.70503" lon="5.75357">
        <ele>227</ele>
        <time>2017-05-25T14:36:31Z</time>
      </trkpt>
      <trkpt lat="45.70507" lon="5.75351">
        <ele>227</ele>
        <time>2017-05-25T14:36:31Z</time>
      </trkpt>
      <trkpt lat="45.7051" lon="5.75344">
        <ele>227</ele>
        <time>2017-05-25T14:36:31Z</time>
      </trkpt>
      <trkpt lat="45.70512" lon="5.75336">
        <ele>227</ele>
        <time>2017-05-25T14:36:47Z</time>
      </trkpt>
      <trkpt lat="45.70514" lon="5.75329">
        <ele>227</ele>
        <time>2017-05-25T14:36:47Z</time>
      </trkpt>
      <trkpt lat="45.70517" lon="5.75323">
        <ele>227</ele>
        <time>2017-05-25T14:36:47Z</time>
      </trkpt>
      <trkpt lat="45.70519" lon="5.75317">
        <ele>227</ele>
        <time>2017-05-25T14:36:47Z</time>
      </trkpt>
      <trkpt lat="45.70524" lon="5.75312">
        <ele>227</ele>
        <time>2017-05-25T14:37:27Z</time>
      </trkpt>
      <trkpt lat="45.70524" lon="5.75311">
        <ele>227</ele>
        <time>2017-05-25T14:37:27Z</time>
      </trkpt>
      <trkpt lat="45.70526" lon="5.75312">
        <ele>227</ele>
        <time>2017-05-25T14:37:27Z</time>
      </trkpt>
      <trkpt lat="45.70527" lon="5.75313">
        <ele>227</ele>
        <time>2017-05-25T14:37:27Z</time>
      </trkpt>
      <trkpt lat="45.70534" lon="5.75314">
        <ele>227</ele>
        <time>2017-05-25T14:37:27Z</time>
      </trkpt>
      <trkpt lat="45.70552" lon="5.75318">
        <ele>227</ele>
        <time>2017-05-25T14:37:59Z</time>
      </trkpt>
      <trkpt lat="45.70552" lon="5.75318">
        <ele>227</ele>
        <time>2017-05-25T14:37:59Z</time>
      </trkpt>
      <trkpt lat="45.70554" lon="5.75318">
        <ele>227</ele>
        <time>2017-05-25T14:37:59Z</time>
      </trkpt>
      <trkpt lat="45.70559" lon="5.75315">
        <ele>227</ele>
        <time>2017-05-25T14:37:59Z</time>
      </trkpt>
      <trkpt lat="45.70563" lon="5.75313">
        <ele>227</ele>
        <time>2017-05-25T14:37:59Z</time>
      </trkpt>
      <trkpt lat="45.70569" lon="5.75314">
        <ele>227</ele>
        <time>2017-05-25T14:38:15Z</time>
      </trkpt>
      <trkpt lat="45.70574" lon="5.75314">
        <ele>227</ele>
        <time>2017-05-25T14:38:15Z</time>
      </trkpt>
      <trkpt lat="45.70579" lon="5.75314">
        <ele>227</ele>
        <time>2017-05-25T14:38:15Z</time>
      </trkpt>
      <trkpt lat="45.70584" lon="5.75315">
        <ele>227</ele>
        <time>2017-05-25T14:38:15Z</time>
      </trkpt>
      <trkpt lat="45.70588" lon="5.75315">
        <ele>227</ele>
        <time>2017-05-25T14:38:31Z</time>
      </trkpt>
      <trkpt lat="45.70594" lon="5.75315">
        <ele>227</ele>
        <time>2017-05-25T14:38:31Z</time>
      </trkpt>
      <trkpt lat="45.706" lon="5.75316">
        <ele>227</ele>
        <time>2017-05-25T14:38:31Z</time>
      </trkpt>
      <trkpt lat="45.70606" lon="5.75316">
        <ele>227</ele>
        <time>2017-05-25T14:38:31Z</time>
      </trkpt>
      <trkpt lat="45.70611" lon="5.75317">
        <ele>227</ele>
        <time>2017-05-25T14:38:47Z</time>
      </trkpt>
      <trkpt lat="45.70617" lon="5.75319">
        <ele>227</ele>
        <time>2017-05-25T14:38:47Z</time>
      </trkpt>
      <trkpt lat="45.70621" lon="5.7532">
        <ele>227</ele>
        <time>2017-05-25T14:38:47Z</time>
      </trkpt>
      <trkpt lat="45.70628" lon="5.75325">
        <ele>223</ele>
        <time>2017-05-25T14:38:47Z</time>
      </trkpt>
      <trkpt lat="45.70633" lon="5.7533">
        <ele>223</ele>
        <time>2017-05-25T14:39:07Z</time>
      </trkpt>
      <trkpt lat="45.70634" lon="5.75328">
        <ele>223</ele>
        <time>2017-05-25T14:39:07Z</time>
      </trkpt>
      <trkpt lat="45.70636" lon="5.75331">
        <ele>223</ele>
        <time>2017-05-25T14:39:07Z</time>
      </trkpt>
      <trkpt lat="45.7064" lon="5.75336">
        <ele>223</ele>
        <time>2017-05-25T14:39:07Z</time>
      </trkpt>
      <trkpt lat="45.70641" lon="5.75343">
        <ele>223</ele>
        <time>2017-05-25T14:39:07Z</time>
      </trkpt>
      <trkpt lat="45.70644" lon="5.75351">
        <ele>223</ele>
        <time>2017-05-25T14:39:23Z</time>
      </trkpt>
      <trkpt lat="45.70646" lon="5.75359">
        <ele>223</ele>
        <time>2017-05-25T14:39:23Z</time>
      </trkpt>
      <trkpt lat="45.70647" lon="5.75367">
        <ele>223</ele>
        <time>2017-05-25T14:39:23Z</time>
      </trkpt>
      <trkpt lat="45.70648" lon="5.75376">
        <ele>223</ele>
        <time>2017-05-25T14:39:23Z</time>
      </trkpt>
      <trkpt lat="45.70648" lon="5.75385">
        <ele>223</ele>
        <time>2017-05-25T14:39:39Z</time>
      </trkpt>
      <trkpt lat="45.70648" lon="5.75393">
        <ele>223</ele>
        <time>2017-05-25T14:39:39Z</time>
      </trkpt>
      <trkpt lat="45.70647" lon="5.75401">
        <ele>223</ele>
        <time>2017-05-25T14:39:39Z</time>
      </trkpt>
      <trkpt lat="45.70645" lon="5.75409">
        <ele>223</ele>
        <time>2017-05-25T14:39:39Z</time>
      </trkpt>
      <trkpt lat="45.70643" lon="5.75417">
        <ele>223</ele>
        <time>2017-05-25T14:39:55Z</time>
      </trkpt>
      <trkpt lat="45.70643" lon="5.75422">
        <ele>223</ele>
        <time>2017-05-25T14:39:55Z</time>
      </trkpt>
      <trkpt lat="45.70641" lon="5.75428">
        <ele>223</ele>
        <time>2017-05-25T14:39:55Z</time>
      </trkpt>
      <trkpt lat="45.70639" lon="5.75435">
        <ele>223</ele>
        <time>2017-05-25T14:39:55Z</time>
      </trkpt>
      <trkpt lat="45.70638" lon="5.75441">
        <ele>223</ele>
        <time>2017-05-25T14:40:11Z</time>
      </trkpt>
      <trkpt lat="45.70639" lon="5.75449">
        <ele>223</ele>
        <time>2017-05-25T14:40:11Z</time>
      </trkpt>
      <trkpt lat="45.70638" lon="5.75457">
        <ele>223</ele>
        <time>2017-05-25T14:40:11Z</time>
      </trkpt>
      <trkpt lat="45.70636" lon="5.75465">
        <ele>224</ele>
        <time>2017-05-25T14:40:11Z</time>
      </trkpt>
      <trkpt lat="45.70634" lon="5.75471">
        <ele>224</ele>
        <time>2017-05-25T14:40:27Z</time>
      </trkpt>
      <trkpt lat="45.70633" lon="5.75478">
        <ele>224</ele>
        <time>2017-05-25T14:40:27Z</time>
      </trkpt>
      <trkpt lat="45.70633" lon="5.75484">
        <ele>224</ele>
        <time>2017-05-25T14:40:27Z</time>
      </trkpt>
      <trkpt lat="45.70634" lon="5.75491">
        <ele>224</ele>
        <time>2017-05-25T14:40:27Z</time>
      </trkpt>
      <trkpt lat="45.70634" lon="5.75503">
        <ele>224</ele>
        <time>2017-05-25T14:41:35Z</time>
      </trkpt>
      <trkpt lat="45.70632" lon="5.75505">
        <ele>224</ele>
        <time>2017-05-25T14:41:35Z</time>
      </trkpt>
      <trkpt lat="45.70631" lon="5.75508">
        <ele>224</ele>
        <time>2017-05-25T14:41:35Z</time>
      </trkpt>
      <trkpt lat="45.7063" lon="5.75509">
        <ele>224</ele>
        <time>2017-05-25T14:41:35Z</time>
      </trkpt>
      <trkpt lat="45.7063" lon="5.7551">
        <ele>224</ele>
        <time>2017-05-25T14:41:35Z</time>
      </trkpt>
      <trkpt lat="45.70632" lon="5.75507">
        <ele>224</ele>
        <time>2017-05-25T14:44:43Z</time>
      </trkpt>
      <trkpt lat="45.70635" lon="5.75506">
        <ele>224</ele>
        <time>2017-05-25T14:44:43Z</time>
      </trkpt>
      <trkpt lat="45.70638" lon="5.75505">
        <ele>224</ele>
        <time>2017-05-25T14:44:43Z</time>
      </trkpt>
      <trkpt lat="45.70638" lon="5.75505">
        <ele>224</ele>
        <time>2017-05-25T14:44:43Z</time>
      </trkpt>
      <trkpt lat="45.70639" lon="5.75504">
        <ele>224</ele>
        <time>2017-05-25T14:44:43Z</time>
      </trkpt>
      <trkpt lat="45.70637" lon="5.75496">
        <ele>224</ele>
        <time>2017-05-25T15:22:11Z</time>
      </trkpt>
      <trkpt lat="45.70639" lon="5.75493">
        <ele>224</ele>
        <time>2017-05-25T15:22:11Z</time>
      </trkpt>
      <trkpt lat="45.70641" lon="5.75491">
        <ele>224</ele>
        <time>2017-05-25T15:22:11Z</time>
      </trkpt>
      <trkpt lat="45.70644" lon="5.75488">
        <ele>224</ele>
        <time>2017-05-25T15:22:11Z</time>
      </trkpt>
      <trkpt lat="45.70645" lon="5.75488">
        <ele>224</ele>
        <time>2017-05-25T15:22:11Z</time>
      </trkpt>
      <trkpt lat="45.70639" lon="5.75492">
        <ele>224</ele>
        <time>2017-05-25T15:22:43Z</time>
      </trkpt>
      <trkpt lat="45.70638" lon="5.75493">
        <ele>224</ele>
        <time>2017-05-25T15:22:43Z</time>
      </trkpt>
      <trkpt lat="45.70637" lon="5.75493">
        <ele>224</ele>
        <time>2017-05-25T15:22:43Z</time>
      </trkpt>
      <trkpt lat="45.70636" lon="5.75494">
        <ele>224</ele>
        <time>2017-05-25T15:22:43Z</time>
      </trkpt>
      <trkpt lat="45.70631" lon="5.75499">
        <ele>224</ele>
        <time>2017-05-25T15:22:43Z</time>
      </trkpt>
      <trkpt lat="45.70632" lon="5.75501">
        <ele>224</ele>
        <time>2017-05-25T15:24:23Z</time>
      </trkpt>
      <trkpt lat="45.70633" lon="5.75502">
        <ele>224</ele>
        <time>2017-05-25T15:24:23Z</time>
      </trkpt>
      <trkpt lat="45.70634" lon="5.75501">
        <ele>224</ele>
        <time>2017-05-25T15:24:23Z</time>
      </trkpt>
      <trkpt lat="45.70637" lon="5.755">
        <ele>224</ele>
        <time>2017-05-25T15:24:23Z</time>
      </trkpt>
      <trkpt lat="45.7064" lon="5.755">
        <ele>224</ele>
        <time>2017-05-25T15:24:23Z</time>
      </trkpt>
      <trkpt lat="45.70638" lon="5.75501">
        <ele>224</ele>
        <time>2017-05-25T15:25:15Z</time>
      </trkpt>
      <trkpt lat="45.70638" lon="5.75501">
        <ele>224</ele>
        <time>2017-05-25T15:25:15Z</time>
      </trkpt>
      <trkpt lat="45.70637" lon="5.75501">
        <ele>224</ele>
        <time>2017-05-25T15:25:15Z</time>
      </trkpt>
      <trkpt lat="45.7063" lon="5.755">
        <ele>224</ele>
        <time>2017-05-25T15:25:15Z</time>
      </trkpt>
      <trkpt lat="45.70628" lon="5.755">
        <ele>224</ele>
        <time>2017-05-25T15:25:15Z</time>
      </trkpt>
      <trkpt lat="45.70635" lon="5.75499">
        <ele>224</ele>
        <time>2017-05-25T15:27:47Z</time>
      </trkpt>
      <trkpt lat="45.70635" lon="5.75499">
        <ele>224</ele>
        <time>2017-05-25T15:27:47Z</time>
      </trkpt>
      <trkpt lat="45.70635" lon="5.75499">
        <ele>224</ele>
        <time>2017-05-25T15:27:47Z</time>
      </trkpt>
      <trkpt lat="45.70635" lon="5.75499">
        <ele>224</ele>
        <time>2017-05-25T15:27:47Z</time>
      </trkpt>
      <trkpt lat="45.70637" lon="5.75497">
        <ele>224</ele>
        <time>2017-05-25T15:27:47Z</time>
      </trkpt>
      <trkpt lat="45.70637" lon="5.75495">
        <ele>224</ele>
        <time>2017-05-25T15:28:59Z</time>
      </trkpt>
      <trkpt lat="45.70636" lon="5.75496">
        <ele>224</ele>
        <time>2017-05-25T15:28:59Z</time>
      </trkpt>
      <trkpt lat="45.70633" lon="5.75496">
        <ele>224</ele>
        <time>2017-05-25T15:28:59Z</time>
      </trkpt>
      <trkpt lat="45.70631" lon="5.755">
        <ele>224</ele>
        <time>2017-05-25T15:28:59Z</time>
      </trkpt>
      <trkpt lat="45.7063" lon="5.75503">
        <ele>224</ele>
        <time>2017-05-25T15:28:59Z</time>
      </trkpt>
      <trkpt lat="45.70633" lon="5.7551">
        <ele>224</ele>
        <time>2017-05-25T15:34:27Z</time>
      </trkpt>
      <trkpt lat="45.70637" lon="5.75509">
        <ele>224</ele>
        <time>2017-05-25T15:34:27Z</time>
      </trkpt>
      <trkpt lat="45.70639" lon="5.75507">
        <ele>224</ele>
        <time>2017-05-25T15:34:27Z</time>
      </trkpt>
      <trkpt lat="45.70639" lon="5.75505">
        <ele>224</ele>
        <time>2017-05-25T15:34:27Z</time>
      </trkpt>
      <trkpt lat="45.70639" lon="5.75505">
        <ele>224</ele>
        <time>2017-05-25T15:34:27Z</time>
      </trkpt>
      <trkpt lat="45.7063" lon="5.75503">
        <ele>224</ele>
        <time>2017-05-25T15:36:19Z</time>
      </trkpt>
      <trkpt lat="45.7063" lon="5.75503">
        <ele>224</ele>
        <time>2017-05-25T15:36:19Z</time>
      </trkpt>
      <trkpt lat="45.7063" lon="5.75503">
        <ele>224</ele>
        <time>2017-05-25T15:36:19Z</time>
      </trkpt>
      <trkpt lat="45.7063" lon="5.75503">
        <ele>224</ele>
        <time>2017-05-25T15:36:19Z</time>
      </trkpt>
      <trkpt lat="45.7063" lon="5.75503">
        <ele>224</ele>
        <time>2017-05-25T15:36:19Z</time>
      </trkpt>
      <trkpt lat="45.70631" lon="5.755">
        <ele>224</ele>
        <time>2017-05-25T15:38:07Z</time>
      </trkpt>
      <trkpt lat="45.70632" lon="5.75499">
        <ele>224</ele>
        <time>2017-05-25T15:38:07Z</time>
      </trkpt>
      <trkpt lat="45.70634" lon="5.75497">
        <ele>224</ele>
        <time>2017-05-25T15:38:07Z</time>
      </trkpt>
      <trkpt lat="45.70638" lon="5.75499">
        <ele>224</ele>
        <time>2017-05-25T15:38:07Z</time>
      </trkpt>
      <trkpt lat="45.70638" lon="5.75496">
        <ele>224</ele>
        <time>2017-05-25T15:38:07Z</time>
      </trkpt>
      <trkpt lat="45.7063" lon="5.75497">
        <ele>224</ele>
        <time>2017-05-25T15:39:11Z</time>
      </trkpt>
      <trkpt lat="45.70629" lon="5.75501">
        <ele>224</ele>
        <time>2017-05-25T15:39:11Z</time>
      </trkpt>
      <trkpt lat="45.70628" lon="5.75502">
        <ele>224</ele>
        <time>2017-05-25T15:39:11Z</time>
      </trkpt>
      <trkpt lat="45.70628" lon="5.75502">
        <ele>224</ele>
        <time>2017-05-25T15:39:11Z</time>
      </trkpt>
      <trkpt lat="45.70628" lon="5.75503">
        <ele>224</ele>
        <time>2017-05-25T15:39:11Z</time>
      </trkpt>
      <trkpt lat="45.70627" lon="5.75503">
        <ele>224</ele>
        <time>2017-05-25T15:43:59Z</time>
      </trkpt>
      <trkpt lat="45.70627" lon="5.75503">
        <ele>224</ele>
        <time>2017-05-25T15:43:59Z</time>
      </trkpt>
      <trkpt lat="45.70627" lon="5.75503">
        <ele>224</ele>
        <time>2017-05-25T15:43:59Z</time>
      </trkpt>
      <trkpt lat="45.70627" lon="5.75503">
        <ele>224</ele>
        <time>2017-05-25T15:43:59Z</time>
      </trkpt>
      <trkpt lat="45.7062" lon="5.75512">
        <ele>229</ele>
        <time>2017-05-25T15:43:59Z</time>
      </trkpt>
      <trkpt lat="45.70612" lon="5.75519">
        <ele>229</ele>
        <time>2017-05-25T15:44:15Z</time>
      </trkpt>
      <trkpt lat="45.70607" lon="5.75523">
        <ele>229</ele>
        <time>2017-05-25T15:44:15Z</time>
      </trkpt>
      <trkpt lat="45.70603" lon="5.75528">
        <ele>229</ele>
        <time>2017-05-25T15:44:15Z</time>
      </trkpt>
      <trkpt lat="45.70602" lon="5.75533">
        <ele>229</ele>
        <time>2017-05-25T15:44:15Z</time>
      </trkpt>
      <trkpt lat="45.70602" lon="5.75541">
        <ele>229</ele>
        <time>2017-05-25T15:44:31Z</time>
      </trkpt>
      <trkpt lat="45.70603" lon="5.75551">
        <ele>228</ele>
        <time>2017-05-25T15:44:31Z</time>
      </trkpt>
      <trkpt lat="45.70606" lon="5.75556">
        <ele>228</ele>
        <time>2017-05-25T15:44:31Z</time>
      </trkpt>
      <trkpt lat="45.70608" lon="5.75561">
        <ele>228</ele>
        <time>2017-05-25T15:44:31Z</time>
      </trkpt>
      <trkpt lat="45.70607" lon="5.75614">
        <ele>228</ele>
        <time>2017-05-25T15:46:07Z</time>
      </trkpt>
      <trkpt lat="45.70606" lon="5.75615">
        <ele>228</ele>
        <time>2017-05-25T15:46:07Z</time>
      </trkpt>
      <trkpt lat="45.70605" lon="5.75615">
        <ele>228</ele>
        <time>2017-05-25T15:46:07Z</time>
      </trkpt>
      <trkpt lat="45.70606" lon="5.75615">
        <ele>228</ele>
        <time>2017-05-25T15:46:07Z</time>
      </trkpt>
      <trkpt lat="45.70604" lon="5.7562">
        <ele>228</ele>
        <time>2017-05-25T15:46:07Z</time>
      </trkpt>
      <trkpt lat="45.70601" lon="5.75627">
        <ele>227</ele>
        <time>2017-05-25T15:46:23Z</time>
      </trkpt>
      <trkpt lat="45.70601" lon="5.75635">
        <ele>227</ele>
        <time>2017-05-25T15:46:23Z</time>
      </trkpt>
      <trkpt lat="45.70601" lon="5.75642">
        <ele>227</ele>
        <time>2017-05-25T15:46:23Z</time>
      </trkpt>
      <trkpt lat="45.706" lon="5.75648">
        <ele>227</ele>
        <time>2017-05-25T15:46:23Z</time>
      </trkpt>
      <trkpt lat="45.70601" lon="5.75653">
        <ele>227</ele>
        <time>2017-05-25T15:46:39Z</time>
      </trkpt>
      <trkpt lat="45.70602" lon="5.75661">
        <ele>227</ele>
        <time>2017-05-25T15:46:39Z</time>
      </trkpt>
      <trkpt lat="45.70603" lon="5.75668">
        <ele>227</ele>
        <time>2017-05-25T15:46:39Z</time>
      </trkpt>
      <trkpt lat="45.70605" lon="5.75675">
        <ele>227</ele>
        <time>2017-05-25T15:46:39Z</time>
      </trkpt>
      <trkpt lat="45.70605" lon="5.75682">
        <ele>227</ele>
        <time>2017-05-25T15:46:55Z</time>
      </trkpt>
      <trkpt lat="45.70605" lon="5.7569">
        <ele>227</ele>
        <time>2017-05-25T15:46:55Z</time>
      </trkpt>
      <trkpt lat="45.70605" lon="5.75698">
        <ele>227</ele>
        <time>2017-05-25T15:46:55Z</time>
      </trkpt>
      <trkpt lat="45.70607" lon="5.75705">
        <ele>227</ele>
        <time>2017-05-25T15:46:55Z</time>
      </trkpt>
      <trkpt lat="45.70608" lon="5.75711">
        <ele>226</ele>
        <time>2017-05-25T15:47:11Z</time>
      </trkpt>
      <trkpt lat="45.70609" lon="5.75717">
        <ele>226</ele>
        <time>2017-05-25T15:47:11Z</time>
      </trkpt>
      <trkpt lat="45.70609" lon="5.75725">
        <ele>226</ele>
        <time>2017-05-25T15:47:11Z</time>
      </trkpt>
      <trkpt lat="45.70611" lon="5.75733">
        <ele>226</ele>
        <time>2017-05-25T15:47:11Z</time>
      </trkpt>
      <trkpt lat="45.70613" lon="5.75739">
        <ele>226</ele>
        <time>2017-05-25T15:47:27Z</time>
      </trkpt>
      <trkpt lat="45.70614" lon="5.75747">
        <ele>226</ele>
        <time>2017-05-25T15:47:27Z</time>
      </trkpt>
      <trkpt lat="45.70616" lon="5.75753">
        <ele>226</ele>
        <time>2017-05-25T15:47:27Z</time>
      </trkpt>
      <trkpt lat="45.70618" lon="5.7576">
        <ele>226</ele>
        <time>2017-05-25T15:47:27Z</time>
      </trkpt>
      <trkpt lat="45.70619" lon="5.75766">
        <ele>226</ele>
        <time>2017-05-25T15:47:43Z</time>
      </trkpt>
      <trkpt lat="45.7062" lon="5.75774">
        <ele>226</ele>
        <time>2017-05-25T15:47:43Z</time>
      </trkpt>
      <trkpt lat="45.70621" lon="5.75784">
        <ele>226</ele>
        <time>2017-05-25T15:47:43Z</time>
      </trkpt>
      <trkpt lat="45.70624" lon="5.75792">
        <ele>227</ele>
        <time>2017-05-25T15:47:43Z</time>
      </trkpt>
      <trkpt lat="45.70626" lon="5.758">
        <ele>224</ele>
        <time>2017-05-25T15:47:59Z</time>
      </trkpt>
      <trkpt lat="45.70627" lon="5.7581">
        <ele>224</ele>
        <time>2017-05-25T15:47:59Z</time>
      </trkpt>
      <trkpt lat="45.70628" lon="5.7582">
        <ele>224</ele>
        <time>2017-05-25T15:47:59Z</time>
      </trkpt>
      <trkpt lat="45.70628" lon="5.75826">
        <ele>224</ele>
        <time>2017-05-25T15:47:59Z</time>
      </trkpt>
      <trkpt lat="45.70632" lon="5.7583">
        <ele>224</ele>
        <time>2017-05-25T15:48:15Z</time>
      </trkpt>
      <trkpt lat="45.70633" lon="5.75836">
        <ele>224</ele>
        <time>2017-05-25T15:48:15Z</time>
      </trkpt>
      <trkpt lat="45.70634" lon="5.75843">
        <ele>224</ele>
        <time>2017-05-25T15:48:15Z</time>
      </trkpt>
      <trkpt lat="45.70635" lon="5.75851">
        <ele>224</ele>
        <time>2017-05-25T15:48:15Z</time>
      </trkpt>
      <trkpt lat="45.70636" lon="5.75862">
        <ele>224</ele>
        <time>2017-05-25T15:48:31Z</time>
      </trkpt>
      <trkpt lat="45.70637" lon="5.75874">
        <ele>224</ele>
        <time>2017-05-25T15:48:31Z</time>
      </trkpt>
      <trkpt lat="45.70637" lon="5.75884">
        <ele>224</ele>
        <time>2017-05-25T15:48:31Z</time>
      </trkpt>
      <trkpt lat="45.70639" lon="5.75893">
        <ele>224</ele>
        <time>2017-05-25T15:48:31Z</time>
      </trkpt>
      <trkpt lat="45.7064" lon="5.759">
        <ele>224</ele>
        <time>2017-05-25T15:48:47Z</time>
      </trkpt>
      <trkpt lat="45.7064" lon="5.75908">
        <ele>224</ele>
        <time>2017-05-25T15:48:47Z</time>
      </trkpt>
      <trkpt lat="45.7064" lon="5.75917">
        <ele>224</ele>
        <time>2017-05-25T15:48:47Z</time>
      </trkpt>
      <trkpt lat="45.7064" lon="5.75927">
        <ele>224</ele>
        <time>2017-05-25T15:48:47Z</time>
      </trkpt>
      <trkpt lat="45.70642" lon="5.75935">
        <ele>224</ele>
        <time>2017-05-25T15:49:03Z</time>
      </trkpt>
      <trkpt lat="45.70644" lon="5.75943">
        <ele>224</ele>
        <time>2017-05-25T15:49:03Z</time>
      </trkpt>
      <trkpt lat="45.70646" lon="5.75949">
        <ele>224</ele>
        <time>2017-05-25T15:49:03Z</time>
      </trkpt>
      <trkpt lat="45.70647" lon="5.75957">
        <ele>224</ele>
        <time>2017-05-25T15:49:03Z</time>
      </trkpt>
      <trkpt lat="45.70648" lon="5.75963">
        <ele>226</ele>
        <time>2017-05-25T15:49:19Z</time>
      </trkpt>
      <trkpt lat="45.70648" lon="5.75971">
        <ele>226</ele>
        <time>2017-05-25T15:49:19Z</time>
      </trkpt>
      <trkpt lat="45.7065" lon="5.75978">
        <ele>226</ele>
        <time>2017-05-25T15:49:19Z</time>
      </trkpt>
      <trkpt lat="45.70652" lon="5.75986">
        <ele>226</ele>
        <time>2017-05-25T15:49:19Z</time>
      </trkpt>
      <trkpt lat="45.70653" lon="5.75996">
        <ele>226</ele>
        <time>2017-05-25T15:49:35Z</time>
      </trkpt>
      <trkpt lat="45.70655" lon="5.76005">
        <ele>226</ele>
        <time>2017-05-25T15:49:35Z</time>
      </trkpt>
      <trkpt lat="45.70659" lon="5.76011">
        <ele>226</ele>
        <time>2017-05-25T15:49:35Z</time>
      </trkpt>
      <trkpt lat="45.70663" lon="5.76019">
        <ele>226</ele>
        <time>2017-05-25T15:49:35Z</time>
      </trkpt>
      <trkpt lat="45.70669" lon="5.76027">
        <ele>226</ele>
        <time>2017-05-25T15:49:51Z</time>
      </trkpt>
      <trkpt lat="45.70675" lon="5.76033">
        <ele>226</ele>
        <time>2017-05-25T15:49:51Z</time>
      </trkpt>
      <trkpt lat="45.70679" lon="5.76037">
        <ele>226</ele>
        <time>2017-05-25T15:49:51Z</time>
      </trkpt>
      <trkpt lat="45.7068" lon="5.76039">
        <ele>226</ele>
        <time>2017-05-25T15:49:51Z</time>
      </trkpt>
      <trkpt lat="45.70682" lon="5.76043">
        <ele>226</ele>
        <time>2017-05-25T15:50:07Z</time>
      </trkpt>
      <trkpt lat="45.70685" lon="5.76051">
        <ele>226</ele>
        <time>2017-05-25T15:50:07Z</time>
      </trkpt>
      <trkpt lat="45.70684" lon="5.76059">
        <ele>226</ele>
        <time>2017-05-25T15:50:07Z</time>
      </trkpt>
      <trkpt lat="45.70681" lon="5.76067">
        <ele>226</ele>
        <time>2017-05-25T15:50:07Z</time>
      </trkpt>
      <trkpt lat="45.70682" lon="5.76076">
        <ele>226</ele>
        <time>2017-05-25T15:50:23Z</time>
      </trkpt>
      <trkpt lat="45.70685" lon="5.76082">
        <ele>226</ele>
        <time>2017-05-25T15:50:23Z</time>
      </trkpt>
      <trkpt lat="45.7069" lon="5.76086">
        <ele>226</ele>
        <time>2017-05-25T15:50:23Z</time>
      </trkpt>
      <trkpt lat="45.707" lon="5.76091">
        <ele>226</ele>
        <time>2017-05-25T15:50:23Z</time>
      </trkpt>
      <trkpt lat="45.70706" lon="5.76096">
        <ele>226</ele>
        <time>2017-05-25T15:50:39Z</time>
      </trkpt>
      <trkpt lat="45.7071" lon="5.76101">
        <ele>226</ele>
        <time>2017-05-25T15:50:39Z</time>
      </trkpt>
      <trkpt lat="45.70716" lon="5.76106">
        <ele>226</ele>
        <time>2017-05-25T15:50:39Z</time>
      </trkpt>
      <trkpt lat="45.70721" lon="5.76108">
        <ele>226</ele>
        <time>2017-05-25T15:50:39Z</time>
      </trkpt>
      <trkpt lat="45.70729" lon="5.76116">
        <ele>226</ele>
        <time>2017-05-25T15:51:07Z</time>
      </trkpt>
      <trkpt lat="45.70729" lon="5.76118">
        <ele>226</ele>
        <time>2017-05-25T15:51:07Z</time>
      </trkpt>
      <trkpt lat="45.70729" lon="5.76118">
        <ele>226</ele>
        <time>2017-05-25T15:51:07Z</time>
      </trkpt>
      <trkpt lat="45.70731" lon="5.76119">
        <ele>226</ele>
        <time>2017-05-25T15:51:07Z</time>
      </trkpt>
      <trkpt lat="45.70738" lon="5.76124">
        <ele>226</ele>
        <time>2017-05-25T15:51:07Z</time>
      </trkpt>
      <trkpt lat="45.70747" lon="5.76127">
        <ele>227</ele>
        <time>2017-05-25T15:51:23Z</time>
      </trkpt>
      <trkpt lat="45.70757" lon="5.76133">
        <ele>227</ele>
        <time>2017-05-25T15:51:23Z</time>
      </trkpt>
      <trkpt lat="45.70765" lon="5.7614">
        <ele>227</ele>
        <time>2017-05-25T15:51:23Z</time>
      </trkpt>
      <trkpt lat="45.70771" lon="5.76148">
        <ele>227</ele>
        <time>2017-05-25T15:51:23Z</time>
      </trkpt>
      <trkpt lat="45.70779" lon="5.76151">
        <ele>227</ele>
        <time>2017-05-25T15:51:39Z</time>
      </trkpt>
      <trkpt lat="45.70786" lon="5.76152">
        <ele>227</ele>
        <time>2017-05-25T15:51:39Z</time>
      </trkpt>
      <trkpt lat="45.70792" lon="5.76155">
        <ele>227</ele>
        <time>2017-05-25T15:51:39Z</time>
      </trkpt>
      <trkpt lat="45.70798" lon="5.76155">
        <ele>227</ele>
        <time>2017-05-25T15:51:39Z</time>
      </trkpt>
      <trkpt lat="45.70803" lon="5.76157">
        <ele>227</ele>
        <time>2017-05-25T15:51:55Z</time>
      </trkpt>
      <trkpt lat="45.70808" lon="5.76159">
        <ele>227</ele>
        <time>2017-05-25T15:51:55Z</time>
      </trkpt>
      <trkpt lat="45.70814" lon="5.76164">
        <ele>227</ele>
        <time>2017-05-25T15:51:55Z</time>
      </trkpt>
      <trkpt lat="45.70816" lon="5.76163">
        <ele>227</ele>
        <time>2017-05-25T15:51:55Z</time>
      </trkpt>
      <trkpt lat="45.70819" lon="5.76164">
        <ele>227</ele>
        <time>2017-05-25T15:52:11Z</time>
      </trkpt>
      <trkpt lat="45.70826" lon="5.76167">
        <ele>227</ele>
        <time>2017-05-25T15:52:11Z</time>
      </trkpt>
      <trkpt lat="45.70833" lon="5.76169">
        <ele>227</ele>
        <time>2017-05-25T15:52:11Z</time>
      </trkpt>
      <trkpt lat="45.70841" lon="5.76171">
        <ele>227</ele>
        <time>2017-05-25T15:52:11Z</time>
      </trkpt>
      <trkpt lat="45.70848" lon="5.76174">
        <ele>227</ele>
        <time>2017-05-25T15:52:27Z</time>
      </trkpt>
      <trkpt lat="45.70854" lon="5.76177">
        <ele>227</ele>
        <time>2017-05-25T15:52:27Z</time>
      </trkpt>
      <trkpt lat="45.70862" lon="5.76177">
        <ele>227</ele>
        <time>2017-05-25T15:52:27Z</time>
      </trkpt>
      <trkpt lat="45.70868" lon="5.76179">
        <ele>227</ele>
        <time>2017-05-25T15:52:27Z</time>
      </trkpt>
      <trkpt lat="45.70874" lon="5.76177">
        <ele>227</ele>
        <time>2017-05-25T15:52:43Z</time>
      </trkpt>
      <trkpt lat="45.70881" lon="5.76175">
        <ele>226</ele>
        <time>2017-05-25T15:52:43Z</time>
      </trkpt>
      <trkpt lat="45.70885" lon="5.76172">
        <ele>226</ele>
        <time>2017-05-25T15:52:43Z</time>
      </trkpt>
      <trkpt lat="45.70888" lon="5.76165">
        <ele>226</ele>
        <time>2017-05-25T15:52:43Z</time>
      </trkpt>
      <trkpt lat="45.70892" lon="5.76161">
        <ele>226</ele>
        <time>2017-05-25T15:52:59Z</time>
      </trkpt>
      <trkpt lat="45.70901" lon="5.7616">
        <ele>226</ele>
        <time>2017-05-25T15:52:59Z</time>
      </trkpt>
      <trkpt lat="45.7091" lon="5.76162">
        <ele>226</ele>
        <time>2017-05-25T15:52:59Z</time>
      </trkpt>
      <trkpt lat="45.70915" lon="5.76164">
        <ele>226</ele>
        <time>2017-05-25T15:52:59Z</time>
      </trkpt>
      <trkpt lat="45.70919" lon="5.76169">
        <ele>226</ele>
        <time>2017-05-25T15:53:15Z</time>
      </trkpt>
      <trkpt lat="45.70924" lon="5.76177">
        <ele>226</ele>
        <time>2017-05-25T15:53:15Z</time>
      </trkpt>
      <trkpt lat="45.7093" lon="5.76183">
        <ele>226</ele>
        <time>2017-05-25T15:53:15Z</time>
      </trkpt>
      <trkpt lat="45.70934" lon="5.76186">
        <ele>226</ele>
        <time>2017-05-25T15:53:15Z</time>
      </trkpt>
      <trkpt lat="45.70939" lon="5.76192">
        <ele>226</ele>
        <time>2017-05-25T15:53:31Z</time>
      </trkpt>
      <trkpt lat="45.70943" lon="5.76199">
        <ele>226</ele>
        <time>2017-05-25T15:53:31Z</time>
      </trkpt>
      <trkpt lat="45.70946" lon="5.76206">
        <ele>226</ele>
        <time>2017-05-25T15:53:31Z</time>
      </trkpt>
      <trkpt lat="45.70947" lon="5.76209">
        <ele>226</ele>
        <time>2017-05-25T15:53:31Z</time>
      </trkpt>
      <trkpt lat="45.7095" lon="5.76213">
        <ele>226</ele>
        <time>2017-05-25T15:53:47Z</time>
      </trkpt>
      <trkpt lat="45.70954" lon="5.76218">
        <ele>226</ele>
        <time>2017-05-25T15:53:47Z</time>
      </trkpt>
      <trkpt lat="45.70956" lon="5.76223">
        <ele>226</ele>
        <time>2017-05-25T15:53:47Z</time>
      </trkpt>
      <trkpt lat="45.7096" lon="5.76228">
        <ele>227</ele>
        <time>2017-05-25T15:53:47Z</time>
      </trkpt>
      <trkpt lat="45.70964" lon="5.76232">
        <ele>227</ele>
        <time>2017-05-25T15:54:03Z</time>
      </trkpt>
      <trkpt lat="45.70969" lon="5.76234">
        <ele>227</ele>
        <time>2017-05-25T15:54:03Z</time>
      </trkpt>
      <trkpt lat="45.70972" lon="5.76239">
        <ele>227</ele>
        <time>2017-05-25T15:54:03Z</time>
      </trkpt>
      <trkpt lat="45.70974" lon="5.76245">
        <ele>227</ele>
        <time>2017-05-25T15:54:03Z</time>
      </trkpt>
      <trkpt lat="45.70978" lon="5.76251">
        <ele>227</ele>
        <time>2017-05-25T15:54:19Z</time>
      </trkpt>
      <trkpt lat="45.70982" lon="5.76257">
        <ele>227</ele>
        <time>2017-05-25T15:54:19Z</time>
      </trkpt>
      <trkpt lat="45.70988" lon="5.7626">
        <ele>227</ele>
        <time>2017-05-25T15:54:19Z</time>
      </trkpt>
      <trkpt lat="45.70993" lon="5.76259">
        <ele>227</ele>
        <time>2017-05-25T15:54:19Z</time>
      </trkpt>
      <trkpt lat="45.70998" lon="5.76254">
        <ele>227</ele>
        <time>2017-05-25T15:54:39Z</time>
      </trkpt>
      <trkpt lat="45.71002" lon="5.76251">
        <ele>227</ele>
        <time>2017-05-25T15:54:39Z</time>
      </trkpt>
      <trkpt lat="45.71005" lon="5.7625">
        <ele>227</ele>
        <time>2017-05-25T15:54:39Z</time>
      </trkpt>
      <trkpt lat="45.71006" lon="5.76252">
        <ele>227</ele>
        <time>2017-05-25T15:54:39Z</time>
      </trkpt>
      <trkpt lat="45.71006" lon="5.76248">
        <ele>227</ele>
        <time>2017-05-25T15:54:39Z</time>
      </trkpt>
      <trkpt lat="45.71001" lon="5.76249">
        <ele>227</ele>
        <time>2017-05-25T15:57:31Z</time>
      </trkpt>
      <trkpt lat="45.71001" lon="5.7625">
        <ele>227</ele>
        <time>2017-05-25T15:57:31Z</time>
      </trkpt>
      <trkpt lat="45.71" lon="5.76249">
        <ele>227</ele>
        <time>2017-05-25T15:57:31Z</time>
      </trkpt>
      <trkpt lat="45.70999" lon="5.76248">
        <ele>227</ele>
        <time>2017-05-25T15:57:31Z</time>
      </trkpt>
      <trkpt lat="45.70999" lon="5.76248">
        <ele>227</ele>
        <time>2017-05-25T15:57:31Z</time>
      </trkpt>
      <trkpt lat="45.71002" lon="5.76243">
        <ele>227</ele>
        <time>2017-05-25T16:00:47Z</time>
      </trkpt>
      <trkpt lat="45.71007" lon="5.76248">
        <ele>227</ele>
        <time>2017-05-25T16:00:47Z</time>
      </trkpt>
      <trkpt lat="45.71011" lon="5.76255">
        <ele>227</ele>
        <time>2017-05-25T16:00:47Z</time>
      </trkpt>
      <trkpt lat="45.71015" lon="5.76261">
        <ele>227</ele>
        <time>2017-05-25T16:00:47Z</time>
      </trkpt>
      <trkpt lat="45.71018" lon="5.76266">
        <ele>227</ele>
        <time>2017-05-25T16:00:47Z</time>
      </trkpt>
      <trkpt lat="45.71022" lon="5.76274">
        <ele>227</ele>
        <time>2017-05-25T16:01:03Z</time>
      </trkpt>
      <trkpt lat="45.71025" lon="5.76279">
        <ele>227</ele>
        <time>2017-05-25T16:01:03Z</time>
      </trkpt>
      <trkpt lat="45.7103" lon="5.76286">
        <ele>227</ele>
        <time>2017-05-25T16:01:03Z</time>
      </trkpt>
      <trkpt lat="45.71034" lon="5.76293">
        <ele>228</ele>
        <time>2017-05-25T16:01:03Z</time>
      </trkpt>
      <trkpt lat="45.71038" lon="5.76299">
        <ele>228</ele>
        <time>2017-05-25T16:01:19Z</time>
      </trkpt>
      <trkpt lat="45.71042" lon="5.76304">
        <ele>226</ele>
        <time>2017-05-25T16:01:19Z</time>
      </trkpt>
      <trkpt lat="45.71047" lon="5.76309">
        <ele>226</ele>
        <time>2017-05-25T16:01:19Z</time>
      </trkpt>
      <trkpt lat="45.71052" lon="5.76311">
        <ele>226</ele>
        <time>2017-05-25T16:01:19Z</time>
      </trkpt>
      <trkpt lat="45.71055" lon="5.76317">
        <ele>226</ele>
        <time>2017-05-25T16:01:35Z</time>
      </trkpt>
      <trkpt lat="45.7106" lon="5.76321">
        <ele>226</ele>
        <time>2017-05-25T16:01:35Z</time>
      </trkpt>
      <trkpt lat="45.71064" lon="5.76326">
        <ele>226</ele>
        <time>2017-05-25T16:01:35Z</time>
      </trkpt>
      <trkpt lat="45.71067" lon="5.76331">
        <ele>226</ele>
        <time>2017-05-25T16:01:35Z</time>
      </trkpt>
      <trkpt lat="45.71073" lon="5.76336">
        <ele>226</ele>
        <time>2017-05-25T16:01:51Z</time>
      </trkpt>
      <trkpt lat="45.71081" lon="5.7634">
        <ele>226</ele>
        <time>2017-05-25T16:01:51Z</time>
      </trkpt>
      <trkpt lat="45.71086" lon="5.76344">
        <ele>226</ele>
        <time>2017-05-25T16:01:51Z</time>
      </trkpt>
      <trkpt lat="45.71087" lon="5.76348">
        <ele>226</ele>
        <time>2017-05-25T16:01:51Z</time>
      </trkpt>
      <trkpt lat="45.71092" lon="5.76348">
        <ele>226</ele>
        <time>2017-05-25T16:02:07Z</time>
      </trkpt>
      <trkpt lat="45.711" lon="5.76351">
        <ele>226</ele>
        <time>2017-05-25T16:02:07Z</time>
      </trkpt>
      <trkpt lat="45.71108" lon="5.76353">
        <ele>226</ele>
        <time>2017-05-25T16:02:07Z</time>
      </trkpt>
      <trkpt lat="45.71115" lon="5.76357">
        <ele>226</ele>
        <time>2017-05-25T16:02:07Z</time>
      </trkpt>
      <trkpt lat="45.71122" lon="5.76362">
        <ele>226</ele>
        <time>2017-05-25T16:02:23Z</time>
      </trkpt>
      <trkpt lat="45.71127" lon="5.76365">
        <ele>224</ele>
        <time>2017-05-25T16:02:23Z</time>
      </trkpt>
      <trkpt lat="45.71132" lon="5.76367">
        <ele>224</ele>
        <time>2017-05-25T16:02:23Z</time>
      </trkpt>
      <trkpt lat="45.71135" lon="5.76371">
        <ele>224</ele>
        <time>2017-05-25T16:02:23Z</time>
      </trkpt>
      <trkpt lat="45.71138" lon="5.76377">
        <ele>223</ele>
        <time>2017-05-25T16:02:43Z</time>
      </trkpt>
      <trkpt lat="45.71141" lon="5.76381">
        <ele>223</ele>
        <time>2017-05-25T16:02:43Z</time>
      </trkpt>
      <trkpt lat="45.71142" lon="5.76385">
        <ele>223</ele>
        <time>2017-05-25T16:02:43Z</time>
      </trkpt>
      <trkpt lat="45.71142" lon="5.76387">
        <ele>223</ele>
        <time>2017-05-25T16:02:43Z</time>
      </trkpt>
      <trkpt lat="45.71145" lon="5.76391">
        <ele>223</ele>
        <time>2017-05-25T16:02:43Z</time>
      </trkpt>
      <trkpt lat="45.71151" lon="5.76397">
        <ele>223</ele>
        <time>2017-05-25T16:02:59Z</time>
      </trkpt>
      <trkpt lat="45.71157" lon="5.76402">
        <ele>223</ele>
        <time>2017-05-25T16:02:59Z</time>
      </trkpt>
      <trkpt lat="45.71164" lon="5.76407">
        <ele>223</ele>
        <time>2017-05-25T16:02:59Z</time>
      </trkpt>
      <trkpt lat="45.7117" lon="5.76411">
        <ele>223</ele>
        <time>2017-05-25T16:02:59Z</time>
      </trkpt>
      <trkpt lat="45.71177" lon="5.76416">
        <ele>223</ele>
        <time>2017-05-25T16:03:15Z</time>
      </trkpt>
      <trkpt lat="45.71181" lon="5.76421">
        <ele>223</ele>
        <time>2017-05-25T16:03:15Z</time>
      </trkpt>
      <trkpt lat="45.71185" lon="5.76426">
        <ele>223</ele>
        <time>2017-05-25T16:03:15Z</time>
      </trkpt>
      <trkpt lat="45.71189" lon="5.76431">
        <ele>223</ele>
        <time>2017-05-25T16:03:15Z</time>
      </trkpt>
      <trkpt lat="45.71194" lon="5.76435">
        <ele>223</ele>
        <time>2017-05-25T16:03:31Z</time>
      </trkpt>
      <trkpt lat="45.71199" lon="5.7644">
        <ele>223</ele>
        <time>2017-05-25T16:03:31Z</time>
      </trkpt>
      <trkpt lat="45.71204" lon="5.76443">
        <ele>223</ele>
        <time>2017-05-25T16:03:31Z</time>
      </trkpt>
      <trkpt lat="45.71209" lon="5.76448">
        <ele>224</ele>
        <time>2017-05-25T16:03:31Z</time>
      </trkpt>
      <trkpt lat="45.71214" lon="5.76451">
        <ele>224</ele>
        <time>2017-05-25T16:03:47Z</time>
      </trkpt>
      <trkpt lat="45.7122" lon="5.76454">
        <ele>224</ele>
        <time>2017-05-25T16:03:47Z</time>
      </trkpt>
      <trkpt lat="45.71227" lon="5.76458">
        <ele>224</ele>
        <time>2017-05-25T16:03:47Z</time>
      </trkpt>
      <trkpt lat="45.71232" lon="5.76461">
        <ele>224</ele>
        <time>2017-05-25T16:03:47Z</time>
      </trkpt>
      <trkpt lat="45.71238" lon="5.76465">
        <ele>224</ele>
        <time>2017-05-25T16:04:03Z</time>
      </trkpt>
      <trkpt lat="45.71244" lon="5.76468">
        <ele>224</ele>
        <time>2017-05-25T16:04:03Z</time>
      </trkpt>
      <trkpt lat="45.71253" lon="5.76471">
        <ele>224</ele>
        <time>2017-05-25T16:04:03Z</time>
      </trkpt>
      <trkpt lat="45.71261" lon="5.76474">
        <ele>224</ele>
        <time>2017-05-25T16:04:03Z</time>
      </trkpt>
      <trkpt lat="45.71266" lon="5.76477">
        <ele>224</ele>
        <time>2017-05-25T16:04:19Z</time>
      </trkpt>
      <trkpt lat="45.71271" lon="5.76481">
        <ele>224</ele>
        <time>2017-05-25T16:04:19Z</time>
      </trkpt>
      <trkpt lat="45.71276" lon="5.76484">
        <ele>224</ele>
        <time>2017-05-25T16:04:19Z</time>
      </trkpt>
      <trkpt lat="45.71283" lon="5.76487">
        <ele>224</ele>
        <time>2017-05-25T16:04:19Z</time>
      </trkpt>
      <trkpt lat="45.71288" lon="5.7649">
        <ele>224</ele>
        <time>2017-05-25T16:04:35Z</time>
      </trkpt>
      <trkpt lat="45.71293" lon="5.76491">
        <ele>225</ele>
        <time>2017-05-25T16:04:35Z</time>
      </trkpt>
      <trkpt lat="45.71298" lon="5.76491">
        <ele>225</ele>
        <time>2017-05-25T16:04:35Z</time>
      </trkpt>
      <trkpt lat="45.71304" lon="5.76493">
        <ele>225</ele>
        <time>2017-05-25T16:04:35Z</time>
      </trkpt>
      <trkpt lat="45.71309" lon="5.76494">
        <ele>225</ele>
        <time>2017-05-25T16:04:51Z</time>
      </trkpt>
      <trkpt lat="45.71314" lon="5.76494">
        <ele>225</ele>
        <time>2017-05-25T16:04:51Z</time>
      </trkpt>
      <trkpt lat="45.71318" lon="5.76496">
        <ele>225</ele>
        <time>2017-05-25T16:04:51Z</time>
      </trkpt>
      <trkpt lat="45.71321" lon="5.76498">
        <ele>225</ele>
        <time>2017-05-25T16:04:51Z</time>
      </trkpt>
      <trkpt lat="45.71326" lon="5.765">
        <ele>225</ele>
        <time>2017-05-25T16:05:07Z</time>
      </trkpt>
      <trkpt lat="45.71331" lon="5.76503">
        <ele>225</ele>
        <time>2017-05-25T16:05:07Z</time>
      </trkpt>
      <trkpt lat="45.71335" lon="5.76504">
        <ele>225</ele>
        <time>2017-05-25T16:05:07Z</time>
      </trkpt>
      <trkpt lat="45.7134" lon="5.76506">
        <ele>225</ele>
        <time>2017-05-25T16:05:07Z</time>
      </trkpt>
      <trkpt lat="45.71343" lon="5.76509">
        <ele>225</ele>
        <time>2017-05-25T16:05:23Z</time>
      </trkpt>
      <trkpt lat="45.71346" lon="5.76509">
        <ele>225</ele>
        <time>2017-05-25T16:05:23Z</time>
      </trkpt>
      <trkpt lat="45.71354" lon="5.7651">
        <ele>225</ele>
        <time>2017-05-25T16:05:23Z</time>
      </trkpt>
      <trkpt lat="45.71361" lon="5.76513">
        <ele>225</ele>
        <time>2017-05-25T16:05:23Z</time>
      </trkpt>
      <trkpt lat="45.71365" lon="5.76516">
        <ele>225</ele>
        <time>2017-05-25T16:05:39Z</time>
      </trkpt>
      <trkpt lat="45.7137" lon="5.7652">
        <ele>225</ele>
        <time>2017-05-25T16:05:39Z</time>
      </trkpt>
      <trkpt lat="45.71374" lon="5.76524">
        <ele>225</ele>
        <time>2017-05-25T16:05:39Z</time>
      </trkpt>
      <trkpt lat="45.71379" lon="5.76527">
        <ele>224</ele>
        <time>2017-05-25T16:05:39Z</time>
      </trkpt>
      <trkpt lat="45.71383" lon="5.7653">
        <ele>224</ele>
        <time>2017-05-25T16:05:55Z</time>
      </trkpt>
      <trkpt lat="45.71387" lon="5.76532">
        <ele>224</ele>
        <time>2017-05-25T16:05:55Z</time>
      </trkpt>
      <trkpt lat="45.7139" lon="5.76535">
        <ele>224</ele>
        <time>2017-05-25T16:05:55Z</time>
      </trkpt>
      <trkpt lat="45.71394" lon="5.7654">
        <ele>224</ele>
        <time>2017-05-25T16:05:55Z</time>
      </trkpt>
      <trkpt lat="45.71399" lon="5.76543">
        <ele>225</ele>
        <time>2017-05-25T16:06:11Z</time>
      </trkpt>
      <trkpt lat="45.71403" lon="5.76549">
        <ele>225</ele>
        <time>2017-05-25T16:06:11Z</time>
      </trkpt>
      <trkpt lat="45.71404" lon="5.76552">
        <ele>225</ele>
        <time>2017-05-25T16:06:11Z</time>
      </trkpt>
      <trkpt lat="45.71409" lon="5.76555">
        <ele>225</ele>
        <time>2017-05-25T16:06:11Z</time>
      </trkpt>
      <trkpt lat="45.71414" lon="5.76557">
        <ele>225</ele>
        <time>2017-05-25T16:06:27Z</time>
      </trkpt>
      <trkpt lat="45.7142" lon="5.7656">
        <ele>225</ele>
        <time>2017-05-25T16:06:27Z</time>
      </trkpt>
      <trkpt lat="45.71424" lon="5.76563">
        <ele>225</ele>
        <time>2017-05-25T16:06:27Z</time>
      </trkpt>
      <trkpt lat="45.71431" lon="5.76567">
        <ele>225</ele>
        <time>2017-05-25T16:06:27Z</time>
      </trkpt>
      <trkpt lat="45.71441" lon="5.76574">
        <ele>225</ele>
        <time>2017-05-25T16:06:47Z</time>
      </trkpt>
      <trkpt lat="45.71443" lon="5.76575">
        <ele>225</ele>
        <time>2017-05-25T16:06:47Z</time>
      </trkpt>
      <trkpt lat="45.71447" lon="5.76577">
        <ele>225</ele>
        <time>2017-05-25T16:06:47Z</time>
      </trkpt>
      <trkpt lat="45.71449" lon="5.76577">
        <ele>225</ele>
        <time>2017-05-25T16:06:47Z</time>
      </trkpt>
      <trkpt lat="45.71455" lon="5.7658">
        <ele>225</ele>
        <time>2017-05-25T16:06:47Z</time>
      </trkpt>
      <trkpt lat="45.71461" lon="5.76584">
        <ele>226</ele>
        <time>2017-05-25T16:07:03Z</time>
      </trkpt>
      <trkpt lat="45.71467" lon="5.76589">
        <ele>226</ele>
        <time>2017-05-25T16:07:03Z</time>
      </trkpt>
      <trkpt lat="45.71471" lon="5.76591">
        <ele>226</ele>
        <time>2017-05-25T16:07:03Z</time>
      </trkpt>
      <trkpt lat="45.71475" lon="5.76593">
        <ele>226</ele>
        <time>2017-05-25T16:07:03Z</time>
      </trkpt>
      <trkpt lat="45.7148" lon="5.76597">
        <ele>226</ele>
        <time>2017-05-25T16:07:19Z</time>
      </trkpt>
      <trkpt lat="45.71485" lon="5.76602">
        <ele>226</ele>
        <time>2017-05-25T16:07:19Z</time>
      </trkpt>
      <trkpt lat="45.71491" lon="5.76606">
        <ele>226</ele>
        <time>2017-05-25T16:07:19Z</time>
      </trkpt>
      <trkpt lat="45.71497" lon="5.76613">
        <ele>226</ele>
        <time>2017-05-25T16:07:19Z</time>
      </trkpt>
      <trkpt lat="45.71501" lon="5.76617">
        <ele>226</ele>
        <time>2017-05-25T16:07:35Z</time>
      </trkpt>
      <trkpt lat="45.71503" lon="5.76619">
        <ele>226</ele>
        <time>2017-05-25T16:07:35Z</time>
      </trkpt>
      <trkpt lat="45.71507" lon="5.76621">
        <ele>226</ele>
        <time>2017-05-25T16:07:35Z</time>
      </trkpt>
      <trkpt lat="45.7151" lon="5.76624">
        <ele>226</ele>
        <time>2017-05-25T16:07:35Z</time>
      </trkpt>
      <trkpt lat="45.71513" lon="5.76627">
        <ele>227</ele>
        <time>2017-05-25T16:07:51Z</time>
      </trkpt>
      <trkpt lat="45.71517" lon="5.76631">
        <ele>227</ele>
        <time>2017-05-25T16:07:51Z</time>
      </trkpt>
      <trkpt lat="45.71523" lon="5.76637">
        <ele>227</ele>
        <time>2017-05-25T16:07:51Z</time>
      </trkpt>
      <trkpt lat="45.71529" lon="5.76641">
        <ele>227</ele>
        <time>2017-05-25T16:07:51Z</time>
      </trkpt>
      <trkpt lat="45.71533" lon="5.76646">
        <ele>227</ele>
        <time>2017-05-25T16:08:07Z</time>
      </trkpt>
      <trkpt lat="45.71537" lon="5.76654">
        <ele>227</ele>
        <time>2017-05-25T16:08:07Z</time>
      </trkpt>
      <trkpt lat="45.71539" lon="5.76661">
        <ele>227</ele>
        <time>2017-05-25T16:08:07Z</time>
      </trkpt>
      <trkpt lat="45.71543" lon="5.76665">
        <ele>225</ele>
        <time>2017-05-25T16:08:07Z</time>
      </trkpt>
      <trkpt lat="45.71547" lon="5.76669">
        <ele>225</ele>
        <time>2017-05-25T16:08:23Z</time>
      </trkpt>
      <trkpt lat="45.71549" lon="5.76676">
        <ele>225</ele>
        <time>2017-05-25T16:08:23Z</time>
      </trkpt>
      <trkpt lat="45.7155" lon="5.76684">
        <ele>225</ele>
        <time>2017-05-25T16:08:23Z</time>
      </trkpt>
      <trkpt lat="45.71551" lon="5.76694">
        <ele>225</ele>
        <time>2017-05-25T16:08:23Z</time>
      </trkpt>
      <trkpt lat="45.71555" lon="5.767">
        <ele>225</ele>
        <time>2017-05-25T16:08:39Z</time>
      </trkpt>
      <trkpt lat="45.71556" lon="5.76708">
        <ele>225</ele>
        <time>2017-05-25T16:08:39Z</time>
      </trkpt>
      <trkpt lat="45.71558" lon="5.76716">
        <ele>226</ele>
        <time>2017-05-25T16:08:39Z</time>
      </trkpt>
      <trkpt lat="45.71562" lon="5.76722">
        <ele>226</ele>
        <time>2017-05-25T16:08:39Z</time>
      </trkpt>
      <trkpt lat="45.71562" lon="5.76725">
        <ele>226</ele>
        <time>2017-05-25T16:08:55Z</time>
      </trkpt>
      <trkpt lat="45.71564" lon="5.7673">
        <ele>226</ele>
        <time>2017-05-25T16:08:55Z</time>
      </trkpt>
      <trkpt lat="45.71567" lon="5.76735">
        <ele>226</ele>
        <time>2017-05-25T16:08:55Z</time>
      </trkpt>
      <trkpt lat="45.71568" lon="5.76743">
        <ele>226</ele>
        <time>2017-05-25T16:08:55Z</time>
      </trkpt>
      <trkpt lat="45.71571" lon="5.76753">
        <ele>226</ele>
        <time>2017-05-25T16:09:11Z</time>
      </trkpt>
      <trkpt lat="45.71576" lon="5.7676">
        <ele>226</ele>
        <time>2017-05-25T16:09:11Z</time>
      </trkpt>
      <trkpt lat="45.7158" lon="5.76766">
        <ele>226</ele>
        <time>2017-05-25T16:09:11Z</time>
      </trkpt>
      <trkpt lat="45.71584" lon="5.76766">
        <ele>226</ele>
        <time>2017-05-25T16:09:11Z</time>
      </trkpt>
      <trkpt lat="45.71587" lon="5.76767">
        <ele>226</ele>
        <time>2017-05-25T16:09:27Z</time>
      </trkpt>
      <trkpt lat="45.71593" lon="5.76768">
        <ele>226</ele>
        <time>2017-05-25T16:09:27Z</time>
      </trkpt>
      <trkpt lat="45.71599" lon="5.76766">
        <ele>226</ele>
        <time>2017-05-25T16:09:27Z</time>
      </trkpt>
      <trkpt lat="45.71605" lon="5.76764">
        <ele>226</ele>
        <time>2017-05-25T16:09:27Z</time>
      </trkpt>
      <trkpt lat="45.7161" lon="5.76762">
        <ele>226</ele>
        <time>2017-05-25T16:09:43Z</time>
      </trkpt>
      <trkpt lat="45.71616" lon="5.7676">
        <ele>226</ele>
        <time>2017-05-25T16:09:43Z</time>
      </trkpt>
      <trkpt lat="45.71622" lon="5.76757">
        <ele>226</ele>
        <time>2017-05-25T16:09:43Z</time>
      </trkpt>
      <trkpt lat="45.71627" lon="5.76753">
        <ele>224</ele>
        <time>2017-05-25T16:09:43Z</time>
      </trkpt>
      <trkpt lat="45.71633" lon="5.76752">
        <ele>224</ele>
        <time>2017-05-25T16:09:59Z</time>
      </trkpt>
      <trkpt lat="45.71639" lon="5.76753">
        <ele>224</ele>
        <time>2017-05-25T16:09:59Z</time>
      </trkpt>
      <trkpt lat="45.71644" lon="5.76755">
        <ele>224</ele>
        <time>2017-05-25T16:09:59Z</time>
      </trkpt>
      <trkpt lat="45.71649" lon="5.76759">
        <ele>224</ele>
        <time>2017-05-25T16:09:59Z</time>
      </trkpt>
      <trkpt lat="45.71655" lon="5.76763">
        <ele>224</ele>
        <time>2017-05-25T16:10:15Z</time>
      </trkpt>
      <trkpt lat="45.71659" lon="5.76768">
        <ele>224</ele>
        <time>2017-05-25T16:10:15Z</time>
      </trkpt>
      <trkpt lat="45.71664" lon="5.76774">
        <ele>224</ele>
        <time>2017-05-25T16:10:15Z</time>
      </trkpt>
      <trkpt lat="45.71669" lon="5.7678">
        <ele>224</ele>
        <time>2017-05-25T16:10:15Z</time>
      </trkpt>
      <trkpt lat="45.71673" lon="5.76786">
        <ele>224</ele>
        <time>2017-05-25T16:10:31Z</time>
      </trkpt>
      <trkpt lat="45.71678" lon="5.7679">
        <ele>224</ele>
        <time>2017-05-25T16:10:31Z</time>
      </trkpt>
      <trkpt lat="45.71681" lon="5.76791">
        <ele>224</ele>
        <time>2017-05-25T16:10:31Z</time>
      </trkpt>
      <trkpt lat="45.71686" lon="5.76794">
        <ele>226</ele>
        <time>2017-05-25T16:10:31Z</time>
      </trkpt>
      <trkpt lat="45.71691" lon="5.76799">
        <ele>226</ele>
        <time>2017-05-25T16:10:47Z</time>
      </trkpt>
      <trkpt lat="45.71695" lon="5.76802">
        <ele>226</ele>
        <time>2017-05-25T16:10:47Z</time>
      </trkpt>
      <trkpt lat="45.71701" lon="5.76805">
        <ele>226</ele>
        <time>2017-05-25T16:10:47Z</time>
      </trkpt>
      <trkpt lat="45.71707" lon="5.7681">
        <ele>226</ele>
        <time>2017-05-25T16:10:47Z</time>
      </trkpt>
      <trkpt lat="45.71713" lon="5.76815">
        <ele>224</ele>
        <time>2017-05-25T16:11:03Z</time>
      </trkpt>
      <trkpt lat="45.7172" lon="5.76818">
        <ele>224</ele>
        <time>2017-05-25T16:11:03Z</time>
      </trkpt>
      <trkpt lat="45.71725" lon="5.7682">
        <ele>224</ele>
        <time>2017-05-25T16:11:03Z</time>
      </trkpt>
      <trkpt lat="45.7173" lon="5.76822">
        <ele>224</ele>
        <time>2017-05-25T16:11:03Z</time>
      </trkpt>
      <trkpt lat="45.71734" lon="5.76824">
        <ele>224</ele>
        <time>2017-05-25T16:11:19Z</time>
      </trkpt>
      <trkpt lat="45.71737" lon="5.76827">
        <ele>224</ele>
        <time>2017-05-25T16:11:19Z</time>
      </trkpt>
      <trkpt lat="45.71741" lon="5.76828">
        <ele>224</ele>
        <time>2017-05-25T16:11:19Z</time>
      </trkpt>
      <trkpt lat="45.71747" lon="5.76832">
        <ele>224</ele>
        <time>2017-05-25T16:11:19Z</time>
      </trkpt>
      <trkpt lat="45.71752" lon="5.76835">
        <ele>224</ele>
        <time>2017-05-25T16:11:35Z</time>
      </trkpt>
      <trkpt lat="45.71758" lon="5.76839">
        <ele>224</ele>
        <time>2017-05-25T16:11:35Z</time>
      </trkpt>
      <trkpt lat="45.71763" lon="5.76842">
        <ele>224</ele>
        <time>2017-05-25T16:11:35Z</time>
      </trkpt>
      <trkpt lat="45.71767" lon="5.76847">
        <ele>224</ele>
        <time>2017-05-25T16:11:35Z</time>
      </trkpt>
      <trkpt lat="45.71772" lon="5.76848">
        <ele>224</ele>
        <time>2017-05-25T16:11:51Z</time>
      </trkpt>
      <trkpt lat="45.71777" lon="5.76853">
        <ele>224</ele>
        <time>2017-05-25T16:11:51Z</time>
      </trkpt>
      <trkpt lat="45.71782" lon="5.76854">
        <ele>224</ele>
        <time>2017-05-25T16:11:51Z</time>
      </trkpt>
      <trkpt lat="45.71787" lon="5.76855">
        <ele>224</ele>
        <time>2017-05-25T16:11:51Z</time>
      </trkpt>
      <trkpt lat="45.71792" lon="5.76858">
        <ele>226</ele>
        <time>2017-05-25T16:12:07Z</time>
      </trkpt>
      <trkpt lat="45.71798" lon="5.76861">
        <ele>226</ele>
        <time>2017-05-25T16:12:07Z</time>
      </trkpt>
      <trkpt lat="45.71803" lon="5.76861">
        <ele>226</ele>
        <time>2017-05-25T16:12:07Z</time>
      </trkpt>
      <trkpt lat="45.71809" lon="5.76863">
        <ele>226</ele>
        <time>2017-05-25T16:12:07Z</time>
      </trkpt>
      <trkpt lat="45.71814" lon="5.76866">
        <ele>226</ele>
        <time>2017-05-25T16:12:23Z</time>
      </trkpt>
      <trkpt lat="45.71818" lon="5.76867">
        <ele>226</ele>
        <time>2017-05-25T16:12:23Z</time>
      </trkpt>
      <trkpt lat="45.71822" lon="5.76869">
        <ele>226</ele>
        <time>2017-05-25T16:12:23Z</time>
      </trkpt>
      <trkpt lat="45.71826" lon="5.76872">
        <ele>226</ele>
        <time>2017-05-25T16:12:23Z</time>
      </trkpt>
      <trkpt lat="45.71829" lon="5.76876">
        <ele>227</ele>
        <time>2017-05-25T16:12:39Z</time>
      </trkpt>
      <trkpt lat="45.71833" lon="5.7688">
        <ele>227</ele>
        <time>2017-05-25T16:12:39Z</time>
      </trkpt>
      <trkpt lat="45.71837" lon="5.76883">
        <ele>227</ele>
        <time>2017-05-25T16:12:39Z</time>
      </trkpt>
      <trkpt lat="45.71842" lon="5.76884">
        <ele>227</ele>
        <time>2017-05-25T16:12:39Z</time>
      </trkpt>
      <trkpt lat="45.71846" lon="5.76886">
        <ele>227</ele>
        <time>2017-05-25T16:12:55Z</time>
      </trkpt>
      <trkpt lat="45.7185" lon="5.7689">
        <ele>227</ele>
        <time>2017-05-25T16:12:55Z</time>
      </trkpt>
      <trkpt lat="45.71855" lon="5.76893">
        <ele>227</ele>
        <time>2017-05-25T16:12:55Z</time>
      </trkpt>
      <trkpt lat="45.7186" lon="5.76896">
        <ele>227</ele>
        <time>2017-05-25T16:12:55Z</time>
      </trkpt>
      <trkpt lat="45.71865" lon="5.769">
        <ele>227</ele>
        <time>2017-05-25T16:13:11Z</time>
      </trkpt>
      <trkpt lat="45.71871" lon="5.76902">
        <ele>227</ele>
        <time>2017-05-25T16:13:11Z</time>
      </trkpt>
      <trkpt lat="45.71876" lon="5.76905">
        <ele>228</ele>
        <time>2017-05-25T16:13:11Z</time>
      </trkpt>
      <trkpt lat="45.71881" lon="5.76909">
        <ele>228</ele>
        <time>2017-05-25T16:13:11Z</time>
      </trkpt>
      <trkpt lat="45.71885" lon="5.76912">
        <ele>228</ele>
        <time>2017-05-25T16:13:27Z</time>
      </trkpt>
      <trkpt lat="45.71889" lon="5.76913">
        <ele>228</ele>
        <time>2017-05-25T16:13:27Z</time>
      </trkpt>
      <trkpt lat="45.71894" lon="5.76916">
        <ele>228</ele>
        <time>2017-05-25T16:13:27Z</time>
      </trkpt>
      <trkpt lat="45.71899" lon="5.76919">
        <ele>228</ele>
        <time>2017-05-25T16:13:27Z</time>
      </trkpt>
      <trkpt lat="45.71904" lon="5.76923">
        <ele>228</ele>
        <time>2017-05-25T16:13:43Z</time>
      </trkpt>
      <trkpt lat="45.71908" lon="5.76927">
        <ele>228</ele>
        <time>2017-05-25T16:13:43Z</time>
      </trkpt>
      <trkpt lat="45.71913" lon="5.76929">
        <ele>228</ele>
        <time>2017-05-25T16:13:43Z</time>
      </trkpt>
      <trkpt lat="45.71917" lon="5.76931">
        <ele>228</ele>
        <time>2017-05-25T16:13:43Z</time>
      </trkpt>
      <trkpt lat="45.71923" lon="5.76933">
        <ele>228</ele>
        <time>2017-05-25T16:13:59Z</time>
      </trkpt>
      <trkpt lat="45.71929" lon="5.76936">
        <ele>228</ele>
        <time>2017-05-25T16:13:59Z</time>
      </trkpt>
      <trkpt lat="45.71934" lon="5.76937">
        <ele>228</ele>
        <time>2017-05-25T16:13:59Z</time>
      </trkpt>
      <trkpt lat="45.7194" lon="5.76939">
        <ele>228</ele>
        <time>2017-05-25T16:13:59Z</time>
      </trkpt>
      <trkpt lat="45.71946" lon="5.76943">
        <ele>228</ele>
        <time>2017-05-25T16:14:15Z</time>
      </trkpt>
      <trkpt lat="45.71951" lon="5.76946">
        <ele>228</ele>
        <time>2017-05-25T16:14:15Z</time>
      </trkpt>
      <trkpt lat="45.71956" lon="5.76949">
        <ele>228</ele>
        <time>2017-05-25T16:14:15Z</time>
      </trkpt>
      <trkpt lat="45.71961" lon="5.76952">
        <ele>230</ele>
        <time>2017-05-25T16:14:15Z</time>
      </trkpt>
      <trkpt lat="45.71966" lon="5.76953">
        <ele>230</ele>
        <time>2017-05-25T16:14:31Z</time>
      </trkpt>
      <trkpt lat="45.71971" lon="5.76956">
        <ele>230</ele>
        <time>2017-05-25T16:14:31Z</time>
      </trkpt>
      <trkpt lat="45.71976" lon="5.76957">
        <ele>230</ele>
        <time>2017-05-25T16:14:31Z</time>
      </trkpt>
      <trkpt lat="45.71981" lon="5.76959">
        <ele>226</ele>
        <time>2017-05-25T16:14:31Z</time>
      </trkpt>
      <trkpt lat="45.71986" lon="5.76961">
        <ele>226</ele>
        <time>2017-05-25T16:14:47Z</time>
      </trkpt>
      <trkpt lat="45.71991" lon="5.76961">
        <ele>226</ele>
        <time>2017-05-25T16:14:47Z</time>
      </trkpt>
      <trkpt lat="45.71996" lon="5.76961">
        <ele>226</ele>
        <time>2017-05-25T16:14:47Z</time>
      </trkpt>
      <trkpt lat="45.72001" lon="5.76958">
        <ele>230</ele>
        <time>2017-05-25T16:14:47Z</time>
      </trkpt>
      <trkpt lat="45.72004" lon="5.76951">
        <ele>230</ele>
        <time>2017-05-25T16:15:03Z</time>
      </trkpt>
      <trkpt lat="45.72007" lon="5.76944">
        <ele>230</ele>
        <time>2017-05-25T16:15:03Z</time>
      </trkpt>
      <trkpt lat="45.7201" lon="5.76935">
        <ele>230</ele>
        <time>2017-05-25T16:15:03Z</time>
      </trkpt>
      <trkpt lat="45.72014" lon="5.76926">
        <ele>230</ele>
        <time>2017-05-25T16:15:03Z</time>
      </trkpt>
      <trkpt lat="45.72018" lon="5.76918">
        <ele>230</ele>
        <time>2017-05-25T16:15:19Z</time>
      </trkpt>
      <trkpt lat="45.72023" lon="5.76911">
        <ele>230</ele>
        <time>2017-05-25T16:15:19Z</time>
      </trkpt>
      <trkpt lat="45.72025" lon="5.76903">
        <ele>230</ele>
        <time>2017-05-25T16:15:19Z</time>
      </trkpt>
      <trkpt lat="45.72029" lon="5.7689">
        <ele>230</ele>
        <time>2017-05-25T16:15:19Z</time>
      </trkpt>
      <trkpt lat="45.72032" lon="5.7688">
        <ele>230</ele>
        <time>2017-05-25T16:15:35Z</time>
      </trkpt>
      <trkpt lat="45.72036" lon="5.76874">
        <ele>235</ele>
        <time>2017-05-25T16:15:35Z</time>
      </trkpt>
      <trkpt lat="45.72038" lon="5.76867">
        <ele>235</ele>
        <time>2017-05-25T16:15:35Z</time>
      </trkpt>
      <trkpt lat="45.72039" lon="5.76861">
        <ele>235</ele>
        <time>2017-05-25T16:15:35Z</time>
      </trkpt>
      <trkpt lat="45.7204" lon="5.76854">
        <ele>235</ele>
        <time>2017-05-25T16:15:51Z</time>
      </trkpt>
      <trkpt lat="45.72042" lon="5.76848">
        <ele>226</ele>
        <time>2017-05-25T16:15:51Z</time>
      </trkpt>
      <trkpt lat="45.72046" lon="5.76841">
        <ele>226</ele>
        <time>2017-05-25T16:15:51Z</time>
      </trkpt>
      <trkpt lat="45.72049" lon="5.76834">
        <ele>226</ele>
        <time>2017-05-25T16:15:51Z</time>
      </trkpt>
      <trkpt lat="45.72051" lon="5.76827">
        <ele>226</ele>
        <time>2017-05-25T16:16:07Z</time>
      </trkpt>
      <trkpt lat="45.72051" lon="5.76819">
        <ele>226</ele>
        <time>2017-05-25T16:16:07Z</time>
      </trkpt>
      <trkpt lat="45.72054" lon="5.76813">
        <ele>226</ele>
        <time>2017-05-25T16:16:07Z</time>
      </trkpt>
      <trkpt lat="45.72057" lon="5.76808">
        <ele>226</ele>
        <time>2017-05-25T16:16:07Z</time>
      </trkpt>
      <trkpt lat="45.7206" lon="5.76803">
        <ele>226</ele>
        <time>2017-05-25T16:16:23Z</time>
      </trkpt>
      <trkpt lat="45.72062" lon="5.76802">
        <ele>226</ele>
        <time>2017-05-25T16:16:23Z</time>
      </trkpt>
      <trkpt lat="45.72066" lon="5.76806">
        <ele>226</ele>
        <time>2017-05-25T16:16:23Z</time>
      </trkpt>
      <trkpt lat="45.72081" lon="5.76826">
        <ele>226</ele>
        <time>2017-05-25T16:16:23Z</time>
      </trkpt>
      <trkpt lat="45.72093" lon="5.76845">
        <ele>226</ele>
        <time>2017-05-25T16:16:39Z</time>
      </trkpt>
      <trkpt lat="45.72111" lon="5.76863">
        <ele>226</ele>
        <time>2017-05-25T16:16:39Z</time>
      </trkpt>
      <trkpt lat="45.72123" lon="5.76884">
        <ele>226</ele>
        <time>2017-05-25T16:16:39Z</time>
      </trkpt>
      <trkpt lat="45.72133" lon="5.76902">
        <ele>226</ele>
        <time>2017-05-25T16:16:39Z</time>
      </trkpt>
      <trkpt lat="45.72143" lon="5.76934">
        <ele>226</ele>
        <time>2017-05-25T16:16:55Z</time>
      </trkpt>
      <trkpt lat="45.72147" lon="5.76951">
        <ele>226</ele>
        <time>2017-05-25T16:16:55Z</time>
      </trkpt>
      <trkpt lat="45.72148" lon="5.76965">
        <ele>227</ele>
        <time>2017-05-25T16:16:55Z</time>
      </trkpt>
      <trkpt lat="45.72149" lon="5.76974">
        <ele>227</ele>
        <time>2017-05-25T16:16:55Z</time>
      </trkpt>
      <trkpt lat="45.72151" lon="5.76977">
        <ele>227</ele>
        <time>2017-05-25T16:17:11Z</time>
      </trkpt>
      <trkpt lat="45.72155" lon="5.76982">
        <ele>227</ele>
        <time>2017-05-25T16:17:11Z</time>
      </trkpt>
      <trkpt lat="45.72158" lon="5.76987">
        <ele>227</ele>
        <time>2017-05-25T16:17:11Z</time>
      </trkpt>
      <trkpt lat="45.72161" lon="5.76993">
        <ele>227</ele>
        <time>2017-05-25T16:17:11Z</time>
      </trkpt>
      <trkpt lat="45.72162" lon="5.76999">
        <ele>227</ele>
        <time>2017-05-25T16:17:27Z</time>
      </trkpt>
      <trkpt lat="45.72165" lon="5.77005">
        <ele>227</ele>
        <time>2017-05-25T16:17:27Z</time>
      </trkpt>
      <trkpt lat="45.72171" lon="5.77013">
        <ele>227</ele>
        <time>2017-05-25T16:17:27Z</time>
      </trkpt>
      <trkpt lat="45.72176" lon="5.77024">
        <ele>227</ele>
        <time>2017-05-25T16:17:27Z</time>
      </trkpt>
      <trkpt lat="45.72181" lon="5.77031">
        <ele>227</ele>
        <time>2017-05-25T16:17:43Z</time>
      </trkpt>
      <trkpt lat="45.72182" lon="5.77042">
        <ele>228</ele>
        <time>2017-05-25T16:17:43Z</time>
      </trkpt>
      <trkpt lat="45.72182" lon="5.77053">
        <ele>228</ele>
        <time>2017-05-25T16:17:43Z</time>
      </trkpt>
      <trkpt lat="45.72183" lon="5.77061">
        <ele>228</ele>
        <time>2017-05-25T16:17:43Z</time>
      </trkpt>
      <trkpt lat="45.72186" lon="5.77069">
        <ele>228</ele>
        <time>2017-05-25T16:17:59Z</time>
      </trkpt>
      <trkpt lat="45.72192" lon="5.77083">
        <ele>228</ele>
        <time>2017-05-25T16:17:59Z</time>
      </trkpt>
      <trkpt lat="45.72195" lon="5.77092">
        <ele>228</ele>
        <time>2017-05-25T16:17:59Z</time>
      </trkpt>
      <trkpt lat="45.72198" lon="5.77102">
        <ele>228</ele>
        <time>2017-05-25T16:17:59Z</time>
      </trkpt>
      <trkpt lat="45.72202" lon="5.77112">
        <ele>228</ele>
        <time>2017-05-25T16:18:15Z</time>
      </trkpt>
      <trkpt lat="45.72207" lon="5.77122">
        <ele>228</ele>
        <time>2017-05-25T16:18:15Z</time>
      </trkpt>
      <trkpt lat="45.72217" lon="5.77139">
        <ele>227</ele>
        <time>2017-05-25T16:18:15Z</time>
      </trkpt>
      <trkpt lat="45.72225" lon="5.77148">
        <ele>227</ele>
        <time>2017-05-25T16:18:15Z</time>
      </trkpt>
      <trkpt lat="45.72235" lon="5.7716">
        <ele>227</ele>
        <time>2017-05-25T16:18:31Z</time>
      </trkpt>
      <trkpt lat="45.72248" lon="5.77182">
        <ele>227</ele>
        <time>2017-05-25T16:18:31Z</time>
      </trkpt>
      <trkpt lat="45.72247" lon="5.77193">
        <ele>227</ele>
        <time>2017-05-25T16:18:31Z</time>
      </trkpt>
      <trkpt lat="45.72251" lon="5.77203">
        <ele>227</ele>
        <time>2017-05-25T16:18:31Z</time>
      </trkpt>
      <trkpt lat="45.72255" lon="5.7722">
        <ele>228</ele>
        <time>2017-05-25T16:18:47Z</time>
      </trkpt>
      <trkpt lat="45.72259" lon="5.77237">
        <ele>228</ele>
        <time>2017-05-25T16:18:47Z</time>
      </trkpt>
      <trkpt lat="45.72266" lon="5.7725">
        <ele>228</ele>
        <time>2017-05-25T16:18:47Z</time>
      </trkpt>
      <trkpt lat="45.72271" lon="5.77261">
        <ele>228</ele>
        <time>2017-05-25T16:18:47Z</time>
      </trkpt>
      <trkpt lat="45.72275" lon="5.77268">
        <ele>228</ele>
        <time>2017-05-25T16:19:03Z</time>
      </trkpt>
      <trkpt lat="45.72277" lon="5.77277">
        <ele>228</ele>
        <time>2017-05-25T16:19:03Z</time>
      </trkpt>
      <trkpt lat="45.72283" lon="5.77285">
        <ele>228</ele>
        <time>2017-05-25T16:19:03Z</time>
      </trkpt>
      <trkpt lat="45.72287" lon="5.77296">
        <ele>227</ele>
        <time>2017-05-25T16:19:03Z</time>
      </trkpt>
      <trkpt lat="45.72292" lon="5.77303">
        <ele>224</ele>
        <time>2017-05-25T16:19:23Z</time>
      </trkpt>
      <trkpt lat="45.72294" lon="5.77308">
        <ele>224</ele>
        <time>2017-05-25T16:19:23Z</time>
      </trkpt>
      <trkpt lat="45.72294" lon="5.7731">
        <ele>224</ele>
        <time>2017-05-25T16:19:23Z</time>
      </trkpt>
      <trkpt lat="45.72295" lon="5.77313">
        <ele>224</ele>
        <time>2017-05-25T16:19:23Z</time>
      </trkpt>
      <trkpt lat="45.72297" lon="5.77315">
        <ele>224</ele>
        <time>2017-05-25T16:19:23Z</time>
      </trkpt>
      <trkpt lat="45.72301" lon="5.77321">
        <ele>224</ele>
        <time>2017-05-25T16:19:39Z</time>
      </trkpt>
      <trkpt lat="45.72306" lon="5.7733">
        <ele>224</ele>
        <time>2017-05-25T16:19:39Z</time>
      </trkpt>
      <trkpt lat="45.72311" lon="5.77341">
        <ele>224</ele>
        <time>2017-05-25T16:19:39Z</time>
      </trkpt>
      <trkpt lat="45.72315" lon="5.77348">
        <ele>224</ele>
        <time>2017-05-25T16:19:39Z</time>
      </trkpt>
      <trkpt lat="45.72318" lon="5.77356">
        <ele>224</ele>
        <time>2017-05-25T16:19:55Z</time>
      </trkpt>
      <trkpt lat="45.72322" lon="5.77365">
        <ele>224</ele>
        <time>2017-05-25T16:19:55Z</time>
      </trkpt>
      <trkpt lat="45.72323" lon="5.77376">
        <ele>227</ele>
        <time>2017-05-25T16:19:55Z</time>
      </trkpt>
      <trkpt lat="45.72324" lon="5.77379">
        <ele>227</ele>
        <time>2017-05-25T16:19:55Z</time>
      </trkpt>
      <trkpt lat="45.72325" lon="5.77382">
        <ele>227</ele>
        <time>2017-05-25T16:20:11Z</time>
      </trkpt>
      <trkpt lat="45.72325" lon="5.77383">
        <ele>227</ele>
        <time>2017-05-25T16:20:11Z</time>
      </trkpt>
      <trkpt lat="45.72329" lon="5.7739">
        <ele>227</ele>
        <time>2017-05-25T16:20:11Z</time>
      </trkpt>
      <trkpt lat="45.72335" lon="5.77398">
        <ele>227</ele>
        <time>2017-05-25T16:20:11Z</time>
      </trkpt>
      <trkpt lat="45.7234" lon="5.77408">
        <ele>227</ele>
        <time>2017-05-25T16:20:27Z</time>
      </trkpt>
      <trkpt lat="45.72343" lon="5.77416">
        <ele>227</ele>
        <time>2017-05-25T16:20:27Z</time>
      </trkpt>
      <trkpt lat="45.72345" lon="5.77422">
        <ele>227</ele>
        <time>2017-05-25T16:20:27Z</time>
      </trkpt>
      <trkpt lat="45.7235" lon="5.77432">
        <ele>227</ele>
        <time>2017-05-25T16:20:27Z</time>
      </trkpt>
      <trkpt lat="45.72353" lon="5.77439">
        <ele>227</ele>
        <time>2017-05-25T16:20:43Z</time>
      </trkpt>
      <trkpt lat="45.72358" lon="5.77448">
        <ele>227</ele>
        <time>2017-05-25T16:20:43Z</time>
      </trkpt>
      <trkpt lat="45.72363" lon="5.77456">
        <ele>227</ele>
        <time>2017-05-25T16:20:43Z</time>
      </trkpt>
      <trkpt lat="45.72366" lon="5.77462">
        <ele>227</ele>
        <time>2017-05-25T16:20:43Z</time>
      </trkpt>
      <trkpt lat="45.72369" lon="5.7747">
        <ele>227</ele>
        <time>2017-05-25T16:20:59Z</time>
      </trkpt>
      <trkpt lat="45.72371" lon="5.7748">
        <ele>227</ele>
        <time>2017-05-25T16:20:59Z</time>
      </trkpt>
      <trkpt lat="45.72377" lon="5.77484">
        <ele>229</ele>
        <time>2017-05-25T16:20:59Z</time>
      </trkpt>
      <trkpt lat="45.72382" lon="5.77494">
        <ele>229</ele>
        <time>2017-05-25T16:20:59Z</time>
      </trkpt>
      <trkpt lat="45.72387" lon="5.77503">
        <ele>229</ele>
        <time>2017-05-25T16:21:15Z</time>
      </trkpt>
      <trkpt lat="45.72388" lon="5.77512">
        <ele>229</ele>
        <time>2017-05-25T16:21:15Z</time>
      </trkpt>
      <trkpt lat="45.72389" lon="5.77516">
        <ele>229</ele>
        <time>2017-05-25T16:21:15Z</time>
      </trkpt>
      <trkpt lat="45.7239" lon="5.77518">
        <ele>229</ele>
        <time>2017-05-25T16:21:15Z</time>
      </trkpt>
      <trkpt lat="45.72391" lon="5.77519">
        <ele>229</ele>
        <time>2017-05-25T16:21:31Z</time>
      </trkpt>
      <trkpt lat="45.72392" lon="5.77522">
        <ele>229</ele>
        <time>2017-05-25T16:21:31Z</time>
      </trkpt>
      <trkpt lat="45.72397" lon="5.77529">
        <ele>229</ele>
        <time>2017-05-25T16:21:31Z</time>
      </trkpt>
      <trkpt lat="45.724" lon="5.77535">
        <ele>229</ele>
        <time>2017-05-25T16:21:31Z</time>
      </trkpt>
      <trkpt lat="45.72401" lon="5.77537">
        <ele>229</ele>
        <time>2017-05-25T16:21:47Z</time>
      </trkpt>
      <trkpt lat="45.72403" lon="5.77539">
        <ele>229</ele>
        <time>2017-05-25T16:21:47Z</time>
      </trkpt>
      <trkpt lat="45.72404" lon="5.7754">
        <ele>229</ele>
        <time>2017-05-25T16:21:47Z</time>
      </trkpt>
      <trkpt lat="45.72409" lon="5.77544">
        <ele>230</ele>
        <time>2017-05-25T16:21:47Z</time>
      </trkpt>
      <trkpt lat="45.72413" lon="5.7755">
        <ele>230</ele>
        <time>2017-05-25T16:22:03Z</time>
      </trkpt>
      <trkpt lat="45.72419" lon="5.77557">
        <ele>230</ele>
        <time>2017-05-25T16:22:03Z</time>
      </trkpt>
      <trkpt lat="45.72424" lon="5.77568">
        <ele>230</ele>
        <time>2017-05-25T16:22:03Z</time>
      </trkpt>
      <trkpt lat="45.72434" lon="5.77575">
        <ele>230</ele>
        <time>2017-05-25T16:22:03Z</time>
      </trkpt>
      <trkpt lat="45.72444" lon="5.77578">
        <ele>230</ele>
        <time>2017-05-25T16:22:19Z</time>
      </trkpt>
      <trkpt lat="45.72453" lon="5.77581">
        <ele>230</ele>
        <time>2017-05-25T16:22:19Z</time>
      </trkpt>
      <trkpt lat="45.7246" lon="5.77586">
        <ele>229</ele>
        <time>2017-05-25T16:22:19Z</time>
      </trkpt>
      <trkpt lat="45.72467" lon="5.77592">
        <ele>229</ele>
        <time>2017-05-25T16:22:19Z</time>
      </trkpt>
      <trkpt lat="45.72473" lon="5.77597">
        <ele>229</ele>
        <time>2017-05-25T16:22:35Z</time>
      </trkpt>
      <trkpt lat="45.72479" lon="5.77602">
        <ele>229</ele>
        <time>2017-05-25T16:22:35Z</time>
      </trkpt>
      <trkpt lat="45.72486" lon="5.77604">
        <ele>229</ele>
        <time>2017-05-25T16:22:35Z</time>
      </trkpt>
      <trkpt lat="45.72495" lon="5.7762">
        <ele>229</ele>
        <time>2017-05-25T16:22:35Z</time>
      </trkpt>
      <trkpt lat="45.72513" lon="5.7763">
        <ele>227</ele>
        <time>2017-05-25T16:22:51Z</time>
      </trkpt>
      <trkpt lat="45.72529" lon="5.77637">
        <ele>227</ele>
        <time>2017-05-25T16:22:51Z</time>
      </trkpt>
      <trkpt lat="45.72546" lon="5.77645">
        <ele>225</ele>
        <time>2017-05-25T16:22:51Z</time>
      </trkpt>
      <trkpt lat="45.72571" lon="5.77661">
        <ele>225</ele>
        <time>2017-05-25T16:22:51Z</time>
      </trkpt>
      <trkpt lat="45.7259" lon="5.77679">
        <ele>225</ele>
        <time>2017-05-25T16:23:07Z</time>
      </trkpt>
      <trkpt lat="45.72609" lon="5.77694">
        <ele>225</ele>
        <time>2017-05-25T16:23:07Z</time>
      </trkpt>
      <trkpt lat="45.72625" lon="5.77708">
        <ele>225</ele>
        <time>2017-05-25T16:23:07Z</time>
      </trkpt>
      <trkpt lat="45.72634" lon="5.77713">
        <ele>225</ele>
        <time>2017-05-25T16:23:07Z</time>
      </trkpt>
      <trkpt lat="45.72641" lon="5.77718">
        <ele>225</ele>
        <time>2017-05-25T16:23:23Z</time>
      </trkpt>
      <trkpt lat="45.72644" lon="5.7772">
        <ele>225</ele>
        <time>2017-05-25T16:23:23Z</time>
      </trkpt>
      <trkpt lat="45.72648" lon="5.77723">
        <ele>225</ele>
        <time>2017-05-25T16:23:23Z</time>
      </trkpt>
      <trkpt lat="45.72654" lon="5.77728">
        <ele>225</ele>
        <time>2017-05-25T16:23:23Z</time>
      </trkpt>
      <trkpt lat="45.7266" lon="5.77732">
        <ele>225</ele>
        <time>2017-05-25T16:23:39Z</time>
      </trkpt>
      <trkpt lat="45.72667" lon="5.77735">
        <ele>225</ele>
        <time>2017-05-25T16:23:39Z</time>
      </trkpt>
      <trkpt lat="45.72674" lon="5.77736">
        <ele>225</ele>
        <time>2017-05-25T16:23:39Z</time>
      </trkpt>
      <trkpt lat="45.72682" lon="5.77737">
        <ele>225</ele>
        <time>2017-05-25T16:23:39Z</time>
      </trkpt>
      <trkpt lat="45.7269" lon="5.77738">
        <ele>225</ele>
        <time>2017-05-25T16:23:55Z</time>
      </trkpt>
      <trkpt lat="45.72696" lon="5.77739">
        <ele>225</ele>
        <time>2017-05-25T16:23:55Z</time>
      </trkpt>
      <trkpt lat="45.72702" lon="5.7774">
        <ele>225</ele>
        <time>2017-05-25T16:23:55Z</time>
      </trkpt>
      <trkpt lat="45.72709" lon="5.77741">
        <ele>225</ele>
        <time>2017-05-25T16:23:55Z</time>
      </trkpt>
      <trkpt lat="45.72715" lon="5.77741">
        <ele>225</ele>
        <time>2017-05-25T16:24:11Z</time>
      </trkpt>
      <trkpt lat="45.72721" lon="5.77742">
        <ele>225</ele>
        <time>2017-05-25T16:24:11Z</time>
      </trkpt>
      <trkpt lat="45.72726" lon="5.77743">
        <ele>225</ele>
        <time>2017-05-25T16:24:11Z</time>
      </trkpt>
      <trkpt lat="45.72731" lon="5.77745">
        <ele>225</ele>
        <time>2017-05-25T16:24:11Z</time>
      </trkpt>
      <trkpt lat="45.72736" lon="5.77747">
        <ele>225</ele>
        <time>2017-05-25T16:24:27Z</time>
      </trkpt>
      <trkpt lat="45.72741" lon="5.77747">
        <ele>225</ele>
        <time>2017-05-25T16:24:27Z</time>
      </trkpt>
      <trkpt lat="45.72746" lon="5.77748">
        <ele>225</ele>
        <time>2017-05-25T16:24:27Z</time>
      </trkpt>
      <trkpt lat="45.72751" lon="5.77748">
        <ele>225</ele>
        <time>2017-05-25T16:24:27Z</time>
      </trkpt>
      <trkpt lat="45.72757" lon="5.77749">
        <ele>225</ele>
        <time>2017-05-25T16:24:43Z</time>
      </trkpt>
      <trkpt lat="45.72762" lon="5.77749">
        <ele>225</ele>
        <time>2017-05-25T16:24:43Z</time>
      </trkpt>
      <trkpt lat="45.72768" lon="5.7775">
        <ele>225</ele>
        <time>2017-05-25T16:24:43Z</time>
      </trkpt>
      <trkpt lat="45.72773" lon="5.77751">
        <ele>225</ele>
        <time>2017-05-25T16:24:43Z</time>
      </trkpt>
      <trkpt lat="45.72778" lon="5.77752">
        <ele>225</ele>
        <time>2017-05-25T16:24:59Z</time>
      </trkpt>
      <trkpt lat="45.72784" lon="5.77753">
        <ele>225</ele>
        <time>2017-05-25T16:24:59Z</time>
      </trkpt>
      <trkpt lat="45.72788" lon="5.77756">
        <ele>225</ele>
        <time>2017-05-25T16:24:59Z</time>
      </trkpt>
      <trkpt lat="45.72794" lon="5.77758">
        <ele>227</ele>
        <time>2017-05-25T16:24:59Z</time>
      </trkpt>
      <trkpt lat="45.72799" lon="5.77759">
        <ele>227</ele>
        <time>2017-05-25T16:25:15Z</time>
      </trkpt>
      <trkpt lat="45.72804" lon="5.7776">
        <ele>227</ele>
        <time>2017-05-25T16:25:15Z</time>
      </trkpt>
      <trkpt lat="45.7281" lon="5.77764">
        <ele>227</ele>
        <time>2017-05-25T16:25:15Z</time>
      </trkpt>
      <trkpt lat="45.72815" lon="5.77765">
        <ele>227</ele>
        <time>2017-05-25T16:25:15Z</time>
      </trkpt>
      <trkpt lat="45.7282" lon="5.77762">
        <ele>227</ele>
        <time>2017-05-25T16:25:31Z</time>
      </trkpt>
      <trkpt lat="45.72824" lon="5.77758">
        <ele>227</ele>
        <time>2017-05-25T16:25:31Z</time>
      </trkpt>
      <trkpt lat="45.72829" lon="5.77759">
        <ele>227</ele>
        <time>2017-05-25T16:25:31Z</time>
      </trkpt>
      <trkpt lat="45.72831" lon="5.7776">
        <ele>227</ele>
        <time>2017-05-25T16:25:31Z</time>
      </trkpt>
      <trkpt lat="45.72834" lon="5.77757">
        <ele>227</ele>
        <time>2017-05-25T16:26:03Z</time>
      </trkpt>
      <trkpt lat="45.72835" lon="5.77756">
        <ele>227</ele>
        <time>2017-05-25T16:26:03Z</time>
      </trkpt>
      <trkpt lat="45.72836" lon="5.77756">
        <ele>227</ele>
        <time>2017-05-25T16:26:03Z</time>
      </trkpt>
      <trkpt lat="45.72837" lon="5.77756">
        <ele>227</ele>
        <time>2017-05-25T16:26:03Z</time>
      </trkpt>
      <trkpt lat="45.72843" lon="5.77753">
        <ele>227</ele>
        <time>2017-05-25T16:26:03Z</time>
      </trkpt>
      <trkpt lat="45.72856" lon="5.77747">
        <ele>227</ele>
        <time>2017-05-25T16:26:19Z</time>
      </trkpt>
      <trkpt lat="45.72869" lon="5.7774">
        <ele>227</ele>
        <time>2017-05-25T16:26:19Z</time>
      </trkpt>
      <trkpt lat="45.72875" lon="5.77734">
        <ele>227</ele>
        <time>2017-05-25T16:26:19Z</time>
      </trkpt>
      <trkpt lat="45.72885" lon="5.77725">
        <ele>224</ele>
        <time>2017-05-25T16:26:19Z</time>
      </trkpt>
      <trkpt lat="45.72905" lon="5.77714">
        <ele>224</ele>
        <time>2017-05-25T16:26:35Z</time>
      </trkpt>
      <trkpt lat="45.7293" lon="5.77711">
        <ele>224</ele>
        <time>2017-05-25T16:26:35Z</time>
      </trkpt>
      <trkpt lat="45.72952" lon="5.77712">
        <ele>224</ele>
        <time>2017-05-25T16:26:35Z</time>
      </trkpt>
      <trkpt lat="45.72977" lon="5.77706">
        <ele>224</ele>
        <time>2017-05-25T16:26:35Z</time>
      </trkpt>
      <trkpt lat="45.72988" lon="5.77697">
        <ele>224</ele>
        <time>2017-05-25T16:26:51Z</time>
      </trkpt>
      <trkpt lat="45.73003" lon="5.77681">
        <ele>224</ele>
        <time>2017-05-25T16:26:51Z</time>
      </trkpt>
      <trkpt lat="45.73024" lon="5.77662">
        <ele>224</ele>
        <time>2017-05-25T16:26:51Z</time>
      </trkpt>
      <trkpt lat="45.73046" lon="5.7765">
        <ele>226</ele>
        <time>2017-05-25T16:26:51Z</time>
      </trkpt>
      <trkpt lat="45.73059" lon="5.77648">
        <ele>226</ele>
        <time>2017-05-25T16:27:07Z</time>
      </trkpt>
      <trkpt lat="45.73066" lon="5.77645">
        <ele>226</ele>
        <time>2017-05-25T16:27:07Z</time>
      </trkpt>
      <trkpt lat="45.73071" lon="5.77644">
        <ele>226</ele>
        <time>2017-05-25T16:27:07Z</time>
      </trkpt>
      <trkpt lat="45.73077" lon="5.77641">
        <ele>226</ele>
        <time>2017-05-25T16:27:07Z</time>
      </trkpt>
      <trkpt lat="45.73083" lon="5.77639">
        <ele>226</ele>
        <time>2017-05-25T16:27:23Z</time>
      </trkpt>
      <trkpt lat="45.73088" lon="5.77635">
        <ele>226</ele>
        <time>2017-05-25T16:27:23Z</time>
      </trkpt>
      <trkpt lat="45.73095" lon="5.77631">
        <ele>226</ele>
        <time>2017-05-25T16:27:23Z</time>
      </trkpt>
      <trkpt lat="45.73099" lon="5.77628">
        <ele>226</ele>
        <time>2017-05-25T16:27:23Z</time>
      </trkpt>
      <trkpt lat="45.73106" lon="5.77623">
        <ele>225</ele>
        <time>2017-05-25T16:27:39Z</time>
      </trkpt>
      <trkpt lat="45.7311" lon="5.7762">
        <ele>225</ele>
        <time>2017-05-25T16:27:39Z</time>
      </trkpt>
      <trkpt lat="45.73115" lon="5.77617">
        <ele>225</ele>
        <time>2017-05-25T16:27:39Z</time>
      </trkpt>
      <trkpt lat="45.7312" lon="5.77614">
        <ele>225</ele>
        <time>2017-05-25T16:27:39Z</time>
      </trkpt>
      <trkpt lat="45.73125" lon="5.7761">
        <ele>225</ele>
        <time>2017-05-25T16:27:55Z</time>
      </trkpt>
      <trkpt lat="45.73131" lon="5.77606">
        <ele>225</ele>
        <time>2017-05-25T16:27:55Z</time>
      </trkpt>
      <trkpt lat="45.73136" lon="5.77602">
        <ele>225</ele>
        <time>2017-05-25T16:27:55Z</time>
      </trkpt>
      <trkpt lat="45.73142" lon="5.77599">
        <ele>225</ele>
        <time>2017-05-25T16:27:55Z</time>
      </trkpt>
      <trkpt lat="45.73149" lon="5.77593">
        <ele>225</ele>
        <time>2017-05-25T16:28:11Z</time>
      </trkpt>
      <trkpt lat="45.73153" lon="5.77592">
        <ele>225</ele>
        <time>2017-05-25T16:28:11Z</time>
      </trkpt>
      <trkpt lat="45.73158" lon="5.77589">
        <ele>225</ele>
        <time>2017-05-25T16:28:11Z</time>
      </trkpt>
      <trkpt lat="45.73164" lon="5.77586">
        <ele>225</ele>
        <time>2017-05-25T16:28:11Z</time>
      </trkpt>
      <trkpt lat="45.73168" lon="5.77584">
        <ele>225</ele>
        <time>2017-05-25T16:28:27Z</time>
      </trkpt>
      <trkpt lat="45.73173" lon="5.77581">
        <ele>225</ele>
        <time>2017-05-25T16:28:27Z</time>
      </trkpt>
      <trkpt lat="45.73179" lon="5.77577">
        <ele>225</ele>
        <time>2017-05-25T16:28:27Z</time>
      </trkpt>
      <trkpt lat="45.73185" lon="5.77574">
        <ele>225</ele>
        <time>2017-05-25T16:28:27Z</time>
      </trkpt>
      <trkpt lat="45.7319" lon="5.77571">
        <ele>225</ele>
        <time>2017-05-25T16:28:43Z</time>
      </trkpt>
      <trkpt lat="45.73195" lon="5.77568">
        <ele>225</ele>
        <time>2017-05-25T16:28:43Z</time>
      </trkpt>
      <trkpt lat="45.732" lon="5.77564">
        <ele>225</ele>
        <time>2017-05-25T16:28:43Z</time>
      </trkpt>
      <trkpt lat="45.73205" lon="5.77558">
        <ele>225</ele>
        <time>2017-05-25T16:28:43Z</time>
      </trkpt>
      <trkpt lat="45.7321" lon="5.77554">
        <ele>226</ele>
        <time>2017-05-25T16:28:59Z</time>
      </trkpt>
      <trkpt lat="45.73215" lon="5.77548">
        <ele>226</ele>
        <time>2017-05-25T16:28:59Z</time>
      </trkpt>
      <trkpt lat="45.7322" lon="5.77543">
        <ele>226</ele>
        <time>2017-05-25T16:28:59Z</time>
      </trkpt>
      <trkpt lat="45.73225" lon="5.77538">
        <ele>226</ele>
        <time>2017-05-25T16:28:59Z</time>
      </trkpt>
      <trkpt lat="45.7323" lon="5.77533">
        <ele>226</ele>
        <time>2017-05-25T16:29:15Z</time>
      </trkpt>
      <trkpt lat="45.73235" lon="5.77528">
        <ele>226</ele>
        <time>2017-05-25T16:29:15Z</time>
      </trkpt>
      <trkpt lat="45.7324" lon="5.77524">
        <ele>226</ele>
        <time>2017-05-25T16:29:15Z</time>
      </trkpt>
      <trkpt lat="45.73245" lon="5.77519">
        <ele>226</ele>
        <time>2017-05-25T16:29:15Z</time>
      </trkpt>
      <trkpt lat="45.73249" lon="5.77515">
        <ele>226</ele>
        <time>2017-05-25T16:29:31Z</time>
      </trkpt>
      <trkpt lat="45.73254" lon="5.7751">
        <ele>226</ele>
        <time>2017-05-25T16:29:31Z</time>
      </trkpt>
      <trkpt lat="45.73259" lon="5.77506">
        <ele>226</ele>
        <time>2017-05-25T16:29:31Z</time>
      </trkpt>
      <trkpt lat="45.73264" lon="5.77501">
        <ele>226</ele>
        <time>2017-05-25T16:29:31Z</time>
      </trkpt>
      <trkpt lat="45.73269" lon="5.77497">
        <ele>226</ele>
        <time>2017-05-25T16:29:47Z</time>
      </trkpt>
      <trkpt lat="45.73277" lon="5.77493">
        <ele>226</ele>
        <time>2017-05-25T16:29:47Z</time>
      </trkpt>
      <trkpt lat="45.73286" lon="5.7749">
        <ele>226</ele>
        <time>2017-05-25T16:29:47Z</time>
      </trkpt>
      <trkpt lat="45.73292" lon="5.77488">
        <ele>225</ele>
        <time>2017-05-25T16:29:47Z</time>
      </trkpt>
      <trkpt lat="45.73298" lon="5.77486">
        <ele>225</ele>
        <time>2017-05-25T16:30:03Z</time>
      </trkpt>
      <trkpt lat="45.73303" lon="5.77484">
        <ele>225</ele>
        <time>2017-05-25T16:30:03Z</time>
      </trkpt>
      <trkpt lat="45.73309" lon="5.77483">
        <ele>225</ele>
        <time>2017-05-25T16:30:03Z</time>
      </trkpt>
      <trkpt lat="45.73315" lon="5.77482">
        <ele>225</ele>
        <time>2017-05-25T16:30:03Z</time>
      </trkpt>
      <trkpt lat="45.7332" lon="5.77479">
        <ele>225</ele>
        <time>2017-05-25T16:30:19Z</time>
      </trkpt>
      <trkpt lat="45.73325" lon="5.77476">
        <ele>225</ele>
        <time>2017-05-25T16:30:19Z</time>
      </trkpt>
      <trkpt lat="45.73329" lon="5.77471">
        <ele>225</ele>
        <time>2017-05-25T16:30:19Z</time>
      </trkpt>
      <trkpt lat="45.73334" lon="5.77468">
        <ele>225</ele>
        <time>2017-05-25T16:30:19Z</time>
      </trkpt>
      <trkpt lat="45.73338" lon="5.77465">
        <ele>225</ele>
        <time>2017-05-25T16:30:35Z</time>
      </trkpt>
      <trkpt lat="45.73343" lon="5.77459">
        <ele>225</ele>
        <time>2017-05-25T16:30:35Z</time>
      </trkpt>
      <trkpt lat="45.73355" lon="5.77444">
        <ele>227</ele>
        <time>2017-05-25T16:30:35Z</time>
      </trkpt>
      <trkpt lat="45.73375" lon="5.77429">
        <ele>227</ele>
        <time>2017-05-25T16:30:35Z</time>
      </trkpt>
      <trkpt lat="45.73393" lon="5.77422">
        <ele>227</ele>
        <time>2017-05-25T16:30:51Z</time>
      </trkpt>
      <trkpt lat="45.73412" lon="5.77409">
        <ele>227</ele>
        <time>2017-05-25T16:30:51Z</time>
      </trkpt>
      <trkpt lat="45.7343" lon="5.77398">
        <ele>227</ele>
        <time>2017-05-25T16:30:51Z</time>
      </trkpt>
      <trkpt lat="45.73454" lon="5.77395">
        <ele>227</ele>
        <time>2017-05-25T16:30:51Z</time>
      </trkpt>
      <trkpt lat="45.73473" lon="5.77384">
        <ele>226</ele>
        <time>2017-05-25T16:31:07Z</time>
      </trkpt>
      <trkpt lat="45.73496" lon="5.77374">
        <ele>227</ele>
        <time>2017-05-25T16:31:07Z</time>
      </trkpt>
      <trkpt lat="45.73516" lon="5.77369">
        <ele>227</ele>
        <time>2017-05-25T16:31:07Z</time>
      </trkpt>
      <trkpt lat="45.73536" lon="5.77361">
        <ele>227</ele>
        <time>2017-05-25T16:31:07Z</time>
      </trkpt>
      <trkpt lat="45.73557" lon="5.77355">
        <ele>225</ele>
        <time>2017-05-25T16:31:23Z</time>
      </trkpt>
      <trkpt lat="45.73576" lon="5.77347">
        <ele>225</ele>
        <time>2017-05-25T16:31:23Z</time>
      </trkpt>
      <trkpt lat="45.73597" lon="5.77339">
        <ele>225</ele>
        <time>2017-05-25T16:31:23Z</time>
      </trkpt>
      <trkpt lat="45.73612" lon="5.77334">
        <ele>225</ele>
        <time>2017-05-25T16:31:23Z</time>
      </trkpt>
      <trkpt lat="45.7362" lon="5.77333">
        <ele>225</ele>
        <time>2017-05-25T16:31:39Z</time>
      </trkpt>
      <trkpt lat="45.73626" lon="5.77332">
        <ele>229</ele>
        <time>2017-05-25T16:31:39Z</time>
      </trkpt>
      <trkpt lat="45.73631" lon="5.77331">
        <ele>229</ele>
        <time>2017-05-25T16:31:39Z</time>
      </trkpt>
      <trkpt lat="45.73636" lon="5.77329">
        <ele>229</ele>
        <time>2017-05-25T16:31:39Z</time>
      </trkpt>
      <trkpt lat="45.73641" lon="5.77328">
        <ele>229</ele>
        <time>2017-05-25T16:31:55Z</time>
      </trkpt>
      <trkpt lat="45.73647" lon="5.77327">
        <ele>229</ele>
        <time>2017-05-25T16:31:55Z</time>
      </trkpt>
      <trkpt lat="45.73654" lon="5.77326">
        <ele>229</ele>
        <time>2017-05-25T16:31:55Z</time>
      </trkpt>
      <trkpt lat="45.7366" lon="5.77321">
        <ele>229</ele>
        <time>2017-05-25T16:31:55Z</time>
      </trkpt>
      <trkpt lat="45.73667" lon="5.77322">
        <ele>229</ele>
        <time>2017-05-25T16:32:11Z</time>
      </trkpt>
      <trkpt lat="45.73673" lon="5.7732">
        <ele>229</ele>
        <time>2017-05-25T16:32:11Z</time>
      </trkpt>
      <trkpt lat="45.73678" lon="5.77318">
        <ele>229</ele>
        <time>2017-05-25T16:32:11Z</time>
      </trkpt>
      <trkpt lat="45.73686" lon="5.77316">
        <ele>229</ele>
        <time>2017-05-25T16:32:11Z</time>
      </trkpt>
      <trkpt lat="45.73691" lon="5.77311">
        <ele>229</ele>
        <time>2017-05-25T16:32:27Z</time>
      </trkpt>
      <trkpt lat="45.73697" lon="5.77306">
        <ele>229</ele>
        <time>2017-05-25T16:32:27Z</time>
      </trkpt>
      <trkpt lat="45.73701" lon="5.77301">
        <ele>229</ele>
        <time>2017-05-25T16:32:27Z</time>
      </trkpt>
      <trkpt lat="45.73707" lon="5.77297">
        <ele>229</ele>
        <time>2017-05-25T16:32:27Z</time>
      </trkpt>
      <trkpt lat="45.73711" lon="5.77293">
        <ele>227</ele>
        <time>2017-05-25T16:32:43Z</time>
      </trkpt>
      <trkpt lat="45.73716" lon="5.77288">
        <ele>228</ele>
        <time>2017-05-25T16:32:43Z</time>
      </trkpt>
      <trkpt lat="45.73721" lon="5.77284">
        <ele>228</ele>
        <time>2017-05-25T16:32:43Z</time>
      </trkpt>
      <trkpt lat="45.73725" lon="5.77281">
        <ele>228</ele>
        <time>2017-05-25T16:32:43Z</time>
      </trkpt>
      <trkpt lat="45.73732" lon="5.77279">
        <ele>228</ele>
        <time>2017-05-25T16:32:59Z</time>
      </trkpt>
      <trkpt lat="45.73738" lon="5.77275">
        <ele>228</ele>
        <time>2017-05-25T16:32:59Z</time>
      </trkpt>
      <trkpt lat="45.73745" lon="5.77271">
        <ele>228</ele>
        <time>2017-05-25T16:32:59Z</time>
      </trkpt>
      <trkpt lat="45.7375" lon="5.77267">
        <ele>228</ele>
        <time>2017-05-25T16:32:59Z</time>
      </trkpt>
      <trkpt lat="45.73756" lon="5.77261">
        <ele>228</ele>
        <time>2017-05-25T16:33:15Z</time>
      </trkpt>
      <trkpt lat="45.73761" lon="5.77255">
        <ele>228</ele>
        <time>2017-05-25T16:33:15Z</time>
      </trkpt>
      <trkpt lat="45.73764" lon="5.77249">
        <ele>228</ele>
        <time>2017-05-25T16:33:15Z</time>
      </trkpt>
      <trkpt lat="45.73767" lon="5.77243">
        <ele>228</ele>
        <time>2017-05-25T16:33:15Z</time>
      </trkpt>
      <trkpt lat="45.73772" lon="5.7724">
        <ele>228</ele>
        <time>2017-05-25T16:33:31Z</time>
      </trkpt>
      <trkpt lat="45.73776" lon="5.77236">
        <ele>228</ele>
        <time>2017-05-25T16:33:31Z</time>
      </trkpt>
      <trkpt lat="45.7378" lon="5.7723">
        <ele>228</ele>
        <time>2017-05-25T16:33:31Z</time>
      </trkpt>
      <trkpt lat="45.73787" lon="5.77226">
        <ele>228</ele>
        <time>2017-05-25T16:33:31Z</time>
      </trkpt>
      <trkpt lat="45.73794" lon="5.77223">
        <ele>226</ele>
        <time>2017-05-25T16:33:47Z</time>
      </trkpt>
      <trkpt lat="45.738" lon="5.77221">
        <ele>226</ele>
        <time>2017-05-25T16:33:47Z</time>
      </trkpt>
      <trkpt lat="45.73805" lon="5.77219">
        <ele>226</ele>
        <time>2017-05-25T16:33:47Z</time>
      </trkpt>
      <trkpt lat="45.73812" lon="5.77214">
        <ele>226</ele>
        <time>2017-05-25T16:33:47Z</time>
      </trkpt>
      <trkpt lat="45.73818" lon="5.77214">
        <ele>226</ele>
        <time>2017-05-25T16:34:03Z</time>
      </trkpt>
      <trkpt lat="45.73822" lon="5.77211">
        <ele>226</ele>
        <time>2017-05-25T16:34:03Z</time>
      </trkpt>
      <trkpt lat="45.73824" lon="5.77204">
        <ele>228</ele>
        <time>2017-05-25T16:34:03Z</time>
      </trkpt>
      <trkpt lat="45.7383" lon="5.77198">
        <ele>228</ele>
        <time>2017-05-25T16:34:03Z</time>
      </trkpt>
      <trkpt lat="45.73836" lon="5.77192">
        <ele>228</ele>
        <time>2017-05-25T16:34:19Z</time>
      </trkpt>
      <trkpt lat="45.73839" lon="5.77186">
        <ele>228</ele>
        <time>2017-05-25T16:34:19Z</time>
      </trkpt>
      <trkpt lat="45.73842" lon="5.77181">
        <ele>228</ele>
        <time>2017-05-25T16:34:19Z</time>
      </trkpt>
      <trkpt lat="45.73842" lon="5.77176">
        <ele>228</ele>
        <time>2017-05-25T16:34:19Z</time>
      </trkpt>
      <trkpt lat="45.73844" lon="5.77174">
        <ele>228</ele>
        <time>2017-05-25T16:34:55Z</time>
      </trkpt>
      <trkpt lat="45.7384" lon="5.77174">
        <ele>228</ele>
        <time>2017-05-25T16:34:55Z</time>
      </trkpt>
      <trkpt lat="45.7384" lon="5.7717">
        <ele>228</ele>
        <time>2017-05-25T16:34:55Z</time>
      </trkpt>
      <trkpt lat="45.73839" lon="5.77166">
        <ele>228</ele>
        <time>2017-05-25T16:34:55Z</time>
      </trkpt>
      <trkpt lat="45.73836" lon="5.77162">
        <ele>228</ele>
        <time>2017-05-25T16:34:55Z</time>
      </trkpt>
      <trkpt lat="45.73835" lon="5.77161">
        <ele>228</ele>
        <time>2017-05-25T16:35:15Z</time>
      </trkpt>
      <trkpt lat="45.73835" lon="5.77161">
        <ele>228</ele>
        <time>2017-05-25T16:35:15Z</time>
      </trkpt>
      <trkpt lat="45.73838" lon="5.77163">
        <ele>228</ele>
        <time>2017-05-25T16:35:15Z</time>
      </trkpt>
      <trkpt lat="45.73841" lon="5.77169">
        <ele>228</ele>
        <time>2017-05-25T16:35:15Z</time>
      </trkpt>
      <trkpt lat="45.73846" lon="5.77173">
        <ele>228</ele>
        <time>2017-05-25T16:35:15Z</time>
      </trkpt>
      <trkpt lat="45.73853" lon="5.77172">
        <ele>228</ele>
        <time>2017-05-25T16:35:31Z</time>
      </trkpt>
      <trkpt lat="45.73859" lon="5.77172">
        <ele>228</ele>
        <time>2017-05-25T16:35:31Z</time>
      </trkpt>
      <trkpt lat="45.73865" lon="5.77171">
        <ele>228</ele>
        <time>2017-05-25T16:35:31Z</time>
      </trkpt>
      <trkpt lat="45.7387" lon="5.77172">
        <ele>228</ele>
        <time>2017-05-25T16:35:31Z</time>
      </trkpt>
      <trkpt lat="45.73875" lon="5.77173">
        <ele>224</ele>
        <time>2017-05-25T16:35:47Z</time>
      </trkpt>
      <trkpt lat="45.7388" lon="5.77174">
        <ele>224</ele>
        <time>2017-05-25T16:35:47Z</time>
      </trkpt>
      <trkpt lat="45.73886" lon="5.77175">
        <ele>224</ele>
        <time>2017-05-25T16:35:47Z</time>
      </trkpt>
      <trkpt lat="45.73892" lon="5.77176">
        <ele>224</ele>
        <time>2017-05-25T16:35:47Z</time>
      </trkpt>
      <trkpt lat="45.73897" lon="5.77178">
        <ele>224</ele>
        <time>2017-05-25T16:36:03Z</time>
      </trkpt>
      <trkpt lat="45.73903" lon="5.77182">
        <ele>224</ele>
        <time>2017-05-25T16:36:03Z</time>
      </trkpt>
      <trkpt lat="45.73908" lon="5.77186">
        <ele>224</ele>
        <time>2017-05-25T16:36:03Z</time>
      </trkpt>
      <trkpt lat="45.73913" lon="5.77192">
        <ele>224</ele>
        <time>2017-05-25T16:36:03Z</time>
      </trkpt>
      <trkpt lat="45.73919" lon="5.77196">
        <ele>224</ele>
        <time>2017-05-25T16:36:19Z</time>
      </trkpt>
      <trkpt lat="45.73924" lon="5.772">
        <ele>224</ele>
        <time>2017-05-25T16:36:19Z</time>
      </trkpt>
      <trkpt lat="45.73929" lon="5.77205">
        <ele>224</ele>
        <time>2017-05-25T16:36:19Z</time>
      </trkpt>
      <trkpt lat="45.73934" lon="5.77209">
        <ele>228</ele>
        <time>2017-05-25T16:36:19Z</time>
      </trkpt>
      <trkpt lat="45.73938" lon="5.77213">
        <ele>228</ele>
        <time>2017-05-25T16:36:35Z</time>
      </trkpt>
      <trkpt lat="45.73941" lon="5.77218">
        <ele>228</ele>
        <time>2017-05-25T16:36:35Z</time>
      </trkpt>
      <trkpt lat="45.73944" lon="5.77223">
        <ele>228</ele>
        <time>2017-05-25T16:36:35Z</time>
      </trkpt>
      <trkpt lat="45.73944" lon="5.77231">
        <ele>228</ele>
        <time>2017-05-25T16:36:35Z</time>
      </trkpt>
      <trkpt lat="45.73942" lon="5.77239">
        <ele>228</ele>
        <time>2017-05-25T16:36:51Z</time>
      </trkpt>
      <trkpt lat="45.73941" lon="5.77248">
        <ele>228</ele>
        <time>2017-05-25T16:36:51Z</time>
      </trkpt>
      <trkpt lat="45.73938" lon="5.77256">
        <ele>228</ele>
        <time>2017-05-25T16:36:51Z</time>
      </trkpt>
      <trkpt lat="45.73935" lon="5.77264">
        <ele>228</ele>
        <time>2017-05-25T16:36:51Z</time>
      </trkpt>
      <trkpt lat="45.73932" lon="5.77274">
        <ele>228</ele>
        <time>2017-05-25T16:37:07Z</time>
      </trkpt>
      <trkpt lat="45.73932" lon="5.77282">
        <ele>228</ele>
        <time>2017-05-25T16:37:07Z</time>
      </trkpt>
      <trkpt lat="45.73933" lon="5.7729">
        <ele>228</ele>
        <time>2017-05-25T16:37:07Z</time>
      </trkpt>
      <trkpt lat="45.73933" lon="5.77298">
        <ele>230</ele>
        <time>2017-05-25T16:37:07Z</time>
      </trkpt>
      <trkpt lat="45.73933" lon="5.77307">
        <ele>230</ele>
        <time>2017-05-25T16:37:23Z</time>
      </trkpt>
      <trkpt lat="45.73933" lon="5.77315">
        <ele>230</ele>
        <time>2017-05-25T16:37:23Z</time>
      </trkpt>
      <trkpt lat="45.7393" lon="5.77322">
        <ele>230</ele>
        <time>2017-05-25T16:37:23Z</time>
      </trkpt>
      <trkpt lat="45.73927" lon="5.77331">
        <ele>230</ele>
        <time>2017-05-25T16:37:23Z</time>
      </trkpt>
      <trkpt lat="45.73925" lon="5.77339">
        <ele>230</ele>
        <time>2017-05-25T16:37:39Z</time>
      </trkpt>
      <trkpt lat="45.73923" lon="5.77348">
        <ele>230</ele>
        <time>2017-05-25T16:37:39Z</time>
      </trkpt>
      <trkpt lat="45.73925" lon="5.77355">
        <ele>230</ele>
        <time>2017-05-25T16:37:39Z</time>
      </trkpt>
      <trkpt lat="45.73932" lon="5.77358">
        <ele>230</ele>
        <time>2017-05-25T16:37:39Z</time>
      </trkpt>
      <trkpt lat="45.73939" lon="5.77359">
        <ele>230</ele>
        <time>2017-05-25T16:37:55Z</time>
      </trkpt>
      <trkpt lat="45.73946" lon="5.7736">
        <ele>230</ele>
        <time>2017-05-25T16:37:55Z</time>
      </trkpt>
      <trkpt lat="45.73952" lon="5.77359">
        <ele>230</ele>
        <time>2017-05-25T16:37:55Z</time>
      </trkpt>
      <trkpt lat="45.73959" lon="5.7736">
        <ele>234</ele>
        <time>2017-05-25T16:37:55Z</time>
      </trkpt>
      <trkpt lat="45.73965" lon="5.77362">
        <ele>234</ele>
        <time>2017-05-25T16:38:11Z</time>
      </trkpt>
      <trkpt lat="45.73972" lon="5.77366">
        <ele>234</ele>
        <time>2017-05-25T16:38:11Z</time>
      </trkpt>
      <trkpt lat="45.73976" lon="5.77369">
        <ele>234</ele>
        <time>2017-05-25T16:38:11Z</time>
      </trkpt>
      <trkpt lat="45.73978" lon="5.77377">
        <ele>234</ele>
        <time>2017-05-25T16:38:11Z</time>
      </trkpt>
      <trkpt lat="45.73978" lon="5.77385">
        <ele>234</ele>
        <time>2017-05-25T16:38:27Z</time>
      </trkpt>
      <trkpt lat="45.73976" lon="5.77395">
        <ele>234</ele>
        <time>2017-05-25T16:38:27Z</time>
      </trkpt>
      <trkpt lat="45.73974" lon="5.77403">
        <ele>234</ele>
        <time>2017-05-25T16:38:27Z</time>
      </trkpt>
      <trkpt lat="45.73973" lon="5.7741">
        <ele>234</ele>
        <time>2017-05-25T16:38:27Z</time>
      </trkpt>
      <trkpt lat="45.73972" lon="5.77417">
        <ele>234</ele>
        <time>2017-05-25T16:38:43Z</time>
      </trkpt>
      <trkpt lat="45.73972" lon="5.77425">
        <ele>234</ele>
        <time>2017-05-25T16:38:43Z</time>
      </trkpt>
      <trkpt lat="45.73973" lon="5.77433">
        <ele>234</ele>
        <time>2017-05-25T16:38:43Z</time>
      </trkpt>
      <trkpt lat="45.73976" lon="5.77439">
        <ele>234</ele>
        <time>2017-05-25T16:38:43Z</time>
      </trkpt>
      <trkpt lat="45.73977" lon="5.77447">
        <ele>234</ele>
        <time>2017-05-25T16:38:59Z</time>
      </trkpt>
      <trkpt lat="45.73976" lon="5.77456">
        <ele>234</ele>
        <time>2017-05-25T16:38:59Z</time>
      </trkpt>
      <trkpt lat="45.73977" lon="5.77468">
        <ele>232</ele>
        <time>2017-05-25T16:38:59Z</time>
      </trkpt>
      <trkpt lat="45.73977" lon="5.77474">
        <ele>232</ele>
        <time>2017-05-25T16:38:59Z</time>
      </trkpt>
      <trkpt lat="45.73977" lon="5.77483">
        <ele>232</ele>
        <time>2017-05-25T16:39:15Z</time>
      </trkpt>
      <trkpt lat="45.73978" lon="5.7749">
        <ele>232</ele>
        <time>2017-05-25T16:39:15Z</time>
      </trkpt>
      <trkpt lat="45.73979" lon="5.77499">
        <ele>232</ele>
        <time>2017-05-25T16:39:15Z</time>
      </trkpt>
      <trkpt lat="45.73979" lon="5.77504">
        <ele>232</ele>
        <time>2017-05-25T16:39:15Z</time>
      </trkpt>
      <trkpt lat="45.73979" lon="5.77511">
        <ele>232</ele>
        <time>2017-05-25T16:39:31Z</time>
      </trkpt>
      <trkpt lat="45.73978" lon="5.7752">
        <ele>232</ele>
        <time>2017-05-25T16:39:31Z</time>
      </trkpt>
      <trkpt lat="45.73975" lon="5.77526">
        <ele>232</ele>
        <time>2017-05-25T16:39:31Z</time>
      </trkpt>
      <trkpt lat="45.73969" lon="5.77531">
        <ele>232</ele>
        <time>2017-05-25T16:39:31Z</time>
      </trkpt>
      <trkpt lat="45.73964" lon="5.77534">
        <ele>232</ele>
        <time>2017-05-25T16:39:47Z</time>
      </trkpt>
      <trkpt lat="45.73959" lon="5.77542">
        <ele>232</ele>
        <time>2017-05-25T16:39:47Z</time>
      </trkpt>
      <trkpt lat="45.73955" lon="5.77549">
        <ele>227</ele>
        <time>2017-05-25T16:39:47Z</time>
      </trkpt>
      <trkpt lat="45.73954" lon="5.77557">
        <ele>227</ele>
        <time>2017-05-25T16:39:47Z</time>
      </trkpt>
      <trkpt lat="45.73954" lon="5.77566">
        <ele>227</ele>
        <time>2017-05-25T16:40:03Z</time>
      </trkpt>
      <trkpt lat="45.73954" lon="5.77575">
        <ele>227</ele>
        <time>2017-05-25T16:40:03Z</time>
      </trkpt>
      <trkpt lat="45.73955" lon="5.77584">
        <ele>227</ele>
        <time>2017-05-25T16:40:03Z</time>
      </trkpt>
      <trkpt lat="45.73956" lon="5.77592">
        <ele>227</ele>
        <time>2017-05-25T16:40:03Z</time>
      </trkpt>
      <trkpt lat="45.73956" lon="5.776">
        <ele>227</ele>
        <time>2017-05-25T16:40:19Z</time>
      </trkpt>
      <trkpt lat="45.73956" lon="5.77609">
        <ele>227</ele>
        <time>2017-05-25T16:40:19Z</time>
      </trkpt>
      <trkpt lat="45.73957" lon="5.77618">
        <ele>227</ele>
        <time>2017-05-25T16:40:19Z</time>
      </trkpt>
      <trkpt lat="45.73957" lon="5.77626">
        <ele>227</ele>
        <time>2017-05-25T16:40:19Z</time>
      </trkpt>
      <trkpt lat="45.73958" lon="5.77634">
        <ele>227</ele>
        <time>2017-05-25T16:40:35Z</time>
      </trkpt>
      <trkpt lat="45.73958" lon="5.77642">
        <ele>227</ele>
        <time>2017-05-25T16:40:35Z</time>
      </trkpt>
      <trkpt lat="45.73958" lon="5.77651">
        <ele>227</ele>
        <time>2017-05-25T16:40:35Z</time>
      </trkpt>
      <trkpt lat="45.73957" lon="5.77658">
        <ele>227</ele>
        <time>2017-05-25T16:40:35Z</time>
      </trkpt>
      <trkpt lat="45.73958" lon="5.77666">
        <ele>227</ele>
        <time>2017-05-25T16:40:51Z</time>
      </trkpt>
      <trkpt lat="45.73958" lon="5.77674">
        <ele>227</ele>
        <time>2017-05-25T16:40:51Z</time>
      </trkpt>
      <trkpt lat="45.73958" lon="5.77685">
        <ele>227</ele>
        <time>2017-05-25T16:40:51Z</time>
      </trkpt>
      <trkpt lat="45.73959" lon="5.77691">
        <ele>227</ele>
        <time>2017-05-25T16:40:51Z</time>
      </trkpt>
      <trkpt lat="45.73961" lon="5.77699">
        <ele>227</ele>
        <time>2017-05-25T16:41:07Z</time>
      </trkpt>
      <trkpt lat="45.73966" lon="5.77707">
        <ele>227</ele>
        <time>2017-05-25T16:41:07Z</time>
      </trkpt>
      <trkpt lat="45.7397" lon="5.77708">
        <ele>226</ele>
        <time>2017-05-25T16:41:07Z</time>
      </trkpt>
      <trkpt lat="45.73976" lon="5.77712">
        <ele>226</ele>
        <time>2017-05-25T16:41:07Z</time>
      </trkpt>
      <trkpt lat="45.73982" lon="5.77712">
        <ele>226</ele>
        <time>2017-05-25T16:41:35Z</time>
      </trkpt>
      <trkpt lat="45.73988" lon="5.77714">
        <ele>226</ele>
        <time>2017-05-25T16:41:35Z</time>
      </trkpt>
      <trkpt lat="45.73995" lon="5.77716">
        <ele>226</ele>
        <time>2017-05-25T16:41:35Z</time>
      </trkpt>
      <trkpt lat="45.74001" lon="5.77718">
        <ele>226</ele>
        <time>2017-05-25T16:41:35Z</time>
      </trkpt>
      <trkpt lat="45.74007" lon="5.7772">
        <ele>226</ele>
        <time>2017-05-25T16:41:35Z</time>
      </trkpt>
      <trkpt lat="45.74018" lon="5.77722">
        <ele>226</ele>
        <time>2017-05-25T16:41:51Z</time>
      </trkpt>
      <trkpt lat="45.74026" lon="5.77725">
        <ele>226</ele>
        <time>2017-05-25T16:41:51Z</time>
      </trkpt>
      <trkpt lat="45.74032" lon="5.77728">
        <ele>226</ele>
        <time>2017-05-25T16:41:51Z</time>
      </trkpt>
      <trkpt lat="45.74037" lon="5.77731">
        <ele>226</ele>
        <time>2017-05-25T16:41:51Z</time>
      </trkpt>
      <trkpt lat="45.74043" lon="5.77735">
        <ele>228</ele>
        <time>2017-05-25T16:42:07Z</time>
      </trkpt>
      <trkpt lat="45.74045" lon="5.7774">
        <ele>228</ele>
        <time>2017-05-25T16:42:07Z</time>
      </trkpt>
      <trkpt lat="45.74045" lon="5.77747">
        <ele>228</ele>
        <time>2017-05-25T16:42:07Z</time>
      </trkpt>
      <trkpt lat="45.74044" lon="5.77751">
        <ele>228</ele>
        <time>2017-05-25T16:42:07Z</time>
      </trkpt>
      <trkpt lat="45.74043" lon="5.7775">
        <ele>228</ele>
        <time>2017-05-25T16:42:31Z</time>
      </trkpt>
      <trkpt lat="45.74042" lon="5.7775">
        <ele>228</ele>
        <time>2017-05-25T16:42:31Z</time>
      </trkpt>
      <trkpt lat="45.74042" lon="5.77752">
        <ele>228</ele>
        <time>2017-05-25T16:42:31Z</time>
      </trkpt>
      <trkpt lat="45.74041" lon="5.7776">
        <ele>226</ele>
        <time>2017-05-25T16:42:31Z</time>
      </trkpt>
      <trkpt lat="45.74041" lon="5.7777">
        <ele>226</ele>
        <time>2017-05-25T16:42:31Z</time>
      </trkpt>
      <trkpt lat="45.7404" lon="5.77779">
        <ele>226</ele>
        <time>2017-05-25T16:42:47Z</time>
      </trkpt>
      <trkpt lat="45.7404" lon="5.77788">
        <ele>226</ele>
        <time>2017-05-25T16:42:47Z</time>
      </trkpt>
      <trkpt lat="45.74041" lon="5.77796">
        <ele>226</ele>
        <time>2017-05-25T16:42:47Z</time>
      </trkpt>
      <trkpt lat="45.7404" lon="5.77806">
        <ele>226</ele>
        <time>2017-05-25T16:42:47Z</time>
      </trkpt>
      <trkpt lat="45.7404" lon="5.77818">
        <ele>226</ele>
        <time>2017-05-25T16:43:03Z</time>
      </trkpt>
      <trkpt lat="45.7404" lon="5.77828">
        <ele>226</ele>
        <time>2017-05-25T16:43:03Z</time>
      </trkpt>
      <trkpt lat="45.74041" lon="5.77837">
        <ele>226</ele>
        <time>2017-05-25T16:43:03Z</time>
      </trkpt>
      <trkpt lat="45.74041" lon="5.77844">
        <ele>226</ele>
        <time>2017-05-25T16:43:03Z</time>
      </trkpt>
      <trkpt lat="45.74041" lon="5.7785">
        <ele>226</ele>
        <time>2017-05-25T16:43:19Z</time>
      </trkpt>
      <trkpt lat="45.74042" lon="5.77858">
        <ele>228</ele>
        <time>2017-05-25T16:43:19Z</time>
      </trkpt>
      <trkpt lat="45.74043" lon="5.77865">
        <ele>228</ele>
        <time>2017-05-25T16:43:19Z</time>
      </trkpt>
      <trkpt lat="45.74043" lon="5.77873">
        <ele>228</ele>
        <time>2017-05-25T16:43:19Z</time>
      </trkpt>
      <trkpt lat="45.74043" lon="5.77881">
        <ele>227</ele>
        <time>2017-05-25T16:43:35Z</time>
      </trkpt>
      <trkpt lat="45.74043" lon="5.7789">
        <ele>227</ele>
        <time>2017-05-25T16:43:35Z</time>
      </trkpt>
      <trkpt lat="45.74043" lon="5.77898">
        <ele>227</ele>
        <time>2017-05-25T16:43:35Z</time>
      </trkpt>
      <trkpt lat="45.74043" lon="5.77905">
        <ele>227</ele>
        <time>2017-05-25T16:43:35Z</time>
      </trkpt>
      <trkpt lat="45.74043" lon="5.77912">
        <ele>227</ele>
        <time>2017-05-25T16:43:51Z</time>
      </trkpt>
      <trkpt lat="45.74043" lon="5.77918">
        <ele>227</ele>
        <time>2017-05-25T16:43:51Z</time>
      </trkpt>
      <trkpt lat="45.74044" lon="5.7793">
        <ele>227</ele>
        <time>2017-05-25T16:43:51Z</time>
      </trkpt>
      <trkpt lat="45.74043" lon="5.77947">
        <ele>227</ele>
        <time>2017-05-25T16:43:51Z</time>
      </trkpt>
      <trkpt lat="45.74042" lon="5.77956">
        <ele>227</ele>
        <time>2017-05-25T16:44:07Z</time>
      </trkpt>
      <trkpt lat="45.74041" lon="5.77964">
        <ele>227</ele>
        <time>2017-05-25T16:44:07Z</time>
      </trkpt>
      <trkpt lat="45.7404" lon="5.77975">
        <ele>227</ele>
        <time>2017-05-25T16:44:07Z</time>
      </trkpt>
      <trkpt lat="45.7404" lon="5.77983">
        <ele>227</ele>
        <time>2017-05-25T16:44:07Z</time>
      </trkpt>
      <trkpt lat="45.74039" lon="5.77992">
        <ele>227</ele>
        <time>2017-05-25T16:44:23Z</time>
      </trkpt>
      <trkpt lat="45.74038" lon="5.78">
        <ele>227</ele>
        <time>2017-05-25T16:44:23Z</time>
      </trkpt>
      <trkpt lat="45.74037" lon="5.78009">
        <ele>227</ele>
        <time>2017-05-25T16:44:23Z</time>
      </trkpt>
      <trkpt lat="45.74037" lon="5.78018">
        <ele>227</ele>
        <time>2017-05-25T16:44:23Z</time>
      </trkpt>
      <trkpt lat="45.74036" lon="5.7803">
        <ele>227</ele>
        <time>2017-05-25T16:44:39Z</time>
      </trkpt>
      <trkpt lat="45.74036" lon="5.7804">
        <ele>227</ele>
        <time>2017-05-25T16:44:39Z</time>
      </trkpt>
      <trkpt lat="45.74036" lon="5.78046">
        <ele>239</ele>
        <time>2017-05-25T16:44:39Z</time>
      </trkpt>
      <trkpt lat="45.7404" lon="5.78052">
        <ele>239</ele>
        <time>2017-05-25T16:44:39Z</time>
      </trkpt>
      <trkpt lat="45.74045" lon="5.78056">
        <ele>231</ele>
        <time>2017-05-25T16:44:55Z</time>
      </trkpt>
      <trkpt lat="45.74052" lon="5.78062">
        <ele>231</ele>
        <time>2017-05-25T16:44:55Z</time>
      </trkpt>
      <trkpt lat="45.74056" lon="5.78066">
        <ele>231</ele>
        <time>2017-05-25T16:44:55Z</time>
      </trkpt>
      <trkpt lat="45.74062" lon="5.78072">
        <ele>231</ele>
        <time>2017-05-25T16:44:55Z</time>
      </trkpt>
      <trkpt lat="45.74065" lon="5.78076">
        <ele>231</ele>
        <time>2017-05-25T16:45:11Z</time>
      </trkpt>
      <trkpt lat="45.74072" lon="5.78093">
        <ele>231</ele>
        <time>2017-05-25T16:45:11Z</time>
      </trkpt>
      <trkpt lat="45.7408" lon="5.78114">
        <ele>231</ele>
        <time>2017-05-25T16:45:11Z</time>
      </trkpt>
      <trkpt lat="45.74086" lon="5.78134">
        <ele>233</ele>
        <time>2017-05-25T16:45:11Z</time>
      </trkpt>
      <trkpt lat="45.7409" lon="5.78154">
        <ele>233</ele>
        <time>2017-05-25T16:45:27Z</time>
      </trkpt>
      <trkpt lat="45.74093" lon="5.78169">
        <ele>233</ele>
        <time>2017-05-25T16:45:27Z</time>
      </trkpt>
      <trkpt lat="45.74094" lon="5.78173">
        <ele>233</ele>
        <time>2017-05-25T16:45:27Z</time>
      </trkpt>
      <trkpt lat="45.74096" lon="5.78178">
        <ele>233</ele>
        <time>2017-05-25T16:45:27Z</time>
      </trkpt>
      <trkpt lat="45.74097" lon="5.78185">
        <ele>233</ele>
        <time>2017-05-25T16:45:43Z</time>
      </trkpt>
      <trkpt lat="45.741" lon="5.78192">
        <ele>233</ele>
        <time>2017-05-25T16:45:43Z</time>
      </trkpt>
      <trkpt lat="45.74103" lon="5.78198">
        <ele>233</ele>
        <time>2017-05-25T16:45:43Z</time>
      </trkpt>
      <trkpt lat="45.74106" lon="5.78205">
        <ele>233</ele>
        <time>2017-05-25T16:45:43Z</time>
      </trkpt>
      <trkpt lat="45.74107" lon="5.78209">
        <ele>231</ele>
        <time>2017-05-25T16:45:59Z</time>
      </trkpt>
      <trkpt lat="45.74108" lon="5.78215">
        <ele>231</ele>
        <time>2017-05-25T16:45:59Z</time>
      </trkpt>
      <trkpt lat="45.7411" lon="5.78222">
        <ele>231</ele>
        <time>2017-05-25T16:45:59Z</time>
      </trkpt>
      <trkpt lat="45.74111" lon="5.78231">
        <ele>231</ele>
        <time>2017-05-25T16:45:59Z</time>
      </trkpt>
      <trkpt lat="45.74111" lon="5.78238">
        <ele>231</ele>
        <time>2017-05-25T16:46:15Z</time>
      </trkpt>
      <trkpt lat="45.74111" lon="5.78246">
        <ele>231</ele>
        <time>2017-05-25T16:46:15Z</time>
      </trkpt>
      <trkpt lat="45.74113" lon="5.78253">
        <ele>231</ele>
        <time>2017-05-25T16:46:15Z</time>
      </trkpt>
      <trkpt lat="45.74114" lon="5.78259">
        <ele>231</ele>
        <time>2017-05-25T16:46:15Z</time>
      </trkpt>
      <trkpt lat="45.74118" lon="5.78265">
        <ele>231</ele>
        <time>2017-05-25T16:46:31Z</time>
      </trkpt>
      <trkpt lat="45.74122" lon="5.78271">
        <ele>231</ele>
        <time>2017-05-25T16:46:31Z</time>
      </trkpt>
      <trkpt lat="45.74124" lon="5.78276">
        <ele>231</ele>
        <time>2017-05-25T16:46:31Z</time>
      </trkpt>
      <trkpt lat="45.74127" lon="5.78285">
        <ele>230</ele>
        <time>2017-05-25T16:46:31Z</time>
      </trkpt>
      <trkpt lat="45.74131" lon="5.78293">
        <ele>228</ele>
        <time>2017-05-25T16:46:47Z</time>
      </trkpt>
      <trkpt lat="45.74133" lon="5.783">
        <ele>228</ele>
        <time>2017-05-25T16:46:47Z</time>
      </trkpt>
      <trkpt lat="45.74136" lon="5.78306">
        <ele>228</ele>
        <time>2017-05-25T16:46:47Z</time>
      </trkpt>
      <trkpt lat="45.7414" lon="5.78312">
        <ele>228</ele>
        <time>2017-05-25T16:46:47Z</time>
      </trkpt>
      <trkpt lat="45.74145" lon="5.78317">
        <ele>228</ele>
        <time>2017-05-25T16:47:03Z</time>
      </trkpt>
      <trkpt lat="45.74151" lon="5.78321">
        <ele>228</ele>
        <time>2017-05-25T16:47:03Z</time>
      </trkpt>
      <trkpt lat="45.74157" lon="5.78325">
        <ele>228</ele>
        <time>2017-05-25T16:47:03Z</time>
      </trkpt>
      <trkpt lat="45.74167" lon="5.78331">
        <ele>228</ele>
        <time>2017-05-25T16:47:03Z</time>
      </trkpt>
      <trkpt lat="45.74186" lon="5.78343">
        <ele>228</ele>
        <time>2017-05-25T16:47:19Z</time>
      </trkpt>
      <trkpt lat="45.74206" lon="5.78358">
        <ele>228</ele>
        <time>2017-05-25T16:47:19Z</time>
      </trkpt>
      <trkpt lat="45.74231" lon="5.78377">
        <ele>227</ele>
        <time>2017-05-25T16:47:19Z</time>
      </trkpt>
      <trkpt lat="45.74244" lon="5.78393">
        <ele>227</ele>
        <time>2017-05-25T16:47:19Z</time>
      </trkpt>
      <trkpt lat="45.74264" lon="5.78407">
        <ele>227</ele>
        <time>2017-05-25T16:47:35Z</time>
      </trkpt>
      <trkpt lat="45.74289" lon="5.78415">
        <ele>227</ele>
        <time>2017-05-25T16:47:35Z</time>
      </trkpt>
      <trkpt lat="45.74305" lon="5.78421">
        <ele>226</ele>
        <time>2017-05-25T16:47:35Z</time>
      </trkpt>
      <trkpt lat="45.74323" lon="5.78431">
        <ele>226</ele>
        <time>2017-05-25T16:47:35Z</time>
      </trkpt>
      <trkpt lat="45.74343" lon="5.78445">
        <ele>226</ele>
        <time>2017-05-25T16:47:51Z</time>
      </trkpt>
      <trkpt lat="45.74362" lon="5.78461">
        <ele>227</ele>
        <time>2017-05-25T16:47:51Z</time>
      </trkpt>
      <trkpt lat="45.74383" lon="5.7847">
        <ele>226</ele>
        <time>2017-05-25T16:47:51Z</time>
      </trkpt>
      <trkpt lat="45.74403" lon="5.78474">
        <ele>226</ele>
        <time>2017-05-25T16:47:51Z</time>
      </trkpt>
      <trkpt lat="45.74426" lon="5.78479">
        <ele>226</ele>
        <time>2017-05-25T16:48:07Z</time>
      </trkpt>
      <trkpt lat="45.74446" lon="5.78485">
        <ele>226</ele>
        <time>2017-05-25T16:48:07Z</time>
      </trkpt>
      <trkpt lat="45.74466" lon="5.785">
        <ele>228</ele>
        <time>2017-05-25T16:48:07Z</time>
      </trkpt>
      <trkpt lat="45.74485" lon="5.78511">
        <ele>228</ele>
        <time>2017-05-25T16:48:07Z</time>
      </trkpt>
      <trkpt lat="45.74501" lon="5.7853">
        <ele>228</ele>
        <time>2017-05-25T16:48:23Z</time>
      </trkpt>
      <trkpt lat="45.74516" lon="5.78542">
        <ele>229</ele>
        <time>2017-05-25T16:48:23Z</time>
      </trkpt>
      <trkpt lat="45.74529" lon="5.7855">
        <ele>229</ele>
        <time>2017-05-25T16:48:23Z</time>
      </trkpt>
      <trkpt lat="45.74536" lon="5.78561">
        <ele>229</ele>
        <time>2017-05-25T16:48:23Z</time>
      </trkpt>
      <trkpt lat="45.74541" lon="5.78563">
        <ele>229</ele>
        <time>2017-05-25T16:48:39Z</time>
      </trkpt>
      <trkpt lat="45.74547" lon="5.78566">
        <ele>230</ele>
        <time>2017-05-25T16:48:39Z</time>
      </trkpt>
      <trkpt lat="45.74553" lon="5.78569">
        <ele>230</ele>
        <time>2017-05-25T16:48:39Z</time>
      </trkpt>
      <trkpt lat="45.74559" lon="5.78572">
        <ele>230</ele>
        <time>2017-05-25T16:48:39Z</time>
      </trkpt>
      <trkpt lat="45.74563" lon="5.78574">
        <ele>230</ele>
        <time>2017-05-25T16:48:55Z</time>
      </trkpt>
      <trkpt lat="45.74567" lon="5.78576">
        <ele>230</ele>
        <time>2017-05-25T16:48:55Z</time>
      </trkpt>
      <trkpt lat="45.74572" lon="5.7858">
        <ele>230</ele>
        <time>2017-05-25T16:48:55Z</time>
      </trkpt>
      <trkpt lat="45.74577" lon="5.78584">
        <ele>230</ele>
        <time>2017-05-25T16:48:55Z</time>
      </trkpt>
      <trkpt lat="45.74582" lon="5.78588">
        <ele>230</ele>
        <time>2017-05-25T16:49:11Z</time>
      </trkpt>
      <trkpt lat="45.74586" lon="5.78593">
        <ele>230</ele>
        <time>2017-05-25T16:49:11Z</time>
      </trkpt>
      <trkpt lat="45.74593" lon="5.78598">
        <ele>230</ele>
        <time>2017-05-25T16:49:11Z</time>
      </trkpt>
      <trkpt lat="45.74597" lon="5.786">
        <ele>230</ele>
        <time>2017-05-25T16:49:11Z</time>
      </trkpt>
      <trkpt lat="45.74602" lon="5.786">
        <ele>230</ele>
        <time>2017-05-25T16:49:27Z</time>
      </trkpt>
      <trkpt lat="45.74609" lon="5.78599">
        <ele>230</ele>
        <time>2017-05-25T16:49:27Z</time>
      </trkpt>
      <trkpt lat="45.74613" lon="5.78598">
        <ele>230</ele>
        <time>2017-05-25T16:49:27Z</time>
      </trkpt>
      <trkpt lat="45.74619" lon="5.78599">
        <ele>230</ele>
        <time>2017-05-25T16:49:27Z</time>
      </trkpt>
      <trkpt lat="45.74623" lon="5.78599">
        <ele>230</ele>
        <time>2017-05-25T16:49:43Z</time>
      </trkpt>
      <trkpt lat="45.7463" lon="5.786">
        <ele>228</ele>
        <time>2017-05-25T16:49:43Z</time>
      </trkpt>
      <trkpt lat="45.74636" lon="5.786">
        <ele>228</ele>
        <time>2017-05-25T16:49:43Z</time>
      </trkpt>
      <trkpt lat="45.74643" lon="5.78598">
        <ele>228</ele>
        <time>2017-05-25T16:49:43Z</time>
      </trkpt>
      <trkpt lat="45.74656" lon="5.78589">
        <ele>228</ele>
        <time>2017-05-25T16:49:59Z</time>
      </trkpt>
      <trkpt lat="45.74671" lon="5.78576">
        <ele>228</ele>
        <time>2017-05-25T16:49:59Z</time>
      </trkpt>
      <trkpt lat="45.74689" lon="5.78564">
        <ele>228</ele>
        <time>2017-05-25T16:49:59Z</time>
      </trkpt>
      <trkpt lat="45.74708" lon="5.78554">
        <ele>228</ele>
        <time>2017-05-25T16:49:59Z</time>
      </trkpt>
      <trkpt lat="45.7473" lon="5.78549">
        <ele>228</ele>
        <time>2017-05-25T16:50:15Z</time>
      </trkpt>
      <trkpt lat="45.74754" lon="5.78549">
        <ele>228</ele>
        <time>2017-05-25T16:50:15Z</time>
      </trkpt>
      <trkpt lat="45.7477" lon="5.7854">
        <ele>226</ele>
        <time>2017-05-25T16:50:15Z</time>
      </trkpt>
      <trkpt lat="45.74784" lon="5.78531">
        <ele>226</ele>
        <time>2017-05-25T16:50:15Z</time>
      </trkpt>
      <trkpt lat="45.74793" lon="5.78531">
        <ele>228</ele>
        <time>2017-05-25T16:50:31Z</time>
      </trkpt>
      <trkpt lat="45.74798" lon="5.78533">
        <ele>228</ele>
        <time>2017-05-25T16:50:31Z</time>
      </trkpt>
      <trkpt lat="45.74803" lon="5.78536">
        <ele>228</ele>
        <time>2017-05-25T16:50:31Z</time>
      </trkpt>
      <trkpt lat="45.74807" lon="5.78537">
        <ele>228</ele>
        <time>2017-05-25T16:50:31Z</time>
      </trkpt>
      <trkpt lat="45.74814" lon="5.78537">
        <ele>228</ele>
        <time>2017-05-25T16:50:47Z</time>
      </trkpt>
      <trkpt lat="45.74821" lon="5.78535">
        <ele>228</ele>
        <time>2017-05-25T16:50:47Z</time>
      </trkpt>
      <trkpt lat="45.74825" lon="5.78527">
        <ele>228</ele>
        <time>2017-05-25T16:50:47Z</time>
      </trkpt>
      <trkpt lat="45.74824" lon="5.78519">
        <ele>228</ele>
        <time>2017-05-25T16:50:47Z</time>
      </trkpt>
      <trkpt lat="45.74824" lon="5.78513">
        <ele>228</ele>
        <time>2017-05-25T16:51:03Z</time>
      </trkpt>
      <trkpt lat="45.74827" lon="5.78507">
        <ele>228</ele>
        <time>2017-05-25T16:51:03Z</time>
      </trkpt>
      <trkpt lat="45.74831" lon="5.78502">
        <ele>228</ele>
        <time>2017-05-25T16:51:03Z</time>
      </trkpt>
      <trkpt lat="45.74834" lon="5.78496">
        <ele>228</ele>
        <time>2017-05-25T16:51:03Z</time>
      </trkpt>
      <trkpt lat="45.74835" lon="5.78488">
        <ele>228</ele>
        <time>2017-05-25T16:55:19Z</time>
      </trkpt>
      <trkpt lat="45.74834" lon="5.7849">
        <ele>228</ele>
        <time>2017-05-25T16:55:19Z</time>
      </trkpt>
      <trkpt lat="45.74833" lon="5.78495">
        <ele>228</ele>
        <time>2017-05-25T16:55:19Z</time>
      </trkpt>
      <trkpt lat="45.74829" lon="5.78501">
        <ele>228</ele>
        <time>2017-05-25T16:55:19Z</time>
      </trkpt>
      <trkpt lat="45.74826" lon="5.78506">
        <ele>228</ele>
        <time>2017-05-25T16:55:19Z</time>
      </trkpt>
      <trkpt lat="45.74831" lon="5.78516">
        <ele>228</ele>
        <time>2017-05-25T16:55:35Z</time>
      </trkpt>
      <trkpt lat="45.74842" lon="5.78514">
        <ele>228</ele>
        <time>2017-05-25T16:55:35Z</time>
      </trkpt>
      <trkpt lat="45.74846" lon="5.7851">
        <ele>228</ele>
        <time>2017-05-25T16:55:35Z</time>
      </trkpt>
      <trkpt lat="45.74852" lon="5.78504">
        <ele>228</ele>
        <time>2017-05-25T16:55:35Z</time>
      </trkpt>
      <trkpt lat="45.74857" lon="5.78499">
        <ele>228</ele>
        <time>2017-05-25T16:55:51Z</time>
      </trkpt>
      <trkpt lat="45.74864" lon="5.78497">
        <ele>228</ele>
        <time>2017-05-25T16:55:51Z</time>
      </trkpt>
      <trkpt lat="45.74869" lon="5.78496">
        <ele>228</ele>
        <time>2017-05-25T16:55:51Z</time>
      </trkpt>
      <trkpt lat="45.74875" lon="5.78495">
        <ele>228</ele>
        <time>2017-05-25T16:55:51Z</time>
      </trkpt>
      <trkpt lat="45.7488" lon="5.78494">
        <ele>228</ele>
        <time>2017-05-25T16:56:07Z</time>
      </trkpt>
      <trkpt lat="45.74885" lon="5.78494">
        <ele>228</ele>
        <time>2017-05-25T16:56:07Z</time>
      </trkpt>
      <trkpt lat="45.7489" lon="5.78493">
        <ele>228</ele>
        <time>2017-05-25T16:56:07Z</time>
      </trkpt>
      <trkpt lat="45.74895" lon="5.78492">
        <ele>228</ele>
        <time>2017-05-25T16:56:07Z</time>
      </trkpt>
      <trkpt lat="45.749" lon="5.7849">
        <ele>228</ele>
        <time>2017-05-25T16:56:23Z</time>
      </trkpt>
      <trkpt lat="45.74905" lon="5.78489">
        <ele>228</ele>
        <time>2017-05-25T16:56:23Z</time>
      </trkpt>
      <trkpt lat="45.74911" lon="5.78487">
        <ele>228</ele>
        <time>2017-05-25T16:56:23Z</time>
      </trkpt>
      <trkpt lat="45.74918" lon="5.78485">
        <ele>228</ele>
        <time>2017-05-25T16:56:23Z</time>
      </trkpt>
      <trkpt lat="45.74922" lon="5.78483">
        <ele>228</ele>
        <time>2017-05-25T16:56:39Z</time>
      </trkpt>
      <trkpt lat="45.74927" lon="5.78481">
        <ele>228</ele>
        <time>2017-05-25T16:56:39Z</time>
      </trkpt>
      <trkpt lat="45.74932" lon="5.7848">
        <ele>228</ele>
        <time>2017-05-25T16:56:39Z</time>
      </trkpt>
      <trkpt lat="45.74937" lon="5.78476">
        <ele>228</ele>
        <time>2017-05-25T16:56:39Z</time>
      </trkpt>
      <trkpt lat="45.74942" lon="5.78478">
        <ele>228</ele>
        <time>2017-05-25T16:56:55Z</time>
      </trkpt>
      <trkpt lat="45.74948" lon="5.7848">
        <ele>228</ele>
        <time>2017-05-25T16:56:55Z</time>
      </trkpt>
      <trkpt lat="45.74954" lon="5.7848">
        <ele>228</ele>
        <time>2017-05-25T16:56:55Z</time>
      </trkpt>
      <trkpt lat="45.74959" lon="5.78481">
        <ele>226</ele>
        <time>2017-05-25T16:56:55Z</time>
      </trkpt>
      <trkpt lat="45.74965" lon="5.78483">
        <ele>226</ele>
        <time>2017-05-25T16:57:11Z</time>
      </trkpt>
      <trkpt lat="45.74971" lon="5.78488">
        <ele>226</ele>
        <time>2017-05-25T16:57:11Z</time>
      </trkpt>
      <trkpt lat="45.74977" lon="5.78486">
        <ele>226</ele>
        <time>2017-05-25T16:57:11Z</time>
      </trkpt>
      <trkpt lat="45.74982" lon="5.78486">
        <ele>226</ele>
        <time>2017-05-25T16:57:11Z</time>
      </trkpt>
      <trkpt lat="45.74985" lon="5.78488">
        <ele>226</ele>
        <time>2017-05-25T16:57:27Z</time>
      </trkpt>
      <trkpt lat="45.7499" lon="5.78489">
        <ele>226</ele>
        <time>2017-05-25T16:57:27Z</time>
      </trkpt>
      <trkpt lat="45.74995" lon="5.7849">
        <ele>226</ele>
        <time>2017-05-25T16:57:27Z</time>
      </trkpt>
      <trkpt lat="45.75" lon="5.78489">
        <ele>226</ele>
        <time>2017-05-25T16:57:27Z</time>
      </trkpt>
      <trkpt lat="45.75006" lon="5.78488">
        <ele>226</ele>
        <time>2017-05-25T16:57:43Z</time>
      </trkpt>
      <trkpt lat="45.75011" lon="5.78486">
        <ele>226</ele>
        <time>2017-05-25T16:57:43Z</time>
      </trkpt>
      <trkpt lat="45.75017" lon="5.78485">
        <ele>226</ele>
        <time>2017-05-25T16:57:43Z</time>
      </trkpt>
      <trkpt lat="45.75022" lon="5.78485">
        <ele>226</ele>
        <time>2017-05-25T16:57:43Z</time>
      </trkpt>
      <trkpt lat="45.75027" lon="5.78484">
        <ele>226</ele>
        <time>2017-05-25T16:57:59Z</time>
      </trkpt>
      <trkpt lat="45.75032" lon="5.78483">
        <ele>226</ele>
        <time>2017-05-25T16:57:59Z</time>
      </trkpt>
      <trkpt lat="45.75037" lon="5.78483">
        <ele>226</ele>
        <time>2017-05-25T16:57:59Z</time>
      </trkpt>
      <trkpt lat="45.75042" lon="5.78481">
        <ele>227</ele>
        <time>2017-05-25T16:57:59Z</time>
      </trkpt>
      <trkpt lat="45.75048" lon="5.78483">
        <ele>227</ele>
        <time>2017-05-25T16:58:15Z</time>
      </trkpt>
      <trkpt lat="45.75054" lon="5.78485">
        <ele>227</ele>
        <time>2017-05-25T16:58:15Z</time>
      </trkpt>
      <trkpt lat="45.7506" lon="5.78483">
        <ele>227</ele>
        <time>2017-05-25T16:58:15Z</time>
      </trkpt>
      <trkpt lat="45.75065" lon="5.78482">
        <ele>227</ele>
        <time>2017-05-25T16:58:15Z</time>
      </trkpt>
      <trkpt lat="45.75071" lon="5.78481">
        <ele>227</ele>
        <time>2017-05-25T16:58:31Z</time>
      </trkpt>
      <trkpt lat="45.75077" lon="5.78484">
        <ele>227</ele>
        <time>2017-05-25T16:58:31Z</time>
      </trkpt>
      <trkpt lat="45.75085" lon="5.78486">
        <ele>227</ele>
        <time>2017-05-25T16:58:31Z</time>
      </trkpt>
      <trkpt lat="45.75088" lon="5.78486">
        <ele>227</ele>
        <time>2017-05-25T16:58:31Z</time>
      </trkpt>
      <trkpt lat="45.75094" lon="5.78486">
        <ele>227</ele>
        <time>2017-05-25T16:58:47Z</time>
      </trkpt>
      <trkpt lat="45.75098" lon="5.78485">
        <ele>227</ele>
        <time>2017-05-25T16:58:47Z</time>
      </trkpt>
      <trkpt lat="45.75104" lon="5.78486">
        <ele>227</ele>
        <time>2017-05-25T16:58:47Z</time>
      </trkpt>
      <trkpt lat="45.75109" lon="5.78484">
        <ele>227</ele>
        <time>2017-05-25T16:58:47Z</time>
      </trkpt>
      <trkpt lat="45.75115" lon="5.78484">
        <ele>227</ele>
        <time>2017-05-25T16:59:03Z</time>
      </trkpt>
      <trkpt lat="45.7512" lon="5.78483">
        <ele>227</ele>
        <time>2017-05-25T16:59:03Z</time>
      </trkpt>
      <trkpt lat="45.75125" lon="5.78483">
        <ele>227</ele>
        <time>2017-05-25T16:59:03Z</time>
      </trkpt>
      <trkpt lat="45.75131" lon="5.78482">
        <ele>227</ele>
        <time>2017-05-25T16:59:03Z</time>
      </trkpt>
      <trkpt lat="45.75137" lon="5.78483">
        <ele>227</ele>
        <time>2017-05-25T16:59:19Z</time>
      </trkpt>
      <trkpt lat="45.75143" lon="5.78483">
        <ele>227</ele>
        <time>2017-05-25T16:59:19Z</time>
      </trkpt>
      <trkpt lat="45.75148" lon="5.78482">
        <ele>227</ele>
        <time>2017-05-25T16:59:19Z</time>
      </trkpt>
      <trkpt lat="45.75153" lon="5.78481">
        <ele>227</ele>
        <time>2017-05-25T16:59:19Z</time>
      </trkpt>
      <trkpt lat="45.7516" lon="5.7848">
        <ele>227</ele>
        <time>2017-05-25T16:59:35Z</time>
      </trkpt>
      <trkpt lat="45.75179" lon="5.78479">
        <ele>227</ele>
        <time>2017-05-25T16:59:35Z</time>
      </trkpt>
      <trkpt lat="45.75198" lon="5.78482">
        <ele>227</ele>
        <time>2017-05-25T16:59:35Z</time>
      </trkpt>
      <trkpt lat="45.75223" lon="5.78479">
        <ele>228</ele>
        <time>2017-05-25T16:59:35Z</time>
      </trkpt>
      <trkpt lat="45.75245" lon="5.78481">
        <ele>228</ele>
        <time>2017-05-25T16:59:51Z</time>
      </trkpt>
      <trkpt lat="45.75269" lon="5.78481">
        <ele>228</ele>
        <time>2017-05-25T16:59:51Z</time>
      </trkpt>
      <trkpt lat="45.75285" lon="5.78483">
        <ele>228</ele>
        <time>2017-05-25T16:59:51Z</time>
      </trkpt>
      <trkpt lat="45.75288" lon="5.78481">
        <ele>228</ele>
        <time>2017-05-25T16:59:51Z</time>
      </trkpt>
      <trkpt lat="45.75294" lon="5.7848">
        <ele>229</ele>
        <time>2017-05-25T17:00:07Z</time>
      </trkpt>
      <trkpt lat="45.75299" lon="5.78481">
        <ele>229</ele>
        <time>2017-05-25T17:00:07Z</time>
      </trkpt>
      <trkpt lat="45.75304" lon="5.78482">
        <ele>229</ele>
        <time>2017-05-25T17:00:07Z</time>
      </trkpt>
      <trkpt lat="45.7531" lon="5.78484">
        <ele>229</ele>
        <time>2017-05-25T17:00:07Z</time>
      </trkpt>
      <trkpt lat="45.75316" lon="5.78484">
        <ele>229</ele>
        <time>2017-05-25T17:00:23Z</time>
      </trkpt>
      <trkpt lat="45.75319" lon="5.78483">
        <ele>229</ele>
        <time>2017-05-25T17:00:23Z</time>
      </trkpt>
      <trkpt lat="45.75323" lon="5.78484">
        <ele>229</ele>
        <time>2017-05-25T17:00:23Z</time>
      </trkpt>
      <trkpt lat="45.75329" lon="5.78485">
        <ele>229</ele>
        <time>2017-05-25T17:00:23Z</time>
      </trkpt>
      <trkpt lat="45.75335" lon="5.78487">
        <ele>229</ele>
        <time>2017-05-25T17:00:39Z</time>
      </trkpt>
      <trkpt lat="45.75339" lon="5.78492">
        <ele>229</ele>
        <time>2017-05-25T17:00:39Z</time>
      </trkpt>
      <trkpt lat="45.75341" lon="5.78499">
        <ele>229</ele>
        <time>2017-05-25T17:00:39Z</time>
      </trkpt>
      <trkpt lat="45.75345" lon="5.78505">
        <ele>229</ele>
        <time>2017-05-25T17:00:39Z</time>
      </trkpt>
      <trkpt lat="45.75349" lon="5.78512">
        <ele>229</ele>
        <time>2017-05-25T17:00:55Z</time>
      </trkpt>
      <trkpt lat="45.75351" lon="5.78522">
        <ele>229</ele>
        <time>2017-05-25T17:00:55Z</time>
      </trkpt>
      <trkpt lat="45.75354" lon="5.78531">
        <ele>229</ele>
        <time>2017-05-25T17:00:55Z</time>
      </trkpt>
      <trkpt lat="45.75357" lon="5.78539">
        <ele>229</ele>
        <time>2017-05-25T17:00:55Z</time>
      </trkpt>
      <trkpt lat="45.75361" lon="5.78549">
        <ele>232</ele>
        <time>2017-05-25T17:01:11Z</time>
      </trkpt>
      <trkpt lat="45.75361" lon="5.78555">
        <ele>232</ele>
        <time>2017-05-25T17:01:11Z</time>
      </trkpt>
      <trkpt lat="45.75361" lon="5.78563">
        <ele>232</ele>
        <time>2017-05-25T17:01:11Z</time>
      </trkpt>
      <trkpt lat="45.75361" lon="5.78572">
        <ele>232</ele>
        <time>2017-05-25T17:01:11Z</time>
      </trkpt>
      <trkpt lat="45.75364" lon="5.78577">
        <ele>232</ele>
        <time>2017-05-25T17:01:27Z</time>
      </trkpt>
      <trkpt lat="45.75367" lon="5.78576">
        <ele>232</ele>
        <time>2017-05-25T17:01:27Z</time>
      </trkpt>
      <trkpt lat="45.75372" lon="5.78568">
        <ele>232</ele>
        <time>2017-05-25T17:01:27Z</time>
      </trkpt>
      <trkpt lat="45.75373" lon="5.7856">
        <ele>232</ele>
        <time>2017-05-25T17:01:27Z</time>
      </trkpt>
      <trkpt lat="45.75374" lon="5.78551">
        <ele>232</ele>
        <time>2017-05-25T17:01:43Z</time>
      </trkpt>
      <trkpt lat="45.75375" lon="5.78541">
        <ele>229</ele>
        <time>2017-05-25T17:01:43Z</time>
      </trkpt>
      <trkpt lat="45.75375" lon="5.7853">
        <ele>235</ele>
        <time>2017-05-25T17:01:43Z</time>
      </trkpt>
      <trkpt lat="45.75375" lon="5.78518">
        <ele>229</ele>
        <time>2017-05-25T17:01:43Z</time>
      </trkpt>
      <trkpt lat="45.75373" lon="5.78507">
        <ele>229</ele>
        <time>2017-05-25T17:01:59Z</time>
      </trkpt>
      <trkpt lat="45.75373" lon="5.78499">
        <ele>229</ele>
        <time>2017-05-25T17:01:59Z</time>
      </trkpt>
      <trkpt lat="45.75371" lon="5.78489">
        <ele>229</ele>
        <time>2017-05-25T17:01:59Z</time>
      </trkpt>
      <trkpt lat="45.7537" lon="5.78483">
        <ele>229</ele>
        <time>2017-05-25T17:01:59Z</time>
      </trkpt>
      <trkpt lat="45.75369" lon="5.78476">
        <ele>229</ele>
        <time>2017-05-25T17:02:15Z</time>
      </trkpt>
      <trkpt lat="45.75368" lon="5.78469">
        <ele>229</ele>
        <time>2017-05-25T17:02:15Z</time>
      </trkpt>
      <trkpt lat="45.75366" lon="5.78455">
        <ele>230</ele>
        <time>2017-05-25T17:02:15Z</time>
      </trkpt>
      <trkpt lat="45.75365" lon="5.78448">
        <ele>230</ele>
        <time>2017-05-25T17:02:15Z</time>
      </trkpt>
      <trkpt lat="45.75364" lon="5.78437">
        <ele>230</ele>
        <time>2017-05-25T17:02:31Z</time>
      </trkpt>
      <trkpt lat="45.75363" lon="5.78428">
        <ele>230</ele>
        <time>2017-05-25T17:02:31Z</time>
      </trkpt>
      <trkpt lat="45.75363" lon="5.7842">
        <ele>230</ele>
        <time>2017-05-25T17:02:31Z</time>
      </trkpt>
      <trkpt lat="45.75363" lon="5.7841">
        <ele>230</ele>
        <time>2017-05-25T17:02:31Z</time>
      </trkpt>
      <trkpt lat="45.75363" lon="5.78399">
        <ele>230</ele>
        <time>2017-05-25T17:02:47Z</time>
      </trkpt>
      <trkpt lat="45.75362" lon="5.78389">
        <ele>230</ele>
        <time>2017-05-25T17:02:47Z</time>
      </trkpt>
      <trkpt lat="45.75362" lon="5.78379">
        <ele>230</ele>
        <time>2017-05-25T17:02:47Z</time>
      </trkpt>
      <trkpt lat="45.75361" lon="5.78372">
        <ele>229</ele>
        <time>2017-05-25T17:02:47Z</time>
      </trkpt>
      <trkpt lat="45.75359" lon="5.78364">
        <ele>229</ele>
        <time>2017-05-25T17:03:03Z</time>
      </trkpt>
      <trkpt lat="45.75359" lon="5.78355">
        <ele>229</ele>
        <time>2017-05-25T17:03:03Z</time>
      </trkpt>
      <trkpt lat="45.75358" lon="5.78347">
        <ele>229</ele>
        <time>2017-05-25T17:03:03Z</time>
      </trkpt>
      <trkpt lat="45.75358" lon="5.78339">
        <ele>229</ele>
        <time>2017-05-25T17:03:03Z</time>
      </trkpt>
      <trkpt lat="45.75358" lon="5.7833">
        <ele>229</ele>
        <time>2017-05-25T17:03:19Z</time>
      </trkpt>
      <trkpt lat="45.75358" lon="5.78319">
        <ele>229</ele>
        <time>2017-05-25T17:03:19Z</time>
      </trkpt>
      <trkpt lat="45.75358" lon="5.78313">
        <ele>229</ele>
        <time>2017-05-25T17:03:19Z</time>
      </trkpt>
      <trkpt lat="45.75358" lon="5.78304">
        <ele>229</ele>
        <time>2017-05-25T17:03:19Z</time>
      </trkpt>
      <trkpt lat="45.75357" lon="5.78295">
        <ele>229</ele>
        <time>2017-05-25T17:03:35Z</time>
      </trkpt>
      <trkpt lat="45.75356" lon="5.78285">
        <ele>231</ele>
        <time>2017-05-25T17:03:35Z</time>
      </trkpt>
      <trkpt lat="45.75356" lon="5.78279">
        <ele>231</ele>
        <time>2017-05-25T17:03:35Z</time>
      </trkpt>
      <trkpt lat="45.75355" lon="5.78268">
        <ele>231</ele>
        <time>2017-05-25T17:03:35Z</time>
      </trkpt>
      <trkpt lat="45.75354" lon="5.78261">
        <ele>231</ele>
        <time>2017-05-25T17:03:51Z</time>
      </trkpt>
      <trkpt lat="45.75353" lon="5.78253">
        <ele>231</ele>
        <time>2017-05-25T17:03:51Z</time>
      </trkpt>
      <trkpt lat="45.75354" lon="5.78244">
        <ele>231</ele>
        <time>2017-05-25T17:03:51Z</time>
      </trkpt>
      <trkpt lat="45.75352" lon="5.78237">
        <ele>231</ele>
        <time>2017-05-25T17:03:51Z</time>
      </trkpt>
      <trkpt lat="45.75351" lon="5.78229">
        <ele>231</ele>
        <time>2017-05-25T17:04:07Z</time>
      </trkpt>
      <trkpt lat="45.7535" lon="5.78224">
        <ele>231</ele>
        <time>2017-05-25T17:04:07Z</time>
      </trkpt>
      <trkpt lat="45.75349" lon="5.78216">
        <ele>231</ele>
        <time>2017-05-25T17:04:07Z</time>
      </trkpt>
      <trkpt lat="45.75349" lon="5.78203">
        <ele>235</ele>
        <time>2017-05-25T17:04:07Z</time>
      </trkpt>
      <trkpt lat="45.75348" lon="5.78189">
        <ele>235</ele>
        <time>2017-05-25T17:04:23Z</time>
      </trkpt>
      <trkpt lat="45.75348" lon="5.78181">
        <ele>235</ele>
        <time>2017-05-25T17:04:23Z</time>
      </trkpt>
      <trkpt lat="45.75346" lon="5.78176">
        <ele>235</ele>
        <time>2017-05-25T17:04:23Z</time>
      </trkpt>
      <trkpt lat="45.75344" lon="5.78171">
        <ele>235</ele>
        <time>2017-05-25T17:04:23Z</time>
      </trkpt>
      <trkpt lat="45.75345" lon="5.78163">
        <ele>235</ele>
        <time>2017-05-25T17:04:39Z</time>
      </trkpt>
      <trkpt lat="45.75346" lon="5.78157">
        <ele>235</ele>
        <time>2017-05-25T17:04:39Z</time>
      </trkpt>
      <trkpt lat="45.75347" lon="5.78148">
        <ele>235</ele>
        <time>2017-05-25T17:04:39Z</time>
      </trkpt>
      <trkpt lat="45.75346" lon="5.78139">
        <ele>235</ele>
        <time>2017-05-25T17:04:39Z</time>
      </trkpt>
      <trkpt lat="45.75346" lon="5.78129">
        <ele>235</ele>
        <time>2017-05-25T17:04:55Z</time>
      </trkpt>
      <trkpt lat="45.75343" lon="5.78122">
        <ele>238</ele>
        <time>2017-05-25T17:04:55Z</time>
      </trkpt>
      <trkpt lat="45.75341" lon="5.78115">
        <ele>238</ele>
        <time>2017-05-25T17:04:55Z</time>
      </trkpt>
      <trkpt lat="45.7534" lon="5.78106">
        <ele>238</ele>
        <time>2017-05-25T17:04:55Z</time>
      </trkpt>
      <trkpt lat="45.75339" lon="5.78098">
        <ele>238</ele>
        <time>2017-05-25T17:05:11Z</time>
      </trkpt>
      <trkpt lat="45.7534" lon="5.7809">
        <ele>238</ele>
        <time>2017-05-25T17:05:11Z</time>
      </trkpt>
      <trkpt lat="45.75341" lon="5.78082">
        <ele>238</ele>
        <time>2017-05-25T17:05:11Z</time>
      </trkpt>
      <trkpt lat="45.75342" lon="5.78075">
        <ele>238</ele>
        <time>2017-05-25T17:05:11Z</time>
      </trkpt>
      <trkpt lat="45.75343" lon="5.7806">
        <ele>238</ele>
        <time>2017-05-25T17:05:27Z</time>
      </trkpt>
      <trkpt lat="45.75343" lon="5.78038">
        <ele>241</ele>
        <time>2017-05-25T17:05:27Z</time>
      </trkpt>
      <trkpt lat="45.75344" lon="5.78015">
        <ele>241</ele>
        <time>2017-05-25T17:05:27Z</time>
      </trkpt>
      <trkpt lat="45.75346" lon="5.77995">
        <ele>241</ele>
        <time>2017-05-25T17:05:27Z</time>
      </trkpt>
      <trkpt lat="45.7535" lon="5.77976">
        <ele>241</ele>
        <time>2017-05-25T17:05:43Z</time>
      </trkpt>
      <trkpt lat="45.75359" lon="5.77963">
        <ele>241</ele>
        <time>2017-05-25T17:05:43Z</time>
      </trkpt>
      <trkpt lat="45.75369" lon="5.77955">
        <ele>245</ele>
        <time>2017-05-25T17:05:43Z</time>
      </trkpt>
      <trkpt lat="45.75376" lon="5.77954">
        <ele>251</ele>
        <time>2017-05-25T17:05:43Z</time>
      </trkpt>
      <trkpt lat="45.75379" lon="5.77953">
        <ele>251</ele>
        <time>2017-05-25T17:05:59Z</time>
      </trkpt>
      <trkpt lat="45.75383" lon="5.77953">
        <ele>251</ele>
        <time>2017-05-25T17:05:59Z</time>
      </trkpt>
      <trkpt lat="45.75388" lon="5.77951">
        <ele>251</ele>
        <time>2017-05-25T17:05:59Z</time>
      </trkpt>
      <trkpt lat="45.75392" lon="5.7795">
        <ele>251</ele>
        <time>2017-05-25T17:05:59Z</time>
      </trkpt>
      <trkpt lat="45.75397" lon="5.77948">
        <ele>251</ele>
        <time>2017-05-25T17:06:15Z</time>
      </trkpt>
      <trkpt lat="45.75412" lon="5.77944">
        <ele>251</ele>
        <time>2017-05-25T17:06:15Z</time>
      </trkpt>
      <trkpt lat="45.75434" lon="5.77932">
        <ele>251</ele>
        <time>2017-05-25T17:06:15Z</time>
      </trkpt>
      <trkpt lat="45.75442" lon="5.77925">
        <ele>251</ele>
        <time>2017-05-25T17:06:15Z</time>
      </trkpt>
      <trkpt lat="45.75447" lon="5.77921">
        <ele>251</ele>
        <time>2017-05-25T17:06:31Z</time>
      </trkpt>
      <trkpt lat="45.75451" lon="5.77916">
        <ele>251</ele>
        <time>2017-05-25T17:06:31Z</time>
      </trkpt>
      <trkpt lat="45.75456" lon="5.77911">
        <ele>251</ele>
        <time>2017-05-25T17:06:31Z</time>
      </trkpt>
      <trkpt lat="45.75462" lon="5.77907">
        <ele>250</ele>
        <time>2017-05-25T17:06:31Z</time>
      </trkpt>
      <trkpt lat="45.75468" lon="5.77901">
        <ele>250</ele>
        <time>2017-05-25T17:06:47Z</time>
      </trkpt>
      <trkpt lat="45.75478" lon="5.77887">
        <ele>250</ele>
        <time>2017-05-25T17:06:47Z</time>
      </trkpt>
      <trkpt lat="45.75487" lon="5.77873">
        <ele>257</ele>
        <time>2017-05-25T17:06:47Z</time>
      </trkpt>
      <trkpt lat="45.75495" lon="5.77857">
        <ele>257</ele>
        <time>2017-05-25T17:06:47Z</time>
      </trkpt>
      <trkpt lat="45.75504" lon="5.77841">
        <ele>257</ele>
        <time>2017-05-25T17:07:03Z</time>
      </trkpt>
      <trkpt lat="45.75514" lon="5.77833">
        <ele>257</ele>
        <time>2017-05-25T17:07:03Z</time>
      </trkpt>
      <trkpt lat="45.7552" lon="5.7783">
        <ele>257</ele>
        <time>2017-05-25T17:07:03Z</time>
      </trkpt>
      <trkpt lat="45.75528" lon="5.77828">
        <ele>257</ele>
        <time>2017-05-25T17:07:03Z</time>
      </trkpt>
      <trkpt lat="45.75536" lon="5.77829">
        <ele>257</ele>
        <time>2017-05-25T17:07:19Z</time>
      </trkpt>
      <trkpt lat="45.75541" lon="5.77833">
        <ele>257</ele>
        <time>2017-05-25T17:07:19Z</time>
      </trkpt>
      <trkpt lat="45.75546" lon="5.77837">
        <ele>256</ele>
        <time>2017-05-25T17:07:19Z</time>
      </trkpt>
      <trkpt lat="45.75551" lon="5.7784">
        <ele>256</ele>
        <time>2017-05-25T17:07:19Z</time>
      </trkpt>
      <trkpt lat="45.75555" lon="5.77843">
        <ele>256</ele>
        <time>2017-05-25T17:07:35Z</time>
      </trkpt>
      <trkpt lat="45.7556" lon="5.77845">
        <ele>256</ele>
        <time>2017-05-25T17:07:35Z</time>
      </trkpt>
      <trkpt lat="45.75566" lon="5.77848">
        <ele>256</ele>
        <time>2017-05-25T17:07:35Z</time>
      </trkpt>
      <trkpt lat="45.75571" lon="5.77852">
        <ele>256</ele>
        <time>2017-05-25T17:07:35Z</time>
      </trkpt>
      <trkpt lat="45.75576" lon="5.77857">
        <ele>256</ele>
        <time>2017-05-25T17:07:51Z</time>
      </trkpt>
      <trkpt lat="45.75583" lon="5.77862">
        <ele>256</ele>
        <time>2017-05-25T17:07:51Z</time>
      </trkpt>
      <trkpt lat="45.75591" lon="5.77867">
        <ele>256</ele>
        <time>2017-05-25T17:07:51Z</time>
      </trkpt>
      <trkpt lat="45.75595" lon="5.77868">
        <ele>256</ele>
        <time>2017-05-25T17:07:51Z</time>
      </trkpt>
      <trkpt lat="45.75598" lon="5.77869">
        <ele>256</ele>
        <time>2017-05-25T17:08:07Z</time>
      </trkpt>
      <trkpt lat="45.75604" lon="5.77872">
        <ele>256</ele>
        <time>2017-05-25T17:08:07Z</time>
      </trkpt>
      <trkpt lat="45.75609" lon="5.77874">
        <ele>256</ele>
        <time>2017-05-25T17:08:07Z</time>
      </trkpt>
      <trkpt lat="45.75615" lon="5.77875">
        <ele>252</ele>
        <time>2017-05-25T17:08:07Z</time>
      </trkpt>
      <trkpt lat="45.75621" lon="5.77877">
        <ele>252</ele>
        <time>2017-05-25T17:08:23Z</time>
      </trkpt>
      <trkpt lat="45.75627" lon="5.77878">
        <ele>256</ele>
        <time>2017-05-25T17:08:23Z</time>
      </trkpt>
      <trkpt lat="45.75633" lon="5.77876">
        <ele>256</ele>
        <time>2017-05-25T17:08:23Z</time>
      </trkpt>
      <trkpt lat="45.75638" lon="5.77871">
        <ele>263</ele>
        <time>2017-05-25T17:08:23Z</time>
      </trkpt>
      <trkpt lat="45.75643" lon="5.77868">
        <ele>263</ele>
        <time>2017-05-25T17:08:39Z</time>
      </trkpt>
      <trkpt lat="45.75647" lon="5.77862">
        <ele>263</ele>
        <time>2017-05-25T17:08:39Z</time>
      </trkpt>
      <trkpt lat="45.75649" lon="5.77855">
        <ele>263</ele>
        <time>2017-05-25T17:08:39Z</time>
      </trkpt>
      <trkpt lat="45.75653" lon="5.77848">
        <ele>263</ele>
        <time>2017-05-25T17:08:39Z</time>
      </trkpt>
      <trkpt lat="45.75655" lon="5.7784">
        <ele>263</ele>
        <time>2017-05-25T17:08:55Z</time>
      </trkpt>
      <trkpt lat="45.75657" lon="5.77833">
        <ele>263</ele>
        <time>2017-05-25T17:08:55Z</time>
      </trkpt>
      <trkpt lat="45.75659" lon="5.77826">
        <ele>263</ele>
        <time>2017-05-25T17:08:55Z</time>
      </trkpt>
      <trkpt lat="45.75663" lon="5.77818">
        <ele>263</ele>
        <time>2017-05-25T17:08:55Z</time>
      </trkpt>
      <trkpt lat="45.75668" lon="5.77812">
        <ele>263</ele>
        <time>2017-05-25T17:09:11Z</time>
      </trkpt>
      <trkpt lat="45.7567" lon="5.77804">
        <ele>263</ele>
        <time>2017-05-25T17:09:11Z</time>
      </trkpt>
      <trkpt lat="45.75673" lon="5.77798">
        <ele>263</ele>
        <time>2017-05-25T17:09:11Z</time>
      </trkpt>
      <trkpt lat="45.75676" lon="5.77792">
        <ele>263</ele>
        <time>2017-05-25T17:09:11Z</time>
      </trkpt>
      <trkpt lat="45.75681" lon="5.77786">
        <ele>266</ele>
        <time>2017-05-25T17:09:27Z</time>
      </trkpt>
      <trkpt lat="45.75684" lon="5.77779">
        <ele>266</ele>
        <time>2017-05-25T17:09:27Z</time>
      </trkpt>
      <trkpt lat="45.75687" lon="5.77771">
        <ele>266</ele>
        <time>2017-05-25T17:09:27Z</time>
      </trkpt>
      <trkpt lat="45.7569" lon="5.77765">
        <ele>266</ele>
        <time>2017-05-25T17:09:27Z</time>
      </trkpt>
      <trkpt lat="45.75694" lon="5.7776">
        <ele>266</ele>
        <time>2017-05-25T17:09:43Z</time>
      </trkpt>
      <trkpt lat="45.75698" lon="5.77756">
        <ele>266</ele>
        <time>2017-05-25T17:09:43Z</time>
      </trkpt>
      <trkpt lat="45.75702" lon="5.77753">
        <ele>266</ele>
        <time>2017-05-25T17:09:43Z</time>
      </trkpt>
      <trkpt lat="45.75706" lon="5.77747">
        <ele>266</ele>
        <time>2017-05-25T17:09:43Z</time>
      </trkpt>
      <trkpt lat="45.75709" lon="5.7774">
        <ele>271</ele>
        <time>2017-05-25T17:09:59Z</time>
      </trkpt>
      <trkpt lat="45.75712" lon="5.77734">
        <ele>271</ele>
        <time>2017-05-25T17:09:59Z</time>
      </trkpt>
      <trkpt lat="45.75715" lon="5.77727">
        <ele>271</ele>
        <time>2017-05-25T17:09:59Z</time>
      </trkpt>
      <trkpt lat="45.75717" lon="5.7772">
        <ele>271</ele>
        <time>2017-05-25T17:09:59Z</time>
      </trkpt>
      <trkpt lat="45.75719" lon="5.77714">
        <ele>271</ele>
        <time>2017-05-25T17:10:15Z</time>
      </trkpt>
      <trkpt lat="45.7572" lon="5.77706">
        <ele>280</ele>
        <time>2017-05-25T17:10:15Z</time>
      </trkpt>
      <trkpt lat="45.75723" lon="5.77697">
        <ele>280</ele>
        <time>2017-05-25T17:10:15Z</time>
      </trkpt>
      <trkpt lat="45.75725" lon="5.77692">
        <ele>280</ele>
        <time>2017-05-25T17:10:15Z</time>
      </trkpt>
      <trkpt lat="45.75725" lon="5.77687">
        <ele>280</ele>
        <time>2017-05-25T17:10:31Z</time>
      </trkpt>
      <trkpt lat="45.75727" lon="5.77681">
        <ele>280</ele>
        <time>2017-05-25T17:10:31Z</time>
      </trkpt>
      <trkpt lat="45.75728" lon="5.77674">
        <ele>280</ele>
        <time>2017-05-25T17:10:31Z</time>
      </trkpt>
      <trkpt lat="45.75731" lon="5.77666">
        <ele>280</ele>
        <time>2017-05-25T17:10:31Z</time>
      </trkpt>
      <trkpt lat="45.75732" lon="5.77659">
        <ele>280</ele>
        <time>2017-05-25T17:10:47Z</time>
      </trkpt>
      <trkpt lat="45.75732" lon="5.77649">
        <ele>280</ele>
        <time>2017-05-25T17:10:47Z</time>
      </trkpt>
      <trkpt lat="45.75733" lon="5.77641">
        <ele>280</ele>
        <time>2017-05-25T17:10:47Z</time>
      </trkpt>
      <trkpt lat="45.75734" lon="5.77633">
        <ele>280</ele>
        <time>2017-05-25T17:10:47Z</time>
      </trkpt>
      <trkpt lat="45.75734" lon="5.77626">
        <ele>280</ele>
        <time>2017-05-25T17:11:03Z</time>
      </trkpt>
      <trkpt lat="45.75732" lon="5.77621">
        <ele>289</ele>
        <time>2017-05-25T17:11:03Z</time>
      </trkpt>
      <trkpt lat="45.75732" lon="5.77615">
        <ele>289</ele>
        <time>2017-05-25T17:11:03Z</time>
      </trkpt>
      <trkpt lat="45.7573" lon="5.77609">
        <ele>289</ele>
        <time>2017-05-25T17:11:03Z</time>
      </trkpt>
      <trkpt lat="45.75729" lon="5.77602">
        <ele>289</ele>
        <time>2017-05-25T17:11:19Z</time>
      </trkpt>
      <trkpt lat="45.7573" lon="5.77593">
        <ele>289</ele>
        <time>2017-05-25T17:11:19Z</time>
      </trkpt>
      <trkpt lat="45.75731" lon="5.77586">
        <ele>289</ele>
        <time>2017-05-25T17:11:19Z</time>
      </trkpt>
      <trkpt lat="45.75733" lon="5.77579">
        <ele>289</ele>
        <time>2017-05-25T17:11:19Z</time>
      </trkpt>
      <trkpt lat="45.75737" lon="5.77576">
        <ele>289</ele>
        <time>2017-05-25T17:11:35Z</time>
      </trkpt>
      <trkpt lat="45.75742" lon="5.77576">
        <ele>289</ele>
        <time>2017-05-25T17:11:35Z</time>
      </trkpt>
      <trkpt lat="45.75747" lon="5.77577">
        <ele>289</ele>
        <time>2017-05-25T17:11:35Z</time>
      </trkpt>
      <trkpt lat="45.75751" lon="5.77578">
        <ele>289</ele>
        <time>2017-05-25T17:11:35Z</time>
      </trkpt>
      <trkpt lat="45.75757" lon="5.77578">
        <ele>289</ele>
        <time>2017-05-25T17:11:51Z</time>
      </trkpt>
      <trkpt lat="45.75761" lon="5.77579">
        <ele>289</ele>
        <time>2017-05-25T17:11:51Z</time>
      </trkpt>
      <trkpt lat="45.75767" lon="5.77579">
        <ele>289</ele>
        <time>2017-05-25T17:11:51Z</time>
      </trkpt>
      <trkpt lat="45.75773" lon="5.77578">
        <ele>289</ele>
        <time>2017-05-25T17:11:51Z</time>
      </trkpt>
      <trkpt lat="45.75777" lon="5.77575">
        <ele>289</ele>
        <time>2017-05-25T17:12:07Z</time>
      </trkpt>
      <trkpt lat="45.7578" lon="5.77571">
        <ele>289</ele>
        <time>2017-05-25T17:12:07Z</time>
      </trkpt>
      <trkpt lat="45.75784" lon="5.7757">
        <ele>289</ele>
        <time>2017-05-25T17:12:07Z</time>
      </trkpt>
      <trkpt lat="45.75787" lon="5.7757">
        <ele>289</ele>
        <time>2017-05-25T17:12:07Z</time>
      </trkpt>
      <trkpt lat="45.7579" lon="5.77568">
        <ele>289</ele>
        <time>2017-05-25T17:13:03Z</time>
      </trkpt>
      <trkpt lat="45.75791" lon="5.77569">
        <ele>289</ele>
        <time>2017-05-25T17:13:03Z</time>
      </trkpt>
      <trkpt lat="45.75791" lon="5.77569">
        <ele>289</ele>
        <time>2017-05-25T17:13:03Z</time>
      </trkpt>
      <trkpt lat="45.75795" lon="5.77567">
        <ele>293</ele>
        <time>2017-05-25T17:13:03Z</time>
      </trkpt>
      <trkpt lat="45.758" lon="5.77564">
        <ele>293</ele>
        <time>2017-05-25T17:13:03Z</time>
      </trkpt>
      <trkpt lat="45.75806" lon="5.77562">
        <ele>293</ele>
        <time>2017-05-25T17:13:19Z</time>
      </trkpt>
      <trkpt lat="45.7581" lon="5.7756">
        <ele>293</ele>
        <time>2017-05-25T17:13:19Z</time>
      </trkpt>
      <trkpt lat="45.75813" lon="5.77557">
        <ele>293</ele>
        <time>2017-05-25T17:13:19Z</time>
      </trkpt>
      <trkpt lat="45.75815" lon="5.77554">
        <ele>293</ele>
        <time>2017-05-25T17:13:19Z</time>
      </trkpt>
      <trkpt lat="45.75818" lon="5.77551">
        <ele>293</ele>
        <time>2017-05-25T17:13:35Z</time>
      </trkpt>
      <trkpt lat="45.75822" lon="5.7755">
        <ele>293</ele>
        <time>2017-05-25T17:13:35Z</time>
      </trkpt>
      <trkpt lat="45.75825" lon="5.77549">
        <ele>293</ele>
        <time>2017-05-25T17:13:35Z</time>
      </trkpt>
      <trkpt lat="45.75832" lon="5.77544">
        <ele>293</ele>
        <time>2017-05-25T17:13:35Z</time>
      </trkpt>
      <trkpt lat="45.75837" lon="5.77539">
        <ele>288</ele>
        <time>2017-05-25T17:13:51Z</time>
      </trkpt>
      <trkpt lat="45.75842" lon="5.77535">
        <ele>288</ele>
        <time>2017-05-25T17:13:51Z</time>
      </trkpt>
      <trkpt lat="45.75845" lon="5.77533">
        <ele>288</ele>
        <time>2017-05-25T17:13:51Z</time>
      </trkpt>
      <trkpt lat="45.75849" lon="5.7753">
        <ele>288</ele>
        <time>2017-05-25T17:13:51Z</time>
      </trkpt>
      <trkpt lat="45.75853" lon="5.77527">
        <ele>288</ele>
        <time>2017-05-25T17:14:07Z</time>
      </trkpt>
      <trkpt lat="45.75857" lon="5.77525">
        <ele>288</ele>
        <time>2017-05-25T17:14:07Z</time>
      </trkpt>
      <trkpt lat="45.75863" lon="5.77524">
        <ele>288</ele>
        <time>2017-05-25T17:14:07Z</time>
      </trkpt>
      <trkpt lat="45.75867" lon="5.77524">
        <ele>288</ele>
        <time>2017-05-25T17:14:07Z</time>
      </trkpt>
      <trkpt lat="45.7587" lon="5.77525">
        <ele>288</ele>
        <time>2017-05-25T17:14:23Z</time>
      </trkpt>
      <trkpt lat="45.75874" lon="5.77525">
        <ele>288</ele>
        <time>2017-05-25T17:14:23Z</time>
      </trkpt>
      <trkpt lat="45.75877" lon="5.77528">
        <ele>274</ele>
        <time>2017-05-25T17:14:23Z</time>
      </trkpt>
      <trkpt lat="45.75881" lon="5.7753">
        <ele>274</ele>
        <time>2017-05-25T17:14:23Z</time>
      </trkpt>
      <trkpt lat="45.75885" lon="5.77532">
        <ele>274</ele>
        <time>2017-05-25T17:14:39Z</time>
      </trkpt>
      <trkpt lat="45.7589" lon="5.77532">
        <ele>274</ele>
        <time>2017-05-25T17:14:39Z</time>
      </trkpt>
      <trkpt lat="45.75896" lon="5.77532">
        <ele>274</ele>
        <time>2017-05-25T17:14:39Z</time>
      </trkpt>
      <trkpt lat="45.75899" lon="5.77532">
        <ele>274</ele>
        <time>2017-05-25T17:14:39Z</time>
      </trkpt>
      <trkpt lat="45.75905" lon="5.77531">
        <ele>274</ele>
        <time>2017-05-25T17:14:55Z</time>
      </trkpt>
      <trkpt lat="45.7591" lon="5.77528">
        <ele>274</ele>
        <time>2017-05-25T17:14:55Z</time>
      </trkpt>
      <trkpt lat="45.75913" lon="5.77524">
        <ele>274</ele>
        <time>2017-05-25T17:14:55Z</time>
      </trkpt>
      <trkpt lat="45.75916" lon="5.77519">
        <ele>274</ele>
        <time>2017-05-25T17:14:55Z</time>
      </trkpt>
      <trkpt lat="45.75918" lon="5.77515">
        <ele>274</ele>
        <time>2017-05-25T17:15:11Z</time>
      </trkpt>
      <trkpt lat="45.75921" lon="5.7751">
        <ele>274</ele>
        <time>2017-05-25T17:15:11Z</time>
      </trkpt>
      <trkpt lat="45.75924" lon="5.77505">
        <ele>274</ele>
        <time>2017-05-25T17:15:11Z</time>
      </trkpt>
      <trkpt lat="45.75925" lon="5.77502">
        <ele>274</ele>
        <time>2017-05-25T17:15:11Z</time>
      </trkpt>
      <trkpt lat="45.75929" lon="5.77503">
        <ele>274</ele>
        <time>2017-05-25T17:15:47Z</time>
      </trkpt>
      <trkpt lat="45.75931" lon="5.77503">
        <ele>274</ele>
        <time>2017-05-25T17:15:47Z</time>
      </trkpt>
      <trkpt lat="45.75933" lon="5.77501">
        <ele>274</ele>
        <time>2017-05-25T17:15:47Z</time>
      </trkpt>
      <trkpt lat="45.75934" lon="5.775">
        <ele>274</ele>
        <time>2017-05-25T17:15:47Z</time>
      </trkpt>
      <trkpt lat="45.75937" lon="5.77497">
        <ele>274</ele>
        <time>2017-05-25T17:15:47Z</time>
      </trkpt>
      <trkpt lat="45.75943" lon="5.77495">
        <ele>274</ele>
        <time>2017-05-25T17:16:03Z</time>
      </trkpt>
      <trkpt lat="45.7595" lon="5.77491">
        <ele>274</ele>
        <time>2017-05-25T17:16:03Z</time>
      </trkpt>
      <trkpt lat="45.75955" lon="5.77487">
        <ele>274</ele>
        <time>2017-05-25T17:16:03Z</time>
      </trkpt>
      <trkpt lat="45.75958" lon="5.77487">
        <ele>274</ele>
        <time>2017-05-25T17:16:03Z</time>
      </trkpt>
      <trkpt lat="45.75962" lon="5.77482">
        <ele>263</ele>
        <time>2017-05-25T17:16:19Z</time>
      </trkpt>
      <trkpt lat="45.75968" lon="5.77477">
        <ele>263</ele>
        <time>2017-05-25T17:16:19Z</time>
      </trkpt>
      <trkpt lat="45.75975" lon="5.77471">
        <ele>263</ele>
        <time>2017-05-25T17:16:19Z</time>
      </trkpt>
      <trkpt lat="45.75981" lon="5.77464">
        <ele>263</ele>
        <time>2017-05-25T17:16:19Z</time>
      </trkpt>
      <trkpt lat="45.75986" lon="5.77457">
        <ele>256</ele>
        <time>2017-05-25T17:16:35Z</time>
      </trkpt>
      <trkpt lat="45.75989" lon="5.77449">
        <ele>256</ele>
        <time>2017-05-25T17:16:35Z</time>
      </trkpt>
      <trkpt lat="45.75992" lon="5.77442">
        <ele>256</ele>
        <time>2017-05-25T17:16:35Z</time>
      </trkpt>
      <trkpt lat="45.75995" lon="5.77436">
        <ele>256</ele>
        <time>2017-05-25T17:16:35Z</time>
      </trkpt>
      <trkpt lat="45.75998" lon="5.77431">
        <ele>256</ele>
        <time>2017-05-25T17:16:51Z</time>
      </trkpt>
      <trkpt lat="45.76001" lon="5.77425">
        <ele>256</ele>
        <time>2017-05-25T17:16:51Z</time>
      </trkpt>
      <trkpt lat="45.76005" lon="5.77418">
        <ele>256</ele>
        <time>2017-05-25T17:16:51Z</time>
      </trkpt>
      <trkpt lat="45.76009" lon="5.77412">
        <ele>256</ele>
        <time>2017-05-25T17:16:51Z</time>
      </trkpt>
      <trkpt lat="45.76013" lon="5.77409">
        <ele>256</ele>
        <time>2017-05-25T17:17:07Z</time>
      </trkpt>
      <trkpt lat="45.76016" lon="5.77404">
        <ele>256</ele>
        <time>2017-05-25T17:17:07Z</time>
      </trkpt>
      <trkpt lat="45.7602" lon="5.77398">
        <ele>256</ele>
        <time>2017-05-25T17:17:07Z</time>
      </trkpt>
      <trkpt lat="45.76023" lon="5.77399">
        <ele>256</ele>
        <time>2017-05-25T17:17:07Z</time>
      </trkpt>
      <trkpt lat="45.76026" lon="5.77398">
        <ele>256</ele>
        <time>2017-05-25T17:17:23Z</time>
      </trkpt>
      <trkpt lat="45.76029" lon="5.77396">
        <ele>256</ele>
        <time>2017-05-25T17:17:23Z</time>
      </trkpt>
      <trkpt lat="45.76033" lon="5.77395">
        <ele>256</ele>
        <time>2017-05-25T17:17:23Z</time>
      </trkpt>
      <trkpt lat="45.76037" lon="5.77394">
        <ele>256</ele>
        <time>2017-05-25T17:17:23Z</time>
      </trkpt>
      <trkpt lat="45.7604" lon="5.77394">
        <ele>256</ele>
        <time>2017-05-25T17:17:43Z</time>
      </trkpt>
      <trkpt lat="45.76042" lon="5.77394">
        <ele>256</ele>
        <time>2017-05-25T17:17:43Z</time>
      </trkpt>
      <trkpt lat="45.76043" lon="5.77393">
        <ele>249</ele>
        <time>2017-05-25T17:17:43Z</time>
      </trkpt>
      <trkpt lat="45.76044" lon="5.77393">
        <ele>249</ele>
        <time>2017-05-25T17:17:43Z</time>
      </trkpt>
      <trkpt lat="45.76048" lon="5.7739">
        <ele>249</ele>
        <time>2017-05-25T17:17:43Z</time>
      </trkpt>
      <trkpt lat="45.76057" lon="5.77387">
        <ele>249</ele>
        <time>2017-05-25T17:17:59Z</time>
      </trkpt>
      <trkpt lat="45.76066" lon="5.77385">
        <ele>249</ele>
        <time>2017-05-25T17:17:59Z</time>
      </trkpt>
      <trkpt lat="45.76074" lon="5.77385">
        <ele>249</ele>
        <time>2017-05-25T17:17:59Z</time>
      </trkpt>
      <trkpt lat="45.76079" lon="5.77385">
        <ele>249</ele>
        <time>2017-05-25T17:17:59Z</time>
      </trkpt>
      <trkpt lat="45.76087" lon="5.77387">
        <ele>249</ele>
        <time>2017-05-25T17:18:15Z</time>
      </trkpt>
      <trkpt lat="45.76093" lon="5.77388">
        <ele>249</ele>
        <time>2017-05-25T17:18:15Z</time>
      </trkpt>
      <trkpt lat="45.76101" lon="5.7739">
        <ele>249</ele>
        <time>2017-05-25T17:18:15Z</time>
      </trkpt>
      <trkpt lat="45.76108" lon="5.77393">
        <ele>249</ele>
        <time>2017-05-25T17:18:15Z</time>
      </trkpt>
      <trkpt lat="45.76116" lon="5.77395">
        <ele>249</ele>
        <time>2017-05-25T17:18:31Z</time>
      </trkpt>
      <trkpt lat="45.76121" lon="5.77397">
        <ele>249</ele>
        <time>2017-05-25T17:18:31Z</time>
      </trkpt>
      <trkpt lat="45.76125" lon="5.77398">
        <ele>239</ele>
        <time>2017-05-25T17:18:31Z</time>
      </trkpt>
      <trkpt lat="45.7613" lon="5.77401">
        <ele>239</ele>
        <time>2017-05-25T17:18:31Z</time>
      </trkpt>
      <trkpt lat="45.76136" lon="5.77404">
        <ele>239</ele>
        <time>2017-05-25T17:18:47Z</time>
      </trkpt>
      <trkpt lat="45.7614" lon="5.77404">
        <ele>239</ele>
        <time>2017-05-25T17:18:47Z</time>
      </trkpt>
      <trkpt lat="45.76145" lon="5.77404">
        <ele>239</ele>
        <time>2017-05-25T17:18:47Z</time>
      </trkpt>
      <trkpt lat="45.7615" lon="5.77401">
        <ele>239</ele>
        <time>2017-05-25T17:18:47Z</time>
      </trkpt>
      <trkpt lat="45.76154" lon="5.77397">
        <ele>239</ele>
        <time>2017-05-25T17:19:03Z</time>
      </trkpt>
      <trkpt lat="45.76158" lon="5.77392">
        <ele>239</ele>
        <time>2017-05-25T17:19:03Z</time>
      </trkpt>
      <trkpt lat="45.76161" lon="5.77387">
        <ele>239</ele>
        <time>2017-05-25T17:19:03Z</time>
      </trkpt>
      <trkpt lat="45.76166" lon="5.77384">
        <ele>239</ele>
        <time>2017-05-25T17:19:03Z</time>
      </trkpt>
      <trkpt lat="45.76169" lon="5.7738">
        <ele>239</ele>
        <time>2017-05-25T17:19:19Z</time>
      </trkpt>
      <trkpt lat="45.76173" lon="5.77375">
        <ele>242</ele>
        <time>2017-05-25T17:19:19Z</time>
      </trkpt>
      <trkpt lat="45.76173" lon="5.77369">
        <ele>242</ele>
        <time>2017-05-25T17:19:19Z</time>
      </trkpt>
      <trkpt lat="45.76178" lon="5.77363">
        <ele>242</ele>
        <time>2017-05-25T17:19:19Z</time>
      </trkpt>
      <trkpt lat="45.76181" lon="5.77358">
        <ele>242</ele>
        <time>2017-05-25T17:19:35Z</time>
      </trkpt>
      <trkpt lat="45.76184" lon="5.77356">
        <ele>242</ele>
        <time>2017-05-25T17:19:35Z</time>
      </trkpt>
      <trkpt lat="45.76192" lon="5.77355">
        <ele>242</ele>
        <time>2017-05-25T17:19:35Z</time>
      </trkpt>
      <trkpt lat="45.76196" lon="5.77356">
        <ele>242</ele>
        <time>2017-05-25T17:19:35Z</time>
      </trkpt>
      <trkpt lat="45.76202" lon="5.77361">
        <ele>242</ele>
        <time>2017-05-25T17:20:23Z</time>
      </trkpt>
      <trkpt lat="45.76204" lon="5.77363">
        <ele>242</ele>
        <time>2017-05-25T17:20:23Z</time>
      </trkpt>
      <trkpt lat="45.7621" lon="5.77366">
        <ele>252</ele>
        <time>2017-05-25T17:20:23Z</time>
      </trkpt>
      <trkpt lat="45.76212" lon="5.77369">
        <ele>252</ele>
        <time>2017-05-25T17:20:23Z</time>
      </trkpt>
      <trkpt lat="45.76216" lon="5.77373">
        <ele>252</ele>
        <time>2017-05-25T17:20:23Z</time>
      </trkpt>
      <trkpt lat="45.76218" lon="5.77378">
        <ele>242</ele>
        <time>2017-05-25T17:20:39Z</time>
      </trkpt>
      <trkpt lat="45.7622" lon="5.77383">
        <ele>242</ele>
        <time>2017-05-25T17:20:39Z</time>
      </trkpt>
      <trkpt lat="45.76223" lon="5.77386">
        <ele>242</ele>
        <time>2017-05-25T17:20:39Z</time>
      </trkpt>
      <trkpt lat="45.76225" lon="5.77391">
        <ele>242</ele>
        <time>2017-05-25T17:20:39Z</time>
      </trkpt>
      <trkpt lat="45.76228" lon="5.77395">
        <ele>242</ele>
        <time>2017-05-25T17:20:55Z</time>
      </trkpt>
      <trkpt lat="45.76231" lon="5.77397">
        <ele>242</ele>
        <time>2017-05-25T17:20:55Z</time>
      </trkpt>
      <trkpt lat="45.76233" lon="5.77399">
        <ele>242</ele>
        <time>2017-05-25T17:20:55Z</time>
      </trkpt>
      <trkpt lat="45.76236" lon="5.77404">
        <ele>242</ele>
        <time>2017-05-25T17:20:55Z</time>
      </trkpt>
      <trkpt lat="45.76239" lon="5.77407">
        <ele>242</ele>
        <time>2017-05-25T17:21:11Z</time>
      </trkpt>
      <trkpt lat="45.76243" lon="5.77412">
        <ele>242</ele>
        <time>2017-05-25T17:21:11Z</time>
      </trkpt>
      <trkpt lat="45.76246" lon="5.77417">
        <ele>242</ele>
        <time>2017-05-25T17:21:11Z</time>
      </trkpt>
      <trkpt lat="45.7625" lon="5.77426">
        <ele>242</ele>
        <time>2017-05-25T17:21:11Z</time>
      </trkpt>
      <trkpt lat="45.76253" lon="5.77434">
        <ele>242</ele>
        <time>2017-05-25T17:21:27Z</time>
      </trkpt>
      <trkpt lat="45.76256" lon="5.77441">
        <ele>242</ele>
        <time>2017-05-25T17:21:27Z</time>
      </trkpt>
      <trkpt lat="45.76259" lon="5.77447">
        <ele>242</ele>
        <time>2017-05-25T17:21:27Z</time>
      </trkpt>
      <trkpt lat="45.76264" lon="5.77452">
        <ele>242</ele>
        <time>2017-05-25T17:21:27Z</time>
      </trkpt>
      <trkpt lat="45.76271" lon="5.77453">
        <ele>242</ele>
        <time>2017-05-25T17:22:27Z</time>
      </trkpt>
      <trkpt lat="45.76271" lon="5.77452">
        <ele>242</ele>
        <time>2017-05-25T17:22:27Z</time>
      </trkpt>
      <trkpt lat="45.76273" lon="5.77453">
        <ele>242</ele>
        <time>2017-05-25T17:22:27Z</time>
      </trkpt>
      <trkpt lat="45.76276" lon="5.77455">
        <ele>242</ele>
        <time>2017-05-25T17:22:27Z</time>
      </trkpt>
      <trkpt lat="45.76279" lon="5.77459">
        <ele>240</ele>
        <time>2017-05-25T17:22:27Z</time>
      </trkpt>
      <trkpt lat="45.76285" lon="5.77459">
        <ele>240</ele>
        <time>2017-05-25T17:23:19Z</time>
      </trkpt>
      <trkpt lat="45.76288" lon="5.77457">
        <ele>242</ele>
        <time>2017-05-25T17:23:19Z</time>
      </trkpt>
      <trkpt lat="45.76289" lon="5.77456">
        <ele>242</ele>
        <time>2017-05-25T17:23:19Z</time>
      </trkpt>
      <trkpt lat="45.76289" lon="5.77454">
        <ele>242</ele>
        <time>2017-05-25T17:23:19Z</time>
      </trkpt>
      <trkpt lat="45.7629" lon="5.77451">
        <ele>242</ele>
        <time>2017-05-25T17:23:19Z</time>
      </trkpt>
      <trkpt lat="45.76292" lon="5.77449">
        <ele>255</ele>
        <time>2017-05-25T17:23:39Z</time>
      </trkpt>
      <trkpt lat="45.76294" lon="5.77447">
        <ele>255</ele>
        <time>2017-05-25T17:23:39Z</time>
      </trkpt>
      <trkpt lat="45.76295" lon="5.77445">
        <ele>255</ele>
        <time>2017-05-25T17:23:39Z</time>
      </trkpt>
      <trkpt lat="45.76296" lon="5.7744">
        <ele>255</ele>
        <time>2017-05-25T17:23:39Z</time>
      </trkpt>
      <trkpt lat="45.76297" lon="5.77436">
        <ele>255</ele>
        <time>2017-05-25T17:23:39Z</time>
      </trkpt>
      <trkpt lat="45.763" lon="5.77431">
        <ele>255</ele>
        <time>2017-05-25T17:24:11Z</time>
      </trkpt>
      <trkpt lat="45.76302" lon="5.77429">
        <ele>255</ele>
        <time>2017-05-25T17:24:11Z</time>
      </trkpt>
      <trkpt lat="45.76304" lon="5.77429">
        <ele>255</ele>
        <time>2017-05-25T17:24:11Z</time>
      </trkpt>
      <trkpt lat="45.76305" lon="5.77429">
        <ele>255</ele>
        <time>2017-05-25T17:24:11Z</time>
      </trkpt>
      <trkpt lat="45.76305" lon="5.77428">
        <ele>255</ele>
        <time>2017-05-25T17:24:11Z</time>
      </trkpt>
      <trkpt lat="45.76314" lon="5.77427">
        <ele>255</ele>
        <time>2017-05-25T17:25:11Z</time>
      </trkpt>
      <trkpt lat="45.76314" lon="5.77427">
        <ele>255</ele>
        <time>2017-05-25T17:25:11Z</time>
      </trkpt>
      <trkpt lat="45.76315" lon="5.77427">
        <ele>255</ele>
        <time>2017-05-25T17:25:11Z</time>
      </trkpt>
      <trkpt lat="45.76316" lon="5.77427">
        <ele>255</ele>
        <time>2017-05-25T17:25:11Z</time>
      </trkpt>
      <trkpt lat="45.76316" lon="5.77427">
        <ele>255</ele>
        <time>2017-05-25T17:25:11Z</time>
      </trkpt>
      <trkpt lat="45.76319" lon="5.77427">
        <ele>255</ele>
        <time>2017-05-25T17:26:03Z</time>
      </trkpt>
      <trkpt lat="45.76318" lon="5.77432">
        <ele>255</ele>
        <time>2017-05-25T17:26:03Z</time>
      </trkpt>
      <trkpt lat="45.76317" lon="5.77439">
        <ele>255</ele>
        <time>2017-05-25T17:26:03Z</time>
      </trkpt>
      <trkpt lat="45.76317" lon="5.77443">
        <ele>255</ele>
        <time>2017-05-25T17:26:03Z</time>
      </trkpt>
      <trkpt lat="45.76319" lon="5.7745">
        <ele>255</ele>
        <time>2017-05-25T17:26:03Z</time>
      </trkpt>
      <trkpt lat="45.7632" lon="5.77454">
        <ele>255</ele>
        <time>2017-05-25T17:26:23Z</time>
      </trkpt>
      <trkpt lat="45.7632" lon="5.77456">
        <ele>255</ele>
        <time>2017-05-25T17:26:23Z</time>
      </trkpt>
      <trkpt lat="45.76322" lon="5.77459">
        <ele>251</ele>
        <time>2017-05-25T17:26:23Z</time>
      </trkpt>
      <trkpt lat="45.76324" lon="5.77464">
        <ele>251</ele>
        <time>2017-05-25T17:26:23Z</time>
      </trkpt>
      <trkpt lat="45.76326" lon="5.77469">
        <ele>251</ele>
        <time>2017-05-25T17:26:23Z</time>
      </trkpt>
      <trkpt lat="45.7633" lon="5.77473">
        <ele>251</ele>
        <time>2017-05-25T17:26:43Z</time>
      </trkpt>
      <trkpt lat="45.76331" lon="5.77479">
        <ele>251</ele>
        <time>2017-05-25T17:26:43Z</time>
      </trkpt>
      <trkpt lat="45.76332" lon="5.77483">
        <ele>251</ele>
        <time>2017-05-25T17:26:43Z</time>
      </trkpt>
      <trkpt lat="45.76332" lon="5.77484">
        <ele>251</ele>
        <time>2017-05-25T17:26:43Z</time>
      </trkpt>
      <trkpt lat="45.76331" lon="5.77486">
        <ele>251</ele>
        <time>2017-05-25T17:26:43Z</time>
      </trkpt>
    </trkseg>
  </trk>
</gpx>